<?xml version="1.0" encoding="UTF-8" standalone="no" ?>
<gpx xmlns="http://www.topografix.com/GPX/1/1" xmlns:xsi="http://www.w3.org/2001/XMLSchema-instance" xsi:schemaLocation="http://www.topografix.com/GPX/1/1 http://www.topografix.com/GPX/1/1/gpx.xsd" version="1.1" creator="VisuGPX - https://www.visugpx.com">
  <metadata>
    <name>Rallye VTT XC PO 2025 Complet Dimanche</name>
  </metadata>
  <trk>
    <name><![CDATA[Rallye VTT XC PO 2025 Dimanche]]></name>
    <extensions>
      <line xmlns="http://www.topografix.com/GPX/gpx_style/0/2">
        <color>0000FF</color>
        <opacity>1</opacity>
        <width>4</width>
          <extensions>
            <sens>1</sens>
          </extensions>
      </line>
    </extensions>
    <trkseg>
      <trkpt lat="44.22007" lon="4.47976">
        <ele>77.3</ele>
        <time>2024-08-31T07:20:11.709Z</time>
      </trkpt>
      <trkpt lat="44.22046" lon="4.47894">
        <ele>77.6</ele>
        <time>2024-08-31T07:20:51.534Z</time>
      </trkpt>
      <trkpt lat="44.21821" lon="4.47644">
        <ele>77.6</ele>
        <time>2024-08-31T07:23:33.942Z</time>
      </trkpt>
      <trkpt lat="44.21744" lon="4.47488">
        <ele>77.4</ele>
        <time>2024-08-31T07:24:50.596Z</time>
      </trkpt>
      <trkpt lat="44.2164" lon="4.4724">
        <ele>77</ele>
        <time>2024-08-31T07:26:46.878Z</time>
      </trkpt>
      <trkpt lat="44.21645" lon="4.47059">
        <ele>76.2</ele>
        <time>2024-08-31T07:28:00.182Z</time>
      </trkpt>
      <trkpt lat="44.2164" lon="4.4703">
        <ele>76.9</ele>
        <time>2024-08-31T07:28:12.252Z</time>
      </trkpt>
      <trkpt lat="44.21531" lon="4.46812">
        <ele>76.8</ele>
        <time>2024-08-31T07:29:59.824Z</time>
      </trkpt>
      <trkpt lat="44.2143" lon="4.46733">
        <ele>78.6</ele>
        <time>2024-08-31T07:31:05.205Z</time>
      </trkpt>
      <trkpt lat="44.21447" lon="4.46709">
        <ele>79.8</ele>
        <time>2024-08-31T07:31:18.861Z</time>
      </trkpt>
      <trkpt lat="44.21455" lon="4.46685">
        <ele>80.9</ele>
        <time>2024-08-31T07:31:29.573Z</time>
      </trkpt>
      <trkpt lat="44.21454" lon="4.46659">
        <ele>82.9</ele>
        <time>2024-08-31T07:31:40.110Z</time>
      </trkpt>
      <trkpt lat="44.2144" lon="4.46561">
        <ele>90.2</ele>
        <time>2024-08-31T07:32:20.551Z</time>
      </trkpt>
      <trkpt lat="44.2144" lon="4.46552">
        <ele>91.1</ele>
        <time>2024-08-31T07:32:24.193Z</time>
      </trkpt>
      <trkpt lat="44.2143" lon="4.46537">
        <ele>92.7</ele>
        <time>2024-08-31T07:32:32.483Z</time>
      </trkpt>
      <trkpt lat="44.21429" lon="4.46537">
        <ele>92.6</ele>
        <time>2024-08-31T07:32:33.049Z</time>
      </trkpt>
      <trkpt lat="44.21428" lon="4.46533">
        <ele>93.3</ele>
        <time>2024-08-31T07:32:34.762Z</time>
      </trkpt>
      <trkpt lat="44.21424" lon="4.46518">
        <ele>95.4</ele>
        <time>2024-08-31T07:32:41.239Z</time>
      </trkpt>
      <trkpt lat="44.21419" lon="4.46484">
        <ele>99.7</ele>
        <time>2024-08-31T07:32:55.285Z</time>
      </trkpt>
      <trkpt lat="44.21409" lon="4.4643">
        <ele>102</ele>
        <time>2024-08-31T07:33:17.857Z</time>
      </trkpt>
      <trkpt lat="44.21399" lon="4.46406">
        <ele>103</ele>
        <time>2024-08-31T07:33:29.092Z</time>
      </trkpt>
      <trkpt lat="44.21395" lon="4.46386">
        <ele>105.5</ele>
        <time>2024-08-31T07:33:37.495Z</time>
      </trkpt>
      <trkpt lat="44.21398" lon="4.4633">
        <ele>110.3</ele>
        <time>2024-08-31T07:34:00.222Z</time>
      </trkpt>
      <trkpt lat="44.21396" lon="4.46294">
        <ele>113.3</ele>
        <time>2024-08-31T07:34:14.835Z</time>
      </trkpt>
      <trkpt lat="44.21396" lon="4.46235">
        <ele>118.5</ele>
        <time>2024-08-31T07:34:38.713Z</time>
      </trkpt>
      <trkpt lat="44.21401" lon="4.46209">
        <ele>121</ele>
        <time>2024-08-31T07:34:49.607Z</time>
      </trkpt>
      <trkpt lat="44.21391" lon="4.46059">
        <ele>134.6</ele>
        <time>2024-08-31T07:35:50.576Z</time>
      </trkpt>
      <trkpt lat="44.21389" lon="4.46022">
        <ele>136.4</ele>
        <time>2024-08-31T07:36:05.593Z</time>
      </trkpt>
      <trkpt lat="44.21398" lon="4.45952">
        <ele>140.6</ele>
        <time>2024-08-31T07:36:34.375Z</time>
      </trkpt>
      <trkpt lat="44.21397" lon="4.45901">
        <ele>143.9</ele>
        <time>2024-08-31T07:36:55.023Z</time>
      </trkpt>
      <trkpt lat="44.21383" lon="4.45828">
        <ele>149</ele>
        <time>2024-08-31T07:37:25.606Z</time>
      </trkpt>
      <trkpt lat="44.21379" lon="4.45787">
        <ele>152.2</ele>
        <time>2024-08-31T07:37:42.352Z</time>
      </trkpt>
      <trkpt lat="44.21392" lon="4.45748">
        <ele>153.2</ele>
        <time>2024-08-31T07:37:59.759Z</time>
      </trkpt>
      <trkpt lat="44.21411" lon="4.45722">
        <ele>156.5</ele>
        <time>2024-08-31T07:38:14.786Z</time>
      </trkpt>
      <trkpt lat="44.21448" lon="4.45712">
        <ele>160</ele>
        <time>2024-08-31T07:38:36.066Z</time>
      </trkpt>
      <trkpt lat="44.21485" lon="4.45705">
        <ele>162.7</ele>
        <time>2024-08-31T07:38:57.149Z</time>
      </trkpt>
      <trkpt lat="44.21536" lon="4.45613">
        <ele>169.2</ele>
        <time>2024-08-31T07:39:44.219Z</time>
      </trkpt>
      <trkpt lat="44.21566" lon="4.45537">
        <ele>173.6</ele>
        <time>2024-08-31T07:40:19.332Z</time>
      </trkpt>
      <trkpt lat="44.2157" lon="4.45489">
        <ele>176.6</ele>
        <time>2024-08-31T07:40:38.888Z</time>
      </trkpt>
      <trkpt lat="44.21578" lon="4.45445">
        <ele>178</ele>
        <time>2024-08-31T07:40:57.258Z</time>
      </trkpt>
      <trkpt lat="44.21561" lon="4.45382">
        <ele>181.9</ele>
        <time>2024-08-31T07:41:24.501Z</time>
      </trkpt>
      <trkpt lat="44.21548" lon="4.45354">
        <ele>183.8</ele>
        <time>2024-08-31T07:41:38.002Z</time>
      </trkpt>
      <trkpt lat="44.21522" lon="4.45336">
        <ele>186.1</ele>
        <time>2024-08-31T07:41:54.391Z</time>
      </trkpt>
      <trkpt lat="44.21484" lon="4.45288">
        <ele>190</ele>
        <time>2024-08-31T07:42:23.335Z</time>
      </trkpt>
      <trkpt lat="44.21474" lon="4.45236">
        <ele>196</ele>
        <time>2024-08-31T07:42:45.124Z</time>
      </trkpt>
      <trkpt lat="44.21455" lon="4.45193">
        <ele>199.3</ele>
        <time>2024-08-31T07:43:05.567Z</time>
      </trkpt>
      <trkpt lat="44.21452" lon="4.45174">
        <ele>200.5</ele>
        <time>2024-08-31T07:43:13.440Z</time>
      </trkpt>
      <trkpt lat="44.21468" lon="4.45108">
        <ele>207.2</ele>
        <time>2024-08-31T07:43:41.637Z</time>
      </trkpt>
      <trkpt lat="44.21454" lon="4.45057">
        <ele>211.5</ele>
        <time>2024-08-31T07:44:03.739Z</time>
      </trkpt>
      <trkpt lat="44.21435" lon="4.45025">
        <ele>214.9</ele>
        <time>2024-08-31T07:44:20.556Z</time>
      </trkpt>
      <trkpt lat="44.21429" lon="4.4501">
        <ele>216.4</ele>
        <time>2024-08-31T07:44:27.508Z</time>
      </trkpt>
      <trkpt lat="44.21397" lon="4.4498">
        <ele>220.9</ele>
        <time>2024-08-31T07:44:49.277Z</time>
      </trkpt>
      <trkpt lat="44.21362" lon="4.44947">
        <ele>225.7</ele>
        <time>2024-08-31T07:45:13.129Z</time>
      </trkpt>
      <trkpt lat="44.21355" lon="4.44923">
        <ele>227.3</ele>
        <time>2024-08-31T07:45:23.615Z</time>
      </trkpt>
      <trkpt lat="44.2138" lon="4.44832">
        <ele>236.9</ele>
        <time>2024-08-31T07:46:03.056Z</time>
      </trkpt>
      <trkpt lat="44.21391" lon="4.44792">
        <ele>240.3</ele>
        <time>2024-08-31T07:46:20.395Z</time>
      </trkpt>
      <trkpt lat="44.21381" lon="4.44722">
        <ele>243.9</ele>
        <time>2024-08-31T07:46:49.282Z</time>
      </trkpt>
      <trkpt lat="44.21358" lon="4.44682">
        <ele>244.8</ele>
        <time>2024-08-31T07:47:10.036Z</time>
      </trkpt>
      <trkpt lat="44.21343" lon="4.44653">
        <ele>244.7</ele>
        <time>2024-08-31T07:47:24.509Z</time>
      </trkpt>
      <trkpt lat="44.21363" lon="4.44604">
        <ele>243</ele>
        <time>2024-08-31T07:47:47.330Z</time>
      </trkpt>
      <trkpt lat="44.21375" lon="4.44587">
        <ele>243</ele>
        <time>2024-08-31T07:47:56.986Z</time>
      </trkpt>
      <trkpt lat="44.21405" lon="4.44571">
        <ele>243.3</ele>
        <time>2024-08-31T07:48:15.121Z</time>
      </trkpt>
      <trkpt lat="44.21423" lon="4.44554">
        <ele>244.2</ele>
        <time>2024-08-31T07:48:27.394Z</time>
      </trkpt>
      <trkpt lat="44.21434" lon="4.44491">
        <ele>245.5</ele>
        <time>2024-08-31T07:48:53.636Z</time>
      </trkpt>
      <trkpt lat="44.21505" lon="4.44355">
        <ele>250.2</ele>
        <time>2024-08-31T07:50:01.729Z</time>
      </trkpt>
      <trkpt lat="44.21547" lon="4.44285">
        <ele>253.2</ele>
        <time>2024-08-31T07:50:38.674Z</time>
      </trkpt>
      <trkpt lat="44.21562" lon="4.44249">
        <ele>254.3</ele>
        <time>2024-08-31T07:50:55.526Z</time>
      </trkpt>
      <trkpt lat="44.21564" lon="4.44206">
        <ele>255.9</ele>
        <time>2024-08-31T07:51:12.964Z</time>
      </trkpt>
      <trkpt lat="44.21597" lon="4.44142">
        <ele>258.5</ele>
        <time>2024-08-31T07:51:44.871Z</time>
      </trkpt>
      <trkpt lat="44.21631" lon="4.44109">
        <ele>259</ele>
        <time>2024-08-31T07:52:08.257Z</time>
      </trkpt>
      <trkpt lat="44.21664" lon="4.44076">
        <ele>258.1</ele>
        <time>2024-08-31T07:52:31.182Z</time>
      </trkpt>
      <trkpt lat="44.21658" lon="4.44048">
        <ele>257.9</ele>
        <time>2024-08-31T07:52:43.009Z</time>
      </trkpt>
      <trkpt lat="44.21651" lon="4.44027">
        <ele>257.4</ele>
        <time>2024-08-31T07:52:52.381Z</time>
      </trkpt>
      <trkpt lat="44.21667" lon="4.43945">
        <ele>259</ele>
        <time>2024-08-31T07:53:26.773Z</time>
      </trkpt>
      <trkpt lat="44.21671" lon="4.43893">
        <ele>259.8</ele>
        <time>2024-08-31T07:53:47.938Z</time>
      </trkpt>
      <trkpt lat="44.21674" lon="4.43852">
        <ele>259.7</ele>
        <time>2024-08-31T07:54:04.616Z</time>
      </trkpt>
      <trkpt lat="44.2163" lon="4.43774">
        <ele>263.4</ele>
        <time>2024-08-31T07:54:44.787Z</time>
      </trkpt>
      <trkpt lat="44.21618" lon="4.43737">
        <ele>264.9</ele>
        <time>2024-08-31T07:55:01.222Z</time>
      </trkpt>
      <trkpt lat="44.21603" lon="4.4373">
        <ele>265.7</ele>
        <time>2024-08-31T07:55:10.153Z</time>
      </trkpt>
      <trkpt lat="44.21566" lon="4.43678">
        <ele>267</ele>
        <time>2024-08-31T07:55:39.807Z</time>
      </trkpt>
      <trkpt lat="44.21547" lon="4.43646">
        <ele>265.7</ele>
        <time>2024-08-31T07:55:56.624Z</time>
      </trkpt>
      <trkpt lat="44.21544" lon="4.43622">
        <ele>266.1</ele>
        <time>2024-08-31T07:56:06.483Z</time>
      </trkpt>
      <trkpt lat="44.21415" lon="4.43386">
        <ele>274.4</ele>
        <time>2024-08-31T07:58:06.600Z</time>
      </trkpt>
      <trkpt lat="44.21377" lon="4.43335">
        <ele>279</ele>
        <time>2024-08-31T07:58:36.372Z</time>
      </trkpt>
      <trkpt lat="44.21297" lon="4.43268">
        <ele>285.9</ele>
        <time>2024-08-31T07:59:29.058Z</time>
      </trkpt>
      <trkpt lat="44.21249" lon="4.43255">
        <ele>290.9</ele>
        <time>2024-08-31T07:59:56.667Z</time>
      </trkpt>
      <trkpt lat="44.2115" lon="4.43202">
        <ele>304.2</ele>
        <time>2024-08-31T08:00:56.542Z</time>
      </trkpt>
      <trkpt lat="44.21074" lon="4.43163">
        <ele>312.5</ele>
        <time>2024-08-31T08:01:42.266Z</time>
      </trkpt>
      <trkpt lat="44.21038" lon="4.43172">
        <ele>315.1</ele>
        <time>2024-08-31T08:02:02.917Z</time>
      </trkpt>
      <trkpt lat="44.20958" lon="4.43198">
        <ele>318.9</ele>
        <time>2024-08-31T08:02:49.299Z</time>
      </trkpt>
      <trkpt lat="44.20927" lon="4.43238">
        <ele>322.8</ele>
        <time>2024-08-31T08:03:13.142Z</time>
      </trkpt>
      <trkpt lat="44.2092" lon="4.43262">
        <ele>324</ele>
        <time>2024-08-31T08:03:23.629Z</time>
      </trkpt>
      <trkpt lat="44.20926" lon="4.43303">
        <ele>326.2</ele>
        <time>2024-08-31T08:03:40.565Z</time>
      </trkpt>
      <trkpt lat="44.20917" lon="4.43328">
        <ele>326.8</ele>
        <time>2024-08-31T08:03:51.888Z</time>
      </trkpt>
      <trkpt lat="44.20844" lon="4.4338">
        <ele>326.1</ele>
        <time>2024-08-31T08:04:38.170Z</time>
      </trkpt>
      <trkpt lat="44.2078" lon="4.43412">
        <ele>325.9</ele>
        <time>2024-08-31T08:05:16.559Z</time>
      </trkpt>
      <trkpt lat="44.2076" lon="4.43438">
        <ele>326.3</ele>
        <time>2024-08-31T08:05:31.995Z</time>
      </trkpt>
      <trkpt lat="44.20717" lon="4.43451">
        <ele>326.4</ele>
        <time>2024-08-31T08:05:56.838Z</time>
      </trkpt>
      <trkpt lat="44.20691" lon="4.43453">
        <ele>327.1</ele>
        <time>2024-08-31T08:06:11.541Z</time>
      </trkpt>
      <trkpt lat="44.20657" lon="4.43451">
        <ele>328</ele>
        <time>2024-08-31T08:06:30.756Z</time>
      </trkpt>
      <trkpt lat="44.20621" lon="4.43449">
        <ele>327.5</ele>
        <time>2024-08-31T08:06:51.099Z</time>
      </trkpt>
      <trkpt lat="44.20583" lon="4.43434">
        <ele>327.6</ele>
        <time>2024-08-31T08:07:13.398Z</time>
      </trkpt>
      <trkpt lat="44.20576" lon="4.43433">
        <ele>327.6</ele>
        <time>2024-08-31T08:07:17.371Z</time>
      </trkpt>
      <trkpt lat="44.20574" lon="4.43426">
        <ele>327.3</ele>
        <time>2024-08-31T08:07:20.420Z</time>
      </trkpt>
      <trkpt lat="44.20571" lon="4.43419">
        <ele>327.1</ele>
        <time>2024-08-31T08:07:23.720Z</time>
      </trkpt>
      <trkpt lat="44.20561" lon="4.43395">
        <ele>325.6</ele>
        <time>2024-08-31T08:07:34.956Z</time>
      </trkpt>
      <trkpt lat="44.20531" lon="4.43358">
        <ele>324</ele>
        <time>2024-08-31T08:07:57.566Z</time>
      </trkpt>
      <trkpt lat="44.20503" lon="4.43262">
        <ele>320.5</ele>
        <time>2024-08-31T08:08:39.517Z</time>
      </trkpt>
      <trkpt lat="44.2049" lon="4.43169">
        <ele>315.7</ele>
        <time>2024-08-31T08:09:17.870Z</time>
      </trkpt>
      <trkpt lat="44.2048" lon="4.43117">
        <ele>314.1</ele>
        <time>2024-08-31T08:09:39.662Z</time>
      </trkpt>
      <trkpt lat="44.20466" lon="4.4308">
        <ele>313.9</ele>
        <time>2024-08-31T08:09:56.596Z</time>
      </trkpt>
      <trkpt lat="44.2045" lon="4.43026">
        <ele>312.7</ele>
        <time>2024-08-31T08:10:20.247Z</time>
      </trkpt>
      <trkpt lat="44.20417" lon="4.42973">
        <ele>312</ele>
        <time>2024-08-31T08:10:48.662Z</time>
      </trkpt>
      <trkpt lat="44.20406" lon="4.42917">
        <ele>312.6</ele>
        <time>2024-08-31T08:11:12.165Z</time>
      </trkpt>
      <trkpt lat="44.20381" lon="4.42853">
        <ele>312.7</ele>
        <time>2024-08-31T08:11:41.667Z</time>
      </trkpt>
      <trkpt lat="44.20369" lon="4.42827">
        <ele>313.4</ele>
        <time>2024-08-31T08:11:54.184Z</time>
      </trkpt>
      <trkpt lat="44.20361" lon="4.42775">
        <ele>312.9</ele>
        <time>2024-08-31T08:12:15.712Z</time>
      </trkpt>
      <trkpt lat="44.20369" lon="4.42743">
        <ele>311.3</ele>
        <time>2024-08-31T08:12:29.430Z</time>
      </trkpt>
      <trkpt lat="44.20386" lon="4.42717">
        <ele>309.3</ele>
        <time>2024-08-31T08:12:43.674Z</time>
      </trkpt>
      <trkpt lat="44.20416" lon="4.42676">
        <ele>307.6</ele>
        <time>2024-08-31T08:13:07.388Z</time>
      </trkpt>
      <trkpt lat="44.20436" lon="4.42621">
        <ele>305.3</ele>
        <time>2024-08-31T08:13:32.351Z</time>
      </trkpt>
      <trkpt lat="44.20446" lon="4.42579">
        <ele>302.9</ele>
        <time>2024-08-31T08:13:50.264Z</time>
      </trkpt>
      <trkpt lat="44.2044" lon="4.42547">
        <ele>301.8</ele>
        <time>2024-08-31T08:14:03.652Z</time>
      </trkpt>
      <trkpt lat="44.20459" lon="4.425">
        <ele>301.5</ele>
        <time>2024-08-31T08:14:25.493Z</time>
      </trkpt>
      <trkpt lat="44.20487" lon="4.42441">
        <ele>300.5</ele>
        <time>2024-08-31T08:14:54.134Z</time>
      </trkpt>
      <trkpt lat="44.20506" lon="4.42412">
        <ele>299.1</ele>
        <time>2024-08-31T08:15:10.036Z</time>
      </trkpt>
      <trkpt lat="44.20524" lon="4.42327">
        <ele>298.5</ele>
        <time>2024-08-31T08:15:45.911Z</time>
      </trkpt>
      <trkpt lat="44.20542" lon="4.42293">
        <ele>298.5</ele>
        <time>2024-08-31T08:16:03.019Z</time>
      </trkpt>
      <trkpt lat="44.2054" lon="4.42231">
        <ele>299.3</ele>
        <time>2024-08-31T08:16:28.140Z</time>
      </trkpt>
      <trkpt lat="44.20541" lon="4.42136">
        <ele>297.5</ele>
        <time>2024-08-31T08:17:06.597Z</time>
      </trkpt>
      <trkpt lat="44.20549" lon="4.42071">
        <ele>297.8</ele>
        <time>2024-08-31T08:17:33.292Z</time>
      </trkpt>
      <trkpt lat="44.20566" lon="4.42044">
        <ele>298.5</ele>
        <time>2024-08-31T08:17:47.837Z</time>
      </trkpt>
      <trkpt lat="44.20577" lon="4.42009">
        <ele>298.2</ele>
        <time>2024-08-31T08:18:03.305Z</time>
      </trkpt>
      <trkpt lat="44.20611" lon="4.41969">
        <ele>295</ele>
        <time>2024-08-31T08:18:28.419Z</time>
      </trkpt>
      <trkpt lat="44.20641" lon="4.41897">
        <ele>293.5</ele>
        <time>2024-08-31T08:19:02.127Z</time>
      </trkpt>
      <trkpt lat="44.20671" lon="4.41864">
        <ele>294.3</ele>
        <time>2024-08-31T08:19:23.699Z</time>
      </trkpt>
      <trkpt lat="44.20697" lon="4.41837">
        <ele>295.4</ele>
        <time>2024-08-31T08:19:42.001Z</time>
      </trkpt>
      <trkpt lat="44.20723" lon="4.41771">
        <ele>297.6</ele>
        <time>2024-08-31T08:20:12.483Z</time>
      </trkpt>
      <trkpt lat="44.2077" lon="4.41659">
        <ele>301.4</ele>
        <time>2024-08-31T08:21:05.012Z</time>
      </trkpt>
      <trkpt lat="44.2082" lon="4.41582">
        <ele>304</ele>
        <time>2024-08-31T08:21:47.064Z</time>
      </trkpt>
      <trkpt lat="44.20849" lon="4.41548">
        <ele>304.8</ele>
        <time>2024-08-31T08:22:08.453Z</time>
      </trkpt>
      <trkpt lat="44.20959" lon="4.41503">
        <ele>308.6</ele>
        <time>2024-08-31T08:23:13.180Z</time>
      </trkpt>
      <trkpt lat="44.21002" lon="4.41468">
        <ele>310.2</ele>
        <time>2024-08-31T08:23:41.290Z</time>
      </trkpt>
      <trkpt lat="44.21043" lon="4.41407">
        <ele>309.3</ele>
        <time>2024-08-31T08:24:15.135Z</time>
      </trkpt>
      <trkpt lat="44.21107" lon="4.4133">
        <ele>303.6</ele>
        <time>2024-08-31T08:25:02.855Z</time>
      </trkpt>
      <trkpt lat="44.2117" lon="4.4128">
        <ele>298</ele>
        <time>2024-08-31T08:25:43.781Z</time>
      </trkpt>
      <trkpt lat="44.21228" lon="4.41245">
        <ele>295.2</ele>
        <time>2024-08-31T08:26:19.463Z</time>
      </trkpt>
      <trkpt lat="44.21256" lon="4.41215">
        <ele>291.8</ele>
        <time>2024-08-31T08:26:39.397Z</time>
      </trkpt>
      <trkpt lat="44.2131" lon="4.41186">
        <ele>288.3</ele>
        <time>2024-08-31T08:27:12.069Z</time>
      </trkpt>
      <trkpt lat="44.21332" lon="4.41161">
        <ele>287.3</ele>
        <time>2024-08-31T08:27:28.090Z</time>
      </trkpt>
      <trkpt lat="44.21378" lon="4.4112">
        <ele>285.7</ele>
        <time>2024-08-31T08:27:58.912Z</time>
      </trkpt>
      <trkpt lat="44.21456" lon="4.41108">
        <ele>290.3</ele>
        <time>2024-08-31T08:28:43.222Z</time>
      </trkpt>
      <trkpt lat="44.21501" lon="4.41112">
        <ele>294.2</ele>
        <time>2024-08-31T08:29:08.683Z</time>
      </trkpt>
      <trkpt lat="44.21533" lon="4.41099">
        <ele>296.5</ele>
        <time>2024-08-31T08:29:27.502Z</time>
      </trkpt>
      <trkpt lat="44.21612" lon="4.41073">
        <ele>300.3</ele>
        <time>2024-08-31T08:30:13.334Z</time>
      </trkpt>
      <trkpt lat="44.21681" lon="4.41069">
        <ele>303.5</ele>
        <time>2024-08-31T08:30:52.329Z</time>
      </trkpt>
      <trkpt lat="44.2175" lon="4.41065">
        <ele>307.3</ele>
        <time>2024-08-31T08:31:31.324Z</time>
      </trkpt>
      <trkpt lat="44.2179" lon="4.41063">
        <ele>309.2</ele>
        <time>2024-08-31T08:31:53.924Z</time>
      </trkpt>
      <trkpt lat="44.21838" lon="4.41052">
        <ele>309.9</ele>
        <time>2024-08-31T08:32:21.390Z</time>
      </trkpt>
      <trkpt lat="44.21853" lon="4.41056">
        <ele>310</ele>
        <time>2024-08-31T08:32:30.013Z</time>
      </trkpt>
      <trkpt lat="44.21889" lon="4.4102">
        <ele>307.7</ele>
        <time>2024-08-31T08:32:55.022Z</time>
      </trkpt>
      <trkpt lat="44.22049" lon="4.40964">
        <ele>303.9</ele>
        <time>2024-08-31T08:34:28.166Z</time>
      </trkpt>
      <trkpt lat="44.22085" lon="4.40951">
        <ele>302.1</ele>
        <time>2024-08-31T08:34:49.163Z</time>
      </trkpt>
      <trkpt lat="44.22145" lon="4.40966">
        <ele>299.8</ele>
        <time>2024-08-31T08:35:23.582Z</time>
      </trkpt>
      <trkpt lat="44.22189" lon="4.41144">
        <ele>310.8</ele>
        <time>2024-08-31T08:36:39.776Z</time>
      </trkpt>
      <trkpt lat="44.22216" lon="4.4123">
        <ele>315.5</ele>
        <time>2024-08-31T08:37:17.769Z</time>
      </trkpt>
      <trkpt lat="44.22248" lon="4.41193">
        <ele>316.8</ele>
        <time>2024-08-31T08:37:41.235Z</time>
      </trkpt>
      <trkpt lat="44.22267" lon="4.41153">
        <ele>315.3</ele>
        <time>2024-08-31T08:38:00.654Z</time>
      </trkpt>
      <trkpt lat="44.22288" lon="4.4114">
        <ele>314.6</ele>
        <time>2024-08-31T08:38:13.626Z</time>
      </trkpt>
      <trkpt lat="44.22312" lon="4.4108">
        <ele>310.8</ele>
        <time>2024-08-31T08:38:41.431Z</time>
      </trkpt>
      <trkpt lat="44.22359" lon="4.41082">
        <ele>307.4</ele>
        <time>2024-08-31T08:39:07.982Z</time>
      </trkpt>
      <trkpt lat="44.22438" lon="4.41105">
        <ele>299.6</ele>
        <time>2024-08-31T08:39:53.550Z</time>
      </trkpt>
      <trkpt lat="44.22541" lon="4.41243">
        <ele>281.7</ele>
        <time>2024-08-31T08:41:14.176Z</time>
      </trkpt>
      <trkpt lat="44.2257" lon="4.41294">
        <ele>276.5</ele>
        <time>2024-08-31T08:41:40.519Z</time>
      </trkpt>
      <trkpt lat="44.22584" lon="4.41365">
        <ele>268.6</ele>
        <time>2024-08-31T08:42:10.315Z</time>
      </trkpt>
      <trkpt lat="44.22628" lon="4.41457">
        <ele>257.6</ele>
        <time>2024-08-31T08:42:55.070Z</time>
      </trkpt>
      <trkpt lat="44.22668" lon="4.41507">
        <ele>249.2</ele>
        <time>2024-08-31T08:43:25.392Z</time>
      </trkpt>
      <trkpt lat="44.22725" lon="4.41539">
        <ele>245.9</ele>
        <time>2024-08-31T08:44:00.084Z</time>
      </trkpt>
      <trkpt lat="44.2277" lon="4.41584">
        <ele>242.9</ele>
        <time>2024-08-31T08:44:31.343Z</time>
      </trkpt>
      <trkpt lat="44.22801" lon="4.41608">
        <ele>237.9</ele>
        <time>2024-08-31T08:44:51.360Z</time>
      </trkpt>
      <trkpt lat="44.22844" lon="4.41625">
        <ele>234.7</ele>
        <time>2024-08-31T08:45:16.595Z</time>
      </trkpt>
      <trkpt lat="44.22867" lon="4.41642">
        <ele>231.2</ele>
        <time>2024-08-31T08:45:31.291Z</time>
      </trkpt>
      <trkpt lat="44.22884" lon="4.41657">
        <ele>229.8</ele>
        <time>2024-08-31T08:45:42.648Z</time>
      </trkpt>
      <trkpt lat="44.229" lon="4.4165">
        <ele>229.2</ele>
        <time>2024-08-31T08:45:52.116Z</time>
      </trkpt>
      <trkpt lat="44.22904" lon="4.41599">
        <ele>234.6</ele>
        <time>2024-08-31T08:46:12.874Z</time>
      </trkpt>
      <trkpt lat="44.22924" lon="4.41502">
        <ele>237.8</ele>
        <time>2024-08-31T08:46:53.713Z</time>
      </trkpt>
      <trkpt lat="44.22924" lon="4.41468">
        <ele>239.4</ele>
        <time>2024-08-31T08:47:07.469Z</time>
      </trkpt>
      <trkpt lat="44.22907" lon="4.41438">
        <ele>242</ele>
        <time>2024-08-31T08:47:22.944Z</time>
      </trkpt>
      <trkpt lat="44.22888" lon="4.4132">
        <ele>243.7</ele>
        <time>2024-08-31T08:48:11.878Z</time>
      </trkpt>
      <trkpt lat="44.2289" lon="4.41292">
        <ele>244.8</ele>
        <time>2024-08-31T08:48:23.263Z</time>
      </trkpt>
      <trkpt lat="44.22877" lon="4.41258">
        <ele>248.4</ele>
        <time>2024-08-31T08:48:38.855Z</time>
      </trkpt>
      <trkpt lat="44.22828" lon="4.41258">
        <ele>250</ele>
        <time>2024-08-31T08:49:06.523Z</time>
      </trkpt>
      <trkpt lat="44.2281" lon="4.41234">
        <ele>250.9</ele>
        <time>2024-08-31T08:49:20.580Z</time>
      </trkpt>
      <trkpt lat="44.22817" lon="4.412">
        <ele>253</ele>
        <time>2024-08-31T08:49:34.893Z</time>
      </trkpt>
      <trkpt lat="44.22799" lon="4.41161">
        <ele>253.5</ele>
        <time>2024-08-31T08:49:53.663Z</time>
      </trkpt>
      <trkpt lat="44.22776" lon="4.41127">
        <ele>255.4</ele>
        <time>2024-08-31T08:50:12.581Z</time>
      </trkpt>
      <trkpt lat="44.22782" lon="4.41084">
        <ele>257.6</ele>
        <time>2024-08-31T08:50:30.306Z</time>
      </trkpt>
      <trkpt lat="44.2279" lon="4.41063">
        <ele>259</ele>
        <time>2024-08-31T08:50:39.929Z</time>
      </trkpt>
      <trkpt lat="44.22761" lon="4.41">
        <ele>259.9</ele>
        <time>2024-08-31T08:51:10.226Z</time>
      </trkpt>
      <trkpt lat="44.22733" lon="4.40981">
        <ele>262.3</ele>
        <time>2024-08-31T08:51:27.806Z</time>
      </trkpt>
      <trkpt lat="44.22717" lon="4.40953">
        <ele>261.3</ele>
        <time>2024-08-31T08:51:42.296Z</time>
      </trkpt>
      <trkpt lat="44.22658" lon="4.40917">
        <ele>262.3</ele>
        <time>2024-08-31T08:52:18.656Z</time>
      </trkpt>
      <trkpt lat="44.22647" lon="4.40874">
        <ele>265.5</ele>
        <time>2024-08-31T08:52:37.130Z</time>
      </trkpt>
      <trkpt lat="44.22628" lon="4.40824">
        <ele>267.3</ele>
        <time>2024-08-31T08:53:00.030Z</time>
      </trkpt>
      <trkpt lat="44.22605" lon="4.40807">
        <ele>267.6</ele>
        <time>2024-08-31T08:53:14.726Z</time>
      </trkpt>
      <trkpt lat="44.22599" lon="4.4076">
        <ele>270.6</ele>
        <time>2024-08-31T08:53:34.043Z</time>
      </trkpt>
      <trkpt lat="44.22573" lon="4.4073">
        <ele>272.7</ele>
        <time>2024-08-31T08:53:53.092Z</time>
      </trkpt>
      <trkpt lat="44.22544" lon="4.40661">
        <ele>274.7</ele>
        <time>2024-08-31T08:54:25.459Z</time>
      </trkpt>
      <trkpt lat="44.22527" lon="4.40616">
        <ele>274.4</ele>
        <time>2024-08-31T08:54:46.042Z</time>
      </trkpt>
      <trkpt lat="44.22505" lon="4.40614">
        <ele>274.4</ele>
        <time>2024-08-31T08:54:58.490Z</time>
      </trkpt>
      <trkpt lat="44.22455" lon="4.40631">
        <ele>277.4</ele>
        <time>2024-08-31T08:55:27.548Z</time>
      </trkpt>
      <trkpt lat="44.22431" lon="4.40633">
        <ele>278.1</ele>
        <time>2024-08-31T08:55:41.123Z</time>
      </trkpt>
      <trkpt lat="44.22398" lon="4.40627">
        <ele>280.6</ele>
        <time>2024-08-31T08:55:59.914Z</time>
      </trkpt>
      <trkpt lat="44.22361" lon="4.40633">
        <ele>280.5</ele>
        <time>2024-08-31T08:56:20.946Z</time>
      </trkpt>
      <trkpt lat="44.22335" lon="4.4067">
        <ele>280.6</ele>
        <time>2024-08-31T08:56:41.914Z</time>
      </trkpt>
      <trkpt lat="44.22308" lon="4.40668">
        <ele>281.1</ele>
        <time>2024-08-31T08:56:57.181Z</time>
      </trkpt>
      <trkpt lat="44.22268" lon="4.40685">
        <ele>284.7</ele>
        <time>2024-08-31T08:57:20.791Z</time>
      </trkpt>
      <trkpt lat="44.22235" lon="4.40698">
        <ele>285</ele>
        <time>2024-08-31T08:57:40.153Z</time>
      </trkpt>
      <trkpt lat="44.2221" lon="4.40713">
        <ele>287.1</ele>
        <time>2024-08-31T08:57:55.519Z</time>
      </trkpt>
      <trkpt lat="44.22187" lon="4.40704">
        <ele>288.3</ele>
        <time>2024-08-31T08:58:09.007Z</time>
      </trkpt>
      <trkpt lat="44.2215" lon="4.40711">
        <ele>288.4</ele>
        <time>2024-08-31T08:58:30.090Z</time>
      </trkpt>
      <trkpt lat="44.22132" lon="4.40719">
        <ele>288.2</ele>
        <time>2024-08-31T08:58:40.756Z</time>
      </trkpt>
      <trkpt lat="44.22112" lon="4.40711">
        <ele>288.8</ele>
        <time>2024-08-31T08:58:52.503Z</time>
      </trkpt>
      <trkpt lat="44.2207" lon="4.40687">
        <ele>291.3</ele>
        <time>2024-08-31T08:59:18.130Z</time>
      </trkpt>
      <trkpt lat="44.22045" lon="4.40659">
        <ele>292.2</ele>
        <time>2024-08-31T08:59:36.231Z</time>
      </trkpt>
      <trkpt lat="44.22009" lon="4.40616">
        <ele>292.5</ele>
        <time>2024-08-31T09:00:02.989Z</time>
      </trkpt>
      <trkpt lat="44.21949" lon="4.40578">
        <ele>293.9</ele>
        <time>2024-08-31T09:00:40.195Z</time>
      </trkpt>
      <trkpt lat="44.2193" lon="4.40644">
        <ele>295.9</ele>
        <time>2024-08-31T09:01:08.977Z</time>
      </trkpt>
      <trkpt lat="44.21901" lon="4.40675">
        <ele>298.6</ele>
        <time>2024-08-31T09:01:29.605Z</time>
      </trkpt>
      <trkpt lat="44.21866" lon="4.40698">
        <ele>301.1</ele>
        <time>2024-08-31T09:01:51.450Z</time>
      </trkpt>
      <trkpt lat="44.2186" lon="4.4071">
        <ele>302.1</ele>
        <time>2024-08-31T09:01:57.371Z</time>
      </trkpt>
      <trkpt lat="44.21841" lon="4.40815">
        <ele>305</ele>
        <time>2024-08-31T09:02:41.196Z</time>
      </trkpt>
      <trkpt lat="44.2184" lon="4.40836">
        <ele>305.1</ele>
        <time>2024-08-31T09:02:49.713Z</time>
      </trkpt>
      <trkpt lat="44.21827" lon="4.4082">
        <ele>305.4</ele>
        <time>2024-08-31T09:02:59.501Z</time>
      </trkpt>
      <trkpt lat="44.21811" lon="4.40787">
        <ele>305.3</ele>
        <time>2024-08-31T09:03:15.624Z</time>
      </trkpt>
      <trkpt lat="44.21786" lon="4.40748">
        <ele>304.9</ele>
        <time>2024-08-31T09:03:36.798Z</time>
      </trkpt>
      <trkpt lat="44.21781" lon="4.40721">
        <ele>304</ele>
        <time>2024-08-31T09:03:48.083Z</time>
      </trkpt>
      <trkpt lat="44.21774" lon="4.40696">
        <ele>302.9</ele>
        <time>2024-08-31T09:03:58.944Z</time>
      </trkpt>
      <trkpt lat="44.21744" lon="4.40629">
        <ele>301.9</ele>
        <time>2024-08-31T09:04:30.914Z</time>
      </trkpt>
      <trkpt lat="44.21728" lon="4.40626">
        <ele>301.6</ele>
        <time>2024-08-31T09:04:40.029Z</time>
      </trkpt>
      <trkpt lat="44.21662" lon="4.40658">
        <ele>300.1</ele>
        <time>2024-08-31T09:05:19.482Z</time>
      </trkpt>
      <trkpt lat="44.21586" lon="4.4069">
        <ele>296.4</ele>
        <time>2024-08-31T09:06:04.307Z</time>
      </trkpt>
      <trkpt lat="44.21549" lon="4.40706">
        <ele>294.9</ele>
        <time>2024-08-31T09:06:26.179Z</time>
      </trkpt>
      <trkpt lat="44.21522" lon="4.40705">
        <ele>294.6</ele>
        <time>2024-08-31T09:06:41.430Z</time>
      </trkpt>
      <trkpt lat="44.21491" lon="4.40716">
        <ele>294</ele>
        <time>2024-08-31T09:06:59.491Z</time>
      </trkpt>
      <trkpt lat="44.21468" lon="4.40714">
        <ele>293.7</ele>
        <time>2024-08-31T09:07:12.503Z</time>
      </trkpt>
      <trkpt lat="44.21458" lon="4.40697">
        <ele>294.4</ele>
        <time>2024-08-31T09:07:21.403Z</time>
      </trkpt>
      <trkpt lat="44.21448" lon="4.40681">
        <ele>294.2</ele>
        <time>2024-08-31T09:07:29.994Z</time>
      </trkpt>
      <trkpt lat="44.21444" lon="4.40623">
        <ele>294.6</ele>
        <time>2024-08-31T09:07:53.575Z</time>
      </trkpt>
      <trkpt lat="44.21428" lon="4.40553">
        <ele>296.5</ele>
        <time>2024-08-31T09:08:23.310Z</time>
      </trkpt>
      <trkpt lat="44.21411" lon="4.40526">
        <ele>296.6</ele>
        <time>2024-08-31T09:08:37.854Z</time>
      </trkpt>
      <trkpt lat="44.2139" lon="4.40569">
        <ele>298</ele>
        <time>2024-08-31T09:08:58.912Z</time>
      </trkpt>
      <trkpt lat="44.21252" lon="4.40757">
        <ele>301</ele>
        <time>2024-08-31T09:10:47.821Z</time>
      </trkpt>
      <trkpt lat="44.21152" lon="4.40902">
        <ele>299.3</ele>
        <time>2024-08-31T09:12:09.260Z</time>
      </trkpt>
      <trkpt lat="44.21122" lon="4.40941">
        <ele>295.6</ele>
        <time>2024-08-31T09:12:32.413Z</time>
      </trkpt>
      <trkpt lat="44.21104" lon="4.40944">
        <ele>295.3</ele>
        <time>2024-08-31T09:12:42.649Z</time>
      </trkpt>
      <trkpt lat="44.21088" lon="4.40935">
        <ele>295.4</ele>
        <time>2024-08-31T09:12:52.390Z</time>
      </trkpt>
      <trkpt lat="44.21071" lon="4.40889">
        <ele>297</ele>
        <time>2024-08-31T09:13:13.336Z</time>
      </trkpt>
      <trkpt lat="44.21045" lon="4.40849">
        <ele>297.1</ele>
        <time>2024-08-31T09:13:35.190Z</time>
      </trkpt>
      <trkpt lat="44.21001" lon="4.40836">
        <ele>297.4</ele>
        <time>2024-08-31T09:14:00.586Z</time>
      </trkpt>
      <trkpt lat="44.20892" lon="4.40889">
        <ele>301.9</ele>
        <time>2024-08-31T09:15:05.765Z</time>
      </trkpt>
      <trkpt lat="44.20825" lon="4.40937">
        <ele>304.2</ele>
        <time>2024-08-31T09:15:48.294Z</time>
      </trkpt>
      <trkpt lat="44.20762" lon="4.40979">
        <ele>306.4</ele>
        <time>2024-08-31T09:16:27.720Z</time>
      </trkpt>
      <trkpt lat="44.20744" lon="4.40991">
        <ele>307.1</ele>
        <time>2024-08-31T09:16:38.984Z</time>
      </trkpt>
      <trkpt lat="44.20713" lon="4.41073">
        <ele>309.6</ele>
        <time>2024-08-31T09:17:16.507Z</time>
      </trkpt>
      <trkpt lat="44.20695" lon="4.41142">
        <ele>311.1</ele>
        <time>2024-08-31T09:17:46.227Z</time>
      </trkpt>
      <trkpt lat="44.20686" lon="4.41292">
        <ele>313.7</ele>
        <time>2024-08-31T09:18:47.153Z</time>
      </trkpt>
      <trkpt lat="44.20672" lon="4.4143">
        <ele>311.8</ele>
        <time>2024-08-31T09:19:43.567Z</time>
      </trkpt>
      <trkpt lat="44.20626" lon="4.4159">
        <ele>309.1</ele>
        <time>2024-08-31T09:20:53.344Z</time>
      </trkpt>
      <trkpt lat="44.20576" lon="4.41768">
        <ele>299.9</ele>
        <time>2024-08-31T09:22:10.727Z</time>
      </trkpt>
      <trkpt lat="44.20566" lon="4.41817">
        <ele>298.1</ele>
        <time>2024-08-31T09:22:31.348Z</time>
      </trkpt>
      <trkpt lat="44.20571" lon="4.41884">
        <ele>299.2</ele>
        <time>2024-08-31T09:22:58.614Z</time>
      </trkpt>
      <trkpt lat="44.20584" lon="4.41959">
        <ele>297.9</ele>
        <time>2024-08-31T09:23:29.846Z</time>
      </trkpt>
      <trkpt lat="44.2058" lon="4.41996">
        <ele>298.1</ele>
        <time>2024-08-31T09:23:44.991Z</time>
      </trkpt>
      <trkpt lat="44.20563" lon="4.42041">
        <ele>298.5</ele>
        <time>2024-08-31T09:24:05.580Z</time>
      </trkpt>
      <trkpt lat="44.20543" lon="4.42098">
        <ele>297.5</ele>
        <time>2024-08-31T09:24:31.267Z</time>
      </trkpt>
      <trkpt lat="44.20537" lon="4.42245">
        <ele>299.6</ele>
        <time>2024-08-31T09:25:30.865Z</time>
      </trkpt>
      <trkpt lat="44.20544" lon="4.4229">
        <ele>298.4</ele>
        <time>2024-08-31T09:25:49.503Z</time>
      </trkpt>
      <trkpt lat="44.20532" lon="4.42317">
        <ele>298.3</ele>
        <time>2024-08-31T09:26:02.361Z</time>
      </trkpt>
      <trkpt lat="44.20512" lon="4.4237">
        <ele>298.2</ele>
        <time>2024-08-31T09:26:26.604Z</time>
      </trkpt>
      <trkpt lat="44.20499" lon="4.42416">
        <ele>300.1</ele>
        <time>2024-08-31T09:26:46.618Z</time>
      </trkpt>
      <trkpt lat="44.20453" lon="4.4251">
        <ele>301.8</ele>
        <time>2024-08-31T09:27:32.687Z</time>
      </trkpt>
      <trkpt lat="44.2044" lon="4.42541">
        <ele>301.6</ele>
        <time>2024-08-31T09:27:47.224Z</time>
      </trkpt>
      <trkpt lat="44.20448" lon="4.42579">
        <ele>303.1</ele>
        <time>2024-08-31T09:28:03.255Z</time>
      </trkpt>
      <trkpt lat="44.20427" lon="4.4265">
        <ele>306.7</ele>
        <time>2024-08-31T09:28:34.344Z</time>
      </trkpt>
      <trkpt lat="44.20395" lon="4.42713">
        <ele>309.4</ele>
        <time>2024-08-31T09:29:05.597Z</time>
      </trkpt>
      <trkpt lat="44.2037" lon="4.42749">
        <ele>311.9</ele>
        <time>2024-08-31T09:29:25.885Z</time>
      </trkpt>
      <trkpt lat="44.20363" lon="4.42774">
        <ele>312.9</ele>
        <time>2024-08-31T09:29:36.749Z</time>
      </trkpt>
      <trkpt lat="44.20371" lon="4.42826">
        <ele>313</ele>
        <time>2024-08-31T09:29:58.277Z</time>
      </trkpt>
      <trkpt lat="44.20378" lon="4.42859">
        <ele>313.4</ele>
        <time>2024-08-31T09:30:12.207Z</time>
      </trkpt>
      <trkpt lat="44.20402" lon="4.42897">
        <ele>311.8</ele>
        <time>2024-08-31T09:30:32.707Z</time>
      </trkpt>
      <trkpt lat="44.20417" lon="4.42966">
        <ele>312</ele>
        <time>2024-08-31T09:31:01.892Z</time>
      </trkpt>
      <trkpt lat="44.20435" lon="4.43009">
        <ele>312.5</ele>
        <time>2024-08-31T09:31:22.047Z</time>
      </trkpt>
      <trkpt lat="44.20464" lon="4.43057">
        <ele>313.3</ele>
        <time>2024-08-31T09:31:47.456Z</time>
      </trkpt>
      <trkpt lat="44.20478" lon="4.43117">
        <ele>314</ele>
        <time>2024-08-31T09:32:12.996Z</time>
      </trkpt>
      <trkpt lat="44.20491" lon="4.43167">
        <ele>315.7</ele>
        <time>2024-08-31T09:32:34.524Z</time>
      </trkpt>
      <trkpt lat="44.20495" lon="4.43221">
        <ele>317.6</ele>
        <time>2024-08-31T09:32:56.498Z</time>
      </trkpt>
      <trkpt lat="44.20532" lon="4.43344">
        <ele>323.4</ele>
        <time>2024-08-31T09:33:50.491Z</time>
      </trkpt>
      <trkpt lat="44.2054" lon="4.43373">
        <ele>324.7</ele>
        <time>2024-08-31T09:34:03.068Z</time>
      </trkpt>
      <trkpt lat="44.20571" lon="4.43413">
        <ele>326.8</ele>
        <time>2024-08-31T09:34:26.912Z</time>
      </trkpt>
      <trkpt lat="44.2056" lon="4.43443">
        <ele>328</ele>
        <time>2024-08-31T09:34:40.551Z</time>
      </trkpt>
      <trkpt lat="44.20503" lon="4.43453">
        <ele>326.4</ele>
        <time>2024-08-31T09:35:12.990Z</time>
      </trkpt>
      <trkpt lat="44.20488" lon="4.43504">
        <ele>325.9</ele>
        <time>2024-08-31T09:35:35.303Z</time>
      </trkpt>
      <trkpt lat="44.20464" lon="4.43547">
        <ele>323.9</ele>
        <time>2024-08-31T09:35:57.362Z</time>
      </trkpt>
      <trkpt lat="44.20446" lon="4.43653">
        <ele>317.5</ele>
        <time>2024-08-31T09:36:41.455Z</time>
      </trkpt>
      <trkpt lat="44.20438" lon="4.43744">
        <ele>310.2</ele>
        <time>2024-08-31T09:37:18.565Z</time>
      </trkpt>
      <trkpt lat="44.20455" lon="4.43829">
        <ele>303.9</ele>
        <time>2024-08-31T09:37:54.285Z</time>
      </trkpt>
      <trkpt lat="44.20427" lon="4.43938">
        <ele>290.9</ele>
        <time>2024-08-31T09:38:41.153Z</time>
      </trkpt>
      <trkpt lat="44.20414" lon="4.43999">
        <ele>283.9</ele>
        <time>2024-08-31T09:39:06.912Z</time>
      </trkpt>
      <trkpt lat="44.20416" lon="4.44047">
        <ele>280.5</ele>
        <time>2024-08-31T09:39:26.374Z</time>
      </trkpt>
      <trkpt lat="44.20433" lon="4.44072">
        <ele>279.1</ele>
        <time>2024-08-31T09:39:40.322Z</time>
      </trkpt>
      <trkpt lat="44.20464" lon="4.44108">
        <ele>276.3</ele>
        <time>2024-08-31T09:40:03.098Z</time>
      </trkpt>
      <trkpt lat="44.20496" lon="4.44202">
        <ele>267.2</ele>
        <time>2024-08-31T09:40:45.219Z</time>
      </trkpt>
      <trkpt lat="44.20488" lon="4.44269">
        <ele>260.5</ele>
        <time>2024-08-31T09:41:12.712Z</time>
      </trkpt>
      <trkpt lat="44.20477" lon="4.44326">
        <ele>256.1</ele>
        <time>2024-08-31T09:41:36.605Z</time>
      </trkpt>
      <trkpt lat="44.20482" lon="4.44373">
        <ele>254.8</ele>
        <time>2024-08-31T09:41:55.837Z</time>
      </trkpt>
      <trkpt lat="44.20472" lon="4.44399">
        <ele>254.6</ele>
        <time>2024-08-31T09:42:07.780Z</time>
      </trkpt>
      <trkpt lat="44.20464" lon="4.44431">
        <ele>251.7</ele>
        <time>2024-08-31T09:42:21.498Z</time>
      </trkpt>
      <trkpt lat="44.20472" lon="4.44524">
        <ele>241.4</ele>
        <time>2024-08-31T09:42:59.412Z</time>
      </trkpt>
      <trkpt lat="44.20495" lon="4.44592">
        <ele>235.2</ele>
        <time>2024-08-31T09:43:29.846Z</time>
      </trkpt>
      <trkpt lat="44.20496" lon="4.44633">
        <ele>229.7</ele>
        <time>2024-08-31T09:43:46.451Z</time>
      </trkpt>
      <trkpt lat="44.20487" lon="4.44749">
        <ele>214.4</ele>
        <time>2024-08-31T09:44:33.679Z</time>
      </trkpt>
      <trkpt lat="44.20476" lon="4.44796">
        <ele>206.1</ele>
        <time>2024-08-31T09:44:53.691Z</time>
      </trkpt>
      <trkpt lat="44.20475" lon="4.44865">
        <ele>194.9</ele>
        <time>2024-08-31T09:45:21.626Z</time>
      </trkpt>
      <trkpt lat="44.20495" lon="4.44903">
        <ele>193.7</ele>
        <time>2024-08-31T09:45:40.708Z</time>
      </trkpt>
      <trkpt lat="44.20519" lon="4.44944">
        <ele>194.3</ele>
        <time>2024-08-31T09:46:02.133Z</time>
      </trkpt>
      <trkpt lat="44.20544" lon="4.45028">
        <ele>193.8</ele>
        <time>2024-08-31T09:46:38.947Z</time>
      </trkpt>
      <trkpt lat="44.20559" lon="4.45107">
        <ele>186.4</ele>
        <time>2024-08-31T09:47:12.026Z</time>
      </trkpt>
      <trkpt lat="44.20567" lon="4.45185">
        <ele>175.8</ele>
        <time>2024-08-31T09:47:43.919Z</time>
      </trkpt>
      <trkpt lat="44.20576" lon="4.45294">
        <ele>175.5</ele>
        <time>2024-08-31T09:48:28.330Z</time>
      </trkpt>
      <trkpt lat="44.20566" lon="4.4531">
        <ele>173</ele>
        <time>2024-08-31T09:48:36.922Z</time>
      </trkpt>
      <trkpt lat="44.20504" lon="4.45345">
        <ele>161</ele>
        <time>2024-08-31T09:49:14.688Z</time>
      </trkpt>
      <trkpt lat="44.20434" lon="4.45423">
        <ele>157.9</ele>
        <time>2024-08-31T09:50:05.276Z</time>
      </trkpt>
      <trkpt lat="44.20388" lon="4.45478">
        <ele>150.5</ele>
        <time>2024-08-31T09:50:39.485Z</time>
      </trkpt>
      <trkpt lat="44.20362" lon="4.45525">
        <ele>146.2</ele>
        <time>2024-08-31T09:51:03.515Z</time>
      </trkpt>
      <trkpt lat="44.20341" lon="4.45551">
        <ele>142.9</ele>
        <time>2024-08-31T09:51:19.369Z</time>
      </trkpt>
      <trkpt lat="44.20385" lon="4.45625">
        <ele>140</ele>
        <time>2024-08-31T09:51:58.285Z</time>
      </trkpt>
      <trkpt lat="44.20392" lon="4.45637">
        <ele>139.1</ele>
        <time>2024-08-31T09:52:04.547Z</time>
      </trkpt>
      <trkpt lat="44.20382" lon="4.4566">
        <ele>137.5</ele>
        <time>2024-08-31T09:52:15.435Z</time>
      </trkpt>
      <trkpt lat="44.20387" lon="4.45722">
        <ele>134</ele>
        <time>2024-08-31T09:52:40.689Z</time>
      </trkpt>
      <trkpt lat="44.20397" lon="4.45766">
        <ele>131.8</ele>
        <time>2024-08-31T09:52:59.373Z</time>
      </trkpt>
      <trkpt lat="44.20411" lon="4.45821">
        <ele>129</ele>
        <time>2024-08-31T09:53:22.997Z</time>
      </trkpt>
      <trkpt lat="44.2044" lon="4.45857">
        <ele>126.3</ele>
        <time>2024-08-31T09:53:44.917Z</time>
      </trkpt>
      <trkpt lat="44.20457" lon="4.45906">
        <ele>124.1</ele>
        <time>2024-08-31T09:54:06.951Z</time>
      </trkpt>
      <trkpt lat="44.20478" lon="4.45936">
        <ele>121.9</ele>
        <time>2024-08-31T09:54:23.923Z</time>
      </trkpt>
      <trkpt lat="44.20487" lon="4.45965">
        <ele>120.8</ele>
        <time>2024-08-31T09:54:36.714Z</time>
      </trkpt>
      <trkpt lat="44.20498" lon="4.46012">
        <ele>119.2</ele>
        <time>2024-08-31T09:54:56.726Z</time>
      </trkpt>
      <trkpt lat="44.20514" lon="4.46036">
        <ele>116.8</ele>
        <time>2024-08-31T09:55:09.992Z</time>
      </trkpt>
      <trkpt lat="44.20535" lon="4.4608">
        <ele>114.1</ele>
        <time>2024-08-31T09:55:31.388Z</time>
      </trkpt>
      <trkpt lat="44.2055" lon="4.46185">
        <ele>107.2</ele>
        <time>2024-08-31T09:56:14.724Z</time>
      </trkpt>
      <trkpt lat="44.20576" lon="4.46261">
        <ele>100.7</ele>
        <time>2024-08-31T09:56:48.810Z</time>
      </trkpt>
      <trkpt lat="44.20582" lon="4.46276">
        <ele>99.2</ele>
        <time>2024-08-31T09:56:55.762Z</time>
      </trkpt>
      <trkpt lat="44.2059" lon="4.46292">
        <ele>98</ele>
        <time>2024-08-31T09:57:03.657Z</time>
      </trkpt>
      <trkpt lat="44.20592" lon="4.46307">
        <ele>97.3</ele>
        <time>2024-08-31T09:57:09.832Z</time>
      </trkpt>
      <trkpt lat="44.20607" lon="4.46333">
        <ele>95.2</ele>
        <time>2024-08-31T09:57:23.341Z</time>
      </trkpt>
      <trkpt lat="44.20614" lon="4.46378">
        <ele>92.7</ele>
        <time>2024-08-31T09:57:41.979Z</time>
      </trkpt>
      <trkpt lat="44.20587" lon="4.46425">
        <ele>89.4</ele>
        <time>2024-08-31T09:58:06.358Z</time>
      </trkpt>
      <trkpt lat="44.20544" lon="4.46472">
        <ele>82.8</ele>
        <time>2024-08-31T09:58:37.203Z</time>
      </trkpt>
      <trkpt lat="44.20554" lon="4.46502">
        <ele>79.7</ele>
        <time>2024-08-31T09:58:50.594Z</time>
      </trkpt>
      <trkpt lat="44.20531" lon="4.46506">
        <ele>77.7</ele>
        <time>2024-08-31T09:59:03.681Z</time>
      </trkpt>
      <trkpt lat="44.20517" lon="4.46489">
        <ele>78.8</ele>
        <time>2024-08-31T09:59:14.161Z</time>
      </trkpt>
      <trkpt lat="44.20477" lon="4.46461">
        <ele>79.4</ele>
        <time>2024-08-31T09:59:39.431Z</time>
      </trkpt>
      <trkpt lat="44.20434" lon="4.46412">
        <ele>81.3</ele>
        <time>2024-08-31T10:00:10.782Z</time>
      </trkpt>
      <trkpt lat="44.20398" lon="4.46369">
        <ele>79.5</ele>
        <time>2024-08-31T10:00:37.543Z</time>
      </trkpt>
      <trkpt lat="44.20358" lon="4.46341">
        <ele>79.5</ele>
        <time>2024-08-31T10:01:02.813Z</time>
      </trkpt>
      <trkpt lat="44.20338" lon="4.463">
        <ele>80.5</ele>
        <time>2024-08-31T10:01:22.887Z</time>
      </trkpt>
      <trkpt lat="44.20301" lon="4.46296">
        <ele>83</ele>
        <time>2024-08-31T10:01:43.842Z</time>
      </trkpt>
      <trkpt lat="44.2026" lon="4.46249">
        <ele>83.3</ele>
        <time>2024-08-31T10:02:13.807Z</time>
      </trkpt>
      <trkpt lat="44.20234" lon="4.46227">
        <ele>86.9</ele>
        <time>2024-08-31T10:02:30.978Z</time>
      </trkpt>
      <trkpt lat="44.20218" lon="4.46204">
        <ele>88.7</ele>
        <time>2024-08-31T10:02:43.951Z</time>
      </trkpt>
      <trkpt lat="44.20206" lon="4.46148">
        <ele>87.4</ele>
        <time>2024-08-31T10:03:07.610Z</time>
      </trkpt>
      <trkpt lat="44.20175" lon="4.46139">
        <ele>89.2</ele>
        <time>2024-08-31T10:03:25.489Z</time>
      </trkpt>
      <trkpt lat="44.20137" lon="4.46111">
        <ele>89.2</ele>
        <time>2024-08-31T10:03:49.755Z</time>
      </trkpt>
      <trkpt lat="44.20123" lon="4.46122">
        <ele>92.9</ele>
        <time>2024-08-31T10:03:58.828Z</time>
      </trkpt>
      <trkpt lat="44.20046" lon="4.46116">
        <ele>96.4</ele>
        <time>2024-08-31T10:04:42.374Z</time>
      </trkpt>
      <trkpt lat="44.20051" lon="4.46146">
        <ele>98.2</ele>
        <time>2024-08-31T10:04:54.842Z</time>
      </trkpt>
      <trkpt lat="44.20091" lon="4.46222">
        <ele>101.8</ele>
        <time>2024-08-31T10:05:33.008Z</time>
      </trkpt>
      <trkpt lat="44.20159" lon="4.46359">
        <ele>104.8</ele>
        <time>2024-08-31T10:06:40.460Z</time>
      </trkpt>
      <trkpt lat="44.20204" lon="4.46472">
        <ele>101.7</ele>
        <time>2024-08-31T10:07:32.785Z</time>
      </trkpt>
      <trkpt lat="44.20236" lon="4.46517">
        <ele>100.1</ele>
        <time>2024-08-31T10:07:58.442Z</time>
      </trkpt>
      <trkpt lat="44.20271" lon="4.46591">
        <ele>96.2</ele>
        <time>2024-08-31T10:08:34.328Z</time>
      </trkpt>
      <trkpt lat="44.20304" lon="4.46674">
        <ele>91.8</ele>
        <time>2024-08-31T10:09:12.746Z</time>
      </trkpt>
      <trkpt lat="44.20319" lon="4.4675">
        <ele>88.5</ele>
        <time>2024-08-31T10:09:44.654Z</time>
      </trkpt>
      <trkpt lat="44.20319" lon="4.46798">
        <ele>84.8</ele>
        <time>2024-08-31T10:10:04.083Z</time>
      </trkpt>
      <trkpt lat="44.20331" lon="4.46827">
        <ele>82.5</ele>
        <time>2024-08-31T10:10:17.637Z</time>
      </trkpt>
      <trkpt lat="44.20343" lon="4.46891">
        <ele>77.2</ele>
        <time>2024-08-31T10:10:44.414Z</time>
      </trkpt>
      <trkpt lat="44.20352" lon="4.46903">
        <ele>76.1</ele>
        <time>2024-08-31T10:10:51.443Z</time>
      </trkpt>
      <trkpt lat="44.20349" lon="4.46912">
        <ele>76.1</ele>
        <time>2024-08-31T10:10:55.460Z</time>
      </trkpt>
      <trkpt lat="44.20314" lon="4.46964">
        <ele>75</ele>
        <time>2024-08-31T10:11:24.332Z</time>
      </trkpt>
      <trkpt lat="44.20299" lon="4.47012">
        <ele>73.9</ele>
        <time>2024-08-31T10:11:45.527Z</time>
      </trkpt>
      <trkpt lat="44.20251" lon="4.47067">
        <ele>74.2</ele>
        <time>2024-08-31T10:12:20.602Z</time>
      </trkpt>
      <trkpt lat="44.2014" lon="4.47149">
        <ele>74.6</ele>
        <time>2024-08-31T10:13:31.526Z</time>
      </trkpt>
      <trkpt lat="44.20035" lon="4.47221">
        <ele>75</ele>
        <time>2024-08-31T10:14:37.591Z</time>
      </trkpt>
      <trkpt lat="44.19913" lon="4.47288">
        <ele>74.7</ele>
        <time>2024-08-31T10:15:51.626Z</time>
      </trkpt>
      <trkpt lat="44.19883" lon="4.47331">
        <ele>75</ele>
        <time>2024-08-31T10:16:15.915Z</time>
      </trkpt>
      <trkpt lat="44.1982" lon="4.47434">
        <ele>74.4</ele>
        <time>2024-08-31T10:17:10.724Z</time>
      </trkpt>
      <trkpt lat="44.19735" lon="4.47516">
        <ele>74.5</ele>
        <time>2024-08-31T10:18:09.081Z</time>
      </trkpt>
      <trkpt lat="44.197" lon="4.47604">
        <ele>75.4</ele>
        <time>2024-08-31T10:18:49.820Z</time>
      </trkpt>
      <trkpt lat="44.19674" lon="4.47713">
        <ele>77.5</ele>
        <time>2024-08-31T10:19:36.324Z</time>
      </trkpt>
      <trkpt lat="44.19654" lon="4.47749">
        <ele>77.8</ele>
        <time>2024-08-31T10:19:54.761Z</time>
      </trkpt>
      <trkpt lat="44.19563" lon="4.47777">
        <ele>82.4</ele>
        <time>2024-08-31T10:20:47.380Z</time>
      </trkpt>
      <trkpt lat="44.19409" lon="4.47925">
        <ele>78.8</ele>
        <time>2024-08-31T10:22:32.981Z</time>
      </trkpt>
      <trkpt lat="44.19391" lon="4.47792">
        <ele>88</ele>
        <time>2024-08-31T10:23:27.777Z</time>
      </trkpt>
      <trkpt lat="44.19348" lon="4.47713">
        <ele>90.5</ele>
        <time>2024-08-31T10:24:07.932Z</time>
      </trkpt>
      <trkpt lat="44.19319" lon="4.47677">
        <ele>90.6</ele>
        <time>2024-08-31T10:24:29.853Z</time>
      </trkpt>
      <trkpt lat="44.19278" lon="4.47558">
        <ele>96.7</ele>
        <time>2024-08-31T10:25:23.304Z</time>
      </trkpt>
      <trkpt lat="44.19243" lon="4.47464">
        <ele>101.8</ele>
        <time>2024-08-31T10:26:06.186Z</time>
      </trkpt>
      <trkpt lat="44.19241" lon="4.47422">
        <ele>105.9</ele>
        <time>2024-08-31T10:26:23.227Z</time>
      </trkpt>
      <trkpt lat="44.19221" lon="4.47337">
        <ele>111.3</ele>
        <time>2024-08-31T10:26:59.446Z</time>
      </trkpt>
      <trkpt lat="44.19187" lon="4.47234">
        <ele>117.8</ele>
        <time>2024-08-31T10:27:45.354Z</time>
      </trkpt>
      <trkpt lat="44.1915" lon="4.47206">
        <ele>113.5</ele>
        <time>2024-08-31T10:28:09.123Z</time>
      </trkpt>
      <trkpt lat="44.19134" lon="4.4713">
        <ele>115.9</ele>
        <time>2024-08-31T10:28:41.191Z</time>
      </trkpt>
      <trkpt lat="44.19108" lon="4.47045">
        <ele>119.2</ele>
        <time>2024-08-31T10:29:18.605Z</time>
      </trkpt>
      <trkpt lat="44.19065" lon="4.46921">
        <ele>121.1</ele>
        <time>2024-08-31T10:30:14.372Z</time>
      </trkpt>
      <trkpt lat="44.19067" lon="4.4683">
        <ele>129.5</ele>
        <time>2024-08-31T10:30:51.232Z</time>
      </trkpt>
      <trkpt lat="44.19047" lon="4.46733">
        <ele>133.6</ele>
        <time>2024-08-31T10:31:32.096Z</time>
      </trkpt>
      <trkpt lat="44.19045" lon="4.46639">
        <ele>141.5</ele>
        <time>2024-08-31T10:32:10.171Z</time>
      </trkpt>
      <trkpt lat="44.19021" lon="4.46545">
        <ele>148.7</ele>
        <time>2024-08-31T10:32:50.570Z</time>
      </trkpt>
      <trkpt lat="44.19012" lon="4.46448">
        <ele>157.7</ele>
        <time>2024-08-31T10:33:30.170Z</time>
      </trkpt>
      <trkpt lat="44.1898" lon="4.46411">
        <ele>161.2</ele>
        <time>2024-08-31T10:33:53.641Z</time>
      </trkpt>
      <trkpt lat="44.18954" lon="4.46375">
        <ele>162.7</ele>
        <time>2024-08-31T10:34:14.328Z</time>
      </trkpt>
      <trkpt lat="44.18925" lon="4.46357">
        <ele>165.4</ele>
        <time>2024-08-31T10:34:32.251Z</time>
      </trkpt>
      <trkpt lat="44.18834" lon="4.46354">
        <ele>161.9</ele>
        <time>2024-08-31T10:35:23.649Z</time>
      </trkpt>
      <trkpt lat="44.18834" lon="4.46359">
        <ele>167.8</ele>
        <time>2024-08-31T10:35:25.673Z</time>
      </trkpt>
      <trkpt lat="44.18828" lon="4.46357">
        <ele>167.8</ele>
        <time>2024-08-31T10:35:29.156Z</time>
      </trkpt>
      <trkpt lat="44.18821" lon="4.46354">
        <ele>167.6</ele>
        <time>2024-08-31T10:35:33.291Z</time>
      </trkpt>
      <trkpt lat="44.18814" lon="4.46348">
        <ele>167</ele>
        <time>2024-08-31T10:35:37.930Z</time>
      </trkpt>
      <trkpt lat="44.1881" lon="4.46345">
        <ele>166.4</ele>
        <time>2024-08-31T10:35:40.494Z</time>
      </trkpt>
      <trkpt lat="44.18804" lon="4.4634">
        <ele>166.4</ele>
        <time>2024-08-31T10:35:44.440Z</time>
      </trkpt>
      <trkpt lat="44.18787" lon="4.46326">
        <ele>165</ele>
        <time>2024-08-31T10:35:55.587Z</time>
      </trkpt>
      <trkpt lat="44.1878" lon="4.46321">
        <ele>164.6</ele>
        <time>2024-08-31T10:36:00.027Z</time>
      </trkpt>
      <trkpt lat="44.18775" lon="4.46318">
        <ele>164.2</ele>
        <time>2024-08-31T10:36:03.100Z</time>
      </trkpt>
      <trkpt lat="44.18768" lon="4.46315">
        <ele>163.8</ele>
        <time>2024-08-31T10:36:07.235Z</time>
      </trkpt>
      <trkpt lat="44.18761" lon="4.46311">
        <ele>163.4</ele>
        <time>2024-08-31T10:36:11.506Z</time>
      </trkpt>
      <trkpt lat="44.18748" lon="4.46307">
        <ele>162.8</ele>
        <time>2024-08-31T10:36:19.023Z</time>
      </trkpt>
      <trkpt lat="44.18741" lon="4.46307">
        <ele>162.6</ele>
        <time>2024-08-31T10:36:22.975Z</time>
      </trkpt>
      <trkpt lat="44.18734" lon="4.46307">
        <ele>162.6</ele>
        <time>2024-08-31T10:36:26.927Z</time>
      </trkpt>
      <trkpt lat="44.18707" lon="4.46308">
        <ele>161.6</ele>
        <time>2024-08-31T10:36:42.178Z</time>
      </trkpt>
      <trkpt lat="44.18701" lon="4.46308">
        <ele>161.2</ele>
        <time>2024-08-31T10:36:45.565Z</time>
      </trkpt>
      <trkpt lat="44.18694" lon="4.46308">
        <ele>160.8</ele>
        <time>2024-08-31T10:36:49.517Z</time>
      </trkpt>
      <trkpt lat="44.18688" lon="4.46307">
        <ele>160.6</ele>
        <time>2024-08-31T10:36:52.929Z</time>
      </trkpt>
      <trkpt lat="44.18681" lon="4.46305">
        <ele>160.4</ele>
        <time>2024-08-31T10:36:56.963Z</time>
      </trkpt>
      <trkpt lat="44.18676" lon="4.46303">
        <ele>160.2</ele>
        <time>2024-08-31T10:36:59.900Z</time>
      </trkpt>
      <trkpt lat="44.18671" lon="4.463">
        <ele>160</ele>
        <time>2024-08-31T10:37:02.973Z</time>
      </trkpt>
      <trkpt lat="44.18665" lon="4.46296">
        <ele>159.8</ele>
        <time>2024-08-31T10:37:06.728Z</time>
      </trkpt>
      <trkpt lat="44.1866" lon="4.46292">
        <ele>159.8</ele>
        <time>2024-08-31T10:37:09.982Z</time>
      </trkpt>
      <trkpt lat="44.18654" lon="4.46289">
        <ele>159.8</ele>
        <time>2024-08-31T10:37:13.581Z</time>
      </trkpt>
      <trkpt lat="44.18648" lon="4.46286">
        <ele>159.8</ele>
        <time>2024-08-31T10:37:17.180Z</time>
      </trkpt>
      <trkpt lat="44.18643" lon="4.46283">
        <ele>159.8</ele>
        <time>2024-08-31T10:37:20.253Z</time>
      </trkpt>
      <trkpt lat="44.18637" lon="4.46281">
        <ele>159.6</ele>
        <time>2024-08-31T10:37:23.736Z</time>
      </trkpt>
      <trkpt lat="44.18632" lon="4.46279">
        <ele>159.6</ele>
        <time>2024-08-31T10:37:26.673Z</time>
      </trkpt>
      <trkpt lat="44.18627" lon="4.46278">
        <ele>159.6</ele>
        <time>2024-08-31T10:37:29.524Z</time>
      </trkpt>
      <trkpt lat="44.18621" lon="4.46277">
        <ele>159.6</ele>
        <time>2024-08-31T10:37:32.935Z</time>
      </trkpt>
      <trkpt lat="44.18617" lon="4.46276">
        <ele>159.6</ele>
        <time>2024-08-31T10:37:35.228Z</time>
      </trkpt>
      <trkpt lat="44.18611" lon="4.46276">
        <ele>159.6</ele>
        <time>2024-08-31T10:37:38.616Z</time>
      </trkpt>
      <trkpt lat="44.18606" lon="4.46275">
        <ele>159.6</ele>
        <time>2024-08-31T10:37:41.468Z</time>
      </trkpt>
      <trkpt lat="44.18589" lon="4.46273">
        <ele>159.8</ele>
        <time>2024-08-31T10:37:51.101Z</time>
      </trkpt>
      <trkpt lat="44.18566" lon="4.46269">
        <ele>160</ele>
        <time>2024-08-31T10:38:04.188Z</time>
      </trkpt>
      <trkpt lat="44.18557" lon="4.46264">
        <ele>160</ele>
        <time>2024-08-31T10:38:09.658Z</time>
      </trkpt>
      <trkpt lat="44.18553" lon="4.46261">
        <ele>160</ele>
        <time>2024-08-31T10:38:12.222Z</time>
      </trkpt>
      <trkpt lat="44.18551" lon="4.46257">
        <ele>160</ele>
        <time>2024-08-31T10:38:14.196Z</time>
      </trkpt>
      <trkpt lat="44.18548" lon="4.46254">
        <ele>160</ele>
        <time>2024-08-31T10:38:16.279Z</time>
      </trkpt>
      <trkpt lat="44.18544" lon="4.4625">
        <ele>160</ele>
        <time>2024-08-31T10:38:19.057Z</time>
      </trkpt>
      <trkpt lat="44.1854" lon="4.46248">
        <ele>160.2</ele>
        <time>2024-08-31T10:38:21.455Z</time>
      </trkpt>
      <trkpt lat="44.18536" lon="4.46246">
        <ele>160.2</ele>
        <time>2024-08-31T10:38:23.854Z</time>
      </trkpt>
      <trkpt lat="44.18527" lon="4.46244">
        <ele>160.4</ele>
        <time>2024-08-31T10:38:28.999Z</time>
      </trkpt>
      <trkpt lat="44.18522" lon="4.46244">
        <ele>160.4</ele>
        <time>2024-08-31T10:38:31.822Z</time>
      </trkpt>
      <trkpt lat="44.18503" lon="4.46239">
        <ele>161.2</ele>
        <time>2024-08-31T10:38:42.739Z</time>
      </trkpt>
      <trkpt lat="44.18499" lon="4.46239">
        <ele>161.4</ele>
        <time>2024-08-31T10:38:44.997Z</time>
      </trkpt>
      <trkpt lat="44.18494" lon="4.46236">
        <ele>161.6</ele>
        <time>2024-08-31T10:38:48.070Z</time>
      </trkpt>
      <trkpt lat="44.18484" lon="4.4623">
        <ele>162</ele>
        <time>2024-08-31T10:38:54.216Z</time>
      </trkpt>
      <trkpt lat="44.18468" lon="4.46226">
        <ele>162.2</ele>
        <time>2024-08-31T10:39:03.394Z</time>
      </trkpt>
      <trkpt lat="44.18464" lon="4.46225">
        <ele>162.4</ele>
        <time>2024-08-31T10:39:05.688Z</time>
      </trkpt>
      <trkpt lat="44.1846" lon="4.46223">
        <ele>162.4</ele>
        <time>2024-08-31T10:39:08.086Z</time>
      </trkpt>
      <trkpt lat="44.18447" lon="4.46216">
        <ele>162.8</ele>
        <time>2024-08-31T10:39:15.954Z</time>
      </trkpt>
      <trkpt lat="44.18443" lon="4.46212">
        <ele>162.8</ele>
        <time>2024-08-31T10:39:18.733Z</time>
      </trkpt>
      <trkpt lat="44.18438" lon="4.4621">
        <ele>162.8</ele>
        <time>2024-08-31T10:39:21.670Z</time>
      </trkpt>
      <trkpt lat="44.18434" lon="4.46207">
        <ele>162.8</ele>
        <time>2024-08-31T10:39:24.234Z</time>
      </trkpt>
      <trkpt lat="44.18431" lon="4.46204">
        <ele>163</ele>
        <time>2024-08-31T10:39:26.318Z</time>
      </trkpt>
      <trkpt lat="44.18428" lon="4.46201">
        <ele>163.2</ele>
        <time>2024-08-31T10:39:28.401Z</time>
      </trkpt>
      <trkpt lat="44.18424" lon="4.46197">
        <ele>163.4</ele>
        <time>2024-08-31T10:39:31.180Z</time>
      </trkpt>
      <trkpt lat="44.1842" lon="4.46192">
        <ele>163.6</ele>
        <time>2024-08-31T10:39:34.213Z</time>
      </trkpt>
      <trkpt lat="44.18415" lon="4.46187">
        <ele>164</ele>
        <time>2024-08-31T10:39:37.687Z</time>
      </trkpt>
      <trkpt lat="44.18412" lon="4.46182">
        <ele>164.2</ele>
        <time>2024-08-31T10:39:40.327Z</time>
      </trkpt>
      <trkpt lat="44.18408" lon="4.46176">
        <ele>164.2</ele>
        <time>2024-08-31T10:39:43.644Z</time>
      </trkpt>
      <trkpt lat="44.18405" lon="4.46172">
        <ele>164.4</ele>
        <time>2024-08-31T10:39:45.987Z</time>
      </trkpt>
      <trkpt lat="44.18401" lon="4.46168">
        <ele>164.6</ele>
        <time>2024-08-31T10:39:48.766Z</time>
      </trkpt>
      <trkpt lat="44.18397" lon="4.46164">
        <ele>164.6</ele>
        <time>2024-08-31T10:39:51.545Z</time>
      </trkpt>
      <trkpt lat="44.18393" lon="4.4616">
        <ele>164.8</ele>
        <time>2024-08-31T10:39:54.324Z</time>
      </trkpt>
      <trkpt lat="44.18389" lon="4.46156">
        <ele>164.8</ele>
        <time>2024-08-31T10:39:57.103Z</time>
      </trkpt>
      <trkpt lat="44.18385" lon="4.46153">
        <ele>164.8</ele>
        <time>2024-08-31T10:39:59.667Z</time>
      </trkpt>
      <trkpt lat="44.1838" lon="4.4615">
        <ele>164.8</ele>
        <time>2024-08-31T10:40:02.741Z</time>
      </trkpt>
      <trkpt lat="44.18376" lon="4.46148">
        <ele>164.8</ele>
        <time>2024-08-31T10:40:05.140Z</time>
      </trkpt>
      <trkpt lat="44.18371" lon="4.46147">
        <ele>164.8</ele>
        <time>2024-08-31T10:40:07.992Z</time>
      </trkpt>
      <trkpt lat="44.18367" lon="4.46146">
        <ele>164.8</ele>
        <time>2024-08-31T10:40:10.286Z</time>
      </trkpt>
      <trkpt lat="44.18362" lon="4.46145">
        <ele>165</ele>
        <time>2024-08-31T10:40:13.138Z</time>
      </trkpt>
      <trkpt lat="44.18359" lon="4.46144">
        <ele>165</ele>
        <time>2024-08-31T10:40:14.878Z</time>
      </trkpt>
      <trkpt lat="44.18355" lon="4.46141">
        <ele>165</ele>
        <time>2024-08-31T10:40:17.442Z</time>
      </trkpt>
      <trkpt lat="44.18352" lon="4.46139">
        <ele>165</ele>
        <time>2024-08-31T10:40:19.319Z</time>
      </trkpt>
      <trkpt lat="44.18349" lon="4.46136">
        <ele>165</ele>
        <time>2024-08-31T10:40:21.403Z</time>
      </trkpt>
      <trkpt lat="44.18346" lon="4.46133">
        <ele>165</ele>
        <time>2024-08-31T10:40:23.487Z</time>
      </trkpt>
      <trkpt lat="44.18344" lon="4.4613">
        <ele>165</ele>
        <time>2024-08-31T10:40:25.145Z</time>
      </trkpt>
      <trkpt lat="44.18342" lon="4.46128">
        <ele>165</ele>
        <time>2024-08-31T10:40:26.534Z</time>
      </trkpt>
      <trkpt lat="44.18341" lon="4.46126">
        <ele>165</ele>
        <time>2024-08-31T10:40:27.521Z</time>
      </trkpt>
      <trkpt lat="44.18342" lon="4.46124">
        <ele>165</ele>
        <time>2024-08-31T10:40:28.508Z</time>
      </trkpt>
      <trkpt lat="44.18343" lon="4.46122">
        <ele>164.8</ele>
        <time>2024-08-31T10:40:29.495Z</time>
      </trkpt>
      <trkpt lat="44.18344" lon="4.4612">
        <ele>164.8</ele>
        <time>2024-08-31T10:40:30.482Z</time>
      </trkpt>
      <trkpt lat="44.18344" lon="4.46118">
        <ele>164.8</ele>
        <time>2024-08-31T10:40:31.291Z</time>
      </trkpt>
      <trkpt lat="44.18345" lon="4.46116">
        <ele>158.8</ele>
        <time>2024-08-31T10:40:32.278Z</time>
      </trkpt>
      <trkpt lat="44.18346" lon="4.46114">
        <ele>158.8</ele>
        <time>2024-08-31T10:40:33.263Z</time>
      </trkpt>
      <trkpt lat="44.18352" lon="4.46103">
        <ele>158.8</ele>
        <time>2024-08-31T10:40:38.859Z</time>
      </trkpt>
      <trkpt lat="44.18358" lon="4.46091">
        <ele>159</ele>
        <time>2024-08-31T10:40:44.782Z</time>
      </trkpt>
      <trkpt lat="44.18367" lon="4.46072">
        <ele>159.6</ele>
        <time>2024-08-31T10:40:54.002Z</time>
      </trkpt>
      <trkpt lat="44.18371" lon="4.46062">
        <ele>160</ele>
        <time>2024-08-31T10:40:58.638Z</time>
      </trkpt>
      <trkpt lat="44.18372" lon="4.46058">
        <ele>160.2</ele>
        <time>2024-08-31T10:41:00.353Z</time>
      </trkpt>
      <trkpt lat="44.18372" lon="4.46058">
        <ele>160.2</ele>
        <time>2024-08-31T10:41:00.353Z</time>
      </trkpt>
      <trkpt lat="44.18374" lon="4.46054">
        <ele>160.4</ele>
        <time>2024-08-31T10:41:02.327Z</time>
      </trkpt>
      <trkpt lat="44.18378" lon="4.46048">
        <ele>160.6</ele>
        <time>2024-08-31T10:41:05.643Z</time>
      </trkpt>
      <trkpt lat="44.18382" lon="4.46039">
        <ele>161</ele>
        <time>2024-08-31T10:41:09.930Z</time>
      </trkpt>
      <trkpt lat="44.1839" lon="4.46024">
        <ele>162</ele>
        <time>2024-08-31T10:41:17.499Z</time>
      </trkpt>
      <trkpt lat="44.18393" lon="4.46018">
        <ele>162.6</ele>
        <time>2024-08-31T10:41:20.460Z</time>
      </trkpt>
      <trkpt lat="44.18395" lon="4.46015">
        <ele>162.8</ele>
        <time>2024-08-31T10:41:22.118Z</time>
      </trkpt>
      <trkpt lat="44.18397" lon="4.46012">
        <ele>163.2</ele>
        <time>2024-08-31T10:41:23.776Z</time>
      </trkpt>
      <trkpt lat="44.18399" lon="4.46009">
        <ele>163.4</ele>
        <time>2024-08-31T10:41:25.434Z</time>
      </trkpt>
      <trkpt lat="44.18401" lon="4.46006">
        <ele>163.8</ele>
        <time>2024-08-31T10:41:27.092Z</time>
      </trkpt>
      <trkpt lat="44.18403" lon="4.46003">
        <ele>164</ele>
        <time>2024-08-31T10:41:28.750Z</time>
      </trkpt>
      <trkpt lat="44.18405" lon="4.46">
        <ele>164.4</ele>
        <time>2024-08-31T10:41:30.408Z</time>
      </trkpt>
      <trkpt lat="44.18407" lon="4.45997">
        <ele>164.6</ele>
        <time>2024-08-31T10:41:32.066Z</time>
      </trkpt>
      <trkpt lat="44.18409" lon="4.45995">
        <ele>164.8</ele>
        <time>2024-08-31T10:41:33.454Z</time>
      </trkpt>
      <trkpt lat="44.18411" lon="4.45993">
        <ele>165.2</ele>
        <time>2024-08-31T10:41:34.842Z</time>
      </trkpt>
      <trkpt lat="44.18413" lon="4.45991">
        <ele>165.4</ele>
        <time>2024-08-31T10:41:36.230Z</time>
      </trkpt>
      <trkpt lat="44.18414" lon="4.45988">
        <ele>165.4</ele>
        <time>2024-08-31T10:41:37.569Z</time>
      </trkpt>
      <trkpt lat="44.18416" lon="4.45985">
        <ele>165.6</ele>
        <time>2024-08-31T10:41:39.227Z</time>
      </trkpt>
      <trkpt lat="44.18418" lon="4.45982">
        <ele>165.8</ele>
        <time>2024-08-31T10:41:40.885Z</time>
      </trkpt>
      <trkpt lat="44.1842" lon="4.4598">
        <ele>166</ele>
        <time>2024-08-31T10:41:42.275Z</time>
      </trkpt>
      <trkpt lat="44.18421" lon="4.45978">
        <ele>166.4</ele>
        <time>2024-08-31T10:41:43.262Z</time>
      </trkpt>
      <trkpt lat="44.18423" lon="4.45976">
        <ele>166.8</ele>
        <time>2024-08-31T10:41:44.652Z</time>
      </trkpt>
      <trkpt lat="44.18424" lon="4.45974">
        <ele>167.2</ele>
        <time>2024-08-31T10:41:45.639Z</time>
      </trkpt>
      <trkpt lat="44.18426" lon="4.45972">
        <ele>167.6</ele>
        <time>2024-08-31T10:41:47.027Z</time>
      </trkpt>
      <trkpt lat="44.18428" lon="4.4597">
        <ele>167.8</ele>
        <time>2024-08-31T10:41:48.415Z</time>
      </trkpt>
      <trkpt lat="44.1843" lon="4.45969">
        <ele>167.8</ele>
        <time>2024-08-31T10:41:49.613Z</time>
      </trkpt>
      <trkpt lat="44.18432" lon="4.45967">
        <ele>168</ele>
        <time>2024-08-31T10:41:51.001Z</time>
      </trkpt>
      <trkpt lat="44.18434" lon="4.45966">
        <ele>168.4</ele>
        <time>2024-08-31T10:41:52.200Z</time>
      </trkpt>
      <trkpt lat="44.18436" lon="4.45964">
        <ele>168.8</ele>
        <time>2024-08-31T10:41:53.589Z</time>
      </trkpt>
      <trkpt lat="44.18438" lon="4.45963">
        <ele>169</ele>
        <time>2024-08-31T10:41:54.787Z</time>
      </trkpt>
      <trkpt lat="44.18438" lon="4.45963">
        <ele>169.4</ele>
        <time>2024-08-31T10:41:54.787Z</time>
      </trkpt>
      <trkpt lat="44.1844" lon="4.45962">
        <ele>169.6</ele>
        <time>2024-08-31T10:41:55.986Z</time>
      </trkpt>
      <trkpt lat="44.18443" lon="4.45959">
        <ele>170</ele>
        <time>2024-08-31T10:41:58.070Z</time>
      </trkpt>
      <trkpt lat="44.18445" lon="4.45958">
        <ele>170.2</ele>
        <time>2024-08-31T10:41:59.269Z</time>
      </trkpt>
      <trkpt lat="44.18448" lon="4.45956">
        <ele>170.6</ele>
        <time>2024-08-31T10:42:01.146Z</time>
      </trkpt>
      <trkpt lat="44.1845" lon="4.45954">
        <ele>170.8</ele>
        <time>2024-08-31T10:42:02.535Z</time>
      </trkpt>
      <trkpt lat="44.18452" lon="4.45952">
        <ele>171.2</ele>
        <time>2024-08-31T10:42:03.923Z</time>
      </trkpt>
      <trkpt lat="44.18454" lon="4.45951">
        <ele>171.4</ele>
        <time>2024-08-31T10:42:05.121Z</time>
      </trkpt>
      <trkpt lat="44.18456" lon="4.4595">
        <ele>171.8</ele>
        <time>2024-08-31T10:42:06.320Z</time>
      </trkpt>
      <trkpt lat="44.18458" lon="4.45948">
        <ele>172</ele>
        <time>2024-08-31T10:42:07.708Z</time>
      </trkpt>
      <trkpt lat="44.1846" lon="4.45946">
        <ele>172.4</ele>
        <time>2024-08-31T10:42:09.096Z</time>
      </trkpt>
      <trkpt lat="44.18463" lon="4.45944">
        <ele>172.6</ele>
        <time>2024-08-31T10:42:10.973Z</time>
      </trkpt>
      <trkpt lat="44.18465" lon="4.45943">
        <ele>172.8</ele>
        <time>2024-08-31T10:42:12.171Z</time>
      </trkpt>
      <trkpt lat="44.18467" lon="4.45941">
        <ele>173</ele>
        <time>2024-08-31T10:42:13.559Z</time>
      </trkpt>
      <trkpt lat="44.18469" lon="4.4594">
        <ele>173.2</ele>
        <time>2024-08-31T10:42:14.757Z</time>
      </trkpt>
      <trkpt lat="44.18472" lon="4.45939">
        <ele>173.2</ele>
        <time>2024-08-31T10:42:16.497Z</time>
      </trkpt>
      <trkpt lat="44.18474" lon="4.45937">
        <ele>173.6</ele>
        <time>2024-08-31T10:42:17.885Z</time>
      </trkpt>
      <trkpt lat="44.18477" lon="4.45936">
        <ele>173.6</ele>
        <time>2024-08-31T10:42:19.627Z</time>
      </trkpt>
      <trkpt lat="44.1848" lon="4.45935">
        <ele>173.6</ele>
        <time>2024-08-31T10:42:21.369Z</time>
      </trkpt>
      <trkpt lat="44.18482" lon="4.45934">
        <ele>173.8</ele>
        <time>2024-08-31T10:42:22.569Z</time>
      </trkpt>
      <trkpt lat="44.18485" lon="4.45932">
        <ele>173.8</ele>
        <time>2024-08-31T10:42:24.446Z</time>
      </trkpt>
      <trkpt lat="44.18488" lon="4.4593">
        <ele>174</ele>
        <time>2024-08-31T10:42:26.323Z</time>
      </trkpt>
      <trkpt lat="44.1849" lon="4.45928">
        <ele>174</ele>
        <time>2024-08-31T10:42:27.711Z</time>
      </trkpt>
      <trkpt lat="44.18492" lon="4.45926">
        <ele>174</ele>
        <time>2024-08-31T10:42:29.099Z</time>
      </trkpt>
      <trkpt lat="44.18494" lon="4.45925">
        <ele>174.2</ele>
        <time>2024-08-31T10:42:30.297Z</time>
      </trkpt>
      <trkpt lat="44.18496" lon="4.45923">
        <ele>174.2</ele>
        <time>2024-08-31T10:42:31.685Z</time>
      </trkpt>
      <trkpt lat="44.18497" lon="4.45921">
        <ele>174.2</ele>
        <time>2024-08-31T10:42:32.672Z</time>
      </trkpt>
      <trkpt lat="44.18498" lon="4.45919">
        <ele>174.4</ele>
        <time>2024-08-31T10:42:33.659Z</time>
      </trkpt>
      <trkpt lat="44.18499" lon="4.45916">
        <ele>174.4</ele>
        <time>2024-08-31T10:42:34.998Z</time>
      </trkpt>
      <trkpt lat="44.185" lon="4.45915">
        <ele>174.6</ele>
        <time>2024-08-31T10:42:35.691Z</time>
      </trkpt>
      <trkpt lat="44.18502" lon="4.45913">
        <ele>174.6</ele>
        <time>2024-08-31T10:42:37.081Z</time>
      </trkpt>
      <trkpt lat="44.18502" lon="4.45913">
        <ele>174.8</ele>
        <time>2024-08-31T10:42:37.129Z</time>
      </trkpt>
      <trkpt lat="44.18504" lon="4.45911">
        <ele>174.8</ele>
        <time>2024-08-31T10:42:38.519Z</time>
      </trkpt>
      <trkpt lat="44.18507" lon="4.45908">
        <ele>175</ele>
        <time>2024-08-31T10:42:40.603Z</time>
      </trkpt>
      <trkpt lat="44.18508" lon="4.45907">
        <ele>175</ele>
        <time>2024-08-31T10:42:41.298Z</time>
      </trkpt>
      <trkpt lat="44.18509" lon="4.45906">
        <ele>175.2</ele>
        <time>2024-08-31T10:42:41.993Z</time>
      </trkpt>
      <trkpt lat="44.18509" lon="4.45905">
        <ele>175.2</ele>
        <time>2024-08-31T10:42:42.396Z</time>
      </trkpt>
      <trkpt lat="44.18509" lon="4.45905">
        <ele>175.4</ele>
        <time>2024-08-31T10:42:42.396Z</time>
      </trkpt>
      <trkpt lat="44.18509" lon="4.45905">
        <ele>175.6</ele>
        <time>2024-08-31T10:42:42.396Z</time>
      </trkpt>
      <trkpt lat="44.18509" lon="4.45905">
        <ele>175.6</ele>
        <time>2024-08-31T10:42:42.396Z</time>
      </trkpt>
      <trkpt lat="44.18514" lon="4.45901">
        <ele>177.6</ele>
        <time>2024-08-31T10:42:45.651Z</time>
      </trkpt>
      <trkpt lat="44.18519" lon="4.45895">
        <ele>177.6</ele>
        <time>2024-08-31T10:42:49.375Z</time>
      </trkpt>
      <trkpt lat="44.18523" lon="4.45892">
        <ele>177.6</ele>
        <time>2024-08-31T10:42:51.939Z</time>
      </trkpt>
      <trkpt lat="44.18524" lon="4.4589">
        <ele>177.6</ele>
        <time>2024-08-31T10:42:52.924Z</time>
      </trkpt>
      <trkpt lat="44.1853" lon="4.45884">
        <ele>178</ele>
        <time>2024-08-31T10:42:57.092Z</time>
      </trkpt>
      <trkpt lat="44.18532" lon="4.45883">
        <ele>177.8</ele>
        <time>2024-08-31T10:42:58.290Z</time>
      </trkpt>
      <trkpt lat="44.18534" lon="4.45882">
        <ele>178</ele>
        <time>2024-08-31T10:42:59.488Z</time>
      </trkpt>
      <trkpt lat="44.18535" lon="4.45881">
        <ele>178.4</ele>
        <time>2024-08-31T10:43:00.183Z</time>
      </trkpt>
      <trkpt lat="44.18537" lon="4.4588">
        <ele>178.4</ele>
        <time>2024-08-31T10:43:01.382Z</time>
      </trkpt>
      <trkpt lat="44.18538" lon="4.45879">
        <ele>178.8</ele>
        <time>2024-08-31T10:43:02.077Z</time>
      </trkpt>
      <trkpt lat="44.1854" lon="4.45878">
        <ele>178.8</ele>
        <time>2024-08-31T10:43:03.275Z</time>
      </trkpt>
      <trkpt lat="44.18541" lon="4.45877">
        <ele>179</ele>
        <time>2024-08-31T10:43:03.966Z</time>
      </trkpt>
      <trkpt lat="44.18542" lon="4.45876">
        <ele>179.2</ele>
        <time>2024-08-31T10:43:04.657Z</time>
      </trkpt>
      <trkpt lat="44.18542" lon="4.45876">
        <ele>179.6</ele>
        <time>2024-08-31T10:43:04.657Z</time>
      </trkpt>
      <trkpt lat="44.18542" lon="4.45876">
        <ele>179.8</ele>
        <time>2024-08-31T10:43:04.657Z</time>
      </trkpt>
      <trkpt lat="44.18553" lon="4.45868">
        <ele>182.2</ele>
        <time>2024-08-31T10:43:11.662Z</time>
      </trkpt>
      <trkpt lat="44.18557" lon="4.45867">
        <ele>182.2</ele>
        <time>2024-08-31T10:43:13.956Z</time>
      </trkpt>
      <trkpt lat="44.18562" lon="4.45863">
        <ele>182.2</ele>
        <time>2024-08-31T10:43:17.210Z</time>
      </trkpt>
      <trkpt lat="44.18563" lon="4.45862">
        <ele>182.4</ele>
        <time>2024-08-31T10:43:17.901Z</time>
      </trkpt>
      <trkpt lat="44.18564" lon="4.45862">
        <ele>182.4</ele>
        <time>2024-08-31T10:43:18.467Z</time>
      </trkpt>
      <trkpt lat="44.18564" lon="4.45862">
        <ele>182.4</ele>
        <time>2024-08-31T10:43:18.467Z</time>
      </trkpt>
      <trkpt lat="44.18564" lon="4.45862">
        <ele>182.6</ele>
        <time>2024-08-31T10:43:18.467Z</time>
      </trkpt>
      <trkpt lat="44.18569" lon="4.45858">
        <ele>185</ele>
        <time>2024-08-31T10:43:21.721Z</time>
      </trkpt>
      <trkpt lat="44.18573" lon="4.45856">
        <ele>185.2</ele>
        <time>2024-08-31T10:43:24.119Z</time>
      </trkpt>
      <trkpt lat="44.18577" lon="4.45855">
        <ele>185.2</ele>
        <time>2024-08-31T10:43:26.412Z</time>
      </trkpt>
      <trkpt lat="44.18584" lon="4.45853">
        <ele>185.6</ele>
        <time>2024-08-31T10:43:30.446Z</time>
      </trkpt>
      <trkpt lat="44.18593" lon="4.4585">
        <ele>186.2</ele>
        <time>2024-08-31T10:43:35.671Z</time>
      </trkpt>
      <trkpt lat="44.18604" lon="4.45848">
        <ele>186.8</ele>
        <time>2024-08-31T10:43:41.934Z</time>
      </trkpt>
      <trkpt lat="44.18607" lon="4.45846">
        <ele>187</ele>
        <time>2024-08-31T10:43:43.811Z</time>
      </trkpt>
      <trkpt lat="44.18611" lon="4.45846">
        <ele>187.2</ele>
        <time>2024-08-31T10:43:46.069Z</time>
      </trkpt>
      <trkpt lat="44.18617" lon="4.45844">
        <ele>187.4</ele>
        <time>2024-08-31T10:43:49.552Z</time>
      </trkpt>
      <trkpt lat="44.18619" lon="4.45844">
        <ele>187.8</ele>
        <time>2024-08-31T10:43:50.680Z</time>
      </trkpt>
      <trkpt lat="44.18621" lon="4.45843">
        <ele>187.8</ele>
        <time>2024-08-31T10:43:51.878Z</time>
      </trkpt>
      <trkpt lat="44.18628" lon="4.45845">
        <ele>188.6</ele>
        <time>2024-08-31T10:43:55.912Z</time>
      </trkpt>
      <trkpt lat="44.1863" lon="4.45845">
        <ele>188.8</ele>
        <time>2024-08-31T10:43:57.041Z</time>
      </trkpt>
      <trkpt lat="44.18632" lon="4.45845">
        <ele>189</ele>
        <time>2024-08-31T10:43:58.170Z</time>
      </trkpt>
      <trkpt lat="44.18634" lon="4.45845">
        <ele>189.2</ele>
        <time>2024-08-31T10:43:59.298Z</time>
      </trkpt>
      <trkpt lat="44.18636" lon="4.45845">
        <ele>189.4</ele>
        <time>2024-08-31T10:44:00.427Z</time>
      </trkpt>
      <trkpt lat="44.18638" lon="4.45845">
        <ele>189.6</ele>
        <time>2024-08-31T10:44:01.555Z</time>
      </trkpt>
      <trkpt lat="44.18641" lon="4.45845">
        <ele>189.6</ele>
        <time>2024-08-31T10:44:03.248Z</time>
      </trkpt>
      <trkpt lat="44.18643" lon="4.45846">
        <ele>189.8</ele>
        <time>2024-08-31T10:44:04.446Z</time>
      </trkpt>
      <trkpt lat="44.18645" lon="4.45846">
        <ele>190</ele>
        <time>2024-08-31T10:44:05.575Z</time>
      </trkpt>
      <trkpt lat="44.18648" lon="4.45847">
        <ele>190.2</ele>
        <time>2024-08-31T10:44:07.316Z</time>
      </trkpt>
      <trkpt lat="44.18648" lon="4.45847">
        <ele>190.4</ele>
        <time>2024-08-31T10:44:07.316Z</time>
      </trkpt>
      <trkpt lat="44.18651" lon="4.45847">
        <ele>190.4</ele>
        <time>2024-08-31T10:44:09.009Z</time>
      </trkpt>
      <trkpt lat="44.18653" lon="4.45847">
        <ele>190.4</ele>
        <time>2024-08-31T10:44:10.138Z</time>
      </trkpt>
      <trkpt lat="44.18653" lon="4.45847">
        <ele>190.6</ele>
        <time>2024-08-31T10:44:10.138Z</time>
      </trkpt>
      <trkpt lat="44.18655" lon="4.45847">
        <ele>190.6</ele>
        <time>2024-08-31T10:44:11.266Z</time>
      </trkpt>
      <trkpt lat="44.18657" lon="4.45846">
        <ele>190.8</ele>
        <time>2024-08-31T10:44:12.464Z</time>
      </trkpt>
      <trkpt lat="44.18662" lon="4.45845">
        <ele>190.8</ele>
        <time>2024-08-31T10:44:15.316Z</time>
      </trkpt>
      <trkpt lat="44.18664" lon="4.45845">
        <ele>191</ele>
        <time>2024-08-31T10:44:16.444Z</time>
      </trkpt>
      <trkpt lat="44.18666" lon="4.45844">
        <ele>191.2</ele>
        <time>2024-08-31T10:44:17.642Z</time>
      </trkpt>
      <trkpt lat="44.18668" lon="4.45844">
        <ele>191.4</ele>
        <time>2024-08-31T10:44:18.772Z</time>
      </trkpt>
      <trkpt lat="44.18671" lon="4.45844">
        <ele>191.6</ele>
        <time>2024-08-31T10:44:20.465Z</time>
      </trkpt>
      <trkpt lat="44.18671" lon="4.45844">
        <ele>191.6</ele>
        <time>2024-08-31T10:44:20.465Z</time>
      </trkpt>
      <trkpt lat="44.18672" lon="4.45844">
        <ele>191.8</ele>
        <time>2024-08-31T10:44:21.031Z</time>
      </trkpt>
      <trkpt lat="44.18673" lon="4.45843">
        <ele>191.8</ele>
        <time>2024-08-31T10:44:21.726Z</time>
      </trkpt>
      <trkpt lat="44.18673" lon="4.45843">
        <ele>192</ele>
        <time>2024-08-31T10:44:21.774Z</time>
      </trkpt>
      <trkpt lat="44.18673" lon="4.45843">
        <ele>192.2</ele>
        <time>2024-08-31T10:44:21.822Z</time>
      </trkpt>
      <trkpt lat="44.18699" lon="4.45831">
        <ele>193.8</ele>
        <time>2024-08-31T10:44:37.286Z</time>
      </trkpt>
      <trkpt lat="44.18701" lon="4.45829">
        <ele>193.8</ele>
        <time>2024-08-31T10:44:38.674Z</time>
      </trkpt>
      <trkpt lat="44.18703" lon="4.45826">
        <ele>194</ele>
        <time>2024-08-31T10:44:40.332Z</time>
      </trkpt>
      <trkpt lat="44.18705" lon="4.45823">
        <ele>194</ele>
        <time>2024-08-31T10:44:41.990Z</time>
      </trkpt>
      <trkpt lat="44.18707" lon="4.45821">
        <ele>194.2</ele>
        <time>2024-08-31T10:44:43.378Z</time>
      </trkpt>
      <trkpt lat="44.18707" lon="4.45821">
        <ele>194.4</ele>
        <time>2024-08-31T10:44:43.378Z</time>
      </trkpt>
      <trkpt lat="44.18708" lon="4.45819">
        <ele>194.6</ele>
        <time>2024-08-31T10:44:44.363Z</time>
      </trkpt>
      <trkpt lat="44.18711" lon="4.45815">
        <ele>194.8</ele>
        <time>2024-08-31T10:44:46.706Z</time>
      </trkpt>
      <trkpt lat="44.18713" lon="4.45813">
        <ele>195</ele>
        <time>2024-08-31T10:44:48.094Z</time>
      </trkpt>
      <trkpt lat="44.18715" lon="4.45812">
        <ele>195.2</ele>
        <time>2024-08-31T10:44:49.292Z</time>
      </trkpt>
      <trkpt lat="44.18717" lon="4.4581">
        <ele>195.4</ele>
        <time>2024-08-31T10:44:50.681Z</time>
      </trkpt>
      <trkpt lat="44.18719" lon="4.45808">
        <ele>195.4</ele>
        <time>2024-08-31T10:44:52.069Z</time>
      </trkpt>
      <trkpt lat="44.18721" lon="4.45805">
        <ele>195.6</ele>
        <time>2024-08-31T10:44:53.727Z</time>
      </trkpt>
      <trkpt lat="44.18723" lon="4.45803">
        <ele>195.8</ele>
        <time>2024-08-31T10:44:55.116Z</time>
      </trkpt>
      <trkpt lat="44.18724" lon="4.45801">
        <ele>196</ele>
        <time>2024-08-31T10:44:56.103Z</time>
      </trkpt>
      <trkpt lat="44.18725" lon="4.45799">
        <ele>196.4</ele>
        <time>2024-08-31T10:44:57.090Z</time>
      </trkpt>
      <trkpt lat="44.18726" lon="4.45796">
        <ele>196.6</ele>
        <time>2024-08-31T10:44:58.429Z</time>
      </trkpt>
      <trkpt lat="44.18728" lon="4.45794">
        <ele>196.6</ele>
        <time>2024-08-31T10:44:59.817Z</time>
      </trkpt>
      <trkpt lat="44.18729" lon="4.45791">
        <ele>196.8</ele>
        <time>2024-08-31T10:45:01.156Z</time>
      </trkpt>
      <trkpt lat="44.18729" lon="4.45791">
        <ele>197</ele>
        <time>2024-08-31T10:45:01.156Z</time>
      </trkpt>
      <trkpt lat="44.18731" lon="4.45788">
        <ele>197</ele>
        <time>2024-08-31T10:45:02.814Z</time>
      </trkpt>
      <trkpt lat="44.18732" lon="4.45788">
        <ele>197.2</ele>
        <time>2024-08-31T10:45:03.380Z</time>
      </trkpt>
      <trkpt lat="44.18734" lon="4.45789">
        <ele>197.4</ele>
        <time>2024-08-31T10:45:04.579Z</time>
      </trkpt>
      <trkpt lat="44.18736" lon="4.45791">
        <ele>197.4</ele>
        <time>2024-08-31T10:45:05.968Z</time>
      </trkpt>
      <trkpt lat="44.18737" lon="4.45793">
        <ele>197.6</ele>
        <time>2024-08-31T10:45:06.954Z</time>
      </trkpt>
      <trkpt lat="44.18739" lon="4.45795">
        <ele>197.6</ele>
        <time>2024-08-31T10:45:08.343Z</time>
      </trkpt>
      <trkpt lat="44.18741" lon="4.45797">
        <ele>197.6</ele>
        <time>2024-08-31T10:45:09.731Z</time>
      </trkpt>
      <trkpt lat="44.18742" lon="4.458">
        <ele>197.6</ele>
        <time>2024-08-31T10:45:11.070Z</time>
      </trkpt>
      <trkpt lat="44.18745" lon="4.45803">
        <ele>197.6</ele>
        <time>2024-08-31T10:45:13.154Z</time>
      </trkpt>
      <trkpt lat="44.18747" lon="4.45806">
        <ele>197.6</ele>
        <time>2024-08-31T10:45:14.812Z</time>
      </trkpt>
      <trkpt lat="44.18747" lon="4.45806">
        <ele>197.6</ele>
        <time>2024-08-31T10:45:14.812Z</time>
      </trkpt>
      <trkpt lat="44.18749" lon="4.4581">
        <ele>197.6</ele>
        <time>2024-08-31T10:45:16.786Z</time>
      </trkpt>
      <trkpt lat="44.18753" lon="4.45818">
        <ele>197.6</ele>
        <time>2024-08-31T10:45:20.734Z</time>
      </trkpt>
      <trkpt lat="44.18754" lon="4.45822">
        <ele>197.6</ele>
        <time>2024-08-31T10:45:22.449Z</time>
      </trkpt>
      <trkpt lat="44.18756" lon="4.45827">
        <ele>197.6</ele>
        <time>2024-08-31T10:45:24.767Z</time>
      </trkpt>
      <trkpt lat="44.18758" lon="4.45832">
        <ele>197.4</ele>
        <time>2024-08-31T10:45:27.085Z</time>
      </trkpt>
      <trkpt lat="44.1876" lon="4.45837">
        <ele>197.4</ele>
        <time>2024-08-31T10:45:29.403Z</time>
      </trkpt>
      <trkpt lat="44.18762" lon="4.45841">
        <ele>197.4</ele>
        <time>2024-08-31T10:45:31.377Z</time>
      </trkpt>
      <trkpt lat="44.18776" lon="4.45864">
        <ele>196.8</ele>
        <time>2024-08-31T10:45:43.592Z</time>
      </trkpt>
      <trkpt lat="44.18788" lon="4.45882">
        <ele>196.4</ele>
        <time>2024-08-31T10:45:53.543Z</time>
      </trkpt>
      <trkpt lat="44.18798" lon="4.45901">
        <ele>196</ele>
        <time>2024-08-31T10:46:03.085Z</time>
      </trkpt>
      <trkpt lat="44.18805" lon="4.45915">
        <ele>195.2</ele>
        <time>2024-08-31T10:46:09.995Z</time>
      </trkpt>
      <trkpt lat="44.18809" lon="4.4592">
        <ele>195</ele>
        <time>2024-08-31T10:46:13.028Z</time>
      </trkpt>
      <trkpt lat="44.18814" lon="4.45924">
        <ele>194.6</ele>
        <time>2024-08-31T10:46:16.283Z</time>
      </trkpt>
      <trkpt lat="44.18818" lon="4.45927">
        <ele>194</ele>
        <time>2024-08-31T10:46:18.847Z</time>
      </trkpt>
      <trkpt lat="44.18823" lon="4.45933">
        <ele>193.6</ele>
        <time>2024-08-31T10:46:22.571Z</time>
      </trkpt>
      <trkpt lat="44.18832" lon="4.4595">
        <ele>192.4</ele>
        <time>2024-08-31T10:46:31.126Z</time>
      </trkpt>
      <trkpt lat="44.18836" lon="4.45957">
        <ele>192</ele>
        <time>2024-08-31T10:46:34.750Z</time>
      </trkpt>
      <trkpt lat="44.18839" lon="4.45963">
        <ele>191.6</ele>
        <time>2024-08-31T10:46:37.711Z</time>
      </trkpt>
      <trkpt lat="44.18843" lon="4.45968">
        <ele>191.2</ele>
        <time>2024-08-31T10:46:40.744Z</time>
      </trkpt>
      <trkpt lat="44.18847" lon="4.45972">
        <ele>190.6</ele>
        <time>2024-08-31T10:46:43.523Z</time>
      </trkpt>
      <trkpt lat="44.18851" lon="4.45974">
        <ele>190.2</ele>
        <time>2024-08-31T10:46:45.922Z</time>
      </trkpt>
      <trkpt lat="44.18853" lon="4.45975">
        <ele>190</ele>
        <time>2024-08-31T10:46:47.121Z</time>
      </trkpt>
      <trkpt lat="44.18855" lon="4.45974">
        <ele>189.6</ele>
        <time>2024-08-31T10:46:48.320Z</time>
      </trkpt>
      <trkpt lat="44.18858" lon="4.45975">
        <ele>189.4</ele>
        <time>2024-08-31T10:46:50.060Z</time>
      </trkpt>
      <trkpt lat="44.1886" lon="4.45975">
        <ele>189.4</ele>
        <time>2024-08-31T10:46:51.188Z</time>
      </trkpt>
      <trkpt lat="44.18862" lon="4.45973">
        <ele>188.8</ele>
        <time>2024-08-31T10:46:52.576Z</time>
      </trkpt>
      <trkpt lat="44.18864" lon="4.4597">
        <ele>188.4</ele>
        <time>2024-08-31T10:46:54.234Z</time>
      </trkpt>
      <trkpt lat="44.18866" lon="4.45968">
        <ele>188</ele>
        <time>2024-08-31T10:46:55.622Z</time>
      </trkpt>
      <trkpt lat="44.18868" lon="4.45965">
        <ele>187.4</ele>
        <time>2024-08-31T10:46:57.280Z</time>
      </trkpt>
      <trkpt lat="44.18873" lon="4.45962">
        <ele>187</ele>
        <time>2024-08-31T10:47:00.353Z</time>
      </trkpt>
      <trkpt lat="44.18875" lon="4.45961">
        <ele>186.8</ele>
        <time>2024-08-31T10:47:01.551Z</time>
      </trkpt>
      <trkpt lat="44.18877" lon="4.45959">
        <ele>186.6</ele>
        <time>2024-08-31T10:47:02.941Z</time>
      </trkpt>
      <trkpt lat="44.18879" lon="4.45958">
        <ele>186.2</ele>
        <time>2024-08-31T10:47:04.141Z</time>
      </trkpt>
      <trkpt lat="44.18886" lon="4.45956">
        <ele>185.2</ele>
        <time>2024-08-31T10:47:08.175Z</time>
      </trkpt>
      <trkpt lat="44.18891" lon="4.45955">
        <ele>185</ele>
        <time>2024-08-31T10:47:11.027Z</time>
      </trkpt>
      <trkpt lat="44.18894" lon="4.45954">
        <ele>185</ele>
        <time>2024-08-31T10:47:12.767Z</time>
      </trkpt>
      <trkpt lat="44.189" lon="4.45952">
        <ele>184.8</ele>
        <time>2024-08-31T10:47:16.250Z</time>
      </trkpt>
      <trkpt lat="44.18903" lon="4.45951">
        <ele>184.8</ele>
        <time>2024-08-31T10:47:17.990Z</time>
      </trkpt>
      <trkpt lat="44.18905" lon="4.45949">
        <ele>184.8</ele>
        <time>2024-08-31T10:47:19.379Z</time>
      </trkpt>
      <trkpt lat="44.18907" lon="4.45947">
        <ele>184.8</ele>
        <time>2024-08-31T10:47:20.769Z</time>
      </trkpt>
      <trkpt lat="44.18909" lon="4.45944">
        <ele>184.8</ele>
        <time>2024-08-31T10:47:22.427Z</time>
      </trkpt>
      <trkpt lat="44.1891" lon="4.4594">
        <ele>184.8</ele>
        <time>2024-08-31T10:47:24.143Z</time>
      </trkpt>
      <trkpt lat="44.18912" lon="4.45937">
        <ele>184.8</ele>
        <time>2024-08-31T10:47:25.801Z</time>
      </trkpt>
      <trkpt lat="44.18913" lon="4.45933">
        <ele>184.8</ele>
        <time>2024-08-31T10:47:27.516Z</time>
      </trkpt>
      <trkpt lat="44.18916" lon="4.45931">
        <ele>184.8</ele>
        <time>2024-08-31T10:47:29.393Z</time>
      </trkpt>
      <trkpt lat="44.18918" lon="4.45928">
        <ele>184.8</ele>
        <time>2024-08-31T10:47:31.051Z</time>
      </trkpt>
      <trkpt lat="44.18924" lon="4.45911">
        <ele>185.6</ele>
        <time>2024-08-31T10:47:38.722Z</time>
      </trkpt>
      <trkpt lat="44.18925" lon="4.45908">
        <ele>186.2</ele>
        <time>2024-08-31T10:47:40.061Z</time>
      </trkpt>
      <trkpt lat="44.18926" lon="4.45904">
        <ele>186.4</ele>
        <time>2024-08-31T10:47:41.776Z</time>
      </trkpt>
      <trkpt lat="44.18927" lon="4.459">
        <ele>187.2</ele>
        <time>2024-08-31T10:47:43.491Z</time>
      </trkpt>
      <trkpt lat="44.18929" lon="4.4589">
        <ele>188.2</ele>
        <time>2024-08-31T10:47:47.694Z</time>
      </trkpt>
      <trkpt lat="44.1893" lon="4.45888">
        <ele>188.6</ele>
        <time>2024-08-31T10:47:48.681Z</time>
      </trkpt>
      <trkpt lat="44.1893" lon="4.45888">
        <ele>189</ele>
        <time>2024-08-31T10:47:48.681Z</time>
      </trkpt>
      <trkpt lat="44.1893" lon="4.45885">
        <ele>189.4</ele>
        <time>2024-08-31T10:47:49.894Z</time>
      </trkpt>
      <trkpt lat="44.18931" lon="4.45882">
        <ele>190</ele>
        <time>2024-08-31T10:47:51.234Z</time>
      </trkpt>
      <trkpt lat="44.18933" lon="4.45876">
        <ele>190.6</ele>
        <time>2024-08-31T10:47:53.912Z</time>
      </trkpt>
      <trkpt lat="44.18933" lon="4.45876">
        <ele>191.2</ele>
        <time>2024-08-31T10:47:53.912Z</time>
      </trkpt>
      <trkpt lat="44.18933" lon="4.45873">
        <ele>191.4</ele>
        <time>2024-08-31T10:47:55.125Z</time>
      </trkpt>
      <trkpt lat="44.18934" lon="4.45871">
        <ele>191.8</ele>
        <time>2024-08-31T10:47:56.112Z</time>
      </trkpt>
      <trkpt lat="44.18935" lon="4.45869">
        <ele>191.8</ele>
        <time>2024-08-31T10:47:57.099Z</time>
      </trkpt>
      <trkpt lat="44.18935" lon="4.45867">
        <ele>192</ele>
        <time>2024-08-31T10:47:57.910Z</time>
      </trkpt>
      <trkpt lat="44.18936" lon="4.45865">
        <ele>192.4</ele>
        <time>2024-08-31T10:47:58.897Z</time>
      </trkpt>
      <trkpt lat="44.18939" lon="4.4586">
        <ele>192.6</ele>
        <time>2024-08-31T10:48:01.537Z</time>
      </trkpt>
      <trkpt lat="44.18939" lon="4.4586">
        <ele>192.8</ele>
        <time>2024-08-31T10:48:01.537Z</time>
      </trkpt>
      <trkpt lat="44.18941" lon="4.45858">
        <ele>193.2</ele>
        <time>2024-08-31T10:48:02.926Z</time>
      </trkpt>
      <trkpt lat="44.18943" lon="4.45856">
        <ele>193.6</ele>
        <time>2024-08-31T10:48:04.314Z</time>
      </trkpt>
      <trkpt lat="44.18945" lon="4.45853">
        <ele>193.8</ele>
        <time>2024-08-31T10:48:05.972Z</time>
      </trkpt>
      <trkpt lat="44.18949" lon="4.4585">
        <ele>194.2</ele>
        <time>2024-08-31T10:48:08.536Z</time>
      </trkpt>
      <trkpt lat="44.18949" lon="4.4585">
        <ele>194.4</ele>
        <time>2024-08-31T10:48:08.536Z</time>
      </trkpt>
      <trkpt lat="44.18952" lon="4.45848">
        <ele>194.4</ele>
        <time>2024-08-31T10:48:10.413Z</time>
      </trkpt>
      <trkpt lat="44.18954" lon="4.45845">
        <ele>194.6</ele>
        <time>2024-08-31T10:48:12.071Z</time>
      </trkpt>
      <trkpt lat="44.18957" lon="4.4584">
        <ele>194.8</ele>
        <time>2024-08-31T10:48:14.711Z</time>
      </trkpt>
      <trkpt lat="44.18957" lon="4.4584">
        <ele>195</ele>
        <time>2024-08-31T10:48:14.759Z</time>
      </trkpt>
      <trkpt lat="44.18959" lon="4.45838">
        <ele>195.2</ele>
        <time>2024-08-31T10:48:16.148Z</time>
      </trkpt>
      <trkpt lat="44.1896" lon="4.45837">
        <ele>195.2</ele>
        <time>2024-08-31T10:48:16.841Z</time>
      </trkpt>
      <trkpt lat="44.18961" lon="4.45835">
        <ele>195.4</ele>
        <time>2024-08-31T10:48:17.827Z</time>
      </trkpt>
      <trkpt lat="44.18964" lon="4.45832">
        <ele>195.4</ele>
        <time>2024-08-31T10:48:19.911Z</time>
      </trkpt>
      <trkpt lat="44.18966" lon="4.4583">
        <ele>195.4</ele>
        <time>2024-08-31T10:48:21.300Z</time>
      </trkpt>
      <trkpt lat="44.18967" lon="4.45828">
        <ele>195.6</ele>
        <time>2024-08-31T10:48:22.287Z</time>
      </trkpt>
      <trkpt lat="44.18967" lon="4.45828">
        <ele>195.6</ele>
        <time>2024-08-31T10:48:22.287Z</time>
      </trkpt>
      <trkpt lat="44.1897" lon="4.45825">
        <ele>195.6</ele>
        <time>2024-08-31T10:48:24.371Z</time>
      </trkpt>
      <trkpt lat="44.18972" lon="4.45822">
        <ele>195.8</ele>
        <time>2024-08-31T10:48:26.029Z</time>
      </trkpt>
      <trkpt lat="44.18974" lon="4.45821">
        <ele>195.8</ele>
        <time>2024-08-31T10:48:27.227Z</time>
      </trkpt>
      <trkpt lat="44.18979" lon="4.45816">
        <ele>195.8</ele>
        <time>2024-08-31T10:48:30.700Z</time>
      </trkpt>
      <trkpt lat="44.18979" lon="4.45816">
        <ele>195.8</ele>
        <time>2024-08-31T10:48:30.700Z</time>
      </trkpt>
      <trkpt lat="44.18981" lon="4.45813">
        <ele>196</ele>
        <time>2024-08-31T10:48:32.358Z</time>
      </trkpt>
      <trkpt lat="44.18985" lon="4.4581">
        <ele>196</ele>
        <time>2024-08-31T10:48:34.922Z</time>
      </trkpt>
      <trkpt lat="44.18987" lon="4.45812">
        <ele>196</ele>
        <time>2024-08-31T10:48:36.311Z</time>
      </trkpt>
      <trkpt lat="44.18988" lon="4.45813">
        <ele>196.2</ele>
        <time>2024-08-31T10:48:37.002Z</time>
      </trkpt>
      <trkpt lat="44.1899" lon="4.45814">
        <ele>196.2</ele>
        <time>2024-08-31T10:48:38.200Z</time>
      </trkpt>
      <trkpt lat="44.18991" lon="4.45815">
        <ele>196.2</ele>
        <time>2024-08-31T10:48:38.893Z</time>
      </trkpt>
      <trkpt lat="44.18993" lon="4.45818">
        <ele>196.4</ele>
        <time>2024-08-31T10:48:40.551Z</time>
      </trkpt>
      <trkpt lat="44.18995" lon="4.4582">
        <ele>196.4</ele>
        <time>2024-08-31T10:48:41.939Z</time>
      </trkpt>
      <trkpt lat="44.18997" lon="4.45822">
        <ele>196.6</ele>
        <time>2024-08-31T10:48:43.327Z</time>
      </trkpt>
      <trkpt lat="44.18999" lon="4.45824">
        <ele>196.6</ele>
        <time>2024-08-31T10:48:44.716Z</time>
      </trkpt>
      <trkpt lat="44.18999" lon="4.45824">
        <ele>196.8</ele>
        <time>2024-08-31T10:48:44.764Z</time>
      </trkpt>
      <trkpt lat="44.19002" lon="4.45825">
        <ele>197</ele>
        <time>2024-08-31T10:48:46.505Z</time>
      </trkpt>
      <trkpt lat="44.19004" lon="4.45828">
        <ele>197.2</ele>
        <time>2024-08-31T10:48:48.163Z</time>
      </trkpt>
      <trkpt lat="44.19007" lon="4.45829">
        <ele>197.4</ele>
        <time>2024-08-31T10:48:49.904Z</time>
      </trkpt>
      <trkpt lat="44.19012" lon="4.45832">
        <ele>197.4</ele>
        <time>2024-08-31T10:48:52.977Z</time>
      </trkpt>
      <trkpt lat="44.19012" lon="4.45832">
        <ele>197.4</ele>
        <time>2024-08-31T10:48:52.977Z</time>
      </trkpt>
      <trkpt lat="44.19015" lon="4.45833">
        <ele>197.6</ele>
        <time>2024-08-31T10:48:54.717Z</time>
      </trkpt>
      <trkpt lat="44.19018" lon="4.45834">
        <ele>197.6</ele>
        <time>2024-08-31T10:48:56.458Z</time>
      </trkpt>
      <trkpt lat="44.19024" lon="4.45833">
        <ele>197.8</ele>
        <time>2024-08-31T10:48:59.869Z</time>
      </trkpt>
      <trkpt lat="44.19025" lon="4.45831">
        <ele>197.8</ele>
        <time>2024-08-31T10:49:00.856Z</time>
      </trkpt>
      <trkpt lat="44.19025" lon="4.45831">
        <ele>198</ele>
        <time>2024-08-31T10:49:00.904Z</time>
      </trkpt>
      <trkpt lat="44.19027" lon="4.45829">
        <ele>198</ele>
        <time>2024-08-31T10:49:02.294Z</time>
      </trkpt>
      <trkpt lat="44.19028" lon="4.45826">
        <ele>198.2</ele>
        <time>2024-08-31T10:49:03.633Z</time>
      </trkpt>
      <trkpt lat="44.1903" lon="4.45821">
        <ele>198.2</ele>
        <time>2024-08-31T10:49:05.951Z</time>
      </trkpt>
      <trkpt lat="44.19031" lon="4.45818">
        <ele>198.4</ele>
        <time>2024-08-31T10:49:07.290Z</time>
      </trkpt>
      <trkpt lat="44.19032" lon="4.45815">
        <ele>198.4</ele>
        <time>2024-08-31T10:49:08.629Z</time>
      </trkpt>
      <trkpt lat="44.19033" lon="4.45811">
        <ele>198.4</ele>
        <time>2024-08-31T10:49:10.344Z</time>
      </trkpt>
      <trkpt lat="44.19034" lon="4.45807">
        <ele>198.4</ele>
        <time>2024-08-31T10:49:12.059Z</time>
      </trkpt>
      <trkpt lat="44.19034" lon="4.45803">
        <ele>198.6</ele>
        <time>2024-08-31T10:49:13.678Z</time>
      </trkpt>
      <trkpt lat="44.19036" lon="4.45799">
        <ele>198.8</ele>
        <time>2024-08-31T10:49:15.652Z</time>
      </trkpt>
      <trkpt lat="44.19036" lon="4.45795">
        <ele>198.8</ele>
        <time>2024-08-31T10:49:17.272Z</time>
      </trkpt>
      <trkpt lat="44.19038" lon="4.45792">
        <ele>199</ele>
        <time>2024-08-31T10:49:18.930Z</time>
      </trkpt>
      <trkpt lat="44.19039" lon="4.45789">
        <ele>199.2</ele>
        <time>2024-08-31T10:49:20.270Z</time>
      </trkpt>
      <trkpt lat="44.19042" lon="4.45779">
        <ele>199.6</ele>
        <time>2024-08-31T10:49:24.658Z</time>
      </trkpt>
      <trkpt lat="44.19042" lon="4.45779">
        <ele>199.6</ele>
        <time>2024-08-31T10:49:24.658Z</time>
      </trkpt>
      <trkpt lat="44.19044" lon="4.45775">
        <ele>199.8</ele>
        <time>2024-08-31T10:49:26.632Z</time>
      </trkpt>
      <trkpt lat="44.19046" lon="4.45771">
        <ele>200</ele>
        <time>2024-08-31T10:49:28.606Z</time>
      </trkpt>
      <trkpt lat="44.19047" lon="4.45767">
        <ele>200</ele>
        <time>2024-08-31T10:49:30.322Z</time>
      </trkpt>
      <trkpt lat="44.1905" lon="4.4576">
        <ele>200.2</ele>
        <time>2024-08-31T10:49:33.623Z</time>
      </trkpt>
      <trkpt lat="44.1905" lon="4.4576">
        <ele>200.2</ele>
        <time>2024-08-31T10:49:33.623Z</time>
      </trkpt>
      <trkpt lat="44.19052" lon="4.45757">
        <ele>200.2</ele>
        <time>2024-08-31T10:49:35.281Z</time>
      </trkpt>
      <trkpt lat="44.19054" lon="4.45754">
        <ele>200.4</ele>
        <time>2024-08-31T10:49:36.939Z</time>
      </trkpt>
      <trkpt lat="44.19055" lon="4.45752">
        <ele>200.6</ele>
        <time>2024-08-31T10:49:37.924Z</time>
      </trkpt>
      <trkpt lat="44.19055" lon="4.45752">
        <ele>200.6</ele>
        <time>2024-08-31T10:49:37.924Z</time>
      </trkpt>
      <trkpt lat="44.19056" lon="4.45751">
        <ele>200.8</ele>
        <time>2024-08-31T10:49:38.619Z</time>
      </trkpt>
      <trkpt lat="44.19057" lon="4.45752">
        <ele>200.8</ele>
        <time>2024-08-31T10:49:39.312Z</time>
      </trkpt>
      <trkpt lat="44.19057" lon="4.45752">
        <ele>200.8</ele>
        <time>2024-08-31T10:49:39.312Z</time>
      </trkpt>
      <trkpt lat="44.19058" lon="4.45753">
        <ele>200.8</ele>
        <time>2024-08-31T10:49:40.007Z</time>
      </trkpt>
      <trkpt lat="44.19058" lon="4.45753">
        <ele>201</ele>
        <time>2024-08-31T10:49:40.007Z</time>
      </trkpt>
      <trkpt lat="44.19058" lon="4.45753">
        <ele>201</ele>
        <time>2024-08-31T10:49:40.007Z</time>
      </trkpt>
      <trkpt lat="44.19058" lon="4.45753">
        <ele>201</ele>
        <time>2024-08-31T10:49:40.007Z</time>
      </trkpt>
      <trkpt lat="44.19058" lon="4.45753">
        <ele>201.2</ele>
        <time>2024-08-31T10:49:40.007Z</time>
      </trkpt>
      <trkpt lat="44.19058" lon="4.45753">
        <ele>201.2</ele>
        <time>2024-08-31T10:49:40.007Z</time>
      </trkpt>
      <trkpt lat="44.19065" lon="4.45756">
        <ele>201.2</ele>
        <time>2024-08-31T10:49:44.142Z</time>
      </trkpt>
      <trkpt lat="44.19067" lon="4.45757">
        <ele>201.2</ele>
        <time>2024-08-31T10:49:45.340Z</time>
      </trkpt>
      <trkpt lat="44.19075" lon="4.45761">
        <ele>201.2</ele>
        <time>2024-08-31T10:49:50.138Z</time>
      </trkpt>
      <trkpt lat="44.19077" lon="4.45763">
        <ele>201.2</ele>
        <time>2024-08-31T10:49:51.526Z</time>
      </trkpt>
      <trkpt lat="44.19083" lon="4.45765">
        <ele>201.4</ele>
        <time>2024-08-31T10:49:55.009Z</time>
      </trkpt>
      <trkpt lat="44.19087" lon="4.45766">
        <ele>201.4</ele>
        <time>2024-08-31T10:49:57.303Z</time>
      </trkpt>
      <trkpt lat="44.19095" lon="4.45769">
        <ele>201.8</ele>
        <time>2024-08-31T10:50:01.980Z</time>
      </trkpt>
      <trkpt lat="44.19099" lon="4.45771">
        <ele>201.8</ele>
        <time>2024-08-31T10:50:04.379Z</time>
      </trkpt>
      <trkpt lat="44.19108" lon="4.45773">
        <ele>202</ele>
        <time>2024-08-31T10:50:09.524Z</time>
      </trkpt>
      <trkpt lat="44.19112" lon="4.45772">
        <ele>202</ele>
        <time>2024-08-31T10:50:11.818Z</time>
      </trkpt>
      <trkpt lat="44.19117" lon="4.45769">
        <ele>202</ele>
        <time>2024-08-31T10:50:14.891Z</time>
      </trkpt>
      <trkpt lat="44.19122" lon="4.45766">
        <ele>202</ele>
        <time>2024-08-31T10:50:17.965Z</time>
      </trkpt>
      <trkpt lat="44.19125" lon="4.45763">
        <ele>202</ele>
        <time>2024-08-31T10:50:20.049Z</time>
      </trkpt>
      <trkpt lat="44.19129" lon="4.4576">
        <ele>202</ele>
        <time>2024-08-31T10:50:22.613Z</time>
      </trkpt>
      <trkpt lat="44.19134" lon="4.45757">
        <ele>202</ele>
        <time>2024-08-31T10:50:25.686Z</time>
      </trkpt>
      <trkpt lat="44.19139" lon="4.45756">
        <ele>202</ele>
        <time>2024-08-31T10:50:28.538Z</time>
      </trkpt>
      <trkpt lat="44.19143" lon="4.45754">
        <ele>202</ele>
        <time>2024-08-31T10:50:30.937Z</time>
      </trkpt>
      <trkpt lat="44.19147" lon="4.45752">
        <ele>201.8</ele>
        <time>2024-08-31T10:50:33.336Z</time>
      </trkpt>
      <trkpt lat="44.19155" lon="4.45749">
        <ele>201.8</ele>
        <time>2024-08-31T10:50:38.014Z</time>
      </trkpt>
      <trkpt lat="44.19173" lon="4.45745">
        <ele>201.4</ele>
        <time>2024-08-31T10:50:48.305Z</time>
      </trkpt>
      <trkpt lat="44.19178" lon="4.45744">
        <ele>201.2</ele>
        <time>2024-08-31T10:50:51.157Z</time>
      </trkpt>
      <trkpt lat="44.19187" lon="4.45743">
        <ele>200.6</ele>
        <time>2024-08-31T10:50:56.254Z</time>
      </trkpt>
      <trkpt lat="44.1919" lon="4.45742">
        <ele>200.2</ele>
        <time>2024-08-31T10:50:57.995Z</time>
      </trkpt>
      <trkpt lat="44.19192" lon="4.45741">
        <ele>200</ele>
        <time>2024-08-31T10:50:59.193Z</time>
      </trkpt>
      <trkpt lat="44.19196" lon="4.45741">
        <ele>199.8</ele>
        <time>2024-08-31T10:51:01.451Z</time>
      </trkpt>
      <trkpt lat="44.192" lon="4.45741">
        <ele>199.6</ele>
        <time>2024-08-31T10:51:03.710Z</time>
      </trkpt>
      <trkpt lat="44.19203" lon="4.45741">
        <ele>199.6</ele>
        <time>2024-08-31T10:51:05.404Z</time>
      </trkpt>
      <trkpt lat="44.19208" lon="4.45737">
        <ele>199.4</ele>
        <time>2024-08-31T10:51:08.658Z</time>
      </trkpt>
      <trkpt lat="44.1921" lon="4.45734">
        <ele>199.4</ele>
        <time>2024-08-31T10:51:10.316Z</time>
      </trkpt>
      <trkpt lat="44.19211" lon="4.4573">
        <ele>199.4</ele>
        <time>2024-08-31T10:51:12.031Z</time>
      </trkpt>
      <trkpt lat="44.19213" lon="4.45727">
        <ele>199.4</ele>
        <time>2024-08-31T10:51:13.689Z</time>
      </trkpt>
      <trkpt lat="44.19214" lon="4.45724">
        <ele>199.4</ele>
        <time>2024-08-31T10:51:15.028Z</time>
      </trkpt>
      <trkpt lat="44.19216" lon="4.45721">
        <ele>199.4</ele>
        <time>2024-08-31T10:51:16.686Z</time>
      </trkpt>
      <trkpt lat="44.1922" lon="4.45713">
        <ele>199.6</ele>
        <time>2024-08-31T10:51:20.634Z</time>
      </trkpt>
      <trkpt lat="44.19223" lon="4.45711">
        <ele>199.8</ele>
        <time>2024-08-31T10:51:22.511Z</time>
      </trkpt>
      <trkpt lat="44.19223" lon="4.45711">
        <ele>199.8</ele>
        <time>2024-08-31T10:51:22.559Z</time>
      </trkpt>
      <trkpt lat="44.19235" lon="4.45705">
        <ele>200.6</ele>
        <time>2024-08-31T10:51:29.757Z</time>
      </trkpt>
      <trkpt lat="44.19238" lon="4.45705">
        <ele>200.8</ele>
        <time>2024-08-31T10:51:31.450Z</time>
      </trkpt>
      <trkpt lat="44.19241" lon="4.45704">
        <ele>201.2</ele>
        <time>2024-08-31T10:51:33.190Z</time>
      </trkpt>
      <trkpt lat="44.19241" lon="4.45704">
        <ele>201.4</ele>
        <time>2024-08-31T10:51:33.190Z</time>
      </trkpt>
      <trkpt lat="44.19244" lon="4.45703">
        <ele>201.6</ele>
        <time>2024-08-31T10:51:34.930Z</time>
      </trkpt>
      <trkpt lat="44.1925" lon="4.45701">
        <ele>202</ele>
        <time>2024-08-31T10:51:38.413Z</time>
      </trkpt>
      <trkpt lat="44.19252" lon="4.457">
        <ele>202.2</ele>
        <time>2024-08-31T10:51:39.611Z</time>
      </trkpt>
      <trkpt lat="44.19252" lon="4.457">
        <ele>202.4</ele>
        <time>2024-08-31T10:51:39.611Z</time>
      </trkpt>
      <trkpt lat="44.19255" lon="4.45698">
        <ele>203</ele>
        <time>2024-08-31T10:51:41.488Z</time>
      </trkpt>
      <trkpt lat="44.19267" lon="4.45686">
        <ele>204.2</ele>
        <time>2024-08-31T10:51:49.825Z</time>
      </trkpt>
      <trkpt lat="44.19269" lon="4.45683">
        <ele>204.8</ele>
        <time>2024-08-31T10:51:51.483Z</time>
      </trkpt>
      <trkpt lat="44.19272" lon="4.4568">
        <ele>205.2</ele>
        <time>2024-08-31T10:51:53.567Z</time>
      </trkpt>
      <trkpt lat="44.19275" lon="4.45678">
        <ele>205.6</ele>
        <time>2024-08-31T10:51:55.444Z</time>
      </trkpt>
      <trkpt lat="44.19278" lon="4.45675">
        <ele>205.8</ele>
        <time>2024-08-31T10:51:57.528Z</time>
      </trkpt>
      <trkpt lat="44.19278" lon="4.45675">
        <ele>205.8</ele>
        <time>2024-08-31T10:51:57.528Z</time>
      </trkpt>
      <trkpt lat="44.19281" lon="4.45672">
        <ele>206</ele>
        <time>2024-08-31T10:51:59.612Z</time>
      </trkpt>
      <trkpt lat="44.19284" lon="4.45669">
        <ele>206</ele>
        <time>2024-08-31T10:52:01.696Z</time>
      </trkpt>
      <trkpt lat="44.19287" lon="4.45666">
        <ele>206.2</ele>
        <time>2024-08-31T10:52:03.780Z</time>
      </trkpt>
      <trkpt lat="44.19291" lon="4.45659">
        <ele>206.2</ele>
        <time>2024-08-31T10:52:07.404Z</time>
      </trkpt>
      <trkpt lat="44.19293" lon="4.45655">
        <ele>206.2</ele>
        <time>2024-08-31T10:52:09.377Z</time>
      </trkpt>
      <trkpt lat="44.19294" lon="4.45651">
        <ele>206.2</ele>
        <time>2024-08-31T10:52:11.090Z</time>
      </trkpt>
      <trkpt lat="44.19294" lon="4.45651">
        <ele>206.2</ele>
        <time>2024-08-31T10:52:11.090Z</time>
      </trkpt>
      <trkpt lat="44.19295" lon="4.45646">
        <ele>206.2</ele>
        <time>2024-08-31T10:52:13.191Z</time>
      </trkpt>
      <trkpt lat="44.19297" lon="4.45637">
        <ele>206.2</ele>
        <time>2024-08-31T10:52:17.005Z</time>
      </trkpt>
      <trkpt lat="44.19297" lon="4.45632">
        <ele>206.2</ele>
        <time>2024-08-31T10:52:19.029Z</time>
      </trkpt>
      <trkpt lat="44.19297" lon="4.45628">
        <ele>206.2</ele>
        <time>2024-08-31T10:52:20.648Z</time>
      </trkpt>
      <trkpt lat="44.19297" lon="4.45623">
        <ele>206.2</ele>
        <time>2024-08-31T10:52:22.672Z</time>
      </trkpt>
      <trkpt lat="44.19298" lon="4.45619">
        <ele>206.2</ele>
        <time>2024-08-31T10:52:24.386Z</time>
      </trkpt>
      <trkpt lat="44.19298" lon="4.45615">
        <ele>206.2</ele>
        <time>2024-08-31T10:52:26.004Z</time>
      </trkpt>
      <trkpt lat="44.19298" lon="4.45611">
        <ele>206.2</ele>
        <time>2024-08-31T10:52:27.622Z</time>
      </trkpt>
      <trkpt lat="44.19298" lon="4.45611">
        <ele>206.2</ele>
        <time>2024-08-31T10:52:27.622Z</time>
      </trkpt>
      <trkpt lat="44.19299" lon="4.45607">
        <ele>206.2</ele>
        <time>2024-08-31T10:52:29.335Z</time>
      </trkpt>
      <trkpt lat="44.19299" lon="4.45602">
        <ele>206.2</ele>
        <time>2024-08-31T10:52:31.358Z</time>
      </trkpt>
      <trkpt lat="44.19299" lon="4.45598">
        <ele>206.2</ele>
        <time>2024-08-31T10:52:32.977Z</time>
      </trkpt>
      <trkpt lat="44.193" lon="4.45594">
        <ele>206.2</ele>
        <time>2024-08-31T10:52:34.691Z</time>
      </trkpt>
      <trkpt lat="44.19302" lon="4.4559">
        <ele>206.2</ele>
        <time>2024-08-31T10:52:36.664Z</time>
      </trkpt>
      <trkpt lat="44.19302" lon="4.45586">
        <ele>206.2</ele>
        <time>2024-08-31T10:52:38.283Z</time>
      </trkpt>
      <trkpt lat="44.19303" lon="4.45583">
        <ele>206.4</ele>
        <time>2024-08-31T10:52:39.622Z</time>
      </trkpt>
      <trkpt lat="44.19306" lon="4.45575">
        <ele>206.4</ele>
        <time>2024-08-31T10:52:43.277Z</time>
      </trkpt>
      <trkpt lat="44.19313" lon="4.45553">
        <ele>206.6</ele>
        <time>2024-08-31T10:52:53.021Z</time>
      </trkpt>
      <trkpt lat="44.19313" lon="4.45553">
        <ele>206.6</ele>
        <time>2024-08-31T10:52:53.021Z</time>
      </trkpt>
      <trkpt lat="44.19314" lon="4.4555">
        <ele>206.6</ele>
        <time>2024-08-31T10:52:54.360Z</time>
      </trkpt>
      <trkpt lat="44.19314" lon="4.45547">
        <ele>206.6</ele>
        <time>2024-08-31T10:52:55.575Z</time>
      </trkpt>
      <trkpt lat="44.19313" lon="4.45541">
        <ele>206.6</ele>
        <time>2024-08-31T10:52:58.068Z</time>
      </trkpt>
      <trkpt lat="44.19313" lon="4.45538">
        <ele>206.8</ele>
        <time>2024-08-31T10:52:59.282Z</time>
      </trkpt>
      <trkpt lat="44.19313" lon="4.45536">
        <ele>206.6</ele>
        <time>2024-08-31T10:53:00.091Z</time>
      </trkpt>
      <trkpt lat="44.19312" lon="4.45533">
        <ele>206.6</ele>
        <time>2024-08-31T10:53:01.431Z</time>
      </trkpt>
      <trkpt lat="44.19312" lon="4.45531">
        <ele>206.6</ele>
        <time>2024-08-31T10:53:02.240Z</time>
      </trkpt>
      <trkpt lat="44.19312" lon="4.45528">
        <ele>206.8</ele>
        <time>2024-08-31T10:53:03.455Z</time>
      </trkpt>
      <trkpt lat="44.19311" lon="4.45526">
        <ele>206.8</ele>
        <time>2024-08-31T10:53:04.441Z</time>
      </trkpt>
      <trkpt lat="44.19311" lon="4.45524">
        <ele>206.8</ele>
        <time>2024-08-31T10:53:05.250Z</time>
      </trkpt>
      <trkpt lat="44.19311" lon="4.45521">
        <ele>207</ele>
        <time>2024-08-31T10:53:06.463Z</time>
      </trkpt>
      <trkpt lat="44.1931" lon="4.45519">
        <ele>207</ele>
        <time>2024-08-31T10:53:07.449Z</time>
      </trkpt>
      <trkpt lat="44.1931" lon="4.45516">
        <ele>207</ele>
        <time>2024-08-31T10:53:08.664Z</time>
      </trkpt>
      <trkpt lat="44.19309" lon="4.45514">
        <ele>207</ele>
        <time>2024-08-31T10:53:09.650Z</time>
      </trkpt>
      <trkpt lat="44.19309" lon="4.45511">
        <ele>207</ele>
        <time>2024-08-31T10:53:10.864Z</time>
      </trkpt>
      <trkpt lat="44.19306" lon="4.45495">
        <ele>207</ele>
        <time>2024-08-31T10:53:17.559Z</time>
      </trkpt>
      <trkpt lat="44.19306" lon="4.45492">
        <ele>207</ele>
        <time>2024-08-31T10:53:18.773Z</time>
      </trkpt>
      <trkpt lat="44.193" lon="4.45478">
        <ele>206.8</ele>
        <time>2024-08-31T10:53:25.376Z</time>
      </trkpt>
      <trkpt lat="44.19295" lon="4.45468">
        <ele>206.2</ele>
        <time>2024-08-31T10:53:30.311Z</time>
      </trkpt>
      <trkpt lat="44.19287" lon="4.45455">
        <ele>205.4</ele>
        <time>2024-08-31T10:53:37.247Z</time>
      </trkpt>
      <trkpt lat="44.19285" lon="4.45451">
        <ele>205.2</ele>
        <time>2024-08-31T10:53:39.220Z</time>
      </trkpt>
      <trkpt lat="44.19283" lon="4.45447">
        <ele>204.8</ele>
        <time>2024-08-31T10:53:41.194Z</time>
      </trkpt>
      <trkpt lat="44.19279" lon="4.4544">
        <ele>203.6</ele>
        <time>2024-08-31T10:53:44.818Z</time>
      </trkpt>
      <trkpt lat="44.19273" lon="4.45428">
        <ele>202</ele>
        <time>2024-08-31T10:53:50.741Z</time>
      </trkpt>
      <trkpt lat="44.19265" lon="4.45414">
        <ele>200.6</ele>
        <time>2024-08-31T10:53:57.988Z</time>
      </trkpt>
      <trkpt lat="44.1926" lon="4.45404">
        <ele>199.2</ele>
        <time>2024-08-31T10:54:02.923Z</time>
      </trkpt>
      <trkpt lat="44.19254" lon="4.4539">
        <ele>197.6</ele>
        <time>2024-08-31T10:54:09.526Z</time>
      </trkpt>
      <trkpt lat="44.19252" lon="4.45385">
        <ele>196.2</ele>
        <time>2024-08-31T10:54:11.843Z</time>
      </trkpt>
      <trkpt lat="44.19249" lon="4.45379">
        <ele>195.8</ele>
        <time>2024-08-31T10:54:14.804Z</time>
      </trkpt>
      <trkpt lat="44.19246" lon="4.45374">
        <ele>195</ele>
        <time>2024-08-31T10:54:17.443Z</time>
      </trkpt>
      <trkpt lat="44.19237" lon="4.45359">
        <ele>193.4</ele>
        <time>2024-08-31T10:54:25.361Z</time>
      </trkpt>
      <trkpt lat="44.19231" lon="4.45349">
        <ele>192</ele>
        <time>2024-08-31T10:54:30.640Z</time>
      </trkpt>
      <trkpt lat="44.19223" lon="4.45339">
        <ele>190.8</ele>
        <time>2024-08-31T10:54:36.706Z</time>
      </trkpt>
      <trkpt lat="44.19212" lon="4.45322">
        <ele>189.4</ele>
        <time>2024-08-31T10:54:45.976Z</time>
      </trkpt>
      <trkpt lat="44.19208" lon="4.45318">
        <ele>188.6</ele>
        <time>2024-08-31T10:54:48.754Z</time>
      </trkpt>
      <trkpt lat="44.19206" lon="4.45315">
        <ele>188.6</ele>
        <time>2024-08-31T10:54:50.412Z</time>
      </trkpt>
      <trkpt lat="44.19205" lon="4.45313">
        <ele>188</ele>
        <time>2024-08-31T10:54:51.398Z</time>
      </trkpt>
      <trkpt lat="44.19204" lon="4.45313">
        <ele>187</ele>
        <time>2024-08-31T10:54:51.962Z</time>
      </trkpt>
      <trkpt lat="44.19204" lon="4.45313">
        <ele>186.2</ele>
        <time>2024-08-31T10:54:51.962Z</time>
      </trkpt>
      <trkpt lat="44.19202" lon="4.4531">
        <ele>183.8</ele>
        <time>2024-08-31T10:54:53.620Z</time>
      </trkpt>
      <trkpt lat="44.19199" lon="4.45304">
        <ele>183.8</ele>
        <time>2024-08-31T10:54:56.581Z</time>
      </trkpt>
      <trkpt lat="44.19183" lon="4.45281">
        <ele>183.8</ele>
        <time>2024-08-31T10:55:09.555Z</time>
      </trkpt>
      <trkpt lat="44.19181" lon="4.45271">
        <ele>183.6</ele>
        <time>2024-08-31T10:55:13.758Z</time>
      </trkpt>
      <trkpt lat="44.1918" lon="4.45267">
        <ele>183.2</ele>
        <time>2024-08-31T10:55:15.472Z</time>
      </trkpt>
      <trkpt lat="44.19179" lon="4.4526">
        <ele>182.8</ele>
        <time>2024-08-31T10:55:18.361Z</time>
      </trkpt>
      <trkpt lat="44.19178" lon="4.45257">
        <ele>182.8</ele>
        <time>2024-08-31T10:55:19.700Z</time>
      </trkpt>
      <trkpt lat="44.19177" lon="4.45254">
        <ele>182.8</ele>
        <time>2024-08-31T10:55:21.039Z</time>
      </trkpt>
      <trkpt lat="44.19176" lon="4.45251">
        <ele>182.8</ele>
        <time>2024-08-31T10:55:22.379Z</time>
      </trkpt>
      <trkpt lat="44.19176" lon="4.45248">
        <ele>183</ele>
        <time>2024-08-31T10:55:23.593Z</time>
      </trkpt>
      <trkpt lat="44.19175" lon="4.45245">
        <ele>183</ele>
        <time>2024-08-31T10:55:24.932Z</time>
      </trkpt>
      <trkpt lat="44.19173" lon="4.45234">
        <ele>182.8</ele>
        <time>2024-08-31T10:55:29.526Z</time>
      </trkpt>
      <trkpt lat="44.19173" lon="4.45226">
        <ele>183</ele>
        <time>2024-08-31T10:55:32.764Z</time>
      </trkpt>
      <trkpt lat="44.1917" lon="4.45217">
        <ele>183.4</ele>
        <time>2024-08-31T10:55:36.782Z</time>
      </trkpt>
      <trkpt lat="44.19161" lon="4.4519">
        <ele>184.8</ele>
        <time>2024-08-31T10:55:48.836Z</time>
      </trkpt>
      <trkpt lat="44.19155" lon="4.45165">
        <ele>185.4</ele>
        <time>2024-08-31T10:55:59.509Z</time>
      </trkpt>
      <trkpt lat="44.19154" lon="4.45151">
        <ele>185.8</ele>
        <time>2024-08-31T10:56:05.205Z</time>
      </trkpt>
      <trkpt lat="44.19152" lon="4.45144">
        <ele>186</ele>
        <time>2024-08-31T10:56:08.255Z</time>
      </trkpt>
      <trkpt lat="44.19149" lon="4.45139">
        <ele>186.2</ele>
        <time>2024-08-31T10:56:10.894Z</time>
      </trkpt>
      <trkpt lat="44.19148" lon="4.45136">
        <ele>186.6</ele>
        <time>2024-08-31T10:56:12.233Z</time>
      </trkpt>
      <trkpt lat="44.19147" lon="4.45133">
        <ele>186.6</ele>
        <time>2024-08-31T10:56:13.572Z</time>
      </trkpt>
      <trkpt lat="44.19146" lon="4.45129">
        <ele>186.8</ele>
        <time>2024-08-31T10:56:15.287Z</time>
      </trkpt>
      <trkpt lat="44.19145" lon="4.45125">
        <ele>187</ele>
        <time>2024-08-31T10:56:17.002Z</time>
      </trkpt>
      <trkpt lat="44.19145" lon="4.45122">
        <ele>187</ele>
        <time>2024-08-31T10:56:18.216Z</time>
      </trkpt>
      <trkpt lat="44.19144" lon="4.45117">
        <ele>187.2</ele>
        <time>2024-08-31T10:56:20.317Z</time>
      </trkpt>
      <trkpt lat="44.19143" lon="4.45113">
        <ele>187.2</ele>
        <time>2024-08-31T10:56:22.032Z</time>
      </trkpt>
      <trkpt lat="44.19142" lon="4.4511">
        <ele>187.4</ele>
        <time>2024-08-31T10:56:23.371Z</time>
      </trkpt>
      <trkpt lat="44.19141" lon="4.45107">
        <ele>187.4</ele>
        <time>2024-08-31T10:56:24.710Z</time>
      </trkpt>
      <trkpt lat="44.1914" lon="4.45103">
        <ele>187.6</ele>
        <time>2024-08-31T10:56:26.423Z</time>
      </trkpt>
      <trkpt lat="44.19139" lon="4.45098">
        <ele>187.6</ele>
        <time>2024-08-31T10:56:28.524Z</time>
      </trkpt>
      <trkpt lat="44.19139" lon="4.45094">
        <ele>187.8</ele>
        <time>2024-08-31T10:56:30.143Z</time>
      </trkpt>
      <trkpt lat="44.19139" lon="4.4509">
        <ele>187.8</ele>
        <time>2024-08-31T10:56:31.762Z</time>
      </trkpt>
      <trkpt lat="44.19138" lon="4.45086">
        <ele>188</ele>
        <time>2024-08-31T10:56:33.477Z</time>
      </trkpt>
      <trkpt lat="44.19138" lon="4.45082">
        <ele>188</ele>
        <time>2024-08-31T10:56:35.094Z</time>
      </trkpt>
      <trkpt lat="44.19136" lon="4.45079">
        <ele>188.2</ele>
        <time>2024-08-31T10:56:36.752Z</time>
      </trkpt>
      <trkpt lat="44.19135" lon="4.45077">
        <ele>188.2</ele>
        <time>2024-08-31T10:56:37.738Z</time>
      </trkpt>
      <trkpt lat="44.19132" lon="4.45074">
        <ele>188.4</ele>
        <time>2024-08-31T10:56:39.822Z</time>
      </trkpt>
      <trkpt lat="44.19129" lon="4.45072">
        <ele>188.4</ele>
        <time>2024-08-31T10:56:41.699Z</time>
      </trkpt>
      <trkpt lat="44.19127" lon="4.45071">
        <ele>188.6</ele>
        <time>2024-08-31T10:56:42.897Z</time>
      </trkpt>
      <trkpt lat="44.19124" lon="4.45068">
        <ele>188.6</ele>
        <time>2024-08-31T10:56:44.981Z</time>
      </trkpt>
      <trkpt lat="44.19121" lon="4.45067">
        <ele>188.6</ele>
        <time>2024-08-31T10:56:46.722Z</time>
      </trkpt>
      <trkpt lat="44.19118" lon="4.45066">
        <ele>188.6</ele>
        <time>2024-08-31T10:56:48.463Z</time>
      </trkpt>
      <trkpt lat="44.19113" lon="4.45065">
        <ele>188.6</ele>
        <time>2024-08-31T10:56:51.315Z</time>
      </trkpt>
      <trkpt lat="44.1911" lon="4.45064">
        <ele>188.6</ele>
        <time>2024-08-31T10:56:53.057Z</time>
      </trkpt>
      <trkpt lat="44.19106" lon="4.45062">
        <ele>188.6</ele>
        <time>2024-08-31T10:56:55.456Z</time>
      </trkpt>
      <trkpt lat="44.19103" lon="4.45057">
        <ele>188.6</ele>
        <time>2024-08-31T10:56:58.095Z</time>
      </trkpt>
      <trkpt lat="44.191" lon="4.45053">
        <ele>188.6</ele>
        <time>2024-08-31T10:57:00.437Z</time>
      </trkpt>
      <trkpt lat="44.19098" lon="4.45049">
        <ele>188.6</ele>
        <time>2024-08-31T10:57:02.410Z</time>
      </trkpt>
      <trkpt lat="44.19096" lon="4.45044">
        <ele>188.4</ele>
        <time>2024-08-31T10:57:04.728Z</time>
      </trkpt>
      <trkpt lat="44.19094" lon="4.4504">
        <ele>188.4</ele>
        <time>2024-08-31T10:57:06.702Z</time>
      </trkpt>
      <trkpt lat="44.19091" lon="4.45034">
        <ele>188.2</ele>
        <time>2024-08-31T10:57:09.663Z</time>
      </trkpt>
      <trkpt lat="44.19085" lon="4.45023">
        <ele>187.2</ele>
        <time>2024-08-31T10:57:15.258Z</time>
      </trkpt>
      <trkpt lat="44.19083" lon="4.4502">
        <ele>186.6</ele>
        <time>2024-08-31T10:57:16.917Z</time>
      </trkpt>
      <trkpt lat="44.19081" lon="4.45015">
        <ele>186.4</ele>
        <time>2024-08-31T10:57:19.235Z</time>
      </trkpt>
      <trkpt lat="44.1908" lon="4.45011">
        <ele>186</ele>
        <time>2024-08-31T10:57:20.950Z</time>
      </trkpt>
      <trkpt lat="44.19078" lon="4.45007">
        <ele>185.6</ele>
        <time>2024-08-31T10:57:22.924Z</time>
      </trkpt>
      <trkpt lat="44.19077" lon="4.45003">
        <ele>185.4</ele>
        <time>2024-08-31T10:57:24.637Z</time>
      </trkpt>
      <trkpt lat="44.19076" lon="4.44998">
        <ele>185.2</ele>
        <time>2024-08-31T10:57:26.738Z</time>
      </trkpt>
      <trkpt lat="44.19075" lon="4.44994">
        <ele>185</ele>
        <time>2024-08-31T10:57:28.452Z</time>
      </trkpt>
      <trkpt lat="44.19073" lon="4.44986">
        <ele>185</ele>
        <time>2024-08-31T10:57:31.881Z</time>
      </trkpt>
      <trkpt lat="44.19072" lon="4.44983">
        <ele>185</ele>
        <time>2024-08-31T10:57:33.220Z</time>
      </trkpt>
      <trkpt lat="44.1907" lon="4.4498">
        <ele>184.8</ele>
        <time>2024-08-31T10:57:34.878Z</time>
      </trkpt>
      <trkpt lat="44.19067" lon="4.44976">
        <ele>184.8</ele>
        <time>2024-08-31T10:57:37.220Z</time>
      </trkpt>
      <trkpt lat="44.19064" lon="4.44973">
        <ele>184.8</ele>
        <time>2024-08-31T10:57:39.304Z</time>
      </trkpt>
      <trkpt lat="44.19056" lon="4.44963">
        <ele>184.8</ele>
        <time>2024-08-31T10:57:45.369Z</time>
      </trkpt>
      <trkpt lat="44.19043" lon="4.44954">
        <ele>184.8</ele>
        <time>2024-08-31T10:57:53.564Z</time>
      </trkpt>
      <trkpt lat="44.19037" lon="4.44951">
        <ele>184.8</ele>
        <time>2024-08-31T10:57:57.163Z</time>
      </trkpt>
      <trkpt lat="44.19032" lon="4.44948">
        <ele>184.8</ele>
        <time>2024-08-31T10:58:00.236Z</time>
      </trkpt>
      <trkpt lat="44.19008" lon="4.44926">
        <ele>184.8</ele>
        <time>2024-08-31T10:58:16.453Z</time>
      </trkpt>
      <trkpt lat="44.19004" lon="4.44922">
        <ele>184.6</ele>
        <time>2024-08-31T10:58:19.232Z</time>
      </trkpt>
      <trkpt lat="44.18999" lon="4.44919">
        <ele>184.6</ele>
        <time>2024-08-31T10:58:22.306Z</time>
      </trkpt>
      <trkpt lat="44.18994" lon="4.44918">
        <ele>184.4</ele>
        <time>2024-08-31T10:58:25.158Z</time>
      </trkpt>
      <trkpt lat="44.18988" lon="4.44919">
        <ele>184.2</ele>
        <time>2024-08-31T10:58:28.569Z</time>
      </trkpt>
      <trkpt lat="44.18983" lon="4.44918">
        <ele>184</ele>
        <time>2024-08-31T10:58:31.421Z</time>
      </trkpt>
      <trkpt lat="44.18977" lon="4.44918">
        <ele>184</ele>
        <time>2024-08-31T10:58:34.809Z</time>
      </trkpt>
      <trkpt lat="44.18972" lon="4.44917">
        <ele>183.6</ele>
        <time>2024-08-31T10:58:37.661Z</time>
      </trkpt>
      <trkpt lat="44.18959" lon="4.44918">
        <ele>183.4</ele>
        <time>2024-08-31T10:58:45.012Z</time>
      </trkpt>
      <trkpt lat="44.18954" lon="4.44919">
        <ele>183.2</ele>
        <time>2024-08-31T10:58:47.864Z</time>
      </trkpt>
      <trkpt lat="44.1895" lon="4.4492">
        <ele>183.2</ele>
        <time>2024-08-31T10:58:50.158Z</time>
      </trkpt>
      <trkpt lat="44.18931" lon="4.44928">
        <ele>182</ele>
        <time>2024-08-31T10:59:01.364Z</time>
      </trkpt>
      <trkpt lat="44.18926" lon="4.4493">
        <ele>181.4</ele>
        <time>2024-08-31T10:59:04.301Z</time>
      </trkpt>
      <trkpt lat="44.1892" lon="4.44931">
        <ele>180.8</ele>
        <time>2024-08-31T10:59:07.713Z</time>
      </trkpt>
      <trkpt lat="44.18904" lon="4.44935">
        <ele>179.4</ele>
        <time>2024-08-31T10:59:16.891Z</time>
      </trkpt>
      <trkpt lat="44.18899" lon="4.44935">
        <ele>178.8</ele>
        <time>2024-08-31T10:59:19.714Z</time>
      </trkpt>
      <trkpt lat="44.18894" lon="4.44935">
        <ele>178.4</ele>
        <time>2024-08-31T10:59:22.537Z</time>
      </trkpt>
      <trkpt lat="44.18888" lon="4.44935">
        <ele>177.8</ele>
        <time>2024-08-31T10:59:25.925Z</time>
      </trkpt>
      <trkpt lat="44.18884" lon="4.44936">
        <ele>177</ele>
        <time>2024-08-31T10:59:28.219Z</time>
      </trkpt>
      <trkpt lat="44.1888" lon="4.44938">
        <ele>176.4</ele>
        <time>2024-08-31T10:59:30.617Z</time>
      </trkpt>
      <trkpt lat="44.18875" lon="4.44939">
        <ele>175.4</ele>
        <time>2024-08-31T10:59:33.469Z</time>
      </trkpt>
      <trkpt lat="44.18873" lon="4.44941">
        <ele>174.4</ele>
        <time>2024-08-31T10:59:34.857Z</time>
      </trkpt>
      <trkpt lat="44.18868" lon="4.44942">
        <ele>173.6</ele>
        <time>2024-08-31T10:59:37.709Z</time>
      </trkpt>
      <trkpt lat="44.18865" lon="4.44943">
        <ele>173</ele>
        <time>2024-08-31T10:59:39.449Z</time>
      </trkpt>
      <trkpt lat="44.18862" lon="4.44945">
        <ele>172.6</ele>
        <time>2024-08-31T10:59:41.326Z</time>
      </trkpt>
      <trkpt lat="44.18858" lon="4.44945">
        <ele>172</ele>
        <time>2024-08-31T10:59:43.584Z</time>
      </trkpt>
      <trkpt lat="44.1885" lon="4.44945">
        <ele>170.6</ele>
        <time>2024-08-31T10:59:48.101Z</time>
      </trkpt>
      <trkpt lat="44.18841" lon="4.44946">
        <ele>169.6</ele>
        <time>2024-08-31T10:59:53.198Z</time>
      </trkpt>
      <trkpt lat="44.18838" lon="4.44946">
        <ele>169</ele>
        <time>2024-08-31T10:59:54.892Z</time>
      </trkpt>
      <trkpt lat="44.1883" lon="4.44946">
        <ele>167.8</ele>
        <time>2024-08-31T10:59:59.409Z</time>
      </trkpt>
      <trkpt lat="44.18828" lon="4.44945">
        <ele>166.8</ele>
        <time>2024-08-31T11:00:00.608Z</time>
      </trkpt>
      <trkpt lat="44.18823" lon="4.44945">
        <ele>166</ele>
        <time>2024-08-31T11:00:03.431Z</time>
      </trkpt>
      <trkpt lat="44.18816" lon="4.44945">
        <ele>164.2</ele>
        <time>2024-08-31T11:00:07.383Z</time>
      </trkpt>
      <trkpt lat="44.18808" lon="4.44945">
        <ele>162.2</ele>
        <time>2024-08-31T11:00:11.900Z</time>
      </trkpt>
      <trkpt lat="44.18805" lon="4.44945">
        <ele>161.4</ele>
        <time>2024-08-31T11:00:13.594Z</time>
      </trkpt>
      <trkpt lat="44.18802" lon="4.44946">
        <ele>161</ele>
        <time>2024-08-31T11:00:15.336Z</time>
      </trkpt>
      <trkpt lat="44.188" lon="4.44946">
        <ele>160.6</ele>
        <time>2024-08-31T11:00:16.465Z</time>
      </trkpt>
      <trkpt lat="44.18797" lon="4.44946">
        <ele>160.2</ele>
        <time>2024-08-31T11:00:18.158Z</time>
      </trkpt>
      <trkpt lat="44.18795" lon="4.44947">
        <ele>159.4</ele>
        <time>2024-08-31T11:00:19.358Z</time>
      </trkpt>
      <trkpt lat="44.18791" lon="4.44948">
        <ele>158.8</ele>
        <time>2024-08-31T11:00:21.652Z</time>
      </trkpt>
      <trkpt lat="44.18788" lon="4.44951">
        <ele>158.6</ele>
        <time>2024-08-31T11:00:23.736Z</time>
      </trkpt>
      <trkpt lat="44.18785" lon="4.44953">
        <ele>158.2</ele>
        <time>2024-08-31T11:00:25.613Z</time>
      </trkpt>
      <trkpt lat="44.1878" lon="4.4496">
        <ele>157</ele>
        <time>2024-08-31T11:00:29.613Z</time>
      </trkpt>
      <trkpt lat="44.18777" lon="4.44964">
        <ele>156.4</ele>
        <time>2024-08-31T11:00:31.956Z</time>
      </trkpt>
      <trkpt lat="44.18775" lon="4.44969">
        <ele>156</ele>
        <time>2024-08-31T11:00:34.274Z</time>
      </trkpt>
      <trkpt lat="44.18771" lon="4.44978">
        <ele>155.4</ele>
        <time>2024-08-31T11:00:38.561Z</time>
      </trkpt>
      <trkpt lat="44.18769" lon="4.4498">
        <ele>154.8</ele>
        <time>2024-08-31T11:00:39.949Z</time>
      </trkpt>
      <trkpt lat="44.18766" lon="4.44981">
        <ele>154.4</ele>
        <time>2024-08-31T11:00:41.691Z</time>
      </trkpt>
      <trkpt lat="44.18764" lon="4.4498">
        <ele>154</ele>
        <time>2024-08-31T11:00:42.890Z</time>
      </trkpt>
      <trkpt lat="44.18763" lon="4.44978">
        <ele>153.6</ele>
        <time>2024-08-31T11:00:43.875Z</time>
      </trkpt>
      <trkpt lat="44.1876" lon="4.44975">
        <ele>153.2</ele>
        <time>2024-08-31T11:00:45.959Z</time>
      </trkpt>
      <trkpt lat="44.18757" lon="4.44972">
        <ele>153</ele>
        <time>2024-08-31T11:00:48.043Z</time>
      </trkpt>
      <trkpt lat="44.1875" lon="4.44959">
        <ele>151.4</ele>
        <time>2024-08-31T11:00:54.625Z</time>
      </trkpt>
      <trkpt lat="44.18749" lon="4.44957">
        <ele>150.8</ele>
        <time>2024-08-31T11:00:55.610Z</time>
      </trkpt>
      <trkpt lat="44.18748" lon="4.44954">
        <ele>150.2</ele>
        <time>2024-08-31T11:00:56.949Z</time>
      </trkpt>
      <trkpt lat="44.18747" lon="4.44952">
        <ele>149.6</ele>
        <time>2024-08-31T11:00:57.935Z</time>
      </trkpt>
      <trkpt lat="44.18747" lon="4.4495">
        <ele>149</ele>
        <time>2024-08-31T11:00:58.744Z</time>
      </trkpt>
      <trkpt lat="44.18746" lon="4.44947">
        <ele>148.2</ele>
        <time>2024-08-31T11:01:00.083Z</time>
      </trkpt>
      <trkpt lat="44.18746" lon="4.44945">
        <ele>147.8</ele>
        <time>2024-08-31T11:01:00.891Z</time>
      </trkpt>
      <trkpt lat="44.18742" lon="4.4494">
        <ele>147.4</ele>
        <time>2024-08-31T11:01:03.923Z</time>
      </trkpt>
      <trkpt lat="44.1874" lon="4.44939">
        <ele>147.2</ele>
        <time>2024-08-31T11:01:05.121Z</time>
      </trkpt>
      <trkpt lat="44.18739" lon="4.44936">
        <ele>147.2</ele>
        <time>2024-08-31T11:01:06.460Z</time>
      </trkpt>
      <trkpt lat="44.18738" lon="4.44933">
        <ele>147.2</ele>
        <time>2024-08-31T11:01:07.799Z</time>
      </trkpt>
      <trkpt lat="44.18733" lon="4.44927">
        <ele>147.2</ele>
        <time>2024-08-31T11:01:11.523Z</time>
      </trkpt>
      <trkpt lat="44.18726" lon="4.44916">
        <ele>147</ele>
        <time>2024-08-31T11:01:17.477Z</time>
      </trkpt>
      <trkpt lat="44.18725" lon="4.44913">
        <ele>147</ele>
        <time>2024-08-31T11:01:18.816Z</time>
      </trkpt>
      <trkpt lat="44.18723" lon="4.44909">
        <ele>147</ele>
        <time>2024-08-31T11:01:20.790Z</time>
      </trkpt>
      <trkpt lat="44.18721" lon="4.44906">
        <ele>147</ele>
        <time>2024-08-31T11:01:22.448Z</time>
      </trkpt>
      <trkpt lat="44.18719" lon="4.44903">
        <ele>147</ele>
        <time>2024-08-31T11:01:24.106Z</time>
      </trkpt>
      <trkpt lat="44.18713" lon="4.44894">
        <ele>147</ele>
        <time>2024-08-31T11:01:29.081Z</time>
      </trkpt>
      <trkpt lat="44.18702" lon="4.44876">
        <ele>146.8</ele>
        <time>2024-08-31T11:01:38.656Z</time>
      </trkpt>
      <trkpt lat="44.18695" lon="4.44863">
        <ele>146.8</ele>
        <time>2024-08-31T11:01:45.238Z</time>
      </trkpt>
      <trkpt lat="44.18687" lon="4.44852">
        <ele>146.6</ele>
        <time>2024-08-31T11:01:51.581Z</time>
      </trkpt>
      <trkpt lat="44.18678" lon="4.44841">
        <ele>146.6</ele>
        <time>2024-08-31T11:01:58.338Z</time>
      </trkpt>
      <trkpt lat="44.18674" lon="4.44837">
        <ele>146.4</ele>
        <time>2024-08-31T11:02:01.117Z</time>
      </trkpt>
      <trkpt lat="44.18671" lon="4.44835">
        <ele>146.2</ele>
        <time>2024-08-31T11:02:02.994Z</time>
      </trkpt>
      <trkpt lat="44.18667" lon="4.44833">
        <ele>146</ele>
        <time>2024-08-31T11:02:05.392Z</time>
      </trkpt>
      <trkpt lat="44.18663" lon="4.4483">
        <ele>146</ele>
        <time>2024-08-31T11:02:07.956Z</time>
      </trkpt>
      <trkpt lat="44.1866" lon="4.44828">
        <ele>145.8</ele>
        <time>2024-08-31T11:02:09.833Z</time>
      </trkpt>
      <trkpt lat="44.18656" lon="4.44825">
        <ele>145.6</ele>
        <time>2024-08-31T11:02:12.397Z</time>
      </trkpt>
      <trkpt lat="44.18653" lon="4.44822">
        <ele>145</ele>
        <time>2024-08-31T11:02:14.481Z</time>
      </trkpt>
      <trkpt lat="44.18647" lon="4.44815">
        <ele>144.6</ele>
        <time>2024-08-31T11:02:18.897Z</time>
      </trkpt>
      <trkpt lat="44.18643" lon="4.44812">
        <ele>144.6</ele>
        <time>2024-08-31T11:02:21.461Z</time>
      </trkpt>
      <trkpt lat="44.1864" lon="4.44809">
        <ele>144.6</ele>
        <time>2024-08-31T11:02:23.545Z</time>
      </trkpt>
      <trkpt lat="44.18636" lon="4.44807">
        <ele>144.6</ele>
        <time>2024-08-31T11:02:25.944Z</time>
      </trkpt>
      <trkpt lat="44.18633" lon="4.44804">
        <ele>144.6</ele>
        <time>2024-08-31T11:02:28.028Z</time>
      </trkpt>
      <trkpt lat="44.18629" lon="4.44803">
        <ele>144.6</ele>
        <time>2024-08-31T11:02:30.322Z</time>
      </trkpt>
      <trkpt lat="44.18623" lon="4.448">
        <ele>144.6</ele>
        <time>2024-08-31T11:02:33.921Z</time>
      </trkpt>
      <trkpt lat="44.18618" lon="4.44798">
        <ele>144.6</ele>
        <time>2024-08-31T11:02:36.858Z</time>
      </trkpt>
      <trkpt lat="44.18615" lon="4.44797">
        <ele>144.8</ele>
        <time>2024-08-31T11:02:38.598Z</time>
      </trkpt>
      <trkpt lat="44.18609" lon="4.44796">
        <ele>145.2</ele>
        <time>2024-08-31T11:02:42.009Z</time>
      </trkpt>
      <trkpt lat="44.18605" lon="4.44795">
        <ele>145.2</ele>
        <time>2024-08-31T11:02:44.302Z</time>
      </trkpt>
      <trkpt lat="44.18602" lon="4.44795">
        <ele>145.4</ele>
        <time>2024-08-31T11:02:45.995Z</time>
      </trkpt>
      <trkpt lat="44.18599" lon="4.44794">
        <ele>145.6</ele>
        <time>2024-08-31T11:02:47.735Z</time>
      </trkpt>
      <trkpt lat="44.18596" lon="4.44794">
        <ele>145.6</ele>
        <time>2024-08-31T11:02:49.429Z</time>
      </trkpt>
      <trkpt lat="44.18593" lon="4.44793">
        <ele>145.8</ele>
        <time>2024-08-31T11:02:51.169Z</time>
      </trkpt>
      <trkpt lat="44.1859" lon="4.44792">
        <ele>145.8</ele>
        <time>2024-08-31T11:02:52.909Z</time>
      </trkpt>
      <trkpt lat="44.18587" lon="4.44791">
        <ele>145.8</ele>
        <time>2024-08-31T11:02:54.649Z</time>
      </trkpt>
      <trkpt lat="44.18583" lon="4.4479">
        <ele>146</ele>
        <time>2024-08-31T11:02:56.943Z</time>
      </trkpt>
      <trkpt lat="44.1858" lon="4.4479">
        <ele>146</ele>
        <time>2024-08-31T11:02:58.636Z</time>
      </trkpt>
      <trkpt lat="44.18577" lon="4.4479">
        <ele>146.2</ele>
        <time>2024-08-31T11:03:00.329Z</time>
      </trkpt>
      <trkpt lat="44.1857" lon="4.44789">
        <ele>146.6</ele>
        <time>2024-08-31T11:03:04.302Z</time>
      </trkpt>
      <trkpt lat="44.18567" lon="4.44789">
        <ele>147</ele>
        <time>2024-08-31T11:03:05.996Z</time>
      </trkpt>
      <trkpt lat="44.18559" lon="4.44787">
        <ele>147.8</ele>
        <time>2024-08-31T11:03:10.585Z</time>
      </trkpt>
      <trkpt lat="44.18556" lon="4.44785">
        <ele>147.8</ele>
        <time>2024-08-31T11:03:12.463Z</time>
      </trkpt>
      <trkpt lat="44.18553" lon="4.44784">
        <ele>148</ele>
        <time>2024-08-31T11:03:14.205Z</time>
      </trkpt>
      <trkpt lat="44.1855" lon="4.44783">
        <ele>148</ele>
        <time>2024-08-31T11:03:15.947Z</time>
      </trkpt>
      <trkpt lat="44.18538" lon="4.4478">
        <ele>148</ele>
        <time>2024-08-31T11:03:22.830Z</time>
      </trkpt>
      <trkpt lat="44.18534" lon="4.44779">
        <ele>148</ele>
        <time>2024-08-31T11:03:25.124Z</time>
      </trkpt>
      <trkpt lat="44.18529" lon="4.44777">
        <ele>148</ele>
        <time>2024-08-31T11:03:28.061Z</time>
      </trkpt>
      <trkpt lat="44.18524" lon="4.44777">
        <ele>148</ele>
        <time>2024-08-31T11:03:30.884Z</time>
      </trkpt>
      <trkpt lat="44.18519" lon="4.44776">
        <ele>148</ele>
        <time>2024-08-31T11:03:33.736Z</time>
      </trkpt>
      <trkpt lat="44.18515" lon="4.44775">
        <ele>148</ele>
        <time>2024-08-31T11:03:36.029Z</time>
      </trkpt>
      <trkpt lat="44.18511" lon="4.44775">
        <ele>147.8</ele>
        <time>2024-08-31T11:03:38.287Z</time>
      </trkpt>
      <trkpt lat="44.18506" lon="4.44774">
        <ele>147.8</ele>
        <time>2024-08-31T11:03:41.139Z</time>
      </trkpt>
      <trkpt lat="44.18502" lon="4.44774">
        <ele>147.8</ele>
        <time>2024-08-31T11:03:43.398Z</time>
      </trkpt>
      <trkpt lat="44.18487" lon="4.44773">
        <ele>146.2</ele>
        <time>2024-08-31T11:03:51.877Z</time>
      </trkpt>
      <trkpt lat="44.18482" lon="4.44774">
        <ele>145.8</ele>
        <time>2024-08-31T11:03:54.729Z</time>
      </trkpt>
      <trkpt lat="44.18477" lon="4.44774">
        <ele>145.2</ele>
        <time>2024-08-31T11:03:57.552Z</time>
      </trkpt>
      <trkpt lat="44.18472" lon="4.44775">
        <ele>145</ele>
        <time>2024-08-31T11:04:00.404Z</time>
      </trkpt>
      <trkpt lat="44.18464" lon="4.44777">
        <ele>143.8</ele>
        <time>2024-08-31T11:04:04.993Z</time>
      </trkpt>
      <trkpt lat="44.18456" lon="4.44779">
        <ele>142.6</ele>
        <time>2024-08-31T11:04:09.582Z</time>
      </trkpt>
      <trkpt lat="44.18452" lon="4.44778">
        <ele>142.2</ele>
        <time>2024-08-31T11:04:11.876Z</time>
      </trkpt>
      <trkpt lat="44.18447" lon="4.44778">
        <ele>141.8</ele>
        <time>2024-08-31T11:04:14.699Z</time>
      </trkpt>
      <trkpt lat="44.18443" lon="4.44777">
        <ele>141.2</ele>
        <time>2024-08-31T11:04:16.993Z</time>
      </trkpt>
      <trkpt lat="44.18438" lon="4.44777">
        <ele>140.8</ele>
        <time>2024-08-31T11:04:19.816Z</time>
      </trkpt>
      <trkpt lat="44.18433" lon="4.44777">
        <ele>140.6</ele>
        <time>2024-08-31T11:04:22.639Z</time>
      </trkpt>
      <trkpt lat="44.1843" lon="4.44777">
        <ele>140.4</ele>
        <time>2024-08-31T11:04:24.333Z</time>
      </trkpt>
      <trkpt lat="44.18421" lon="4.44777">
        <ele>140.2</ele>
        <time>2024-08-31T11:04:29.415Z</time>
      </trkpt>
      <trkpt lat="44.18417" lon="4.44778">
        <ele>140</ele>
        <time>2024-08-31T11:04:31.709Z</time>
      </trkpt>
      <trkpt lat="44.18413" lon="4.44779">
        <ele>139.8</ele>
        <time>2024-08-31T11:04:34.003Z</time>
      </trkpt>
      <trkpt lat="44.1841" lon="4.4478">
        <ele>139.8</ele>
        <time>2024-08-31T11:04:35.744Z</time>
      </trkpt>
      <trkpt lat="44.18394" lon="4.44782">
        <ele>139</ele>
        <time>2024-08-31T11:04:44.814Z</time>
      </trkpt>
      <trkpt lat="44.18375" lon="4.44786">
        <ele>138.6</ele>
        <time>2024-08-31T11:04:55.664Z</time>
      </trkpt>
      <trkpt lat="44.18359" lon="4.44792">
        <ele>138</ele>
        <time>2024-08-31T11:05:05.019Z</time>
      </trkpt>
      <trkpt lat="44.18356" lon="4.44794">
        <ele>137.6</ele>
        <time>2024-08-31T11:05:06.896Z</time>
      </trkpt>
      <trkpt lat="44.18349" lon="4.44801">
        <ele>137.2</ele>
        <time>2024-08-31T11:05:11.759Z</time>
      </trkpt>
      <trkpt lat="44.18347" lon="4.44805">
        <ele>137</ele>
        <time>2024-08-31T11:05:13.733Z</time>
      </trkpt>
      <trkpt lat="44.18345" lon="4.44809">
        <ele>137</ele>
        <time>2024-08-31T11:05:15.707Z</time>
      </trkpt>
      <trkpt lat="44.18343" lon="4.44814">
        <ele>137</ele>
        <time>2024-08-31T11:05:18.025Z</time>
      </trkpt>
      <trkpt lat="44.18342" lon="4.44819">
        <ele>136.8</ele>
        <time>2024-08-31T11:05:20.127Z</time>
      </trkpt>
      <trkpt lat="44.18339" lon="4.44825">
        <ele>136.8</ele>
        <time>2024-08-31T11:05:23.089Z</time>
      </trkpt>
      <trkpt lat="44.18338" lon="4.44828">
        <ele>136.8</ele>
        <time>2024-08-31T11:05:24.428Z</time>
      </trkpt>
      <trkpt lat="44.18337" lon="4.44833">
        <ele>136.8</ele>
        <time>2024-08-31T11:05:26.530Z</time>
      </trkpt>
      <trkpt lat="44.18336" lon="4.44838">
        <ele>136.8</ele>
        <time>2024-08-31T11:05:28.631Z</time>
      </trkpt>
      <trkpt lat="44.18335" lon="4.44843">
        <ele>136.8</ele>
        <time>2024-08-31T11:05:30.732Z</time>
      </trkpt>
      <trkpt lat="44.18334" lon="4.44847">
        <ele>136.8</ele>
        <time>2024-08-31T11:05:32.448Z</time>
      </trkpt>
      <trkpt lat="44.18333" lon="4.44853">
        <ele>136.8</ele>
        <time>2024-08-31T11:05:34.942Z</time>
      </trkpt>
      <trkpt lat="44.18332" lon="4.44857">
        <ele>136.8</ele>
        <time>2024-08-31T11:05:36.658Z</time>
      </trkpt>
      <trkpt lat="44.18323" lon="4.44888">
        <ele>137.2</ele>
        <time>2024-08-31T11:05:50.200Z</time>
      </trkpt>
      <trkpt lat="44.18306" lon="4.4492">
        <ele>137.2</ele>
        <time>2024-08-31T11:06:06.325Z</time>
      </trkpt>
      <trkpt lat="44.18302" lon="4.44932">
        <ele>136.8</ele>
        <time>2024-08-31T11:06:11.683Z</time>
      </trkpt>
      <trkpt lat="44.18298" lon="4.4496">
        <ele>136.2</ele>
        <time>2024-08-31T11:06:23.243Z</time>
      </trkpt>
      <trkpt lat="44.18297" lon="4.44966">
        <ele>136.2</ele>
        <time>2024-08-31T11:06:25.737Z</time>
      </trkpt>
      <trkpt lat="44.18295" lon="4.44972">
        <ele>135.8</ele>
        <time>2024-08-31T11:06:28.416Z</time>
      </trkpt>
      <trkpt lat="44.18292" lon="4.44982">
        <ele>134.8</ele>
        <time>2024-08-31T11:06:32.805Z</time>
      </trkpt>
      <trkpt lat="44.1829" lon="4.44987">
        <ele>134.4</ele>
        <time>2024-08-31T11:06:35.123Z</time>
      </trkpt>
      <trkpt lat="44.18288" lon="4.44991">
        <ele>134.2</ele>
        <time>2024-08-31T11:06:37.097Z</time>
      </trkpt>
      <trkpt lat="44.18287" lon="4.44996">
        <ele>133.8</ele>
        <time>2024-08-31T11:06:39.198Z</time>
      </trkpt>
      <trkpt lat="44.18286" lon="4.45">
        <ele>133.8</ele>
        <time>2024-08-31T11:06:40.913Z</time>
      </trkpt>
      <trkpt lat="44.18285" lon="4.45003">
        <ele>133.8</ele>
        <time>2024-08-31T11:06:42.252Z</time>
      </trkpt>
      <trkpt lat="44.18283" lon="4.45007">
        <ele>133.6</ele>
        <time>2024-08-31T11:06:44.227Z</time>
      </trkpt>
      <trkpt lat="44.18281" lon="4.45009">
        <ele>133.6</ele>
        <time>2024-08-31T11:06:45.617Z</time>
      </trkpt>
      <trkpt lat="44.18279" lon="4.45011">
        <ele>133.6</ele>
        <time>2024-08-31T11:06:47.007Z</time>
      </trkpt>
      <trkpt lat="44.18275" lon="4.45012">
        <ele>133.6</ele>
        <time>2024-08-31T11:06:49.301Z</time>
      </trkpt>
      <trkpt lat="44.1827" lon="4.45012">
        <ele>133.6</ele>
        <time>2024-08-31T11:06:52.124Z</time>
      </trkpt>
      <trkpt lat="44.18264" lon="4.45012">
        <ele>133.6</ele>
        <time>2024-08-31T11:06:55.512Z</time>
      </trkpt>
      <trkpt lat="44.18258" lon="4.45011">
        <ele>133.4</ele>
        <time>2024-08-31T11:06:58.923Z</time>
      </trkpt>
      <trkpt lat="44.18252" lon="4.45009">
        <ele>133.4</ele>
        <time>2024-08-31T11:07:02.406Z</time>
      </trkpt>
      <trkpt lat="44.18238" lon="4.45007">
        <ele>133.4</ele>
        <time>2024-08-31T11:07:10.352Z</time>
      </trkpt>
      <trkpt lat="44.18224" lon="4.45004">
        <ele>133.2</ele>
        <time>2024-08-31T11:07:18.350Z</time>
      </trkpt>
      <trkpt lat="44.1821" lon="4.45001">
        <ele>133.2</ele>
        <time>2024-08-31T11:07:26.348Z</time>
      </trkpt>
      <trkpt lat="44.18186" lon="4.44995">
        <ele>132.6</ele>
        <time>2024-08-31T11:07:40.115Z</time>
      </trkpt>
      <trkpt lat="44.18169" lon="4.44993">
        <ele>131.6</ele>
        <time>2024-08-31T11:07:49.748Z</time>
      </trkpt>
      <trkpt lat="44.18151" lon="4.44993">
        <ele>130</ele>
        <time>2024-08-31T11:07:59.912Z</time>
      </trkpt>
      <trkpt lat="44.18142" lon="4.44993">
        <ele>129.4</ele>
        <time>2024-08-31T11:08:04.993Z</time>
      </trkpt>
      <trkpt lat="44.18133" lon="4.44994">
        <ele>129</ele>
        <time>2024-08-31T11:08:10.090Z</time>
      </trkpt>
      <trkpt lat="44.18117" lon="4.44994">
        <ele>128</ele>
        <time>2024-08-31T11:08:19.124Z</time>
      </trkpt>
      <trkpt lat="44.1811" lon="4.44994">
        <ele>127.4</ele>
        <time>2024-08-31T11:08:23.076Z</time>
      </trkpt>
      <trkpt lat="44.18104" lon="4.44994">
        <ele>127</ele>
        <time>2024-08-31T11:08:26.464Z</time>
      </trkpt>
      <trkpt lat="44.18099" lon="4.44994">
        <ele>126.2</ele>
        <time>2024-08-31T11:08:29.287Z</time>
      </trkpt>
      <trkpt lat="44.18094" lon="4.44992">
        <ele>125.4</ele>
        <time>2024-08-31T11:08:32.224Z</time>
      </trkpt>
      <trkpt lat="44.1809" lon="4.44988">
        <ele>124.4</ele>
        <time>2024-08-31T11:08:35.003Z</time>
      </trkpt>
      <trkpt lat="44.18089" lon="4.44983">
        <ele>123.6</ele>
        <time>2024-08-31T11:08:37.105Z</time>
      </trkpt>
      <trkpt lat="44.18089" lon="4.44978">
        <ele>123</ele>
        <time>2024-08-31T11:08:39.129Z</time>
      </trkpt>
      <trkpt lat="44.18091" lon="4.44973">
        <ele>122.6</ele>
        <time>2024-08-31T11:08:41.447Z</time>
      </trkpt>
      <trkpt lat="44.18094" lon="4.44967">
        <ele>122.2</ele>
        <time>2024-08-31T11:08:44.408Z</time>
      </trkpt>
      <trkpt lat="44.18096" lon="4.44962">
        <ele>121.6</ele>
        <time>2024-08-31T11:08:46.726Z</time>
      </trkpt>
      <trkpt lat="44.18098" lon="4.44955">
        <ele>121.6</ele>
        <time>2024-08-31T11:08:49.777Z</time>
      </trkpt>
      <trkpt lat="44.18098" lon="4.44948">
        <ele>121</ele>
        <time>2024-08-31T11:08:52.611Z</time>
      </trkpt>
      <trkpt lat="44.18098" lon="4.44941">
        <ele>120.6</ele>
        <time>2024-08-31T11:08:55.445Z</time>
      </trkpt>
      <trkpt lat="44.18097" lon="4.44934">
        <ele>120</ele>
        <time>2024-08-31T11:08:58.335Z</time>
      </trkpt>
      <trkpt lat="44.18095" lon="4.44926">
        <ele>119.6</ele>
        <time>2024-08-31T11:09:01.765Z</time>
      </trkpt>
      <trkpt lat="44.18093" lon="4.4492">
        <ele>119</ele>
        <time>2024-08-31T11:09:04.443Z</time>
      </trkpt>
      <trkpt lat="44.1809" lon="4.44916">
        <ele>118.8</ele>
        <time>2024-08-31T11:09:06.786Z</time>
      </trkpt>
      <trkpt lat="44.18094" lon="4.44879">
        <ele>106.9</ele>
        <time>2024-08-31T11:09:21.938Z</time>
      </trkpt>
      <trkpt lat="44.18125" lon="4.44748">
        <ele>106.9</ele>
        <time>2024-08-31T11:10:17.798Z</time>
      </trkpt>
      <trkpt lat="44.18158" lon="4.44702">
        <ele>106.2</ele>
        <time>2024-08-31T11:10:44.145Z</time>
      </trkpt>
      <trkpt lat="44.18209" lon="4.44615">
        <ele>99.6</ele>
        <time>2024-08-31T11:11:29.646Z</time>
      </trkpt>
      <trkpt lat="44.1822" lon="4.44602">
        <ele>99.6</ele>
        <time>2024-08-31T11:11:37.787Z</time>
      </trkpt>
      <trkpt lat="44.18237" lon="4.4459">
        <ele>97.1</ele>
        <time>2024-08-31T11:11:48.545Z</time>
      </trkpt>
      <trkpt lat="44.18224" lon="4.44579">
        <ele>95.6</ele>
        <time>2024-08-31T11:11:57.131Z</time>
      </trkpt>
      <trkpt lat="44.18211" lon="4.44578">
        <ele>94.6</ele>
        <time>2024-08-31T11:12:04.482Z</time>
      </trkpt>
      <trkpt lat="44.18193" lon="4.44606">
        <ele>95.6</ele>
        <time>2024-08-31T11:12:19.708Z</time>
      </trkpt>
      <trkpt lat="44.1817" lon="4.44645">
        <ele>96.7</ele>
        <time>2024-08-31T11:12:40.154Z</time>
      </trkpt>
      <trkpt lat="44.18122" lon="4.44697">
        <ele>95.6</ele>
        <time>2024-08-31T11:13:14.475Z</time>
      </trkpt>
      <trkpt lat="44.18102" lon="4.4472">
        <ele>94.9</ele>
        <time>2024-08-31T11:13:29.113Z</time>
      </trkpt>
      <trkpt lat="44.18056" lon="4.44746">
        <ele>92</ele>
        <time>2024-08-31T11:13:57.140Z</time>
      </trkpt>
      <trkpt lat="44.18001" lon="4.44812">
        <ele>91.4</ele>
        <time>2024-08-31T11:14:38.113Z</time>
      </trkpt>
      <trkpt lat="44.1797" lon="4.44865">
        <ele>91.9</ele>
        <time>2024-08-31T11:15:05.808Z</time>
      </trkpt>
      <trkpt lat="44.17963" lon="4.44898">
        <ele>92.7</ele>
        <time>2024-08-31T11:15:19.743Z</time>
      </trkpt>
      <trkpt lat="44.17945" lon="4.44944">
        <ele>93</ele>
        <time>2024-08-31T11:15:40.963Z</time>
      </trkpt>
      <trkpt lat="44.17938" lon="4.44977">
        <ele>91.8</ele>
        <time>2024-08-31T11:15:54.898Z</time>
      </trkpt>
      <trkpt lat="44.17937" lon="4.45006">
        <ele>91.6</ele>
        <time>2024-08-31T11:16:06.655Z</time>
      </trkpt>
      <trkpt lat="44.1794" lon="4.45014">
        <ele>109</ele>
        <time>2024-08-31T11:16:10.310Z</time>
      </trkpt>
      <trkpt lat="44.17934" lon="4.45014">
        <ele>108.2</ele>
        <time>2024-08-31T11:16:13.698Z</time>
      </trkpt>
      <trkpt lat="44.17928" lon="4.45014">
        <ele>107.6</ele>
        <time>2024-08-31T11:16:17.085Z</time>
      </trkpt>
      <trkpt lat="44.17922" lon="4.45014">
        <ele>106.6</ele>
        <time>2024-08-31T11:16:20.473Z</time>
      </trkpt>
      <trkpt lat="44.17916" lon="4.45015">
        <ele>105.2</ele>
        <time>2024-08-31T11:16:23.884Z</time>
      </trkpt>
      <trkpt lat="44.1791" lon="4.45017">
        <ele>104.2</ele>
        <time>2024-08-31T11:16:27.367Z</time>
      </trkpt>
      <trkpt lat="44.17906" lon="4.4502">
        <ele>103</ele>
        <time>2024-08-31T11:16:29.931Z</time>
      </trkpt>
      <trkpt lat="44.17903" lon="4.45023">
        <ele>103</ele>
        <time>2024-08-31T11:16:32.015Z</time>
      </trkpt>
      <trkpt lat="44.17901" lon="4.45027">
        <ele>102</ele>
        <time>2024-08-31T11:16:33.989Z</time>
      </trkpt>
      <trkpt lat="44.179" lon="4.45031">
        <ele>101.2</ele>
        <time>2024-08-31T11:16:35.704Z</time>
      </trkpt>
      <trkpt lat="44.17899" lon="4.45034">
        <ele>100.4</ele>
        <time>2024-08-31T11:16:37.043Z</time>
      </trkpt>
      <trkpt lat="44.17898" lon="4.45038">
        <ele>99.4</ele>
        <time>2024-08-31T11:16:38.758Z</time>
      </trkpt>
      <trkpt lat="44.17897" lon="4.4504">
        <ele>99</ele>
        <time>2024-08-31T11:16:39.744Z</time>
      </trkpt>
      <trkpt lat="44.17897" lon="4.45041">
        <ele>98.6</ele>
        <time>2024-08-31T11:16:40.144Z</time>
      </trkpt>
      <trkpt lat="44.17897" lon="4.45041">
        <ele>98.2</ele>
        <time>2024-08-31T11:16:40.144Z</time>
      </trkpt>
      <trkpt lat="44.17897" lon="4.45041">
        <ele>98</ele>
        <time>2024-08-31T11:16:40.144Z</time>
      </trkpt>
      <trkpt lat="44.17895" lon="4.45049">
        <ele>97.8</ele>
        <time>2024-08-31T11:16:43.574Z</time>
      </trkpt>
      <trkpt lat="44.1789" lon="4.45066">
        <ele>97.6</ele>
        <time>2024-08-31T11:16:51.014Z</time>
      </trkpt>
      <trkpt lat="44.17888" lon="4.45076">
        <ele>97.6</ele>
        <time>2024-08-31T11:16:55.218Z</time>
      </trkpt>
      <trkpt lat="44.17881" lon="4.45103">
        <ele>97.4</ele>
        <time>2024-08-31T11:17:06.844Z</time>
      </trkpt>
      <trkpt lat="44.17879" lon="4.45114">
        <ele>97.2</ele>
        <time>2024-08-31T11:17:11.439Z</time>
      </trkpt>
      <trkpt lat="44.17869" lon="4.45157">
        <ele>96.6</ele>
        <time>2024-08-31T11:17:29.744Z</time>
      </trkpt>
      <trkpt lat="44.17867" lon="4.45163">
        <ele>96.4</ele>
        <time>2024-08-31T11:17:32.422Z</time>
      </trkpt>
      <trkpt lat="44.17854" lon="4.45201">
        <ele>95.8</ele>
        <time>2024-08-31T11:17:49.471Z</time>
      </trkpt>
      <trkpt lat="44.17852" lon="4.45207">
        <ele>95.8</ele>
        <time>2024-08-31T11:17:52.150Z</time>
      </trkpt>
      <trkpt lat="44.17845" lon="4.4523">
        <ele>95.8</ele>
        <time>2024-08-31T11:18:02.267Z</time>
      </trkpt>
      <trkpt lat="44.17826" lon="4.45275">
        <ele>85.8</ele>
        <time>2024-08-31T11:18:23.413Z</time>
      </trkpt>
      <trkpt lat="44.17816" lon="4.45315">
        <ele>85.5</ele>
        <time>2024-08-31T11:18:40.567Z</time>
      </trkpt>
      <trkpt lat="44.17814" lon="4.45355">
        <ele>85.7</ele>
        <time>2024-08-31T11:18:56.804Z</time>
      </trkpt>
      <trkpt lat="44.17816" lon="4.45389">
        <ele>85.6</ele>
        <time>2024-08-31T11:19:10.618Z</time>
      </trkpt>
      <trkpt lat="44.17827" lon="4.45422">
        <ele>85.5</ele>
        <time>2024-08-31T11:19:25.354Z</time>
      </trkpt>
      <trkpt lat="44.17853" lon="4.45446">
        <ele>85</ele>
        <time>2024-08-31T11:19:42.960Z</time>
      </trkpt>
      <trkpt lat="44.17889" lon="4.45525">
        <ele>85</ele>
        <time>2024-08-31T11:20:20.863Z</time>
      </trkpt>
      <trkpt lat="44.17917" lon="4.45597">
        <ele>84.5</ele>
        <time>2024-08-31T11:20:54.030Z</time>
      </trkpt>
      <trkpt lat="44.1796" lon="4.45689">
        <ele>84.3</ele>
        <time>2024-08-31T11:21:38.499Z</time>
      </trkpt>
      <trkpt lat="44.17972" lon="4.45726">
        <ele>83.9</ele>
        <time>2024-08-31T11:21:54.943Z</time>
      </trkpt>
      <trkpt lat="44.18007" lon="4.45786">
        <ele>84.2</ele>
        <time>2024-08-31T11:22:26.262Z</time>
      </trkpt>
      <trkpt lat="44.18026" lon="4.45839">
        <ele>84.6</ele>
        <time>2024-08-31T11:22:50.256Z</time>
      </trkpt>
      <trkpt lat="44.18033" lon="4.45883">
        <ele>84.2</ele>
        <time>2024-08-31T11:23:08.506Z</time>
      </trkpt>
      <trkpt lat="44.18039" lon="4.45981">
        <ele>83.5</ele>
        <time>2024-08-31T11:23:48.334Z</time>
      </trkpt>
      <trkpt lat="44.18043" lon="4.46059">
        <ele>83.1</ele>
        <time>2024-08-31T11:24:20.000Z</time>
      </trkpt>
      <trkpt lat="44.1806" lon="4.46159">
        <ele>83.2</ele>
        <time>2024-08-31T11:25:01.616Z</time>
      </trkpt>
      <trkpt lat="44.18065" lon="4.4621">
        <ele>84.4</ele>
        <time>2024-08-31T11:25:22.460Z</time>
      </trkpt>
      <trkpt lat="44.18062" lon="4.46247">
        <ele>83.5</ele>
        <time>2024-08-31T11:25:37.538Z</time>
      </trkpt>
      <trkpt lat="44.18069" lon="4.46297">
        <ele>83.9</ele>
        <time>2024-08-31T11:25:58.167Z</time>
      </trkpt>
      <trkpt lat="44.18065" lon="4.46326">
        <ele>82.4</ele>
        <time>2024-08-31T11:26:10.125Z</time>
      </trkpt>
      <trkpt lat="44.18069" lon="4.46375">
        <ele>82</ele>
        <time>2024-08-31T11:26:30.095Z</time>
      </trkpt>
      <trkpt lat="44.18107" lon="4.46447">
        <ele>81.6</ele>
        <time>2024-08-31T11:27:06.295Z</time>
      </trkpt>
      <trkpt lat="44.18149" lon="4.46501">
        <ele>80.7</ele>
        <time>2024-08-31T11:27:38.553Z</time>
      </trkpt>
      <trkpt lat="44.18173" lon="4.46534">
        <ele>81</ele>
        <time>2024-08-31T11:27:57.585Z</time>
      </trkpt>
      <trkpt lat="44.18184" lon="4.46556">
        <ele>80.2</ele>
        <time>2024-08-31T11:28:08.445Z</time>
      </trkpt>
      <trkpt lat="44.18191" lon="4.46564">
        <ele>80.3</ele>
        <time>2024-08-31T11:28:13.555Z</time>
      </trkpt>
      <trkpt lat="44.18194" lon="4.46574">
        <ele>79.7</ele>
        <time>2024-08-31T11:28:17.944Z</time>
      </trkpt>
      <trkpt lat="44.18189" lon="4.46597">
        <ele>80.2</ele>
        <time>2024-08-31T11:28:27.676Z</time>
      </trkpt>
      <trkpt lat="44.18194" lon="4.46615">
        <ele>80.3</ele>
        <time>2024-08-31T11:28:35.492Z</time>
      </trkpt>
      <trkpt lat="44.18202" lon="4.46635">
        <ele>81.2</ele>
        <time>2024-08-31T11:28:44.765Z</time>
      </trkpt>
      <trkpt lat="44.18201" lon="4.46647">
        <ele>81.9</ele>
        <time>2024-08-31T11:28:49.656Z</time>
      </trkpt>
      <trkpt lat="44.18183" lon="4.46618">
        <ele>82.3</ele>
        <time>2024-08-31T11:29:05.186Z</time>
      </trkpt>
      <trkpt lat="44.18169" lon="4.46602">
        <ele>83</ele>
        <time>2024-08-31T11:29:15.407Z</time>
      </trkpt>
      <trkpt lat="44.18166" lon="4.46622">
        <ele>85.3</ele>
        <time>2024-08-31T11:29:23.681Z</time>
      </trkpt>
      <trkpt lat="44.18171" lon="4.46646">
        <ele>86.8</ele>
        <time>2024-08-31T11:29:33.801Z</time>
      </trkpt>
      <trkpt lat="44.18171" lon="4.46661">
        <ele>87.6</ele>
        <time>2024-08-31T11:29:39.874Z</time>
      </trkpt>
      <trkpt lat="44.18168" lon="4.4667">
        <ele>88.6</ele>
        <time>2024-08-31T11:29:43.892Z</time>
      </trkpt>
      <trkpt lat="44.18161" lon="4.46669">
        <ele>89.5</ele>
        <time>2024-08-31T11:29:47.865Z</time>
      </trkpt>
      <trkpt lat="44.18151" lon="4.46651">
        <ele>90.8</ele>
        <time>2024-08-31T11:29:57.085Z</time>
      </trkpt>
      <trkpt lat="44.18131" lon="4.46603">
        <ele>94.6</ele>
        <time>2024-08-31T11:30:19.564Z</time>
      </trkpt>
      <trkpt lat="44.1812" lon="4.4658">
        <ele>95.4</ele>
        <time>2024-08-31T11:30:30.758Z</time>
      </trkpt>
      <trkpt lat="44.18108" lon="4.46575">
        <ele>97.5</ele>
        <time>2024-08-31T11:30:37.829Z</time>
      </trkpt>
      <trkpt lat="44.18097" lon="4.46569">
        <ele>97.9</ele>
        <time>2024-08-31T11:30:44.498Z</time>
      </trkpt>
      <trkpt lat="44.1809" lon="4.46558">
        <ele>96.5</ele>
        <time>2024-08-31T11:30:50.453Z</time>
      </trkpt>
      <trkpt lat="44.18066" lon="4.46551">
        <ele>96.7</ele>
        <time>2024-08-31T11:31:04.298Z</time>
      </trkpt>
      <trkpt lat="44.18045" lon="4.46538">
        <ele>96</ele>
        <time>2024-08-31T11:31:17.271Z</time>
      </trkpt>
      <trkpt lat="44.18035" lon="4.46534">
        <ele>97.6</ele>
        <time>2024-08-31T11:31:23.145Z</time>
      </trkpt>
      <trkpt lat="44.18011" lon="4.46533">
        <ele>100.6</ele>
        <time>2024-08-31T11:31:36.702Z</time>
      </trkpt>
      <trkpt lat="44.17998" lon="4.4653">
        <ele>101.6</ele>
        <time>2024-08-31T11:31:44.142Z</time>
      </trkpt>
      <trkpt lat="44.17993" lon="4.46533">
        <ele>102.3</ele>
        <time>2024-08-31T11:31:47.215Z</time>
      </trkpt>
      <trkpt lat="44.17989" lon="4.46533">
        <ele>102.7</ele>
        <time>2024-08-31T11:31:49.473Z</time>
      </trkpt>
      <trkpt lat="44.17987" lon="4.46533">
        <ele>103.1</ele>
        <time>2024-08-31T11:31:50.601Z</time>
      </trkpt>
      <trkpt lat="44.17953" lon="4.46532">
        <ele>107.2</ele>
        <time>2024-08-31T11:32:09.803Z</time>
      </trkpt>
      <trkpt lat="44.17933" lon="4.46542">
        <ele>111</ele>
        <time>2024-08-31T11:32:21.800Z</time>
      </trkpt>
      <trkpt lat="44.17931" lon="4.46551">
        <ele>112.5</ele>
        <time>2024-08-31T11:32:25.615Z</time>
      </trkpt>
      <trkpt lat="44.17946" lon="4.46574">
        <ele>111.2</ele>
        <time>2024-08-31T11:32:38.204Z</time>
      </trkpt>
      <trkpt lat="44.17942" lon="4.46617">
        <ele>112.3</ele>
        <time>2024-08-31T11:32:55.762Z</time>
      </trkpt>
      <trkpt lat="44.17932" lon="4.46648">
        <ele>114.4</ele>
        <time>2024-08-31T11:33:09.527Z</time>
      </trkpt>
      <trkpt lat="44.1793" lon="4.4666">
        <ele>116</ele>
        <time>2024-08-31T11:33:14.515Z</time>
      </trkpt>
      <trkpt lat="44.17929" lon="4.4668">
        <ele>117.3</ele>
        <time>2024-08-31T11:33:22.633Z</time>
      </trkpt>
      <trkpt lat="44.17914" lon="4.46724">
        <ele>120.7</ele>
        <time>2024-08-31T11:33:42.361Z</time>
      </trkpt>
      <trkpt lat="44.17912" lon="4.46746">
        <ele>122.6</ele>
        <time>2024-08-31T11:33:51.341Z</time>
      </trkpt>
      <trkpt lat="44.17927" lon="4.4677">
        <ele>123.8</ele>
        <time>2024-08-31T11:34:04.232Z</time>
      </trkpt>
      <trkpt lat="44.17942" lon="4.46776">
        <ele>122.9</ele>
        <time>2024-08-31T11:34:13.043Z</time>
      </trkpt>
      <trkpt lat="44.17955" lon="4.46779">
        <ele>121.4</ele>
        <time>2024-08-31T11:34:20.483Z</time>
      </trkpt>
      <trkpt lat="44.17959" lon="4.46794">
        <ele>120.7</ele>
        <time>2024-08-31T11:34:26.963Z</time>
      </trkpt>
      <trkpt lat="44.17954" lon="4.4683">
        <ele>120.1</ele>
        <time>2024-08-31T11:34:41.812Z</time>
      </trkpt>
      <trkpt lat="44.17942" lon="4.46853">
        <ele>121.7</ele>
        <time>2024-08-31T11:34:53.329Z</time>
      </trkpt>
      <trkpt lat="44.17907" lon="4.46859">
        <ele>126.6</ele>
        <time>2024-08-31T11:35:13.240Z</time>
      </trkpt>
      <trkpt lat="44.17882" lon="4.46859">
        <ele>129.9</ele>
        <time>2024-08-31T11:35:27.356Z</time>
      </trkpt>
      <trkpt lat="44.17846" lon="4.46845">
        <ele>133.2</ele>
        <time>2024-08-31T11:35:48.459Z</time>
      </trkpt>
      <trkpt lat="44.17838" lon="4.4683">
        <ele>135.3</ele>
        <time>2024-08-31T11:35:56.028Z</time>
      </trkpt>
      <trkpt lat="44.17838" lon="4.46802">
        <ele>137.9</ele>
        <time>2024-08-31T11:36:07.367Z</time>
      </trkpt>
      <trkpt lat="44.17817" lon="4.46761">
        <ele>139.5</ele>
        <time>2024-08-31T11:36:27.769Z</time>
      </trkpt>
      <trkpt lat="44.17808" lon="4.46721">
        <ele>143.8</ele>
        <time>2024-08-31T11:36:44.745Z</time>
      </trkpt>
      <trkpt lat="44.17784" lon="4.46699">
        <ele>146.8</ele>
        <time>2024-08-31T11:37:00.963Z</time>
      </trkpt>
      <trkpt lat="44.17752" lon="4.46689">
        <ele>149.6</ele>
        <time>2024-08-31T11:37:19.480Z</time>
      </trkpt>
      <trkpt lat="44.1774" lon="4.46676">
        <ele>152.3</ele>
        <time>2024-08-31T11:37:28.060Z</time>
      </trkpt>
      <trkpt lat="44.17749" lon="4.46624">
        <ele>155.6</ele>
        <time>2024-08-31T11:37:49.722Z</time>
      </trkpt>
      <trkpt lat="44.17732" lon="4.46545">
        <ele>160.3</ele>
        <time>2024-08-31T11:38:23.123Z</time>
      </trkpt>
      <trkpt lat="44.17708" lon="4.46517">
        <ele>161.4</ele>
        <time>2024-08-31T11:38:40.793Z</time>
      </trkpt>
      <trkpt lat="44.17672" lon="4.46446">
        <ele>161.7</ele>
        <time>2024-08-31T11:39:16.005Z</time>
      </trkpt>
      <trkpt lat="44.17633" lon="4.46395">
        <ele>161.3</ele>
        <time>2024-08-31T11:39:46.196Z</time>
      </trkpt>
      <trkpt lat="44.17607" lon="4.46382">
        <ele>163.2</ele>
        <time>2024-08-31T11:40:01.792Z</time>
      </trkpt>
      <trkpt lat="44.17585" lon="4.46392">
        <ele>162.5</ele>
        <time>2024-08-31T11:40:14.857Z</time>
      </trkpt>
      <trkpt lat="44.17557" lon="4.46371">
        <ele>164.9</ele>
        <time>2024-08-31T11:40:32.809Z</time>
      </trkpt>
      <trkpt lat="44.17532" lon="4.4637">
        <ele>166.2</ele>
        <time>2024-08-31T11:40:46.931Z</time>
      </trkpt>
      <trkpt lat="44.17501" lon="4.46374">
        <ele>169.5</ele>
        <time>2024-08-31T11:41:04.510Z</time>
      </trkpt>
      <trkpt lat="44.1744" lon="4.46183">
        <ele>161.3</ele>
        <time>2024-08-31T11:42:29.184Z</time>
      </trkpt>
      <trkpt lat="44.17414" lon="4.46154">
        <ele>156.4</ele>
        <time>2024-08-31T11:42:47.984Z</time>
      </trkpt>
      <trkpt lat="44.17344" lon="4.46044">
        <ele>150.2</ele>
        <time>2024-08-31T11:43:47.540Z</time>
      </trkpt>
      <trkpt lat="44.17306" lon="4.46022">
        <ele>150.4</ele>
        <time>2024-08-31T11:44:10.773Z</time>
      </trkpt>
      <trkpt lat="44.17227" lon="4.46032">
        <ele>154.1</ele>
        <time>2024-08-31T11:44:55.564Z</time>
      </trkpt>
      <trkpt lat="44.17181" lon="4.46041">
        <ele>156.1</ele>
        <time>2024-08-31T11:45:21.792Z</time>
      </trkpt>
      <trkpt lat="44.17166" lon="4.46035">
        <ele>157</ele>
        <time>2024-08-31T11:45:30.603Z</time>
      </trkpt>
      <trkpt lat="44.17138" lon="4.46018">
        <ele>157.4</ele>
        <time>2024-08-31T11:45:47.847Z</time>
      </trkpt>
      <trkpt lat="44.17125" lon="4.46013">
        <ele>157.8</ele>
        <time>2024-08-31T11:45:55.461Z</time>
      </trkpt>
      <trkpt lat="44.17121" lon="4.46003">
        <ele>159.1</ele>
        <time>2024-08-31T11:46:00.098Z</time>
      </trkpt>
      <trkpt lat="44.17122" lon="4.45985">
        <ele>159.9</ele>
        <time>2024-08-31T11:46:07.410Z</time>
      </trkpt>
      <trkpt lat="44.17117" lon="4.45975">
        <ele>160.1</ele>
        <time>2024-08-31T11:46:12.347Z</time>
      </trkpt>
      <trkpt lat="44.17108" lon="4.45963">
        <ele>158.9</ele>
        <time>2024-08-31T11:46:19.378Z</time>
      </trkpt>
      <trkpt lat="44.1709" lon="4.45962">
        <ele>157.7</ele>
        <time>2024-08-31T11:46:29.549Z</time>
      </trkpt>
      <trkpt lat="44.17061" lon="4.45957">
        <ele>156.5</ele>
        <time>2024-08-31T11:46:46.048Z</time>
      </trkpt>
      <trkpt lat="44.17049" lon="4.45955">
        <ele>155.9</ele>
        <time>2024-08-31T11:46:52.872Z</time>
      </trkpt>
      <trkpt lat="44.17039" lon="4.45953">
        <ele>154.8</ele>
        <time>2024-08-31T11:46:58.576Z</time>
      </trkpt>
      <trkpt lat="44.17037" lon="4.45973">
        <ele>157.7</ele>
        <time>2024-08-31T11:47:06.754Z</time>
      </trkpt>
      <trkpt lat="44.17035" lon="4.45986">
        <ele>157.6</ele>
        <time>2024-08-31T11:47:12.138Z</time>
      </trkpt>
      <trkpt lat="44.17029" lon="4.4601">
        <ele>156.9</ele>
        <time>2024-08-31T11:47:22.431Z</time>
      </trkpt>
      <trkpt lat="44.17025" lon="4.46033">
        <ele>155.1</ele>
        <time>2024-08-31T11:47:32.016Z</time>
      </trkpt>
      <trkpt lat="44.17016" lon="4.46066">
        <ele>153.3</ele>
        <time>2024-08-31T11:47:46.315Z</time>
      </trkpt>
      <trkpt lat="44.17013" lon="4.46088">
        <ele>152</ele>
        <time>2024-08-31T11:47:55.384Z</time>
      </trkpt>
      <trkpt lat="44.17013" lon="4.46112">
        <ele>149.1</ele>
        <time>2024-08-31T11:48:05.104Z</time>
      </trkpt>
      <trkpt lat="44.17011" lon="4.46116">
        <ele>158.8</ele>
        <time>2024-08-31T11:48:07.078Z</time>
      </trkpt>
      <trkpt lat="44.1701" lon="4.46118">
        <ele>158.6</ele>
        <time>2024-08-31T11:48:08.063Z</time>
      </trkpt>
      <trkpt lat="44.17008" lon="4.4612">
        <ele>158.4</ele>
        <time>2024-08-31T11:48:09.451Z</time>
      </trkpt>
      <trkpt lat="44.17007" lon="4.46123">
        <ele>158.2</ele>
        <time>2024-08-31T11:48:10.790Z</time>
      </trkpt>
      <trkpt lat="44.17006" lon="4.46125">
        <ele>158</ele>
        <time>2024-08-31T11:48:11.777Z</time>
      </trkpt>
      <trkpt lat="44.17005" lon="4.46128">
        <ele>157.6</ele>
        <time>2024-08-31T11:48:13.116Z</time>
      </trkpt>
      <trkpt lat="44.17003" lon="4.46132">
        <ele>157.4</ele>
        <time>2024-08-31T11:48:15.090Z</time>
      </trkpt>
      <trkpt lat="44.17" lon="4.46143">
        <ele>157</ele>
        <time>2024-08-31T11:48:19.856Z</time>
      </trkpt>
      <trkpt lat="44.16996" lon="4.46154">
        <ele>156.6</ele>
        <time>2024-08-31T11:48:24.850Z</time>
      </trkpt>
      <trkpt lat="44.16994" lon="4.46158">
        <ele>156.4</ele>
        <time>2024-08-31T11:48:26.824Z</time>
      </trkpt>
      <trkpt lat="44.16992" lon="4.46162">
        <ele>156.2</ele>
        <time>2024-08-31T11:48:28.798Z</time>
      </trkpt>
      <trkpt lat="44.16991" lon="4.46165">
        <ele>155.8</ele>
        <time>2024-08-31T11:48:30.137Z</time>
      </trkpt>
      <trkpt lat="44.1699" lon="4.46169">
        <ele>155.8</ele>
        <time>2024-08-31T11:48:31.852Z</time>
      </trkpt>
      <trkpt lat="44.16989" lon="4.46173">
        <ele>155.6</ele>
        <time>2024-08-31T11:48:33.567Z</time>
      </trkpt>
      <trkpt lat="44.16987" lon="4.46177">
        <ele>155.2</ele>
        <time>2024-08-31T11:48:35.541Z</time>
      </trkpt>
      <trkpt lat="44.16986" lon="4.46181">
        <ele>155.2</ele>
        <time>2024-08-31T11:48:37.256Z</time>
      </trkpt>
      <trkpt lat="44.16985" lon="4.46185">
        <ele>154.8</ele>
        <time>2024-08-31T11:48:38.971Z</time>
      </trkpt>
      <trkpt lat="44.16984" lon="4.46189">
        <ele>154.8</ele>
        <time>2024-08-31T11:48:40.686Z</time>
      </trkpt>
      <trkpt lat="44.16982" lon="4.46193">
        <ele>154.6</ele>
        <time>2024-08-31T11:48:42.660Z</time>
      </trkpt>
      <trkpt lat="44.16981" lon="4.46196">
        <ele>154.6</ele>
        <time>2024-08-31T11:48:44.000Z</time>
      </trkpt>
      <trkpt lat="44.16979" lon="4.462">
        <ele>154.6</ele>
        <time>2024-08-31T11:48:45.974Z</time>
      </trkpt>
      <trkpt lat="44.16977" lon="4.46204">
        <ele>154.6</ele>
        <time>2024-08-31T11:48:47.948Z</time>
      </trkpt>
      <trkpt lat="44.16976" lon="4.46208">
        <ele>154.6</ele>
        <time>2024-08-31T11:48:49.663Z</time>
      </trkpt>
      <trkpt lat="44.16974" lon="4.46212">
        <ele>154.6</ele>
        <time>2024-08-31T11:48:51.637Z</time>
      </trkpt>
      <trkpt lat="44.16972" lon="4.46216">
        <ele>154.6</ele>
        <time>2024-08-31T11:48:53.611Z</time>
      </trkpt>
      <trkpt lat="44.1697" lon="4.46219">
        <ele>154.6</ele>
        <time>2024-08-31T11:48:55.269Z</time>
      </trkpt>
      <trkpt lat="44.16967" lon="4.46228">
        <ele>154.6</ele>
        <time>2024-08-31T11:48:59.288Z</time>
      </trkpt>
      <trkpt lat="44.16966" lon="4.46232">
        <ele>154.6</ele>
        <time>2024-08-31T11:49:01.003Z</time>
      </trkpt>
      <trkpt lat="44.16963" lon="4.46236">
        <ele>154.6</ele>
        <time>2024-08-31T11:49:03.346Z</time>
      </trkpt>
      <trkpt lat="44.16961" lon="4.46241">
        <ele>154.6</ele>
        <time>2024-08-31T11:49:05.664Z</time>
      </trkpt>
      <trkpt lat="44.16959" lon="4.46245">
        <ele>154.6</ele>
        <time>2024-08-31T11:49:07.638Z</time>
      </trkpt>
      <trkpt lat="44.16957" lon="4.46249">
        <ele>154.8</ele>
        <time>2024-08-31T11:49:09.612Z</time>
      </trkpt>
      <trkpt lat="44.16954" lon="4.46254">
        <ele>155</ele>
        <time>2024-08-31T11:49:12.252Z</time>
      </trkpt>
      <trkpt lat="44.16953" lon="4.46259">
        <ele>155</ele>
        <time>2024-08-31T11:49:14.354Z</time>
      </trkpt>
      <trkpt lat="44.16951" lon="4.46264">
        <ele>155.2</ele>
        <time>2024-08-31T11:49:16.673Z</time>
      </trkpt>
      <trkpt lat="44.1695" lon="4.46269">
        <ele>155.2</ele>
        <time>2024-08-31T11:49:18.775Z</time>
      </trkpt>
      <trkpt lat="44.1695" lon="4.46274">
        <ele>155.4</ele>
        <time>2024-08-31T11:49:20.799Z</time>
      </trkpt>
      <trkpt lat="44.16948" lon="4.4628">
        <ele>155.4</ele>
        <time>2024-08-31T11:49:23.478Z</time>
      </trkpt>
      <trkpt lat="44.16947" lon="4.46285">
        <ele>155.6</ele>
        <time>2024-08-31T11:49:25.581Z</time>
      </trkpt>
      <trkpt lat="44.16946" lon="4.4629">
        <ele>155.6</ele>
        <time>2024-08-31T11:49:27.683Z</time>
      </trkpt>
      <trkpt lat="44.16944" lon="4.46296">
        <ele>155.6</ele>
        <time>2024-08-31T11:49:30.362Z</time>
      </trkpt>
      <trkpt lat="44.16942" lon="4.46302">
        <ele>155.6</ele>
        <time>2024-08-31T11:49:33.041Z</time>
      </trkpt>
      <trkpt lat="44.16941" lon="4.46307">
        <ele>155.6</ele>
        <time>2024-08-31T11:49:35.143Z</time>
      </trkpt>
      <trkpt lat="44.16939" lon="4.46313">
        <ele>155.6</ele>
        <time>2024-08-31T11:49:37.822Z</time>
      </trkpt>
      <trkpt lat="44.16937" lon="4.46317">
        <ele>155.6</ele>
        <time>2024-08-31T11:49:39.796Z</time>
      </trkpt>
      <trkpt lat="44.16934" lon="4.46322">
        <ele>155.6</ele>
        <time>2024-08-31T11:49:42.436Z</time>
      </trkpt>
      <trkpt lat="44.16931" lon="4.46327">
        <ele>155.6</ele>
        <time>2024-08-31T11:49:45.076Z</time>
      </trkpt>
      <trkpt lat="44.16928" lon="4.46333">
        <ele>155.6</ele>
        <time>2024-08-31T11:49:48.038Z</time>
      </trkpt>
      <trkpt lat="44.16926" lon="4.46336">
        <ele>155.4</ele>
        <time>2024-08-31T11:49:49.696Z</time>
      </trkpt>
      <trkpt lat="44.16924" lon="4.46341">
        <ele>155.2</ele>
        <time>2024-08-31T11:49:52.015Z</time>
      </trkpt>
      <trkpt lat="44.16921" lon="4.46345">
        <ele>155</ele>
        <time>2024-08-31T11:49:54.358Z</time>
      </trkpt>
      <trkpt lat="44.16919" lon="4.4635">
        <ele>155</ele>
        <time>2024-08-31T11:49:56.677Z</time>
      </trkpt>
      <trkpt lat="44.16916" lon="4.46355">
        <ele>154.6</ele>
        <time>2024-08-31T11:49:59.317Z</time>
      </trkpt>
      <trkpt lat="44.16914" lon="4.4636">
        <ele>154.2</ele>
        <time>2024-08-31T11:50:01.636Z</time>
      </trkpt>
      <trkpt lat="44.16913" lon="4.46364">
        <ele>153.8</ele>
        <time>2024-08-31T11:50:03.351Z</time>
      </trkpt>
      <trkpt lat="44.16912" lon="4.46369">
        <ele>153.4</ele>
        <time>2024-08-31T11:50:05.454Z</time>
      </trkpt>
      <trkpt lat="44.16912" lon="4.46373">
        <ele>152.6</ele>
        <time>2024-08-31T11:50:07.074Z</time>
      </trkpt>
      <trkpt lat="44.16912" lon="4.46377">
        <ele>152.2</ele>
        <time>2024-08-31T11:50:08.694Z</time>
      </trkpt>
      <trkpt lat="44.16912" lon="4.46381">
        <ele>151.6</ele>
        <time>2024-08-31T11:50:10.314Z</time>
      </trkpt>
      <trkpt lat="44.16912" lon="4.46384">
        <ele>151.2</ele>
        <time>2024-08-31T11:50:11.529Z</time>
      </trkpt>
      <trkpt lat="44.16912" lon="4.46388">
        <ele>150.8</ele>
        <time>2024-08-31T11:50:13.149Z</time>
      </trkpt>
      <trkpt lat="44.16912" lon="4.46392">
        <ele>150.4</ele>
        <time>2024-08-31T11:50:14.769Z</time>
      </trkpt>
      <trkpt lat="44.16911" lon="4.46396">
        <ele>150</ele>
        <time>2024-08-31T11:50:16.484Z</time>
      </trkpt>
      <trkpt lat="44.16911" lon="4.46401">
        <ele>149.6</ele>
        <time>2024-08-31T11:50:18.508Z</time>
      </trkpt>
      <trkpt lat="44.16911" lon="4.46405">
        <ele>149.2</ele>
        <time>2024-08-31T11:50:20.127Z</time>
      </trkpt>
      <trkpt lat="44.1691" lon="4.46409">
        <ele>149.2</ele>
        <time>2024-08-31T11:50:21.842Z</time>
      </trkpt>
      <trkpt lat="44.1691" lon="4.46412">
        <ele>148.6</ele>
        <time>2024-08-31T11:50:23.057Z</time>
      </trkpt>
      <trkpt lat="44.1691" lon="4.46416">
        <ele>148</ele>
        <time>2024-08-31T11:50:24.677Z</time>
      </trkpt>
      <trkpt lat="44.1691" lon="4.4642">
        <ele>148</ele>
        <time>2024-08-31T11:50:26.297Z</time>
      </trkpt>
      <trkpt lat="44.1691" lon="4.46424">
        <ele>147.8</ele>
        <time>2024-08-31T11:50:27.917Z</time>
      </trkpt>
      <trkpt lat="44.1691" lon="4.46428">
        <ele>147.4</ele>
        <time>2024-08-31T11:50:29.537Z</time>
      </trkpt>
      <trkpt lat="44.1691" lon="4.46432">
        <ele>147</ele>
        <time>2024-08-31T11:50:31.157Z</time>
      </trkpt>
      <trkpt lat="44.1691" lon="4.46437">
        <ele>146.8</ele>
        <time>2024-08-31T11:50:33.182Z</time>
      </trkpt>
      <trkpt lat="44.16909" lon="4.46441">
        <ele>146.4</ele>
        <time>2024-08-31T11:50:34.897Z</time>
      </trkpt>
      <trkpt lat="44.16908" lon="4.46445">
        <ele>146.4</ele>
        <time>2024-08-31T11:50:36.613Z</time>
      </trkpt>
      <trkpt lat="44.16907" lon="4.46449">
        <ele>146</ele>
        <time>2024-08-31T11:50:38.328Z</time>
      </trkpt>
      <trkpt lat="44.16906" lon="4.46453">
        <ele>146</ele>
        <time>2024-08-31T11:50:40.043Z</time>
      </trkpt>
      <trkpt lat="44.16904" lon="4.46457">
        <ele>145.6</ele>
        <time>2024-08-31T11:50:42.017Z</time>
      </trkpt>
      <trkpt lat="44.16902" lon="4.4646">
        <ele>145.4</ele>
        <time>2024-08-31T11:50:43.675Z</time>
      </trkpt>
      <trkpt lat="44.16901" lon="4.46464">
        <ele>145.2</ele>
        <time>2024-08-31T11:50:45.390Z</time>
      </trkpt>
      <trkpt lat="44.16899" lon="4.46468">
        <ele>145.2</ele>
        <time>2024-08-31T11:50:47.364Z</time>
      </trkpt>
      <trkpt lat="44.16897" lon="4.46472">
        <ele>145.2</ele>
        <time>2024-08-31T11:50:49.338Z</time>
      </trkpt>
      <trkpt lat="44.16895" lon="4.46476">
        <ele>145.2</ele>
        <time>2024-08-31T11:50:51.312Z</time>
      </trkpt>
      <trkpt lat="44.16893" lon="4.4648">
        <ele>145.2</ele>
        <time>2024-08-31T11:50:53.286Z</time>
      </trkpt>
      <trkpt lat="44.16892" lon="4.46484">
        <ele>145.2</ele>
        <time>2024-08-31T11:50:55.001Z</time>
      </trkpt>
      <trkpt lat="44.1689" lon="4.46488">
        <ele>145</ele>
        <time>2024-08-31T11:50:56.975Z</time>
      </trkpt>
      <trkpt lat="44.16888" lon="4.46493">
        <ele>145</ele>
        <time>2024-08-31T11:50:59.294Z</time>
      </trkpt>
      <trkpt lat="44.16886" lon="4.46497">
        <ele>145</ele>
        <time>2024-08-31T11:51:01.268Z</time>
      </trkpt>
      <trkpt lat="44.16884" lon="4.46501">
        <ele>145</ele>
        <time>2024-08-31T11:51:03.242Z</time>
      </trkpt>
      <trkpt lat="44.16882" lon="4.46506">
        <ele>145</ele>
        <time>2024-08-31T11:51:05.561Z</time>
      </trkpt>
      <trkpt lat="44.16879" lon="4.46511">
        <ele>145</ele>
        <time>2024-08-31T11:51:08.201Z</time>
      </trkpt>
      <trkpt lat="44.16877" lon="4.46515">
        <ele>145</ele>
        <time>2024-08-31T11:51:10.176Z</time>
      </trkpt>
      <trkpt lat="44.16875" lon="4.4652">
        <ele>144.8</ele>
        <time>2024-08-31T11:51:12.495Z</time>
      </trkpt>
      <trkpt lat="44.16871" lon="4.46542">
        <ele>144.2</ele>
        <time>2024-08-31T11:51:21.687Z</time>
      </trkpt>
      <trkpt lat="44.1687" lon="4.46548">
        <ele>144.2</ele>
        <time>2024-08-31T11:51:24.181Z</time>
      </trkpt>
      <trkpt lat="44.16861" lon="4.46568">
        <ele>143.2</ele>
        <time>2024-08-31T11:51:33.743Z</time>
      </trkpt>
      <trkpt lat="44.1686" lon="4.46571">
        <ele>142.8</ele>
        <time>2024-08-31T11:51:35.082Z</time>
      </trkpt>
      <trkpt lat="44.16856" lon="4.46583">
        <ele>142</ele>
        <time>2024-08-31T11:51:40.441Z</time>
      </trkpt>
      <trkpt lat="44.16852" lon="4.4659">
        <ele>141.6</ele>
        <time>2024-08-31T11:51:44.065Z</time>
      </trkpt>
      <trkpt lat="44.1685" lon="4.46594">
        <ele>141.6</ele>
        <time>2024-08-31T11:51:46.039Z</time>
      </trkpt>
      <trkpt lat="44.16848" lon="4.46597">
        <ele>141.6</ele>
        <time>2024-08-31T11:51:47.697Z</time>
      </trkpt>
      <trkpt lat="44.16846" lon="4.46601">
        <ele>141.6</ele>
        <time>2024-08-31T11:51:49.671Z</time>
      </trkpt>
      <trkpt lat="44.16843" lon="4.46604">
        <ele>141.6</ele>
        <time>2024-08-31T11:51:51.755Z</time>
      </trkpt>
      <trkpt lat="44.16841" lon="4.46607">
        <ele>141.6</ele>
        <time>2024-08-31T11:51:53.413Z</time>
      </trkpt>
      <trkpt lat="44.16838" lon="4.46609">
        <ele>141.6</ele>
        <time>2024-08-31T11:51:55.290Z</time>
      </trkpt>
      <trkpt lat="44.16835" lon="4.46611">
        <ele>141.6</ele>
        <time>2024-08-31T11:51:57.167Z</time>
      </trkpt>
      <trkpt lat="44.16832" lon="4.46612">
        <ele>141.6</ele>
        <time>2024-08-31T11:51:58.907Z</time>
      </trkpt>
      <trkpt lat="44.16825" lon="4.46615">
        <ele>141.8</ele>
        <time>2024-08-31T11:52:03.041Z</time>
      </trkpt>
      <trkpt lat="44.16821" lon="4.46618">
        <ele>142</ele>
        <time>2024-08-31T11:52:05.605Z</time>
      </trkpt>
      <trkpt lat="44.16818" lon="4.46621">
        <ele>142</ele>
        <time>2024-08-31T11:52:07.689Z</time>
      </trkpt>
      <trkpt lat="44.16811" lon="4.4663">
        <ele>142.2</ele>
        <time>2024-08-31T11:52:13.065Z</time>
      </trkpt>
      <trkpt lat="44.16806" lon="4.46639">
        <ele>142.4</ele>
        <time>2024-08-31T11:52:17.675Z</time>
      </trkpt>
      <trkpt lat="44.16802" lon="4.46649">
        <ele>142.8</ele>
        <time>2024-08-31T11:52:22.312Z</time>
      </trkpt>
      <trkpt lat="44.16797" lon="4.46658">
        <ele>143</ele>
        <time>2024-08-31T11:52:26.922Z</time>
      </trkpt>
      <trkpt lat="44.16792" lon="4.46666">
        <ele>144</ele>
        <time>2024-08-31T11:52:31.219Z</time>
      </trkpt>
      <trkpt lat="44.16789" lon="4.4667">
        <ele>144.2</ele>
        <time>2024-08-31T11:52:33.562Z</time>
      </trkpt>
      <trkpt lat="44.16784" lon="4.46678">
        <ele>144.4</ele>
        <time>2024-08-31T11:52:37.859Z</time>
      </trkpt>
      <trkpt lat="44.16782" lon="4.46683">
        <ele>144.4</ele>
        <time>2024-08-31T11:52:40.177Z</time>
      </trkpt>
      <trkpt lat="44.1678" lon="4.46689">
        <ele>144.6</ele>
        <time>2024-08-31T11:52:42.856Z</time>
      </trkpt>
      <trkpt lat="44.16777" lon="4.46699">
        <ele>144.6</ele>
        <time>2024-08-31T11:52:47.246Z</time>
      </trkpt>
      <trkpt lat="44.16776" lon="4.46705">
        <ele>144.6</ele>
        <time>2024-08-31T11:52:49.740Z</time>
      </trkpt>
      <trkpt lat="44.16775" lon="4.46711">
        <ele>144.6</ele>
        <time>2024-08-31T11:52:52.234Z</time>
      </trkpt>
      <trkpt lat="44.16774" lon="4.46716">
        <ele>144.6</ele>
        <time>2024-08-31T11:52:54.336Z</time>
      </trkpt>
      <trkpt lat="44.16772" lon="4.46721">
        <ele>144.6</ele>
        <time>2024-08-31T11:52:56.654Z</time>
      </trkpt>
      <trkpt lat="44.16769" lon="4.46729">
        <ele>151.2</ele>
        <time>2024-08-31T11:53:00.310Z</time>
      </trkpt>
      <trkpt lat="44.16765" lon="4.4673">
        <ele>152.2</ele>
        <time>2024-08-31T11:53:02.604Z</time>
      </trkpt>
      <trkpt lat="44.16761" lon="4.46731">
        <ele>152.8</ele>
        <time>2024-08-31T11:53:04.898Z</time>
      </trkpt>
      <trkpt lat="44.16758" lon="4.46732">
        <ele>153.4</ele>
        <time>2024-08-31T11:53:06.638Z</time>
      </trkpt>
      <trkpt lat="44.16754" lon="4.46733">
        <ele>154</ele>
        <time>2024-08-31T11:53:08.932Z</time>
      </trkpt>
      <trkpt lat="44.16749" lon="4.46735">
        <ele>155</ele>
        <time>2024-08-31T11:53:11.869Z</time>
      </trkpt>
      <trkpt lat="44.16745" lon="4.46737">
        <ele>155.6</ele>
        <time>2024-08-31T11:53:14.268Z</time>
      </trkpt>
      <trkpt lat="44.1674" lon="4.4674">
        <ele>156.2</ele>
        <time>2024-08-31T11:53:17.341Z</time>
      </trkpt>
      <trkpt lat="44.16735" lon="4.46743">
        <ele>157</ele>
        <time>2024-08-31T11:53:20.415Z</time>
      </trkpt>
      <trkpt lat="44.1673" lon="4.46746">
        <ele>157</ele>
        <time>2024-08-31T11:53:23.488Z</time>
      </trkpt>
      <trkpt lat="44.16724" lon="4.4675">
        <ele>157.4</ele>
        <time>2024-08-31T11:53:27.243Z</time>
      </trkpt>
      <trkpt lat="44.16715" lon="4.46754">
        <ele>158.6</ele>
        <time>2024-08-31T11:53:32.577Z</time>
      </trkpt>
      <trkpt lat="44.16706" lon="4.46754">
        <ele>160</ele>
        <time>2024-08-31T11:53:37.658Z</time>
      </trkpt>
      <trkpt lat="44.16694" lon="4.46754">
        <ele>161</ele>
        <time>2024-08-31T11:53:44.434Z</time>
      </trkpt>
      <trkpt lat="44.1669" lon="4.46755">
        <ele>161.8</ele>
        <time>2024-08-31T11:53:46.728Z</time>
      </trkpt>
      <trkpt lat="44.16687" lon="4.46755">
        <ele>162.4</ele>
        <time>2024-08-31T11:53:48.421Z</time>
      </trkpt>
      <trkpt lat="44.16684" lon="4.46755">
        <ele>163</ele>
        <time>2024-08-31T11:53:50.115Z</time>
      </trkpt>
      <trkpt lat="44.1668" lon="4.46755">
        <ele>163.8</ele>
        <time>2024-08-31T11:53:52.373Z</time>
      </trkpt>
      <trkpt lat="44.16677" lon="4.46755">
        <ele>164.2</ele>
        <time>2024-08-31T11:53:54.067Z</time>
      </trkpt>
      <trkpt lat="44.16674" lon="4.46756">
        <ele>164.8</ele>
        <time>2024-08-31T11:53:55.807Z</time>
      </trkpt>
      <trkpt lat="44.16666" lon="4.46758">
        <ele>166.2</ele>
        <time>2024-08-31T11:54:00.396Z</time>
      </trkpt>
      <trkpt lat="44.16661" lon="4.4676">
        <ele>167.4</ele>
        <time>2024-08-31T11:54:03.333Z</time>
      </trkpt>
      <trkpt lat="44.16656" lon="4.46761">
        <ele>168</ele>
        <time>2024-08-31T11:54:06.185Z</time>
      </trkpt>
      <trkpt lat="44.16652" lon="4.46762">
        <ele>168.8</ele>
        <time>2024-08-31T11:54:08.479Z</time>
      </trkpt>
      <trkpt lat="44.16648" lon="4.46765">
        <ele>169.4</ele>
        <time>2024-08-31T11:54:11.043Z</time>
      </trkpt>
      <trkpt lat="44.16644" lon="4.46767">
        <ele>170.2</ele>
        <time>2024-08-31T11:54:13.442Z</time>
      </trkpt>
      <trkpt lat="44.16635" lon="4.4677">
        <ele>170.4</ele>
        <time>2024-08-31T11:54:18.667Z</time>
      </trkpt>
      <trkpt lat="44.1663" lon="4.46772">
        <ele>171</ele>
        <time>2024-08-31T11:54:21.604Z</time>
      </trkpt>
      <trkpt lat="44.16625" lon="4.46774">
        <ele>172</ele>
        <time>2024-08-31T11:54:24.541Z</time>
      </trkpt>
      <trkpt lat="44.16621" lon="4.46776">
        <ele>172.6</ele>
        <time>2024-08-31T11:54:26.939Z</time>
      </trkpt>
      <trkpt lat="44.16616" lon="4.46777">
        <ele>173.2</ele>
        <time>2024-08-31T11:54:29.791Z</time>
      </trkpt>
      <trkpt lat="44.16612" lon="4.46777">
        <ele>173.6</ele>
        <time>2024-08-31T11:54:32.049Z</time>
      </trkpt>
      <trkpt lat="44.16608" lon="4.46776">
        <ele>174.4</ele>
        <time>2024-08-31T11:54:34.343Z</time>
      </trkpt>
      <trkpt lat="44.16599" lon="4.46774">
        <ele>176</ele>
        <time>2024-08-31T11:54:39.488Z</time>
      </trkpt>
      <trkpt lat="44.16589" lon="4.46772">
        <ele>177.6</ele>
        <time>2024-08-31T11:54:45.192Z</time>
      </trkpt>
      <trkpt lat="44.16584" lon="4.46771">
        <ele>178.2</ele>
        <time>2024-08-31T11:54:48.044Z</time>
      </trkpt>
      <trkpt lat="44.16579" lon="4.4677">
        <ele>179</ele>
        <time>2024-08-31T11:54:50.896Z</time>
      </trkpt>
      <trkpt lat="44.16573" lon="4.46768">
        <ele>179.4</ele>
        <time>2024-08-31T11:54:54.379Z</time>
      </trkpt>
      <trkpt lat="44.1657" lon="4.46767">
        <ele>180</ele>
        <time>2024-08-31T11:54:56.119Z</time>
      </trkpt>
      <trkpt lat="44.16565" lon="4.46767">
        <ele>180.4</ele>
        <time>2024-08-31T11:54:58.942Z</time>
      </trkpt>
      <trkpt lat="44.1656" lon="4.46766">
        <ele>181</ele>
        <time>2024-08-31T11:55:01.794Z</time>
      </trkpt>
      <trkpt lat="44.16555" lon="4.46766">
        <ele>181.2</ele>
        <time>2024-08-31T11:55:04.617Z</time>
      </trkpt>
      <trkpt lat="44.16551" lon="4.46765">
        <ele>181.6</ele>
        <time>2024-08-31T11:55:06.911Z</time>
      </trkpt>
      <trkpt lat="44.16543" lon="4.4676">
        <ele>181.6</ele>
        <time>2024-08-31T11:55:11.861Z</time>
      </trkpt>
      <trkpt lat="44.16535" lon="4.46752">
        <ele>181.6</ele>
        <time>2024-08-31T11:55:17.420Z</time>
      </trkpt>
      <trkpt lat="44.16529" lon="4.46746">
        <ele>181.6</ele>
        <time>2024-08-31T11:55:21.589Z</time>
      </trkpt>
      <trkpt lat="44.16525" lon="4.46743">
        <ele>181.6</ele>
        <time>2024-08-31T11:55:24.153Z</time>
      </trkpt>
      <trkpt lat="44.16518" lon="4.46736">
        <ele>181.4</ele>
        <time>2024-08-31T11:55:29.017Z</time>
      </trkpt>
      <trkpt lat="44.16515" lon="4.46733">
        <ele>181.4</ele>
        <time>2024-08-31T11:55:31.101Z</time>
      </trkpt>
      <trkpt lat="44.16513" lon="4.4673">
        <ele>181.2</ele>
        <time>2024-08-31T11:55:32.759Z</time>
      </trkpt>
      <trkpt lat="44.16512" lon="4.46727">
        <ele>181</ele>
        <time>2024-08-31T11:55:34.098Z</time>
      </trkpt>
      <trkpt lat="44.16504" lon="4.46729">
        <ele>172.8</ele>
        <time>2024-08-31T11:55:38.687Z</time>
      </trkpt>
      <trkpt lat="44.16491" lon="4.46738">
        <ele>173</ele>
        <time>2024-08-31T11:55:46.882Z</time>
      </trkpt>
      <trkpt lat="44.16485" lon="4.46748">
        <ele>172.3</ele>
        <time>2024-08-31T11:55:52.162Z</time>
      </trkpt>
      <trkpt lat="44.16461" lon="4.46789">
        <ele>169.6</ele>
        <time>2024-08-31T11:56:13.596Z</time>
      </trkpt>
      <trkpt lat="44.1645" lon="4.46805">
        <ele>168.6</ele>
        <time>2024-08-31T11:56:22.572Z</time>
      </trkpt>
      <trkpt lat="44.1644" lon="4.46812">
        <ele>168.3</ele>
        <time>2024-08-31T11:56:28.890Z</time>
      </trkpt>
      <trkpt lat="44.16421" lon="4.46814">
        <ele>167.8</ele>
        <time>2024-08-31T11:56:39.649Z</time>
      </trkpt>
      <trkpt lat="44.16411" lon="4.46817">
        <ele>165.8</ele>
        <time>2024-08-31T11:56:45.424Z</time>
      </trkpt>
      <trkpt lat="44.16407" lon="4.46828">
        <ele>163.3</ele>
        <time>2024-08-31T11:56:50.419Z</time>
      </trkpt>
      <trkpt lat="44.16405" lon="4.46844">
        <ele>161.4</ele>
        <time>2024-08-31T11:56:56.997Z</time>
      </trkpt>
      <trkpt lat="44.16405" lon="4.46851">
        <ele>161.1</ele>
        <time>2024-08-31T11:56:59.832Z</time>
      </trkpt>
      <trkpt lat="44.164" lon="4.46875">
        <ele>158.9</ele>
        <time>2024-08-31T11:57:09.954Z</time>
      </trkpt>
      <trkpt lat="44.16398" lon="4.46895">
        <ele>158.5</ele>
        <time>2024-08-31T11:57:18.133Z</time>
      </trkpt>
      <trkpt lat="44.16392" lon="4.46906">
        <ele>159.1</ele>
        <time>2024-08-31T11:57:23.730Z</time>
      </trkpt>
      <trkpt lat="44.16389" lon="4.46908">
        <ele>159.4</ele>
        <time>2024-08-31T11:57:25.607Z</time>
      </trkpt>
      <trkpt lat="44.16383" lon="4.46912">
        <ele>160.3</ele>
        <time>2024-08-31T11:57:29.362Z</time>
      </trkpt>
      <trkpt lat="44.16335" lon="4.46915">
        <ele>167</ele>
        <time>2024-08-31T11:57:56.492Z</time>
      </trkpt>
      <trkpt lat="44.1631" lon="4.46918">
        <ele>171.3</ele>
        <time>2024-08-31T11:58:10.660Z</time>
      </trkpt>
      <trkpt lat="44.16258" lon="4.46912">
        <ele>174.7</ele>
        <time>2024-08-31T11:58:40.122Z</time>
      </trkpt>
      <trkpt lat="44.16214" lon="4.4691">
        <ele>177.5</ele>
        <time>2024-08-31T11:59:04.980Z</time>
      </trkpt>
      <trkpt lat="44.16185" lon="4.4691">
        <ele>178.6</ele>
        <time>2024-08-31T11:59:21.355Z</time>
      </trkpt>
      <trkpt lat="44.16118" lon="4.46914">
        <ele>179.3</ele>
        <time>2024-08-31T11:59:59.221Z</time>
      </trkpt>
      <trkpt lat="44.16095" lon="4.46913">
        <ele>177.6</ele>
        <time>2024-08-31T12:00:12.214Z</time>
      </trkpt>
      <trkpt lat="44.1607" lon="4.46916">
        <ele>177.5</ele>
        <time>2024-08-31T12:00:26.382Z</time>
      </trkpt>
      <trkpt lat="44.16047" lon="4.46915">
        <ele>178</ele>
        <time>2024-08-31T12:00:39.375Z</time>
      </trkpt>
      <trkpt lat="44.16008" lon="4.46905">
        <ele>178</ele>
        <time>2024-08-31T12:01:01.766Z</time>
      </trkpt>
      <trkpt lat="44.15942" lon="4.4689">
        <ele>180.9</ele>
        <time>2024-08-31T12:01:39.525Z</time>
      </trkpt>
      <trkpt lat="44.15861" lon="4.46847">
        <ele>186.5</ele>
        <time>2024-08-31T12:02:28.467Z</time>
      </trkpt>
      <trkpt lat="44.15779" lon="4.46802">
        <ele>192.3</ele>
        <time>2024-08-31T12:03:18.228Z</time>
      </trkpt>
      <trkpt lat="44.15741" lon="4.46788">
        <ele>193.8</ele>
        <time>2024-08-31T12:03:40.421Z</time>
      </trkpt>
      <trkpt lat="44.15723" lon="4.46791">
        <ele>195.4</ele>
        <time>2024-08-31T12:03:50.657Z</time>
      </trkpt>
      <trkpt lat="44.15676" lon="4.46768">
        <ele>196.6</ele>
        <time>2024-08-31T12:04:18.784Z</time>
      </trkpt>
      <trkpt lat="44.15599" lon="4.46717">
        <ele>197.8</ele>
        <time>2024-08-31T12:05:06.921Z</time>
      </trkpt>
      <trkpt lat="44.15512" lon="4.46648">
        <ele>199.1</ele>
        <time>2024-08-31T12:06:03.442Z</time>
      </trkpt>
      <trkpt lat="44.15475" lon="4.46611">
        <ele>199.8</ele>
        <time>2024-08-31T12:06:29.155Z</time>
      </trkpt>
      <trkpt lat="44.15372" lon="4.46507">
        <ele>202.3</ele>
        <time>2024-08-31T12:07:40.972Z</time>
      </trkpt>
      <trkpt lat="44.15319" lon="4.46449">
        <ele>203.5</ele>
        <time>2024-08-31T12:08:19.021Z</time>
      </trkpt>
      <trkpt lat="44.1528" lon="4.46397">
        <ele>203.4</ele>
        <time>2024-08-31T12:08:49.496Z</time>
      </trkpt>
      <trkpt lat="44.15209" lon="4.46345">
        <ele>204.2</ele>
        <time>2024-08-31T12:09:34.785Z</time>
      </trkpt>
      <trkpt lat="44.15176" lon="4.4634">
        <ele>205</ele>
        <time>2024-08-31T12:09:53.528Z</time>
      </trkpt>
      <trkpt lat="44.15156" lon="4.46323">
        <ele>205.1</ele>
        <time>2024-08-31T12:10:06.755Z</time>
      </trkpt>
      <trkpt lat="44.15164" lon="4.46304">
        <ele>205.1</ele>
        <time>2024-08-31T12:10:15.680Z</time>
      </trkpt>
      <trkpt lat="44.15168" lon="4.46298">
        <ele>204.6</ele>
        <time>2024-08-31T12:10:18.998Z</time>
      </trkpt>
      <trkpt lat="44.15175" lon="4.46291">
        <ele>203.5</ele>
        <time>2024-08-31T12:10:23.863Z</time>
      </trkpt>
      <trkpt lat="44.15173" lon="4.46276">
        <ele>202.9</ele>
        <time>2024-08-31T12:10:30.044Z</time>
      </trkpt>
      <trkpt lat="44.15161" lon="4.4625">
        <ele>202.1</ele>
        <time>2024-08-31T12:10:42.568Z</time>
      </trkpt>
      <trkpt lat="44.15151" lon="4.46241">
        <ele>203.1</ele>
        <time>2024-08-31T12:10:49.289Z</time>
      </trkpt>
      <trkpt lat="44.15138" lon="4.46218">
        <ele>203.7</ele>
        <time>2024-08-31T12:11:01.151Z</time>
      </trkpt>
      <trkpt lat="44.15135" lon="4.46203">
        <ele>202.8</ele>
        <time>2024-08-31T12:11:07.459Z</time>
      </trkpt>
      <trkpt lat="44.15165" lon="4.4622">
        <ele>197.9</ele>
        <time>2024-08-31T12:11:25.745Z</time>
      </trkpt>
      <trkpt lat="44.15186" lon="4.46235">
        <ele>194.6</ele>
        <time>2024-08-31T12:11:39.069Z</time>
      </trkpt>
      <trkpt lat="44.15204" lon="4.46234">
        <ele>189.6</ele>
        <time>2024-08-31T12:11:49.241Z</time>
      </trkpt>
      <trkpt lat="44.15222" lon="4.46229">
        <ele>183.7</ele>
        <time>2024-08-31T12:11:59.604Z</time>
      </trkpt>
      <trkpt lat="44.15233" lon="4.46223">
        <ele>179</ele>
        <time>2024-08-31T12:12:06.273Z</time>
      </trkpt>
      <trkpt lat="44.15255" lon="4.46172">
        <ele>162.7</ele>
        <time>2024-08-31T12:12:30.381Z</time>
      </trkpt>
      <trkpt lat="44.15272" lon="4.46132">
        <ele>152.2</ele>
        <time>2024-08-31T12:12:49.216Z</time>
      </trkpt>
      <trkpt lat="44.15281" lon="4.46114">
        <ele>147.7</ele>
        <time>2024-08-31T12:12:58.104Z</time>
      </trkpt>
      <trkpt lat="44.1529" lon="4.46103">
        <ele>144.8</ele>
        <time>2024-08-31T12:13:04.863Z</time>
      </trkpt>
      <trkpt lat="44.15295" lon="4.46085">
        <ele>141.8</ele>
        <time>2024-08-31T12:13:12.682Z</time>
      </trkpt>
      <trkpt lat="44.15304" lon="4.46077">
        <ele>139.6</ele>
        <time>2024-08-31T12:13:18.709Z</time>
      </trkpt>
      <trkpt lat="44.15309" lon="4.46072">
        <ele>138.3</ele>
        <time>2024-08-31T12:13:22.183Z</time>
      </trkpt>
      <trkpt lat="44.15324" lon="4.46073">
        <ele>135.9</ele>
        <time>2024-08-31T12:13:30.662Z</time>
      </trkpt>
      <trkpt lat="44.15332" lon="4.46055">
        <ele>133.1</ele>
        <time>2024-08-31T12:13:39.240Z</time>
      </trkpt>
      <trkpt lat="44.15353" lon="4.46033">
        <ele>129</ele>
        <time>2024-08-31T12:13:54.074Z</time>
      </trkpt>
      <trkpt lat="44.15376" lon="4.46052">
        <ele>128.1</ele>
        <time>2024-08-31T12:14:09.170Z</time>
      </trkpt>
      <trkpt lat="44.15408" lon="4.46078">
        <ele>126.9</ele>
        <time>2024-08-31T12:14:30.085Z</time>
      </trkpt>
      <trkpt lat="44.15423" lon="4.46087">
        <ele>126</ele>
        <time>2024-08-31T12:14:39.306Z</time>
      </trkpt>
      <trkpt lat="44.15435" lon="4.46092">
        <ele>124.6</ele>
        <time>2024-08-31T12:14:46.378Z</time>
      </trkpt>
      <trkpt lat="44.15443" lon="4.46106">
        <ele>125.3</ele>
        <time>2024-08-31T12:14:53.628Z</time>
      </trkpt>
      <trkpt lat="44.15447" lon="4.46122">
        <ele>126.5</ele>
        <time>2024-08-31T12:15:00.492Z</time>
      </trkpt>
      <trkpt lat="44.15441" lon="4.46136">
        <ele>128.2</ele>
        <time>2024-08-31T12:15:07.098Z</time>
      </trkpt>
      <trkpt lat="44.1544" lon="4.46143">
        <ele>129</ele>
        <time>2024-08-31T12:15:09.989Z</time>
      </trkpt>
      <trkpt lat="44.15451" lon="4.4616">
        <ele>129.6</ele>
        <time>2024-08-31T12:15:19.263Z</time>
      </trkpt>
      <trkpt lat="44.15465" lon="4.46172">
        <ele>129.3</ele>
        <time>2024-08-31T12:15:28.543Z</time>
      </trkpt>
      <trkpt lat="44.15474" lon="4.46182">
        <ele>129.4</ele>
        <time>2024-08-31T12:15:35.042Z</time>
      </trkpt>
      <trkpt lat="44.15478" lon="4.46182">
        <ele>129.1</ele>
        <time>2024-08-31T12:15:37.300Z</time>
      </trkpt>
      <trkpt lat="44.15498" lon="4.46178">
        <ele>127</ele>
        <time>2024-08-31T12:15:48.708Z</time>
      </trkpt>
      <trkpt lat="44.15531" lon="4.46187">
        <ele>124.2</ele>
        <time>2024-08-31T12:16:07.695Z</time>
      </trkpt>
      <trkpt lat="44.15544" lon="4.46188">
        <ele>123.3</ele>
        <time>2024-08-31T12:16:15.046Z</time>
      </trkpt>
      <trkpt lat="44.15552" lon="4.46184">
        <ele>122.5</ele>
        <time>2024-08-31T12:16:19.845Z</time>
      </trkpt>
      <trkpt lat="44.15574" lon="4.46154">
        <ele>119.6</ele>
        <time>2024-08-31T12:16:37.223Z</time>
      </trkpt>
      <trkpt lat="44.15586" lon="4.4613">
        <ele>117.2</ele>
        <time>2024-08-31T12:16:49.073Z</time>
      </trkpt>
      <trkpt lat="44.156" lon="4.46113">
        <ele>115.5</ele>
        <time>2024-08-31T12:16:59.557Z</time>
      </trkpt>
      <trkpt lat="44.15623" lon="4.46052">
        <ele>111.9</ele>
        <time>2024-08-31T12:17:27.473Z</time>
      </trkpt>
      <trkpt lat="44.15648" lon="4.45998">
        <ele>109.2</ele>
        <time>2024-08-31T12:17:53.508Z</time>
      </trkpt>
      <trkpt lat="44.15656" lon="4.45971">
        <ele>107.4</ele>
        <time>2024-08-31T12:18:05.341Z</time>
      </trkpt>
      <trkpt lat="44.15666" lon="4.45961">
        <ele>107</ele>
        <time>2024-08-31T12:18:12.290Z</time>
      </trkpt>
      <trkpt lat="44.15679" lon="4.4596">
        <ele>106.6</ele>
        <time>2024-08-31T12:18:19.641Z</time>
      </trkpt>
      <trkpt lat="44.15695" lon="4.45967">
        <ele>106</ele>
        <time>2024-08-31T12:18:29.110Z</time>
      </trkpt>
      <trkpt lat="44.15711" lon="4.45982">
        <ele>106.1</ele>
        <time>2024-08-31T12:18:39.998Z</time>
      </trkpt>
      <trkpt lat="44.15718" lon="4.45989">
        <ele>106.1</ele>
        <time>2024-08-31T12:18:44.862Z</time>
      </trkpt>
      <trkpt lat="44.15725" lon="4.46004">
        <ele>106.4</ele>
        <time>2024-08-31T12:18:52.111Z</time>
      </trkpt>
      <trkpt lat="44.1573" lon="4.46008">
        <ele>106.7</ele>
        <time>2024-08-31T12:18:55.366Z</time>
      </trkpt>
      <trkpt lat="44.15736" lon="4.46007">
        <ele>106.5</ele>
        <time>2024-08-31T12:18:58.778Z</time>
      </trkpt>
      <trkpt lat="44.15744" lon="4.46003">
        <ele>106.2</ele>
        <time>2024-08-31T12:19:03.577Z</time>
      </trkpt>
      <trkpt lat="44.15745" lon="4.45993">
        <ele>106</ele>
        <time>2024-08-31T12:19:07.667Z</time>
      </trkpt>
      <trkpt lat="44.15772" lon="4.46004">
        <ele>105.4</ele>
        <time>2024-08-31T12:19:23.550Z</time>
      </trkpt>
      <trkpt lat="44.15802" lon="4.46007">
        <ele>105</ele>
        <time>2024-08-31T12:19:40.533Z</time>
      </trkpt>
      <trkpt lat="44.15809" lon="4.46016">
        <ele>105.1</ele>
        <time>2024-08-31T12:19:45.910Z</time>
      </trkpt>
      <trkpt lat="44.15813" lon="4.4603">
        <ele>105.4</ele>
        <time>2024-08-31T12:19:52.014Z</time>
      </trkpt>
      <trkpt lat="44.15835" lon="4.46024">
        <ele>105.8</ele>
        <time>2024-08-31T12:20:04.672Z</time>
      </trkpt>
      <trkpt lat="44.15858" lon="4.46003">
        <ele>105.1</ele>
        <time>2024-08-31T12:20:20.197Z</time>
      </trkpt>
      <trkpt lat="44.15875" lon="4.45985">
        <ele>105.2</ele>
        <time>2024-08-31T12:20:32.251Z</time>
      </trkpt>
      <trkpt lat="44.15895" lon="4.45984">
        <ele>105.4</ele>
        <time>2024-08-31T12:20:43.551Z</time>
      </trkpt>
      <trkpt lat="44.15897" lon="4.46007">
        <ele>106.3</ele>
        <time>2024-08-31T12:20:52.936Z</time>
      </trkpt>
      <trkpt lat="44.15902" lon="4.46021">
        <ele>106.8</ele>
        <time>2024-08-31T12:20:59.271Z</time>
      </trkpt>
      <trkpt lat="44.15918" lon="4.46046">
        <ele>107</ele>
        <time>2024-08-31T12:21:12.842Z</time>
      </trkpt>
      <trkpt lat="44.15929" lon="4.46065">
        <ele>107.4</ele>
        <time>2024-08-31T12:21:22.732Z</time>
      </trkpt>
      <trkpt lat="44.15957" lon="4.46073">
        <ele>107.6</ele>
        <time>2024-08-31T12:21:38.871Z</time>
      </trkpt>
      <trkpt lat="44.1597" lon="4.46088">
        <ele>108</ele>
        <time>2024-08-31T12:21:48.400Z</time>
      </trkpt>
      <trkpt lat="44.15973" lon="4.46109">
        <ele>108</ele>
        <time>2024-08-31T12:21:57.073Z</time>
      </trkpt>
      <trkpt lat="44.1595" lon="4.46214">
        <ele>109.5</ele>
        <time>2024-08-31T12:22:41.545Z</time>
      </trkpt>
      <trkpt lat="44.15925" lon="4.46334">
        <ele>113.7</ele>
        <time>2024-08-31T12:23:32.163Z</time>
      </trkpt>
      <trkpt lat="44.15913" lon="4.46407">
        <ele>120.8</ele>
        <time>2024-08-31T12:24:02.500Z</time>
      </trkpt>
      <trkpt lat="44.15942" lon="4.46408">
        <ele>118.5</ele>
        <time>2024-08-31T12:24:18.880Z</time>
      </trkpt>
      <trkpt lat="44.15975" lon="4.46403">
        <ele>115.9</ele>
        <time>2024-08-31T12:24:37.623Z</time>
      </trkpt>
      <trkpt lat="44.15988" lon="4.46402">
        <ele>115.1</ele>
        <time>2024-08-31T12:24:44.974Z</time>
      </trkpt>
      <trkpt lat="44.16037" lon="4.46379">
        <ele>112.6</ele>
        <time>2024-08-31T12:25:14.168Z</time>
      </trkpt>
      <trkpt lat="44.16068" lon="4.46345">
        <ele>111.2</ele>
        <time>2024-08-31T12:25:36.441Z</time>
      </trkpt>
      <trkpt lat="44.16101" lon="4.46355">
        <ele>111.6</ele>
        <time>2024-08-31T12:25:55.509Z</time>
      </trkpt>
      <trkpt lat="44.16117" lon="4.46344">
        <ele>110.8</ele>
        <time>2024-08-31T12:26:05.582Z</time>
      </trkpt>
      <trkpt lat="44.16133" lon="4.46338">
        <ele>110.3</ele>
        <time>2024-08-31T12:26:14.937Z</time>
      </trkpt>
      <trkpt lat="44.16149" lon="4.4634">
        <ele>110.4</ele>
        <time>2024-08-31T12:26:24.008Z</time>
      </trkpt>
      <trkpt lat="44.16191" lon="4.4628">
        <ele>109.1</ele>
        <time>2024-08-31T12:26:57.965Z</time>
      </trkpt>
      <trkpt lat="44.16195" lon="4.46255">
        <ele>108.2</ele>
        <time>2024-08-31T12:27:08.340Z</time>
      </trkpt>
      <trkpt lat="44.16195" lon="4.46233">
        <ele>108</ele>
        <time>2024-08-31T12:27:17.251Z</time>
      </trkpt>
      <trkpt lat="44.1621" lon="4.46213">
        <ele>107.3</ele>
        <time>2024-08-31T12:27:28.971Z</time>
      </trkpt>
      <trkpt lat="44.16218" lon="4.46187">
        <ele>106.7</ele>
        <time>2024-08-31T12:27:40.430Z</time>
      </trkpt>
      <trkpt lat="44.16236" lon="4.46164">
        <ele>106</ele>
        <time>2024-08-31T12:27:54.217Z</time>
      </trkpt>
      <trkpt lat="44.16259" lon="4.46155">
        <ele>105.7</ele>
        <time>2024-08-31T12:28:07.706Z</time>
      </trkpt>
      <trkpt lat="44.1627" lon="4.4615">
        <ele>105.8</ele>
        <time>2024-08-31T12:28:14.239Z</time>
      </trkpt>
      <trkpt lat="44.16277" lon="4.46108">
        <ele>105</ele>
        <time>2024-08-31T12:28:31.704Z</time>
      </trkpt>
      <trkpt lat="44.16278" lon="4.46058">
        <ele>105</ele>
        <time>2024-08-31T12:28:51.965Z</time>
      </trkpt>
      <trkpt lat="44.16287" lon="4.46043">
        <ele>104.4</ele>
        <time>2024-08-31T12:28:59.885Z</time>
      </trkpt>
      <trkpt lat="44.16297" lon="4.46035">
        <ele>104.1</ele>
        <time>2024-08-31T12:29:06.395Z</time>
      </trkpt>
      <trkpt lat="44.16306" lon="4.46004">
        <ele>103.2</ele>
        <time>2024-08-31T12:29:19.941Z</time>
      </trkpt>
      <trkpt lat="44.16341" lon="4.45953">
        <ele>102.1</ele>
        <time>2024-08-31T12:29:48.530Z</time>
      </trkpt>
      <trkpt lat="44.16359" lon="4.4593">
        <ele>101.5</ele>
        <time>2024-08-31T12:30:02.317Z</time>
      </trkpt>
      <trkpt lat="44.16362" lon="4.45895">
        <ele>101</ele>
        <time>2024-08-31T12:30:16.594Z</time>
      </trkpt>
      <trkpt lat="44.16388" lon="4.45871">
        <ele>100.4</ele>
        <time>2024-08-31T12:30:34.202Z</time>
      </trkpt>
      <trkpt lat="44.16419" lon="4.45848">
        <ele>100</ele>
        <time>2024-08-31T12:30:54.031Z</time>
      </trkpt>
      <trkpt lat="44.16451" lon="4.4583">
        <ele>101.1</ele>
        <time>2024-08-31T12:31:13.515Z</time>
      </trkpt>
      <trkpt lat="44.16484" lon="4.45752">
        <ele>103</ele>
        <time>2024-08-31T12:31:50.194Z</time>
      </trkpt>
      <trkpt lat="44.16484" lon="4.45784">
        <ele>101.4</ele>
        <time>2024-08-31T12:32:03.155Z</time>
      </trkpt>
      <trkpt lat="44.16486" lon="4.45805">
        <ele>100.6</ele>
        <time>2024-08-31T12:32:11.735Z</time>
      </trkpt>
      <trkpt lat="44.16503" lon="4.45836">
        <ele>99.1</ele>
        <time>2024-08-31T12:32:27.540Z</time>
      </trkpt>
      <trkpt lat="44.16507" lon="4.45912">
        <ele>101.1</ele>
        <time>2024-08-31T12:32:58.406Z</time>
      </trkpt>
      <trkpt lat="44.16503" lon="4.45955">
        <ele>101.5</ele>
        <time>2024-08-31T12:33:15.969Z</time>
      </trkpt>
      <trkpt lat="44.1649" lon="4.46019">
        <ele>103.4</ele>
        <time>2024-08-31T12:33:42.911Z</time>
      </trkpt>
      <trkpt lat="44.16468" lon="4.46071">
        <ele>104.5</ele>
        <time>2024-08-31T12:34:07.364Z</time>
      </trkpt>
      <trkpt lat="44.16459" lon="4.46087">
        <ele>104.7</ele>
        <time>2024-08-31T12:34:15.599Z</time>
      </trkpt>
      <trkpt lat="44.16437" lon="4.46219">
        <ele>108.2</ele>
        <time>2024-08-31T12:35:10.490Z</time>
      </trkpt>
      <trkpt lat="44.16453" lon="4.46247">
        <ele>111</ele>
        <time>2024-08-31T12:35:24.990Z</time>
      </trkpt>
      <trkpt lat="44.16484" lon="4.46299">
        <ele>115.6</ele>
        <time>2024-08-31T12:35:52.376Z</time>
      </trkpt>
      <trkpt lat="44.16457" lon="4.46346">
        <ele>119.1</ele>
        <time>2024-08-31T12:36:16.765Z</time>
      </trkpt>
      <trkpt lat="44.16421" lon="4.46407">
        <ele>123.1</ele>
        <time>2024-08-31T12:36:48.760Z</time>
      </trkpt>
      <trkpt lat="44.16406" lon="4.46436">
        <ele>124.4</ele>
        <time>2024-08-31T12:37:03.241Z</time>
      </trkpt>
      <trkpt lat="44.16412" lon="4.46473">
        <ele>129.6</ele>
        <time>2024-08-31T12:37:18.606Z</time>
      </trkpt>
      <trkpt lat="44.16419" lon="4.46484">
        <ele>131.9</ele>
        <time>2024-08-31T12:37:24.562Z</time>
      </trkpt>
      <trkpt lat="44.16392" lon="4.46538">
        <ele>136.8</ele>
        <time>2024-08-31T12:37:51.224Z</time>
      </trkpt>
      <trkpt lat="44.16383" lon="4.46567">
        <ele>141.7</ele>
        <time>2024-08-31T12:38:04.022Z</time>
      </trkpt>
      <trkpt lat="44.16373" lon="4.46595">
        <ele>144.3</ele>
        <time>2024-08-31T12:38:16.691Z</time>
      </trkpt>
      <trkpt lat="44.16362" lon="4.4664">
        <ele>149.5</ele>
        <time>2024-08-31T12:38:35.947Z</time>
      </trkpt>
      <trkpt lat="44.16364" lon="4.46685">
        <ele>152.9</ele>
        <time>2024-08-31T12:38:54.209Z</time>
      </trkpt>
      <trkpt lat="44.16366" lon="4.46746">
        <ele>154.1</ele>
        <time>2024-08-31T12:39:18.943Z</time>
      </trkpt>
      <trkpt lat="44.16376" lon="4.46806">
        <ele>156.9</ele>
        <time>2024-08-31T12:39:43.893Z</time>
      </trkpt>
      <trkpt lat="44.16389" lon="4.4684">
        <ele>157.9</ele>
        <time>2024-08-31T12:39:59.499Z</time>
      </trkpt>
      <trkpt lat="44.16397" lon="4.46861">
        <ele>158.8</ele>
        <time>2024-08-31T12:40:09.130Z</time>
      </trkpt>
      <trkpt lat="44.16399" lon="4.46868">
        <ele>158.9</ele>
        <time>2024-08-31T12:40:12.182Z</time>
      </trkpt>
      <trkpt lat="44.16405" lon="4.4686">
        <ele>160.5</ele>
        <time>2024-08-31T12:40:16.870Z</time>
      </trkpt>
      <trkpt lat="44.16407" lon="4.46836">
        <ele>162.4</ele>
        <time>2024-08-31T12:40:26.656Z</time>
      </trkpt>
      <trkpt lat="44.16412" lon="4.46822">
        <ele>165.3</ele>
        <time>2024-08-31T12:40:32.990Z</time>
      </trkpt>
      <trkpt lat="44.16417" lon="4.46819">
        <ele>167.1</ele>
        <time>2024-08-31T12:40:36.064Z</time>
      </trkpt>
      <trkpt lat="44.16431" lon="4.46815">
        <ele>167.8</ele>
        <time>2024-08-31T12:40:44.133Z</time>
      </trkpt>
      <trkpt lat="44.16444" lon="4.46813">
        <ele>168.2</ele>
        <time>2024-08-31T12:40:51.518Z</time>
      </trkpt>
      <trkpt lat="44.16456" lon="4.46801">
        <ele>168.7</ele>
        <time>2024-08-31T12:40:59.856Z</time>
      </trkpt>
      <trkpt lat="44.16476" lon="4.46768">
        <ele>170.7</ele>
        <time>2024-08-31T12:41:17.354Z</time>
      </trkpt>
      <trkpt lat="44.16489" lon="4.46744">
        <ele>172.4</ele>
        <time>2024-08-31T12:41:29.535Z</time>
      </trkpt>
      <trkpt lat="44.16496" lon="4.46738">
        <ele>172.7</ele>
        <time>2024-08-31T12:41:34.175Z</time>
      </trkpt>
      <trkpt lat="44.16507" lon="4.46726">
        <ele>172.9</ele>
        <time>2024-08-31T12:41:42.062Z</time>
      </trkpt>
      <trkpt lat="44.16512" lon="4.46727">
        <ele>181</ele>
        <time>2024-08-31T12:41:44.914Z</time>
      </trkpt>
      <trkpt lat="44.16512" lon="4.46725">
        <ele>180.8</ele>
        <time>2024-08-31T12:41:45.723Z</time>
      </trkpt>
      <trkpt lat="44.16513" lon="4.46722">
        <ele>180.4</ele>
        <time>2024-08-31T12:41:47.062Z</time>
      </trkpt>
      <trkpt lat="44.16516" lon="4.46715">
        <ele>180</ele>
        <time>2024-08-31T12:41:50.364Z</time>
      </trkpt>
      <trkpt lat="44.16517" lon="4.46711">
        <ele>179.6</ele>
        <time>2024-08-31T12:41:52.079Z</time>
      </trkpt>
      <trkpt lat="44.1652" lon="4.46697">
        <ele>179.4</ele>
        <time>2024-08-31T12:41:57.997Z</time>
      </trkpt>
      <trkpt lat="44.1652" lon="4.46692">
        <ele>179.2</ele>
        <time>2024-08-31T12:42:00.022Z</time>
      </trkpt>
      <trkpt lat="44.16521" lon="4.46687">
        <ele>179.2</ele>
        <time>2024-08-31T12:42:02.125Z</time>
      </trkpt>
      <trkpt lat="44.16522" lon="4.46684">
        <ele>179</ele>
        <time>2024-08-31T12:42:03.465Z</time>
      </trkpt>
      <trkpt lat="44.16525" lon="4.46681">
        <ele>179</ele>
        <time>2024-08-31T12:42:05.549Z</time>
      </trkpt>
      <trkpt lat="44.16528" lon="4.46679">
        <ele>178.8</ele>
        <time>2024-08-31T12:42:07.427Z</time>
      </trkpt>
      <trkpt lat="44.16531" lon="4.46678">
        <ele>178.8</ele>
        <time>2024-08-31T12:42:09.168Z</time>
      </trkpt>
      <trkpt lat="44.16534" lon="4.46677">
        <ele>178.8</ele>
        <time>2024-08-31T12:42:10.908Z</time>
      </trkpt>
      <trkpt lat="44.16537" lon="4.46676">
        <ele>178.8</ele>
        <time>2024-08-31T12:42:12.648Z</time>
      </trkpt>
      <trkpt lat="44.16541" lon="4.46668">
        <ele>178.8</ele>
        <time>2024-08-31T12:42:16.597Z</time>
      </trkpt>
      <trkpt lat="44.16543" lon="4.46664">
        <ele>178.8</ele>
        <time>2024-08-31T12:42:18.571Z</time>
      </trkpt>
      <trkpt lat="44.16545" lon="4.46655">
        <ele>178.8</ele>
        <time>2024-08-31T12:42:22.387Z</time>
      </trkpt>
      <trkpt lat="44.16548" lon="4.46639">
        <ele>179.4</ele>
        <time>2024-08-31T12:42:29.085Z</time>
      </trkpt>
      <trkpt lat="44.16549" lon="4.46634">
        <ele>179.8</ele>
        <time>2024-08-31T12:42:31.187Z</time>
      </trkpt>
      <trkpt lat="44.1655" lon="4.46628">
        <ele>180.2</ele>
        <time>2024-08-31T12:42:33.681Z</time>
      </trkpt>
      <trkpt lat="44.16551" lon="4.46623">
        <ele>180.6</ele>
        <time>2024-08-31T12:42:35.783Z</time>
      </trkpt>
      <trkpt lat="44.16551" lon="4.46617">
        <ele>181</ele>
        <time>2024-08-31T12:42:38.213Z</time>
      </trkpt>
      <trkpt lat="44.16553" lon="4.46606">
        <ele>181</ele>
        <time>2024-08-31T12:42:42.809Z</time>
      </trkpt>
      <trkpt lat="44.16554" lon="4.466">
        <ele>181.2</ele>
        <time>2024-08-31T12:42:45.303Z</time>
      </trkpt>
      <trkpt lat="44.16559" lon="4.46587">
        <ele>181.4</ele>
        <time>2024-08-31T12:42:51.277Z</time>
      </trkpt>
      <trkpt lat="44.16561" lon="4.46584">
        <ele>181.6</ele>
        <time>2024-08-31T12:42:52.935Z</time>
      </trkpt>
      <trkpt lat="44.16561" lon="4.4658">
        <ele>181.8</ele>
        <time>2024-08-31T12:42:54.554Z</time>
      </trkpt>
      <trkpt lat="44.1656" lon="4.46577">
        <ele>182.2</ele>
        <time>2024-08-31T12:42:55.893Z</time>
      </trkpt>
      <trkpt lat="44.16558" lon="4.46574">
        <ele>182.2</ele>
        <time>2024-08-31T12:42:57.551Z</time>
      </trkpt>
      <trkpt lat="44.16557" lon="4.46572">
        <ele>182.2</ele>
        <time>2024-08-31T12:42:58.537Z</time>
      </trkpt>
      <trkpt lat="44.16556" lon="4.4657">
        <ele>182.6</ele>
        <time>2024-08-31T12:42:59.524Z</time>
      </trkpt>
      <trkpt lat="44.16556" lon="4.46568">
        <ele>183</ele>
        <time>2024-08-31T12:43:00.333Z</time>
      </trkpt>
      <trkpt lat="44.16556" lon="4.46565">
        <ele>183</ele>
        <time>2024-08-31T12:43:01.547Z</time>
      </trkpt>
      <trkpt lat="44.16557" lon="4.46562">
        <ele>183.2</ele>
        <time>2024-08-31T12:43:02.886Z</time>
      </trkpt>
      <trkpt lat="44.16558" lon="4.46558">
        <ele>183.2</ele>
        <time>2024-08-31T12:43:04.601Z</time>
      </trkpt>
      <trkpt lat="44.1656" lon="4.46554">
        <ele>183.4</ele>
        <time>2024-08-31T12:43:06.575Z</time>
      </trkpt>
      <trkpt lat="44.16562" lon="4.46549">
        <ele>183.4</ele>
        <time>2024-08-31T12:43:08.894Z</time>
      </trkpt>
      <trkpt lat="44.16565" lon="4.46545">
        <ele>183.6</ele>
        <time>2024-08-31T12:43:11.237Z</time>
      </trkpt>
      <trkpt lat="44.16568" lon="4.46542">
        <ele>183.6</ele>
        <time>2024-08-31T12:43:13.321Z</time>
      </trkpt>
      <trkpt lat="44.1657" lon="4.46539">
        <ele>183.8</ele>
        <time>2024-08-31T12:43:14.979Z</time>
      </trkpt>
      <trkpt lat="44.16573" lon="4.46538">
        <ele>183.8</ele>
        <time>2024-08-31T12:43:16.719Z</time>
      </trkpt>
      <trkpt lat="44.16575" lon="4.46536">
        <ele>183.8</ele>
        <time>2024-08-31T12:43:18.107Z</time>
      </trkpt>
      <trkpt lat="44.16576" lon="4.46535">
        <ele>183.8</ele>
        <time>2024-08-31T12:43:18.800Z</time>
      </trkpt>
      <trkpt lat="44.16578" lon="4.46534">
        <ele>183.8</ele>
        <time>2024-08-31T12:43:19.998Z</time>
      </trkpt>
      <trkpt lat="44.1658" lon="4.46533">
        <ele>183.8</ele>
        <time>2024-08-31T12:43:21.197Z</time>
      </trkpt>
      <trkpt lat="44.16583" lon="4.46531">
        <ele>183.8</ele>
        <time>2024-08-31T12:43:23.074Z</time>
      </trkpt>
      <trkpt lat="44.16585" lon="4.46531">
        <ele>183.6</ele>
        <time>2024-08-31T12:43:24.203Z</time>
      </trkpt>
      <trkpt lat="44.16586" lon="4.4653">
        <ele>183.6</ele>
        <time>2024-08-31T12:43:24.898Z</time>
      </trkpt>
      <trkpt lat="44.16588" lon="4.46529">
        <ele>183.2</ele>
        <time>2024-08-31T12:43:26.096Z</time>
      </trkpt>
      <trkpt lat="44.1659" lon="4.46528">
        <ele>182.8</ele>
        <time>2024-08-31T12:43:27.294Z</time>
      </trkpt>
      <trkpt lat="44.16592" lon="4.46526">
        <ele>182.8</ele>
        <time>2024-08-31T12:43:28.682Z</time>
      </trkpt>
      <trkpt lat="44.16594" lon="4.46524">
        <ele>182.4</ele>
        <time>2024-08-31T12:43:30.070Z</time>
      </trkpt>
      <trkpt lat="44.16596" lon="4.46522">
        <ele>182</ele>
        <time>2024-08-31T12:43:31.458Z</time>
      </trkpt>
      <trkpt lat="44.16597" lon="4.4652">
        <ele>181.6</ele>
        <time>2024-08-31T12:43:32.444Z</time>
      </trkpt>
      <trkpt lat="44.16599" lon="4.46517">
        <ele>181</ele>
        <time>2024-08-31T12:43:34.102Z</time>
      </trkpt>
      <trkpt lat="44.16601" lon="4.46515">
        <ele>180.8</ele>
        <time>2024-08-31T12:43:35.492Z</time>
      </trkpt>
      <trkpt lat="44.16604" lon="4.4651">
        <ele>180.2</ele>
        <time>2024-08-31T12:43:38.132Z</time>
      </trkpt>
      <trkpt lat="44.16606" lon="4.46507">
        <ele>180</ele>
        <time>2024-08-31T12:43:39.790Z</time>
      </trkpt>
      <trkpt lat="44.16607" lon="4.46504">
        <ele>180</ele>
        <time>2024-08-31T12:43:41.129Z</time>
      </trkpt>
      <trkpt lat="44.16609" lon="4.46501">
        <ele>179.8</ele>
        <time>2024-08-31T12:43:42.788Z</time>
      </trkpt>
      <trkpt lat="44.16611" lon="4.46498">
        <ele>179.8</ele>
        <time>2024-08-31T12:43:44.446Z</time>
      </trkpt>
      <trkpt lat="44.16613" lon="4.46495">
        <ele>179.8</ele>
        <time>2024-08-31T12:43:46.104Z</time>
      </trkpt>
      <trkpt lat="44.16621" lon="4.46486">
        <ele>179.8</ele>
        <time>2024-08-31T12:43:51.908Z</time>
      </trkpt>
      <trkpt lat="44.16624" lon="4.46484">
        <ele>179.8</ele>
        <time>2024-08-31T12:43:53.785Z</time>
      </trkpt>
      <trkpt lat="44.16627" lon="4.4648">
        <ele>180</ele>
        <time>2024-08-31T12:43:56.128Z</time>
      </trkpt>
      <trkpt lat="44.1663" lon="4.46477">
        <ele>180</ele>
        <time>2024-08-31T12:43:58.212Z</time>
      </trkpt>
      <trkpt lat="44.16632" lon="4.46473">
        <ele>180.4</ele>
        <time>2024-08-31T12:44:00.186Z</time>
      </trkpt>
      <trkpt lat="44.16635" lon="4.46469">
        <ele>180.8</ele>
        <time>2024-08-31T12:44:02.529Z</time>
      </trkpt>
      <trkpt lat="44.16638" lon="4.46466">
        <ele>181.4</ele>
        <time>2024-08-31T12:44:04.613Z</time>
      </trkpt>
      <trkpt lat="44.16641" lon="4.46461">
        <ele>182.2</ele>
        <time>2024-08-31T12:44:07.253Z</time>
      </trkpt>
      <trkpt lat="44.16645" lon="4.46456">
        <ele>182.2</ele>
        <time>2024-08-31T12:44:10.286Z</time>
      </trkpt>
      <trkpt lat="44.16648" lon="4.46451">
        <ele>182.2</ele>
        <time>2024-08-31T12:44:12.926Z</time>
      </trkpt>
      <trkpt lat="44.16652" lon="4.46445">
        <ele>182.6</ele>
        <time>2024-08-31T12:44:16.243Z</time>
      </trkpt>
      <trkpt lat="44.16656" lon="4.46439">
        <ele>182.8</ele>
        <time>2024-08-31T12:44:19.560Z</time>
      </trkpt>
      <trkpt lat="44.1666" lon="4.46433">
        <ele>182.6</ele>
        <time>2024-08-31T12:44:22.877Z</time>
      </trkpt>
      <trkpt lat="44.16664" lon="4.46426">
        <ele>182.6</ele>
        <time>2024-08-31T12:44:26.501Z</time>
      </trkpt>
      <trkpt lat="44.16668" lon="4.4642">
        <ele>182.8</ele>
        <time>2024-08-31T12:44:29.818Z</time>
      </trkpt>
      <trkpt lat="44.16672" lon="4.46414">
        <ele>182.8</ele>
        <time>2024-08-31T12:44:33.135Z</time>
      </trkpt>
      <trkpt lat="44.16676" lon="4.46408">
        <ele>182.8</ele>
        <time>2024-08-31T12:44:36.452Z</time>
      </trkpt>
      <trkpt lat="44.16679" lon="4.46402">
        <ele>182.8</ele>
        <time>2024-08-31T12:44:39.414Z</time>
      </trkpt>
      <trkpt lat="44.16682" lon="4.46397">
        <ele>182.8</ele>
        <time>2024-08-31T12:44:42.054Z</time>
      </trkpt>
      <trkpt lat="44.16685" lon="4.46392">
        <ele>182.8</ele>
        <time>2024-08-31T12:44:44.694Z</time>
      </trkpt>
      <trkpt lat="44.16688" lon="4.46388">
        <ele>182.8</ele>
        <time>2024-08-31T12:44:47.037Z</time>
      </trkpt>
      <trkpt lat="44.16691" lon="4.46384">
        <ele>182.8</ele>
        <time>2024-08-31T12:44:49.380Z</time>
      </trkpt>
      <trkpt lat="44.16694" lon="4.4638">
        <ele>182.8</ele>
        <time>2024-08-31T12:44:51.724Z</time>
      </trkpt>
      <trkpt lat="44.16696" lon="4.46376">
        <ele>182.6</ele>
        <time>2024-08-31T12:44:53.699Z</time>
      </trkpt>
      <trkpt lat="44.16698" lon="4.46372">
        <ele>182.6</ele>
        <time>2024-08-31T12:44:55.673Z</time>
      </trkpt>
      <trkpt lat="44.167" lon="4.46367">
        <ele>182.6</ele>
        <time>2024-08-31T12:44:57.992Z</time>
      </trkpt>
      <trkpt lat="44.16701" lon="4.46363">
        <ele>182.6</ele>
        <time>2024-08-31T12:44:59.707Z</time>
      </trkpt>
      <trkpt lat="44.16703" lon="4.4636">
        <ele>182.4</ele>
        <time>2024-08-31T12:45:01.365Z</time>
      </trkpt>
      <trkpt lat="44.16705" lon="4.46357">
        <ele>182.2</ele>
        <time>2024-08-31T12:45:03.023Z</time>
      </trkpt>
      <trkpt lat="44.16707" lon="4.46353">
        <ele>182</ele>
        <time>2024-08-31T12:45:04.997Z</time>
      </trkpt>
      <trkpt lat="44.16709" lon="4.4635">
        <ele>181.8</ele>
        <time>2024-08-31T12:45:06.655Z</time>
      </trkpt>
      <trkpt lat="44.16712" lon="4.46346">
        <ele>181.8</ele>
        <time>2024-08-31T12:45:08.998Z</time>
      </trkpt>
      <trkpt lat="44.16714" lon="4.46343">
        <ele>181.8</ele>
        <time>2024-08-31T12:45:10.656Z</time>
      </trkpt>
      <trkpt lat="44.16717" lon="4.4634">
        <ele>181.6</ele>
        <time>2024-08-31T12:45:12.740Z</time>
      </trkpt>
      <trkpt lat="44.1672" lon="4.46337">
        <ele>181.6</ele>
        <time>2024-08-31T12:45:14.824Z</time>
      </trkpt>
      <trkpt lat="44.16722" lon="4.46334">
        <ele>181.4</ele>
        <time>2024-08-31T12:45:16.482Z</time>
      </trkpt>
      <trkpt lat="44.16725" lon="4.46331">
        <ele>181.2</ele>
        <time>2024-08-31T12:45:18.566Z</time>
      </trkpt>
      <trkpt lat="44.16728" lon="4.46327">
        <ele>180.8</ele>
        <time>2024-08-31T12:45:20.909Z</time>
      </trkpt>
      <trkpt lat="44.16731" lon="4.46324">
        <ele>180.6</ele>
        <time>2024-08-31T12:45:22.993Z</time>
      </trkpt>
      <trkpt lat="44.16733" lon="4.46321">
        <ele>180.2</ele>
        <time>2024-08-31T12:45:24.651Z</time>
      </trkpt>
      <trkpt lat="44.16736" lon="4.46319">
        <ele>180</ele>
        <time>2024-08-31T12:45:26.528Z</time>
      </trkpt>
      <trkpt lat="44.16738" lon="4.46316">
        <ele>179.8</ele>
        <time>2024-08-31T12:45:28.186Z</time>
      </trkpt>
      <trkpt lat="44.16741" lon="4.46313">
        <ele>179.8</ele>
        <time>2024-08-31T12:45:30.270Z</time>
      </trkpt>
      <trkpt lat="44.16743" lon="4.46311">
        <ele>179.6</ele>
        <time>2024-08-31T12:45:31.658Z</time>
      </trkpt>
      <trkpt lat="44.16746" lon="4.46308">
        <ele>179.4</ele>
        <time>2024-08-31T12:45:33.742Z</time>
      </trkpt>
      <trkpt lat="44.16749" lon="4.46305">
        <ele>179.2</ele>
        <time>2024-08-31T12:45:35.826Z</time>
      </trkpt>
      <trkpt lat="44.16752" lon="4.46302">
        <ele>179</ele>
        <time>2024-08-31T12:45:37.910Z</time>
      </trkpt>
      <trkpt lat="44.16755" lon="4.46299">
        <ele>178.6</ele>
        <time>2024-08-31T12:45:39.994Z</time>
      </trkpt>
      <trkpt lat="44.16758" lon="4.46296">
        <ele>178.2</ele>
        <time>2024-08-31T12:45:42.078Z</time>
      </trkpt>
      <trkpt lat="44.16761" lon="4.46293">
        <ele>177.8</ele>
        <time>2024-08-31T12:45:44.162Z</time>
      </trkpt>
      <trkpt lat="44.16764" lon="4.4629">
        <ele>177.4</ele>
        <time>2024-08-31T12:45:46.246Z</time>
      </trkpt>
      <trkpt lat="44.16767" lon="4.46287">
        <ele>176.6</ele>
        <time>2024-08-31T12:45:48.330Z</time>
      </trkpt>
      <trkpt lat="44.16771" lon="4.46286">
        <ele>176.4</ele>
        <time>2024-08-31T12:45:50.623Z</time>
      </trkpt>
      <trkpt lat="44.16774" lon="4.46288">
        <ele>175.4</ele>
        <time>2024-08-31T12:45:52.500Z</time>
      </trkpt>
      <trkpt lat="44.16776" lon="4.46292">
        <ele>175.4</ele>
        <time>2024-08-31T12:45:54.474Z</time>
      </trkpt>
      <trkpt lat="44.16779" lon="4.46295">
        <ele>174.8</ele>
        <time>2024-08-31T12:45:56.558Z</time>
      </trkpt>
      <trkpt lat="44.16782" lon="4.46296">
        <ele>174.6</ele>
        <time>2024-08-31T12:45:58.298Z</time>
      </trkpt>
      <trkpt lat="44.16785" lon="4.46295">
        <ele>174.2</ele>
        <time>2024-08-31T12:46:00.038Z</time>
      </trkpt>
      <trkpt lat="44.16788" lon="4.46293">
        <ele>173.4</ele>
        <time>2024-08-31T12:46:01.915Z</time>
      </trkpt>
      <trkpt lat="44.16791" lon="4.4629">
        <ele>172.8</ele>
        <time>2024-08-31T12:46:03.999Z</time>
      </trkpt>
      <trkpt lat="44.16793" lon="4.46286">
        <ele>172.6</ele>
        <time>2024-08-31T12:46:05.973Z</time>
      </trkpt>
      <trkpt lat="44.16795" lon="4.46282">
        <ele>172.4</ele>
        <time>2024-08-31T12:46:07.947Z</time>
      </trkpt>
      <trkpt lat="44.16796" lon="4.46278">
        <ele>172.2</ele>
        <time>2024-08-31T12:46:09.662Z</time>
      </trkpt>
      <trkpt lat="44.16798" lon="4.46273">
        <ele>172.2</ele>
        <time>2024-08-31T12:46:11.981Z</time>
      </trkpt>
      <trkpt lat="44.16799" lon="4.46269">
        <ele>171.8</ele>
        <time>2024-08-31T12:46:13.696Z</time>
      </trkpt>
      <trkpt lat="44.16801" lon="4.46265">
        <ele>171.8</ele>
        <time>2024-08-31T12:46:15.670Z</time>
      </trkpt>
      <trkpt lat="44.16806" lon="4.46256">
        <ele>171.4</ele>
        <time>2024-08-31T12:46:20.280Z</time>
      </trkpt>
      <trkpt lat="44.16808" lon="4.46251">
        <ele>171.4</ele>
        <time>2024-08-31T12:46:22.599Z</time>
      </trkpt>
      <trkpt lat="44.1681" lon="4.46246">
        <ele>171.2</ele>
        <time>2024-08-31T12:46:24.918Z</time>
      </trkpt>
      <trkpt lat="44.16814" lon="4.46237">
        <ele>171.2</ele>
        <time>2024-08-31T12:46:29.206Z</time>
      </trkpt>
      <trkpt lat="44.16816" lon="4.46233">
        <ele>171.2</ele>
        <time>2024-08-31T12:46:31.180Z</time>
      </trkpt>
      <trkpt lat="44.16824" lon="4.4622">
        <ele>171</ele>
        <time>2024-08-31T12:46:38.117Z</time>
      </trkpt>
      <trkpt lat="44.1683" lon="4.46211">
        <ele>171</ele>
        <time>2024-08-31T12:46:43.093Z</time>
      </trkpt>
      <trkpt lat="44.16833" lon="4.46207">
        <ele>171</ele>
        <time>2024-08-31T12:46:45.436Z</time>
      </trkpt>
      <trkpt lat="44.16843" lon="4.46195">
        <ele>170.4</ele>
        <time>2024-08-31T12:46:52.886Z</time>
      </trkpt>
      <trkpt lat="44.16847" lon="4.46192">
        <ele>170.4</ele>
        <time>2024-08-31T12:46:55.450Z</time>
      </trkpt>
      <trkpt lat="44.16854" lon="4.46186">
        <ele>170</ele>
        <time>2024-08-31T12:47:00.089Z</time>
      </trkpt>
      <trkpt lat="44.1686" lon="4.46177">
        <ele>169.8</ele>
        <time>2024-08-31T12:47:05.065Z</time>
      </trkpt>
      <trkpt lat="44.16869" lon="4.46159">
        <ele>169.6</ele>
        <time>2024-08-31T12:47:13.951Z</time>
      </trkpt>
      <trkpt lat="44.16871" lon="4.46155">
        <ele>169.6</ele>
        <time>2024-08-31T12:47:15.925Z</time>
      </trkpt>
      <trkpt lat="44.16874" lon="4.46152">
        <ele>169.6</ele>
        <time>2024-08-31T12:47:18.009Z</time>
      </trkpt>
      <trkpt lat="44.16876" lon="4.46149">
        <ele>169.6</ele>
        <time>2024-08-31T12:47:19.667Z</time>
      </trkpt>
      <trkpt lat="44.16879" lon="4.46145">
        <ele>169.6</ele>
        <time>2024-08-31T12:47:22.010Z</time>
      </trkpt>
      <trkpt lat="44.16881" lon="4.46143">
        <ele>169.4</ele>
        <time>2024-08-31T12:47:23.399Z</time>
      </trkpt>
      <trkpt lat="44.16884" lon="4.46141">
        <ele>169.4</ele>
        <time>2024-08-31T12:47:25.276Z</time>
      </trkpt>
      <trkpt lat="44.16886" lon="4.46139">
        <ele>169.4</ele>
        <time>2024-08-31T12:47:26.665Z</time>
      </trkpt>
      <trkpt lat="44.16889" lon="4.46136">
        <ele>169.2</ele>
        <time>2024-08-31T12:47:28.749Z</time>
      </trkpt>
      <trkpt lat="44.16892" lon="4.46133">
        <ele>169.2</ele>
        <time>2024-08-31T12:47:30.833Z</time>
      </trkpt>
      <trkpt lat="44.16894" lon="4.4613">
        <ele>169.2</ele>
        <time>2024-08-31T12:47:32.491Z</time>
      </trkpt>
      <trkpt lat="44.16897" lon="4.46126">
        <ele>169</ele>
        <time>2024-08-31T12:47:34.834Z</time>
      </trkpt>
      <trkpt lat="44.16899" lon="4.46121">
        <ele>169</ele>
        <time>2024-08-31T12:47:37.153Z</time>
      </trkpt>
      <trkpt lat="44.16902" lon="4.46117">
        <ele>169</ele>
        <time>2024-08-31T12:47:39.496Z</time>
      </trkpt>
      <trkpt lat="44.16904" lon="4.46113">
        <ele>169</ele>
        <time>2024-08-31T12:47:41.470Z</time>
      </trkpt>
      <trkpt lat="44.16907" lon="4.46109">
        <ele>168.8</ele>
        <time>2024-08-31T12:47:43.813Z</time>
      </trkpt>
      <trkpt lat="44.16909" lon="4.46105">
        <ele>168.8</ele>
        <time>2024-08-31T12:47:45.787Z</time>
      </trkpt>
      <trkpt lat="44.16911" lon="4.46101">
        <ele>168.6</ele>
        <time>2024-08-31T12:47:47.761Z</time>
      </trkpt>
      <trkpt lat="44.16913" lon="4.46098">
        <ele>168.4</ele>
        <time>2024-08-31T12:47:49.419Z</time>
      </trkpt>
      <trkpt lat="44.16916" lon="4.46093">
        <ele>168.4</ele>
        <time>2024-08-31T12:47:52.059Z</time>
      </trkpt>
      <trkpt lat="44.16918" lon="4.4609">
        <ele>168.4</ele>
        <time>2024-08-31T12:47:53.717Z</time>
      </trkpt>
      <trkpt lat="44.1692" lon="4.46086">
        <ele>168.2</ele>
        <time>2024-08-31T12:47:55.691Z</time>
      </trkpt>
      <trkpt lat="44.16922" lon="4.46084">
        <ele>168.2</ele>
        <time>2024-08-31T12:47:57.079Z</time>
      </trkpt>
      <trkpt lat="44.16925" lon="4.4608">
        <ele>168.2</ele>
        <time>2024-08-31T12:47:59.422Z</time>
      </trkpt>
      <trkpt lat="44.16927" lon="4.46076">
        <ele>168</ele>
        <time>2024-08-31T12:48:01.396Z</time>
      </trkpt>
      <trkpt lat="44.16929" lon="4.46073">
        <ele>167.8</ele>
        <time>2024-08-31T12:48:03.054Z</time>
      </trkpt>
      <trkpt lat="44.16931" lon="4.4607">
        <ele>167.8</ele>
        <time>2024-08-31T12:48:04.712Z</time>
      </trkpt>
      <trkpt lat="44.16933" lon="4.46067">
        <ele>167.6</ele>
        <time>2024-08-31T12:48:06.370Z</time>
      </trkpt>
      <trkpt lat="44.16936" lon="4.46064">
        <ele>167.4</ele>
        <time>2024-08-31T12:48:08.454Z</time>
      </trkpt>
      <trkpt lat="44.16938" lon="4.4606">
        <ele>167.2</ele>
        <time>2024-08-31T12:48:10.428Z</time>
      </trkpt>
      <trkpt lat="44.16941" lon="4.46057">
        <ele>167</ele>
        <time>2024-08-31T12:48:12.512Z</time>
      </trkpt>
      <trkpt lat="44.16943" lon="4.46054">
        <ele>167</ele>
        <time>2024-08-31T12:48:14.170Z</time>
      </trkpt>
      <trkpt lat="44.16945" lon="4.46051">
        <ele>167</ele>
        <time>2024-08-31T12:48:15.828Z</time>
      </trkpt>
      <trkpt lat="44.16947" lon="4.46048">
        <ele>167</ele>
        <time>2024-08-31T12:48:17.486Z</time>
      </trkpt>
      <trkpt lat="44.1695" lon="4.46045">
        <ele>166.8</ele>
        <time>2024-08-31T12:48:19.570Z</time>
      </trkpt>
      <trkpt lat="44.16952" lon="4.4604">
        <ele>166.6</ele>
        <time>2024-08-31T12:48:21.889Z</time>
      </trkpt>
      <trkpt lat="44.16954" lon="4.46037">
        <ele>166</ele>
        <time>2024-08-31T12:48:23.547Z</time>
      </trkpt>
      <trkpt lat="44.16956" lon="4.46035">
        <ele>165.6</ele>
        <time>2024-08-31T12:48:24.935Z</time>
      </trkpt>
      <trkpt lat="44.16958" lon="4.46032">
        <ele>165.2</ele>
        <time>2024-08-31T12:48:26.593Z</time>
      </trkpt>
      <trkpt lat="44.1696" lon="4.4603">
        <ele>164.8</ele>
        <time>2024-08-31T12:48:27.981Z</time>
      </trkpt>
      <trkpt lat="44.16963" lon="4.46026">
        <ele>164.4</ele>
        <time>2024-08-31T12:48:30.323Z</time>
      </trkpt>
      <trkpt lat="44.16965" lon="4.46023">
        <ele>164.4</ele>
        <time>2024-08-31T12:48:31.980Z</time>
      </trkpt>
      <trkpt lat="44.16967" lon="4.46021">
        <ele>164.2</ele>
        <time>2024-08-31T12:48:33.368Z</time>
      </trkpt>
      <trkpt lat="44.16969" lon="4.46018">
        <ele>164.2</ele>
        <time>2024-08-31T12:48:35.026Z</time>
      </trkpt>
      <trkpt lat="44.16971" lon="4.46015">
        <ele>164.2</ele>
        <time>2024-08-31T12:48:36.684Z</time>
      </trkpt>
      <trkpt lat="44.16974" lon="4.46011">
        <ele>164</ele>
        <time>2024-08-31T12:48:39.027Z</time>
      </trkpt>
      <trkpt lat="44.16976" lon="4.46009">
        <ele>164</ele>
        <time>2024-08-31T12:48:40.416Z</time>
      </trkpt>
      <trkpt lat="44.16978" lon="4.46006">
        <ele>163.8</ele>
        <time>2024-08-31T12:48:42.074Z</time>
      </trkpt>
      <trkpt lat="44.1698" lon="4.46003">
        <ele>163.6</ele>
        <time>2024-08-31T12:48:43.732Z</time>
      </trkpt>
      <trkpt lat="44.16982" lon="4.46">
        <ele>163.4</ele>
        <time>2024-08-31T12:48:45.390Z</time>
      </trkpt>
      <trkpt lat="44.16984" lon="4.45997">
        <ele>163.2</ele>
        <time>2024-08-31T12:48:47.048Z</time>
      </trkpt>
      <trkpt lat="44.16986" lon="4.45994">
        <ele>163.2</ele>
        <time>2024-08-31T12:48:48.705Z</time>
      </trkpt>
      <trkpt lat="44.16988" lon="4.45992">
        <ele>162.8</ele>
        <time>2024-08-31T12:48:50.094Z</time>
      </trkpt>
      <trkpt lat="44.1699" lon="4.4599">
        <ele>162.6</ele>
        <time>2024-08-31T12:48:51.484Z</time>
      </trkpt>
      <trkpt lat="44.16992" lon="4.45988">
        <ele>162.4</ele>
        <time>2024-08-31T12:48:52.873Z</time>
      </trkpt>
      <trkpt lat="44.16995" lon="4.45986">
        <ele>162.4</ele>
        <time>2024-08-31T12:48:54.750Z</time>
      </trkpt>
      <trkpt lat="44.16997" lon="4.45983">
        <ele>162.4</ele>
        <time>2024-08-31T12:48:56.408Z</time>
      </trkpt>
      <trkpt lat="44.17" lon="4.4598">
        <ele>162.2</ele>
        <time>2024-08-31T12:48:58.492Z</time>
      </trkpt>
      <trkpt lat="44.17001" lon="4.45977">
        <ele>161.8</ele>
        <time>2024-08-31T12:48:59.831Z</time>
      </trkpt>
      <trkpt lat="44.17004" lon="4.45975">
        <ele>161.6</ele>
        <time>2024-08-31T12:49:01.708Z</time>
      </trkpt>
      <trkpt lat="44.17006" lon="4.45972">
        <ele>161.6</ele>
        <time>2024-08-31T12:49:03.366Z</time>
      </trkpt>
      <trkpt lat="44.17008" lon="4.4597">
        <ele>161.6</ele>
        <time>2024-08-31T12:49:04.754Z</time>
      </trkpt>
      <trkpt lat="44.1701" lon="4.45969">
        <ele>161.6</ele>
        <time>2024-08-31T12:49:05.952Z</time>
      </trkpt>
      <trkpt lat="44.17012" lon="4.45966">
        <ele>161.6</ele>
        <time>2024-08-31T12:49:07.609Z</time>
      </trkpt>
      <trkpt lat="44.17014" lon="4.45964">
        <ele>161.6</ele>
        <time>2024-08-31T12:49:08.997Z</time>
      </trkpt>
      <trkpt lat="44.17015" lon="4.45963">
        <ele>161.4</ele>
        <time>2024-08-31T12:49:09.688Z</time>
      </trkpt>
      <trkpt lat="44.17017" lon="4.45961">
        <ele>161.4</ele>
        <time>2024-08-31T12:49:11.076Z</time>
      </trkpt>
      <trkpt lat="44.17019" lon="4.4596">
        <ele>161.2</ele>
        <time>2024-08-31T12:49:12.274Z</time>
      </trkpt>
      <trkpt lat="44.1702" lon="4.45959">
        <ele>161</ele>
        <time>2024-08-31T12:49:12.967Z</time>
      </trkpt>
      <trkpt lat="44.17021" lon="4.45958">
        <ele>160.6</ele>
        <time>2024-08-31T12:49:13.660Z</time>
      </trkpt>
      <trkpt lat="44.17022" lon="4.45957">
        <ele>160.4</ele>
        <time>2024-08-31T12:49:14.353Z</time>
      </trkpt>
      <trkpt lat="44.17022" lon="4.45957">
        <ele>160</ele>
        <time>2024-08-31T12:49:14.353Z</time>
      </trkpt>
      <trkpt lat="44.17022" lon="4.45956">
        <ele>159.6</ele>
        <time>2024-08-31T12:49:14.750Z</time>
      </trkpt>
      <trkpt lat="44.17023" lon="4.45955">
        <ele>159.2</ele>
        <time>2024-08-31T12:49:15.441Z</time>
      </trkpt>
      <trkpt lat="44.17023" lon="4.45954">
        <ele>158.8</ele>
        <time>2024-08-31T12:49:15.844Z</time>
      </trkpt>
      <trkpt lat="44.17024" lon="4.45954">
        <ele>158.6</ele>
        <time>2024-08-31T12:49:16.410Z</time>
      </trkpt>
      <trkpt lat="44.17025" lon="4.45953">
        <ele>158.2</ele>
        <time>2024-08-31T12:49:17.101Z</time>
      </trkpt>
      <trkpt lat="44.17026" lon="4.45952">
        <ele>158</ele>
        <time>2024-08-31T12:49:17.794Z</time>
      </trkpt>
      <trkpt lat="44.17027" lon="4.45952">
        <ele>157.8</ele>
        <time>2024-08-31T12:49:18.358Z</time>
      </trkpt>
      <trkpt lat="44.17028" lon="4.45951">
        <ele>157.8</ele>
        <time>2024-08-31T12:49:19.053Z</time>
      </trkpt>
      <trkpt lat="44.1703" lon="4.4595">
        <ele>157.4</ele>
        <time>2024-08-31T12:49:20.252Z</time>
      </trkpt>
      <trkpt lat="44.1703" lon="4.4595">
        <ele>157</ele>
        <time>2024-08-31T12:49:20.252Z</time>
      </trkpt>
      <trkpt lat="44.17032" lon="4.45948">
        <ele>156.6</ele>
        <time>2024-08-31T12:49:21.641Z</time>
      </trkpt>
      <trkpt lat="44.17034" lon="4.45947">
        <ele>156.2</ele>
        <time>2024-08-31T12:49:22.840Z</time>
      </trkpt>
      <trkpt lat="44.17035" lon="4.45946">
        <ele>156</ele>
        <time>2024-08-31T12:49:23.535Z</time>
      </trkpt>
      <trkpt lat="44.17037" lon="4.45945">
        <ele>155.6</ele>
        <time>2024-08-31T12:49:24.734Z</time>
      </trkpt>
      <trkpt lat="44.17038" lon="4.45943">
        <ele>155.4</ele>
        <time>2024-08-31T12:49:25.720Z</time>
      </trkpt>
      <trkpt lat="44.17039" lon="4.4594">
        <ele>155.2</ele>
        <time>2024-08-31T12:49:27.059Z</time>
      </trkpt>
      <trkpt lat="44.17038" lon="4.45937">
        <ele>155</ele>
        <time>2024-08-31T12:49:28.398Z</time>
      </trkpt>
      <trkpt lat="44.17037" lon="4.45936">
        <ele>154.8</ele>
        <time>2024-08-31T12:49:29.091Z</time>
      </trkpt>
      <trkpt lat="44.17036" lon="4.45936">
        <ele>154.6</ele>
        <time>2024-08-31T12:49:29.655Z</time>
      </trkpt>
      <trkpt lat="44.17034" lon="4.45937">
        <ele>154.4</ele>
        <time>2024-08-31T12:49:30.854Z</time>
      </trkpt>
      <trkpt lat="44.17032" lon="4.45937">
        <ele>154.2</ele>
        <time>2024-08-31T12:49:31.983Z</time>
      </trkpt>
      <trkpt lat="44.1703" lon="4.45937">
        <ele>154.2</ele>
        <time>2024-08-31T12:49:33.112Z</time>
      </trkpt>
      <trkpt lat="44.17029" lon="4.45937">
        <ele>154</ele>
        <time>2024-08-31T12:49:33.676Z</time>
      </trkpt>
      <trkpt lat="44.17027" lon="4.45938">
        <ele>153.8</ele>
        <time>2024-08-31T12:49:34.874Z</time>
      </trkpt>
      <trkpt lat="44.17025" lon="4.45939">
        <ele>153.6</ele>
        <time>2024-08-31T12:49:36.072Z</time>
      </trkpt>
      <trkpt lat="44.17022" lon="4.45939">
        <ele>153.6</ele>
        <time>2024-08-31T12:49:37.765Z</time>
      </trkpt>
      <trkpt lat="44.17021" lon="4.4594">
        <ele>153.6</ele>
        <time>2024-08-31T12:49:38.458Z</time>
      </trkpt>
      <trkpt lat="44.17019" lon="4.4594">
        <ele>153.6</ele>
        <time>2024-08-31T12:49:39.587Z</time>
      </trkpt>
      <trkpt lat="44.17018" lon="4.45941">
        <ele>153.6</ele>
        <time>2024-08-31T12:49:40.282Z</time>
      </trkpt>
      <trkpt lat="44.17016" lon="4.45942">
        <ele>153.6</ele>
        <time>2024-08-31T12:49:41.481Z</time>
      </trkpt>
      <trkpt lat="44.17015" lon="4.45943">
        <ele>153.6</ele>
        <time>2024-08-31T12:49:42.174Z</time>
      </trkpt>
      <trkpt lat="44.17013" lon="4.45944">
        <ele>153.4</ele>
        <time>2024-08-31T12:49:43.372Z</time>
      </trkpt>
      <trkpt lat="44.17011" lon="4.45945">
        <ele>153.4</ele>
        <time>2024-08-31T12:49:44.570Z</time>
      </trkpt>
      <trkpt lat="44.1701" lon="4.45946">
        <ele>153</ele>
        <time>2024-08-31T12:49:45.261Z</time>
      </trkpt>
      <trkpt lat="44.17008" lon="4.45947">
        <ele>153</ele>
        <time>2024-08-31T12:49:46.459Z</time>
      </trkpt>
      <trkpt lat="44.17007" lon="4.45948">
        <ele>152.8</ele>
        <time>2024-08-31T12:49:47.152Z</time>
      </trkpt>
      <trkpt lat="44.17005" lon="4.45949">
        <ele>153</ele>
        <time>2024-08-31T12:49:48.351Z</time>
      </trkpt>
      <trkpt lat="44.17004" lon="4.45949">
        <ele>152.6</ele>
        <time>2024-08-31T12:49:48.915Z</time>
      </trkpt>
      <trkpt lat="44.17003" lon="4.45949">
        <ele>152.4</ele>
        <time>2024-08-31T12:49:49.477Z</time>
      </trkpt>
      <trkpt lat="44.17002" lon="4.45949">
        <ele>151.8</ele>
        <time>2024-08-31T12:49:50.043Z</time>
      </trkpt>
      <trkpt lat="44.17001" lon="4.45951">
        <ele>151.4</ele>
        <time>2024-08-31T12:49:51.028Z</time>
      </trkpt>
      <trkpt lat="44.17" lon="4.45952">
        <ele>151.2</ele>
        <time>2024-08-31T12:49:51.723Z</time>
      </trkpt>
      <trkpt lat="44.16998" lon="4.45953">
        <ele>150.8</ele>
        <time>2024-08-31T12:49:52.922Z</time>
      </trkpt>
      <trkpt lat="44.16998" lon="4.45953">
        <ele>150.4</ele>
        <time>2024-08-31T12:49:52.922Z</time>
      </trkpt>
      <trkpt lat="44.16997" lon="4.45952">
        <ele>150.2</ele>
        <time>2024-08-31T12:49:53.617Z</time>
      </trkpt>
      <trkpt lat="44.16998" lon="4.45951">
        <ele>150</ele>
        <time>2024-08-31T12:49:54.312Z</time>
      </trkpt>
      <trkpt lat="44.16998" lon="4.4595">
        <ele>149.8</ele>
        <time>2024-08-31T12:49:54.715Z</time>
      </trkpt>
      <trkpt lat="44.16999" lon="4.45949">
        <ele>149.4</ele>
        <time>2024-08-31T12:49:55.410Z</time>
      </trkpt>
      <trkpt lat="44.16999" lon="4.45948">
        <ele>149.2</ele>
        <time>2024-08-31T12:49:55.813Z</time>
      </trkpt>
      <trkpt lat="44.17001" lon="4.45946">
        <ele>148.6</ele>
        <time>2024-08-31T12:49:57.203Z</time>
      </trkpt>
      <trkpt lat="44.17002" lon="4.45945">
        <ele>148.2</ele>
        <time>2024-08-31T12:49:57.894Z</time>
      </trkpt>
      <trkpt lat="44.17004" lon="4.45942">
        <ele>148</ele>
        <time>2024-08-31T12:49:59.552Z</time>
      </trkpt>
      <trkpt lat="44.17005" lon="4.4594">
        <ele>148</ele>
        <time>2024-08-31T12:50:00.538Z</time>
      </trkpt>
      <trkpt lat="44.17007" lon="4.45938">
        <ele>147.6</ele>
        <time>2024-08-31T12:50:01.927Z</time>
      </trkpt>
      <trkpt lat="44.17008" lon="4.45936">
        <ele>147.4</ele>
        <time>2024-08-31T12:50:02.913Z</time>
      </trkpt>
      <trkpt lat="44.17009" lon="4.45934">
        <ele>147.2</ele>
        <time>2024-08-31T12:50:03.898Z</time>
      </trkpt>
      <trkpt lat="44.17011" lon="4.45932">
        <ele>146.8</ele>
        <time>2024-08-31T12:50:05.286Z</time>
      </trkpt>
      <trkpt lat="44.17012" lon="4.45931">
        <ele>146.6</ele>
        <time>2024-08-31T12:50:05.977Z</time>
      </trkpt>
      <trkpt lat="44.17013" lon="4.45929">
        <ele>146</ele>
        <time>2024-08-31T12:50:06.963Z</time>
      </trkpt>
      <trkpt lat="44.17015" lon="4.45927">
        <ele>145.4</ele>
        <time>2024-08-31T12:50:08.351Z</time>
      </trkpt>
      <trkpt lat="44.17016" lon="4.45926">
        <ele>145</ele>
        <time>2024-08-31T12:50:09.044Z</time>
      </trkpt>
      <trkpt lat="44.17017" lon="4.45924">
        <ele>144.4</ele>
        <time>2024-08-31T12:50:10.029Z</time>
      </trkpt>
      <trkpt lat="44.17018" lon="4.45921">
        <ele>144</ele>
        <time>2024-08-31T12:50:11.368Z</time>
      </trkpt>
      <trkpt lat="44.17019" lon="4.45919">
        <ele>143.6</ele>
        <time>2024-08-31T12:50:12.355Z</time>
      </trkpt>
      <trkpt lat="44.1702" lon="4.45917">
        <ele>143.4</ele>
        <time>2024-08-31T12:50:13.341Z</time>
      </trkpt>
      <trkpt lat="44.17021" lon="4.45916">
        <ele>142.8</ele>
        <time>2024-08-31T12:50:14.034Z</time>
      </trkpt>
      <trkpt lat="44.17022" lon="4.45914">
        <ele>142.8</ele>
        <time>2024-08-31T12:50:15.020Z</time>
      </trkpt>
      <trkpt lat="44.17024" lon="4.45913">
        <ele>142.4</ele>
        <time>2024-08-31T12:50:16.218Z</time>
      </trkpt>
      <trkpt lat="44.17025" lon="4.45911">
        <ele>142.2</ele>
        <time>2024-08-31T12:50:17.203Z</time>
      </trkpt>
      <trkpt lat="44.17026" lon="4.45909">
        <ele>142</ele>
        <time>2024-08-31T12:50:18.189Z</time>
      </trkpt>
      <trkpt lat="44.17027" lon="4.45907">
        <ele>141.6</ele>
        <time>2024-08-31T12:50:19.175Z</time>
      </trkpt>
      <trkpt lat="44.17028" lon="4.45905">
        <ele>141.4</ele>
        <time>2024-08-31T12:50:20.162Z</time>
      </trkpt>
      <trkpt lat="44.1703" lon="4.45904">
        <ele>141.4</ele>
        <time>2024-08-31T12:50:21.361Z</time>
      </trkpt>
      <trkpt lat="44.17031" lon="4.45902">
        <ele>140.8</ele>
        <time>2024-08-31T12:50:22.347Z</time>
      </trkpt>
      <trkpt lat="44.17033" lon="4.459">
        <ele>140.8</ele>
        <time>2024-08-31T12:50:23.736Z</time>
      </trkpt>
      <trkpt lat="44.17035" lon="4.45898">
        <ele>140.8</ele>
        <time>2024-08-31T12:50:25.124Z</time>
      </trkpt>
      <trkpt lat="44.17037" lon="4.45897">
        <ele>140.8</ele>
        <time>2024-08-31T12:50:26.323Z</time>
      </trkpt>
      <trkpt lat="44.17039" lon="4.45896">
        <ele>140.4</ele>
        <time>2024-08-31T12:50:27.522Z</time>
      </trkpt>
      <trkpt lat="44.17041" lon="4.45895">
        <ele>140.2</ele>
        <time>2024-08-31T12:50:28.721Z</time>
      </trkpt>
      <trkpt lat="44.17043" lon="4.45894">
        <ele>140.2</ele>
        <time>2024-08-31T12:50:29.919Z</time>
      </trkpt>
      <trkpt lat="44.17045" lon="4.45892">
        <ele>139.8</ele>
        <time>2024-08-31T12:50:31.307Z</time>
      </trkpt>
      <trkpt lat="44.17046" lon="4.4589">
        <ele>139.8</ele>
        <time>2024-08-31T12:50:32.294Z</time>
      </trkpt>
      <trkpt lat="44.17048" lon="4.45889">
        <ele>139.6</ele>
        <time>2024-08-31T12:50:33.493Z</time>
      </trkpt>
      <trkpt lat="44.1705" lon="4.45887">
        <ele>139.6</ele>
        <time>2024-08-31T12:50:34.882Z</time>
      </trkpt>
      <trkpt lat="44.17052" lon="4.45885">
        <ele>139.4</ele>
        <time>2024-08-31T12:50:36.270Z</time>
      </trkpt>
      <trkpt lat="44.17053" lon="4.45883">
        <ele>139.4</ele>
        <time>2024-08-31T12:50:37.255Z</time>
      </trkpt>
      <trkpt lat="44.17055" lon="4.45882">
        <ele>139.4</ele>
        <time>2024-08-31T12:50:38.454Z</time>
      </trkpt>
      <trkpt lat="44.17057" lon="4.4588">
        <ele>139.2</ele>
        <time>2024-08-31T12:50:39.843Z</time>
      </trkpt>
      <trkpt lat="44.17059" lon="4.45879">
        <ele>139.2</ele>
        <time>2024-08-31T12:50:41.042Z</time>
      </trkpt>
      <trkpt lat="44.1706" lon="4.45878">
        <ele>139</ele>
        <time>2024-08-31T12:50:41.735Z</time>
      </trkpt>
      <trkpt lat="44.17062" lon="4.45876">
        <ele>139</ele>
        <time>2024-08-31T12:50:43.124Z</time>
      </trkpt>
      <trkpt lat="44.17064" lon="4.45875">
        <ele>138.8</ele>
        <time>2024-08-31T12:50:44.323Z</time>
      </trkpt>
      <trkpt lat="44.17065" lon="4.45873">
        <ele>138.4</ele>
        <time>2024-08-31T12:50:45.309Z</time>
      </trkpt>
      <trkpt lat="44.17067" lon="4.45872">
        <ele>138.2</ele>
        <time>2024-08-31T12:50:46.508Z</time>
      </trkpt>
      <trkpt lat="44.17069" lon="4.45871">
        <ele>138</ele>
        <time>2024-08-31T12:50:47.707Z</time>
      </trkpt>
      <trkpt lat="44.17071" lon="4.45869">
        <ele>137.2</ele>
        <time>2024-08-31T12:50:49.095Z</time>
      </trkpt>
      <trkpt lat="44.17072" lon="4.45868">
        <ele>137</ele>
        <time>2024-08-31T12:50:49.788Z</time>
      </trkpt>
      <trkpt lat="44.17074" lon="4.45866">
        <ele>136.8</ele>
        <time>2024-08-31T12:50:51.177Z</time>
      </trkpt>
      <trkpt lat="44.17076" lon="4.45865">
        <ele>136.8</ele>
        <time>2024-08-31T12:50:52.375Z</time>
      </trkpt>
      <trkpt lat="44.17077" lon="4.45863">
        <ele>136.4</ele>
        <time>2024-08-31T12:50:53.361Z</time>
      </trkpt>
      <trkpt lat="44.17078" lon="4.45862">
        <ele>136.4</ele>
        <time>2024-08-31T12:50:54.052Z</time>
      </trkpt>
      <trkpt lat="44.17079" lon="4.4586">
        <ele>136.4</ele>
        <time>2024-08-31T12:50:55.037Z</time>
      </trkpt>
      <trkpt lat="44.1708" lon="4.45858">
        <ele>136.4</ele>
        <time>2024-08-31T12:50:56.024Z</time>
      </trkpt>
      <trkpt lat="44.17081" lon="4.45856">
        <ele>136.2</ele>
        <time>2024-08-31T12:50:57.010Z</time>
      </trkpt>
      <trkpt lat="44.17082" lon="4.45854">
        <ele>135.8</ele>
        <time>2024-08-31T12:50:57.997Z</time>
      </trkpt>
      <trkpt lat="44.17083" lon="4.45853">
        <ele>135.6</ele>
        <time>2024-08-31T12:50:58.692Z</time>
      </trkpt>
      <trkpt lat="44.17085" lon="4.45851">
        <ele>135.6</ele>
        <time>2024-08-31T12:51:00.081Z</time>
      </trkpt>
      <trkpt lat="44.17118" lon="4.45784">
        <ele>119.4</ele>
        <time>2024-08-31T12:51:32.998Z</time>
      </trkpt>
      <trkpt lat="44.17118" lon="4.45784">
        <ele>119.2</ele>
        <time>2024-08-31T12:51:32.998Z</time>
      </trkpt>
      <trkpt lat="44.17118" lon="4.45784">
        <ele>118.8</ele>
        <time>2024-08-31T12:51:32.998Z</time>
      </trkpt>
      <trkpt lat="44.17118" lon="4.45783">
        <ele>118.4</ele>
        <time>2024-08-31T12:51:33.401Z</time>
      </trkpt>
      <trkpt lat="44.17118" lon="4.45781">
        <ele>118.2</ele>
        <time>2024-08-31T12:51:34.210Z</time>
      </trkpt>
      <trkpt lat="44.17118" lon="4.45779">
        <ele>118</ele>
        <time>2024-08-31T12:51:35.019Z</time>
      </trkpt>
      <trkpt lat="44.17118" lon="4.45776">
        <ele>117.8</ele>
        <time>2024-08-31T12:51:36.234Z</time>
      </trkpt>
      <trkpt lat="44.17119" lon="4.45773">
        <ele>117.4</ele>
        <time>2024-08-31T12:51:37.573Z</time>
      </trkpt>
      <trkpt lat="44.1712" lon="4.4577">
        <ele>117</ele>
        <time>2024-08-31T12:51:38.912Z</time>
      </trkpt>
      <trkpt lat="44.17121" lon="4.45768">
        <ele>116.8</ele>
        <time>2024-08-31T12:51:39.898Z</time>
      </trkpt>
      <trkpt lat="44.17122" lon="4.45765">
        <ele>116.4</ele>
        <time>2024-08-31T12:51:41.238Z</time>
      </trkpt>
      <trkpt lat="44.17123" lon="4.45763">
        <ele>116</ele>
        <time>2024-08-31T12:51:42.225Z</time>
      </trkpt>
      <trkpt lat="44.17124" lon="4.45762">
        <ele>115.8</ele>
        <time>2024-08-31T12:51:42.920Z</time>
      </trkpt>
      <trkpt lat="44.17125" lon="4.4576">
        <ele>115.8</ele>
        <time>2024-08-31T12:51:43.907Z</time>
      </trkpt>
      <trkpt lat="44.17126" lon="4.45758">
        <ele>115.8</ele>
        <time>2024-08-31T12:51:44.893Z</time>
      </trkpt>
      <trkpt lat="44.17127" lon="4.45756">
        <ele>115.6</ele>
        <time>2024-08-31T12:51:45.880Z</time>
      </trkpt>
      <trkpt lat="44.17128" lon="4.45753">
        <ele>115.4</ele>
        <time>2024-08-31T12:51:47.219Z</time>
      </trkpt>
      <trkpt lat="44.17129" lon="4.45751">
        <ele>115.2</ele>
        <time>2024-08-31T12:51:48.206Z</time>
      </trkpt>
      <trkpt lat="44.1713" lon="4.45748">
        <ele>115</ele>
        <time>2024-08-31T12:51:49.545Z</time>
      </trkpt>
      <trkpt lat="44.17131" lon="4.45745">
        <ele>114.4</ele>
        <time>2024-08-31T12:51:50.884Z</time>
      </trkpt>
      <trkpt lat="44.17132" lon="4.45742">
        <ele>113.8</ele>
        <time>2024-08-31T12:51:52.223Z</time>
      </trkpt>
      <trkpt lat="44.17133" lon="4.45739">
        <ele>113.2</ele>
        <time>2024-08-31T12:51:53.562Z</time>
      </trkpt>
      <trkpt lat="44.17134" lon="4.45736">
        <ele>112.8</ele>
        <time>2024-08-31T12:51:54.901Z</time>
      </trkpt>
      <trkpt lat="44.17135" lon="4.45733">
        <ele>112.6</ele>
        <time>2024-08-31T12:51:56.241Z</time>
      </trkpt>
      <trkpt lat="44.17136" lon="4.45729">
        <ele>112.2</ele>
        <time>2024-08-31T12:51:57.956Z</time>
      </trkpt>
      <trkpt lat="44.17137" lon="4.45726">
        <ele>111.6</ele>
        <time>2024-08-31T12:51:59.295Z</time>
      </trkpt>
      <trkpt lat="44.17138" lon="4.45724">
        <ele>111.4</ele>
        <time>2024-08-31T12:52:00.280Z</time>
      </trkpt>
      <trkpt lat="44.17139" lon="4.45721">
        <ele>111.2</ele>
        <time>2024-08-31T12:52:01.619Z</time>
      </trkpt>
      <trkpt lat="44.1714" lon="4.45717">
        <ele>111</ele>
        <time>2024-08-31T12:52:03.335Z</time>
      </trkpt>
      <trkpt lat="44.1714" lon="4.45714">
        <ele>110.8</ele>
        <time>2024-08-31T12:52:04.549Z</time>
      </trkpt>
      <trkpt lat="44.17141" lon="4.45712">
        <ele>110.6</ele>
        <time>2024-08-31T12:52:05.536Z</time>
      </trkpt>
      <trkpt lat="44.1714" lon="4.45709">
        <ele>110.4</ele>
        <time>2024-08-31T12:52:06.875Z</time>
      </trkpt>
      <trkpt lat="44.17139" lon="4.45707">
        <ele>110.4</ele>
        <time>2024-08-31T12:52:07.862Z</time>
      </trkpt>
      <trkpt lat="44.17137" lon="4.45705">
        <ele>110.2</ele>
        <time>2024-08-31T12:52:09.251Z</time>
      </trkpt>
      <trkpt lat="44.17135" lon="4.45704">
        <ele>110</ele>
        <time>2024-08-31T12:52:10.449Z</time>
      </trkpt>
      <trkpt lat="44.17134" lon="4.45701">
        <ele>110</ele>
        <time>2024-08-31T12:52:11.789Z</time>
      </trkpt>
      <trkpt lat="44.17133" lon="4.45698">
        <ele>109.8</ele>
        <time>2024-08-31T12:52:13.128Z</time>
      </trkpt>
      <trkpt lat="44.17132" lon="4.45695">
        <ele>109.8</ele>
        <time>2024-08-31T12:52:14.467Z</time>
      </trkpt>
      <trkpt lat="44.17131" lon="4.45692">
        <ele>109.6</ele>
        <time>2024-08-31T12:52:15.806Z</time>
      </trkpt>
      <trkpt lat="44.1713" lon="4.45689">
        <ele>109.6</ele>
        <time>2024-08-31T12:52:17.145Z</time>
      </trkpt>
      <trkpt lat="44.17129" lon="4.45686">
        <ele>109.4</ele>
        <time>2024-08-31T12:52:18.484Z</time>
      </trkpt>
      <trkpt lat="44.17123" lon="4.45673">
        <ele>109</ele>
        <time>2024-08-31T12:52:24.744Z</time>
      </trkpt>
      <trkpt lat="44.17113" lon="4.45643">
        <ele>108.2</ele>
        <time>2024-08-31T12:52:38.142Z</time>
      </trkpt>
      <trkpt lat="44.17112" lon="4.45639">
        <ele>108.2</ele>
        <time>2024-08-31T12:52:39.857Z</time>
      </trkpt>
      <trkpt lat="44.17111" lon="4.45635">
        <ele>108.2</ele>
        <time>2024-08-31T12:52:41.572Z</time>
      </trkpt>
      <trkpt lat="44.1711" lon="4.45631">
        <ele>108.2</ele>
        <time>2024-08-31T12:52:43.287Z</time>
      </trkpt>
      <trkpt lat="44.17105" lon="4.45617">
        <ele>108</ele>
        <time>2024-08-31T12:52:49.620Z</time>
      </trkpt>
      <trkpt lat="44.17101" lon="4.45606">
        <ele>108</ele>
        <time>2024-08-31T12:52:54.614Z</time>
      </trkpt>
      <trkpt lat="44.17095" lon="4.45587">
        <ele>107.8</ele>
        <time>2024-08-31T12:53:03.022Z</time>
      </trkpt>
      <trkpt lat="44.17087" lon="4.45565">
        <ele>107.8</ele>
        <time>2024-08-31T12:53:13.011Z</time>
      </trkpt>
      <trkpt lat="44.1708" lon="4.45547">
        <ele>107.2</ele>
        <time>2024-08-31T12:53:21.303Z</time>
      </trkpt>
      <trkpt lat="44.17078" lon="4.45544">
        <ele>107</ele>
        <time>2024-08-31T12:53:22.961Z</time>
      </trkpt>
      <trkpt lat="44.17069" lon="4.45523">
        <ele>106.6</ele>
        <time>2024-08-31T12:53:32.868Z</time>
      </trkpt>
      <trkpt lat="44.17067" lon="4.45516">
        <ele>106.4</ele>
        <time>2024-08-31T12:53:35.919Z</time>
      </trkpt>
      <trkpt lat="44.17066" lon="4.45512">
        <ele>106.2</ele>
        <time>2024-08-31T12:53:37.634Z</time>
      </trkpt>
      <trkpt lat="44.17065" lon="4.45509">
        <ele>106.2</ele>
        <time>2024-08-31T12:53:38.973Z</time>
      </trkpt>
      <trkpt lat="44.17063" lon="4.45506">
        <ele>106</ele>
        <time>2024-08-31T12:53:40.631Z</time>
      </trkpt>
      <trkpt lat="44.17062" lon="4.45503">
        <ele>105.6</ele>
        <time>2024-08-31T12:53:41.971Z</time>
      </trkpt>
      <trkpt lat="44.17061" lon="4.45499">
        <ele>105.6</ele>
        <time>2024-08-31T12:53:43.686Z</time>
      </trkpt>
      <trkpt lat="44.1706" lon="4.45496">
        <ele>105.4</ele>
        <time>2024-08-31T12:53:45.025Z</time>
      </trkpt>
      <trkpt lat="44.17058" lon="4.45493">
        <ele>105.4</ele>
        <time>2024-08-31T12:53:46.683Z</time>
      </trkpt>
      <trkpt lat="44.17057" lon="4.45489">
        <ele>105.2</ele>
        <time>2024-08-31T12:53:48.398Z</time>
      </trkpt>
      <trkpt lat="44.17056" lon="4.45486">
        <ele>105.2</ele>
        <time>2024-08-31T12:53:49.737Z</time>
      </trkpt>
      <trkpt lat="44.17054" lon="4.45479">
        <ele>105.2</ele>
        <time>2024-08-31T12:53:52.789Z</time>
      </trkpt>
      <trkpt lat="44.17052" lon="4.45476">
        <ele>105.2</ele>
        <time>2024-08-31T12:53:54.447Z</time>
      </trkpt>
      <trkpt lat="44.17051" lon="4.45472">
        <ele>105.4</ele>
        <time>2024-08-31T12:53:56.162Z</time>
      </trkpt>
      <trkpt lat="44.1705" lon="4.45468">
        <ele>105.4</ele>
        <time>2024-08-31T12:53:57.877Z</time>
      </trkpt>
      <trkpt lat="44.17048" lon="4.45464">
        <ele>105.4</ele>
        <time>2024-08-31T12:53:59.851Z</time>
      </trkpt>
      <trkpt lat="44.17047" lon="4.4546">
        <ele>105.4</ele>
        <time>2024-08-31T12:54:01.566Z</time>
      </trkpt>
      <trkpt lat="44.17046" lon="4.45456">
        <ele>105.6</ele>
        <time>2024-08-31T12:54:03.281Z</time>
      </trkpt>
      <trkpt lat="44.17044" lon="4.45451">
        <ele>105.8</ele>
        <time>2024-08-31T12:54:05.600Z</time>
      </trkpt>
      <trkpt lat="44.17044" lon="4.45444">
        <ele>105.8</ele>
        <time>2024-08-31T12:54:08.434Z</time>
      </trkpt>
      <trkpt lat="44.17044" lon="4.45438">
        <ele>106</ele>
        <time>2024-08-31T12:54:10.863Z</time>
      </trkpt>
      <trkpt lat="44.17045" lon="4.4543">
        <ele>106.4</ele>
        <time>2024-08-31T12:54:14.151Z</time>
      </trkpt>
      <trkpt lat="44.17046" lon="4.45422">
        <ele>106.8</ele>
        <time>2024-08-31T12:54:17.439Z</time>
      </trkpt>
      <trkpt lat="44.17045" lon="4.45413">
        <ele>106.8</ele>
        <time>2024-08-31T12:54:21.127Z</time>
      </trkpt>
      <trkpt lat="44.17042" lon="4.45404">
        <ele>107.2</ele>
        <time>2024-08-31T12:54:25.146Z</time>
      </trkpt>
      <trkpt lat="44.17038" lon="4.45396">
        <ele>107.4</ele>
        <time>2024-08-31T12:54:29.095Z</time>
      </trkpt>
      <trkpt lat="44.17034" lon="4.45389">
        <ele>107.6</ele>
        <time>2024-08-31T12:54:32.719Z</time>
      </trkpt>
      <trkpt lat="44.1703" lon="4.45381">
        <ele>108</ele>
        <time>2024-08-31T12:54:36.668Z</time>
      </trkpt>
      <trkpt lat="44.17021" lon="4.45365">
        <ele>109</ele>
        <time>2024-08-31T12:54:44.903Z</time>
      </trkpt>
      <trkpt lat="44.17011" lon="4.45349">
        <ele>110.6</ele>
        <time>2024-08-31T12:54:53.498Z</time>
      </trkpt>
      <trkpt lat="44.17002" lon="4.45333">
        <ele>111.6</ele>
        <time>2024-08-31T12:55:01.733Z</time>
      </trkpt>
      <trkpt lat="44.16994" lon="4.45315">
        <ele>112.8</ele>
        <time>2024-08-31T12:55:10.309Z</time>
      </trkpt>
      <trkpt lat="44.1699" lon="4.45306">
        <ele>113.4</ele>
        <time>2024-08-31T12:55:14.597Z</time>
      </trkpt>
      <trkpt lat="44.16986" lon="4.45296">
        <ele>114.2</ele>
        <time>2024-08-31T12:55:19.234Z</time>
      </trkpt>
      <trkpt lat="44.16978" lon="4.45278">
        <ele>115</ele>
        <time>2024-08-31T12:55:27.810Z</time>
      </trkpt>
      <trkpt lat="44.16974" lon="4.45269">
        <ele>115.6</ele>
        <time>2024-08-31T12:55:32.098Z</time>
      </trkpt>
      <trkpt lat="44.16959" lon="4.45247">
        <ele>116.4</ele>
        <time>2024-08-31T12:55:44.391Z</time>
      </trkpt>
      <trkpt lat="44.16955" lon="4.4524">
        <ele>116.8</ele>
        <time>2024-08-31T12:55:48.015Z</time>
      </trkpt>
      <trkpt lat="44.16944" lon="4.4522">
        <ele>118.2</ele>
        <time>2024-08-31T12:55:58.222Z</time>
      </trkpt>
      <trkpt lat="44.16934" lon="4.452">
        <ele>119.4</ele>
        <time>2024-08-31T12:56:08.096Z</time>
      </trkpt>
      <trkpt lat="44.16928" lon="4.45187">
        <ele>119.8</ele>
        <time>2024-08-31T12:56:14.357Z</time>
      </trkpt>
      <trkpt lat="44.16921" lon="4.4517">
        <ele>120</ele>
        <time>2024-08-31T12:56:22.296Z</time>
      </trkpt>
      <trkpt lat="44.16919" lon="4.45165">
        <ele>120</ele>
        <time>2024-08-31T12:56:24.615Z</time>
      </trkpt>
      <trkpt lat="44.16916" lon="4.45159">
        <ele>120</ele>
        <time>2024-08-31T12:56:27.577Z</time>
      </trkpt>
      <trkpt lat="44.16914" lon="4.45154">
        <ele>120</ele>
        <time>2024-08-31T12:56:29.896Z</time>
      </trkpt>
      <trkpt lat="44.16912" lon="4.45149">
        <ele>120</ele>
        <time>2024-08-31T12:56:32.214Z</time>
      </trkpt>
      <trkpt lat="44.16909" lon="4.45145">
        <ele>120</ele>
        <time>2024-08-31T12:56:34.557Z</time>
      </trkpt>
      <trkpt lat="44.16907" lon="4.4514">
        <ele>120</ele>
        <time>2024-08-31T12:56:36.876Z</time>
      </trkpt>
      <trkpt lat="44.16905" lon="4.45136">
        <ele>120</ele>
        <time>2024-08-31T12:56:38.850Z</time>
      </trkpt>
      <trkpt lat="44.16898" lon="4.45124">
        <ele>120</ele>
        <time>2024-08-31T12:56:45.114Z</time>
      </trkpt>
      <trkpt lat="44.16896" lon="4.4512">
        <ele>120</ele>
        <time>2024-08-31T12:56:47.088Z</time>
      </trkpt>
      <trkpt lat="44.16894" lon="4.45117">
        <ele>119.8</ele>
        <time>2024-08-31T12:56:48.746Z</time>
      </trkpt>
      <trkpt lat="44.16892" lon="4.45114">
        <ele>119.8</ele>
        <time>2024-08-31T12:56:50.404Z</time>
      </trkpt>
      <trkpt lat="44.16891" lon="4.45112">
        <ele>119.6</ele>
        <time>2024-08-31T12:56:51.391Z</time>
      </trkpt>
      <trkpt lat="44.16886" lon="4.45105">
        <ele>111.4</ele>
        <time>2024-08-31T12:56:55.392Z</time>
      </trkpt>
      <trkpt lat="44.16923" lon="4.45039">
        <ele>109.5</ele>
        <time>2024-08-31T12:57:29.319Z</time>
      </trkpt>
      <trkpt lat="44.16926" lon="4.45004">
        <ele>110.3</ele>
        <time>2024-08-31T12:57:43.595Z</time>
      </trkpt>
      <trkpt lat="44.17011" lon="4.44953">
        <ele>108.3</ele>
        <time>2024-08-31T12:58:35.847Z</time>
      </trkpt>
      <trkpt lat="44.17051" lon="4.44964">
        <ele>106.8</ele>
        <time>2024-08-31T12:58:58.868Z</time>
      </trkpt>
      <trkpt lat="44.17108" lon="4.44989">
        <ele>104.5</ele>
        <time>2024-08-31T12:59:32.608Z</time>
      </trkpt>
      <trkpt lat="44.17149" lon="4.44991">
        <ele>103.8</ele>
        <time>2024-08-31T12:59:55.773Z</time>
      </trkpt>
      <trkpt lat="44.17208" lon="4.45034">
        <ele>101.8</ele>
        <time>2024-08-31T13:00:33.365Z</time>
      </trkpt>
      <trkpt lat="44.17252" lon="4.45041">
        <ele>101.4</ele>
        <time>2024-08-31T13:00:58.371Z</time>
      </trkpt>
      <trkpt lat="44.17317" lon="4.45013">
        <ele>100</ele>
        <time>2024-08-31T13:01:36.785Z</time>
      </trkpt>
      <trkpt lat="44.17343" lon="4.45">
        <ele>99.6</ele>
        <time>2024-08-31T13:01:52.381Z</time>
      </trkpt>
      <trkpt lat="44.17391" lon="4.45017">
        <ele>97.9</ele>
        <time>2024-08-31T13:02:20.345Z</time>
      </trkpt>
      <trkpt lat="44.17463" lon="4.45017">
        <ele>96.4</ele>
        <time>2024-08-31T13:03:01.000Z</time>
      </trkpt>
      <trkpt lat="44.1751" lon="4.45006">
        <ele>94.5</ele>
        <time>2024-08-31T13:03:27.910Z</time>
      </trkpt>
      <trkpt lat="44.17533" lon="4.44901">
        <ele>95.2</ele>
        <time>2024-08-31T13:04:12.371Z</time>
      </trkpt>
      <trkpt lat="44.17616" lon="4.44912">
        <ele>91</ele>
        <time>2024-08-31T13:04:59.448Z</time>
      </trkpt>
      <trkpt lat="44.17656" lon="4.44938">
        <ele>89.1</ele>
        <time>2024-08-31T13:05:24.368Z</time>
      </trkpt>
      <trkpt lat="44.17725" lon="4.44966">
        <ele>87.2</ele>
        <time>2024-08-31T13:06:04.945Z</time>
      </trkpt>
      <trkpt lat="44.17797" lon="4.45015">
        <ele>87.3</ele>
        <time>2024-08-31T13:06:50.184Z</time>
      </trkpt>
      <trkpt lat="44.17825" lon="4.45056">
        <ele>87</ele>
        <time>2024-08-31T13:07:13.110Z</time>
      </trkpt>
      <trkpt lat="44.17837" lon="4.45088">
        <ele>86.9</ele>
        <time>2024-08-31T13:07:27.733Z</time>
      </trkpt>
      <trkpt lat="44.17817" lon="4.45137">
        <ele>86.5</ele>
        <time>2024-08-31T13:07:50.564Z</time>
      </trkpt>
      <trkpt lat="44.1781" lon="4.45189">
        <ele>85.9</ele>
        <time>2024-08-31T13:08:11.989Z</time>
      </trkpt>
      <trkpt lat="44.17814" lon="4.45212">
        <ele>85.7</ele>
        <time>2024-08-31T13:08:21.573Z</time>
      </trkpt>
      <trkpt lat="44.17837" lon="4.45227">
        <ele>85.3</ele>
        <time>2024-08-31T13:08:35.910Z</time>
      </trkpt>
      <trkpt lat="44.17846" lon="4.45234">
        <ele>85.9</ele>
        <time>2024-08-31T13:08:41.729Z</time>
      </trkpt>
      <trkpt lat="44.17816" lon="4.45307">
        <ele>85.4</ele>
        <time>2024-08-31T13:09:15.800Z</time>
      </trkpt>
      <trkpt lat="44.17811" lon="4.45371">
        <ele>85.8</ele>
        <time>2024-08-31T13:09:41.870Z</time>
      </trkpt>
      <trkpt lat="44.17816" lon="4.45404">
        <ele>85.2</ele>
        <time>2024-08-31T13:09:55.528Z</time>
      </trkpt>
      <trkpt lat="44.17847" lon="4.45436">
        <ele>85.3</ele>
        <time>2024-08-31T13:10:17.307Z</time>
      </trkpt>
      <trkpt lat="44.17879" lon="4.45513">
        <ele>84.5</ele>
        <time>2024-08-31T13:10:53.345Z</time>
      </trkpt>
      <trkpt lat="44.1794" lon="4.45652">
        <ele>84.7</ele>
        <time>2024-08-31T13:11:59.335Z</time>
      </trkpt>
      <trkpt lat="44.17984" lon="4.45741">
        <ele>84</ele>
        <time>2024-08-31T13:12:43.109Z</time>
      </trkpt>
      <trkpt lat="44.18018" lon="4.45807">
        <ele>84.6</ele>
        <time>2024-08-31T13:13:16.016Z</time>
      </trkpt>
      <trkpt lat="44.18033" lon="4.45858">
        <ele>84.4</ele>
        <time>2024-08-31T13:13:38.337Z</time>
      </trkpt>
      <trkpt lat="44.18034" lon="4.45945">
        <ele>83.5</ele>
        <time>2024-08-31T13:14:13.571Z</time>
      </trkpt>
      <trkpt lat="44.1804" lon="4.4605">
        <ele>82.9</ele>
        <time>2024-08-31T13:14:56.225Z</time>
      </trkpt>
      <trkpt lat="44.18063" lon="4.46156">
        <ele>83.3</ele>
        <time>2024-08-31T13:15:41.070Z</time>
      </trkpt>
      <trkpt lat="44.18067" lon="4.46199">
        <ele>84.2</ele>
        <time>2024-08-31T13:15:58.628Z</time>
      </trkpt>
      <trkpt lat="44.18061" lon="4.46244">
        <ele>83.3</ele>
        <time>2024-08-31T13:16:17.162Z</time>
      </trkpt>
      <trkpt lat="44.1807" lon="4.46304">
        <ele>83.7</ele>
        <time>2024-08-31T13:16:41.984Z</time>
      </trkpt>
      <trkpt lat="44.18063" lon="4.46336">
        <ele>82</ele>
        <time>2024-08-31T13:16:55.531Z</time>
      </trkpt>
      <trkpt lat="44.18067" lon="4.46376">
        <ele>81.9</ele>
        <time>2024-08-31T13:17:11.885Z</time>
      </trkpt>
      <trkpt lat="44.18112" lon="4.46451">
        <ele>81.4</ele>
        <time>2024-08-31T13:17:51.483Z</time>
      </trkpt>
      <trkpt lat="44.18171" lon="4.46538">
        <ele>80.6</ele>
        <time>2024-08-31T13:18:39.970Z</time>
      </trkpt>
      <trkpt lat="44.1819" lon="4.46559">
        <ele>80.5</ele>
        <time>2024-08-31T13:18:53.659Z</time>
      </trkpt>
      <trkpt lat="44.18197" lon="4.46561">
        <ele>80.7</ele>
        <time>2024-08-31T13:18:57.693Z</time>
      </trkpt>
      <trkpt lat="44.182" lon="4.4655">
        <ele>81.6</ele>
        <time>2024-08-31T13:19:02.458Z</time>
      </trkpt>
      <trkpt lat="44.18213" lon="4.46543">
        <ele>82.6</ele>
        <time>2024-08-31T13:19:10.326Z</time>
      </trkpt>
      <trkpt lat="44.1826" lon="4.46595">
        <ele>82.9</ele>
        <time>2024-08-31T13:19:44.203Z</time>
      </trkpt>
      <trkpt lat="44.18321" lon="4.46679">
        <ele>84.9</ele>
        <time>2024-08-31T13:20:32.611Z</time>
      </trkpt>
      <trkpt lat="44.18369" lon="4.46797">
        <ele>86.6</ele>
        <time>2024-08-31T13:21:27.543Z</time>
      </trkpt>
      <trkpt lat="44.18399" lon="4.46885">
        <ele>90.6</ele>
        <time>2024-08-31T13:22:06.997Z</time>
      </trkpt>
      <trkpt lat="44.18406" lon="4.46914">
        <ele>91.5</ele>
        <time>2024-08-31T13:22:19.387Z</time>
      </trkpt>
      <trkpt lat="44.18426" lon="4.46928">
        <ele>92.5</ele>
        <time>2024-08-31T13:22:32.023Z</time>
      </trkpt>
      <trkpt lat="44.18455" lon="4.46937">
        <ele>92.2</ele>
        <time>2024-08-31T13:22:48.798Z</time>
      </trkpt>
      <trkpt lat="44.18539" lon="4.46944">
        <ele>91.5</ele>
        <time>2024-08-31T13:23:36.313Z</time>
      </trkpt>
      <trkpt lat="44.18595" lon="4.46895">
        <ele>95.5</ele>
        <time>2024-08-31T13:24:13.642Z</time>
      </trkpt>
      <trkpt lat="44.18703" lon="4.46888">
        <ele>97.9</ele>
        <time>2024-08-31T13:25:14.691Z</time>
      </trkpt>
      <trkpt lat="44.18729" lon="4.46901">
        <ele>98.9</ele>
        <time>2024-08-31T13:25:30.287Z</time>
      </trkpt>
      <trkpt lat="44.18772" lon="4.46948">
        <ele>97.1</ele>
        <time>2024-08-31T13:26:01.136Z</time>
      </trkpt>
      <trkpt lat="44.18872" lon="4.47021">
        <ele>95.9</ele>
        <time>2024-08-31T13:27:04.869Z</time>
      </trkpt>
      <trkpt lat="44.18948" lon="4.47107">
        <ele>92.7</ele>
        <time>2024-08-31T13:28:00.132Z</time>
      </trkpt>
      <trkpt lat="44.18994" lon="4.47144">
        <ele>92</ele>
        <time>2024-08-31T13:28:30.116Z</time>
      </trkpt>
      <trkpt lat="44.19057" lon="4.47195">
        <ele>96.1</ele>
        <time>2024-08-31T13:29:11.248Z</time>
      </trkpt>
      <trkpt lat="44.19097" lon="4.47255">
        <ele>98.5</ele>
        <time>2024-08-31T13:29:44.418Z</time>
      </trkpt>
      <trkpt lat="44.19192" lon="4.47412">
        <ele>98</ele>
        <time>2024-08-31T13:31:07.592Z</time>
      </trkpt>
      <trkpt lat="44.19271" lon="4.47517">
        <ele>100</ele>
        <time>2024-08-31T13:32:09.212Z</time>
      </trkpt>
      <trkpt lat="44.19318" lon="4.47659">
        <ele>92.1</ele>
        <time>2024-08-31T13:33:12.531Z</time>
      </trkpt>
      <trkpt lat="44.19329" lon="4.47699">
        <ele>89.8</ele>
        <time>2024-08-31T13:33:29.875Z</time>
      </trkpt>
      <trkpt lat="44.19357" lon="4.47739">
        <ele>88.8</ele>
        <time>2024-08-31T13:33:52.507Z</time>
      </trkpt>
      <trkpt lat="44.19389" lon="4.47811">
        <ele>86.4</ele>
        <time>2024-08-31T13:34:26.802Z</time>
      </trkpt>
      <trkpt lat="44.19406" lon="4.47932">
        <ele>78.5</ele>
        <time>2024-08-31T13:35:16.720Z</time>
      </trkpt>
      <trkpt lat="44.19562" lon="4.47789">
        <ele>79.5</ele>
        <time>2024-08-31T13:37:02.128Z</time>
      </trkpt>
      <trkpt lat="44.19673" lon="4.47733">
        <ele>76.3</ele>
        <time>2024-08-31T13:38:08.779Z</time>
      </trkpt>
      <trkpt lat="44.197" lon="4.47581">
        <ele>76</ele>
        <time>2024-08-31T13:39:12.173Z</time>
      </trkpt>
      <trkpt lat="44.19771" lon="4.47474">
        <ele>74.2</ele>
        <time>2024-08-31T13:40:11.195Z</time>
      </trkpt>
      <trkpt lat="44.19855" lon="4.47396">
        <ele>74.2</ele>
        <time>2024-08-31T13:41:08.175Z</time>
      </trkpt>
      <trkpt lat="44.19921" lon="4.4728">
        <ele>74.8</ele>
        <time>2024-08-31T13:42:08.125Z</time>
      </trkpt>
      <trkpt lat="44.20165" lon="4.47143">
        <ele>73.9</ele>
        <time>2024-08-31T13:44:36.644Z</time>
      </trkpt>
      <trkpt lat="44.20282" lon="4.47043">
        <ele>73.8</ele>
        <time>2024-08-31T13:45:54.124Z</time>
      </trkpt>
      <trkpt lat="44.20324" lon="4.46944">
        <ele>75.4</ele>
        <time>2024-08-31T13:46:40.689Z</time>
      </trkpt>
      <trkpt lat="44.20373" lon="4.46872">
        <ele>76</ele>
        <time>2024-08-31T13:47:20.875Z</time>
      </trkpt>
      <trkpt lat="44.20375" lon="4.46747">
        <ele>79</ele>
        <time>2024-08-31T13:48:11.485Z</time>
      </trkpt>
      <trkpt lat="44.20383" lon="4.46638">
        <ele>76.8</ele>
        <time>2024-08-31T13:48:55.837Z</time>
      </trkpt>
      <trkpt lat="44.20463" lon="4.46592">
        <ele>75.2</ele>
        <time>2024-08-31T13:49:44.696Z</time>
      </trkpt>
      <trkpt lat="44.20586" lon="4.46531">
        <ele>77.8</ele>
        <time>2024-08-31T13:50:58.407Z</time>
      </trkpt>
      <trkpt lat="44.2066" lon="4.46538">
        <ele>78.1</ele>
        <time>2024-08-31T13:51:40.287Z</time>
      </trkpt>
      <trkpt lat="44.20789" lon="4.46647">
        <ele>74.7</ele>
        <time>2024-08-31T13:53:05.447Z</time>
      </trkpt>
      <trkpt lat="44.20903" lon="4.46727">
        <ele>73.8</ele>
        <time>2024-08-31T13:54:17.503Z</time>
      </trkpt>
      <trkpt lat="44.21042" lon="4.46812">
        <ele>73.4</ele>
        <time>2024-08-31T13:55:43.199Z</time>
      </trkpt>
      <trkpt lat="44.20973" lon="4.46922">
        <ele>70.7</ele>
        <time>2024-08-31T13:56:42.361Z</time>
      </trkpt>
      <trkpt lat="44.21008" lon="4.46931">
        <ele>71.4</ele>
        <time>2024-08-31T13:57:02.456Z</time>
      </trkpt>
      <trkpt lat="44.21182" lon="4.4697">
        <ele>74</ele>
        <time>2024-08-31T13:58:41.966Z</time>
      </trkpt>
      <trkpt lat="44.2128" lon="4.46979">
        <ele>74.7</ele>
        <time>2024-08-31T13:59:37.422Z</time>
      </trkpt>
      <trkpt lat="44.21371" lon="4.47014">
        <ele>74.7</ele>
        <time>2024-08-31T14:00:30.722Z</time>
      </trkpt>
      <trkpt lat="44.21406" lon="4.47035">
        <ele>74.6</ele>
        <time>2024-08-31T14:00:52.235Z</time>
      </trkpt>
      <trkpt lat="44.21479" lon="4.47006">
        <ele>75.8</ele>
        <time>2024-08-31T14:01:35.093Z</time>
      </trkpt>
      <trkpt lat="44.21504" lon="4.47001">
        <ele>76</ele>
        <time>2024-08-31T14:01:49.353Z</time>
      </trkpt>
      <trkpt lat="44.21581" lon="4.46933">
        <ele>76</ele>
        <time>2024-08-31T14:02:40.809Z</time>
      </trkpt>
      <trkpt lat="44.21614" lon="4.47003">
        <ele>76.1</ele>
        <time>2024-08-31T14:03:14.717Z</time>
      </trkpt>
      <trkpt lat="44.21652" lon="4.47058">
        <ele>76.5</ele>
        <time>2024-08-31T14:03:45.633Z</time>
      </trkpt>
      <trkpt lat="44.21644" lon="4.4721">
        <ele>77</ele>
        <time>2024-08-31T14:04:47.312Z</time>
      </trkpt>
      <trkpt lat="44.21668" lon="4.47317">
        <ele>77</ele>
        <time>2024-08-31T14:05:32.685Z</time>
      </trkpt>
      <trkpt lat="44.21796" lon="4.47611">
        <ele>77.7</ele>
        <time>2024-08-31T14:07:51.896Z</time>
      </trkpt>
      <trkpt lat="44.21901" lon="4.47723">
        <ele>74.9</ele>
        <time>2024-08-31T14:09:06.525Z</time>
      </trkpt>
      <trkpt lat="44.22053" lon="4.47901">
        <ele>77.9</ele>
        <time>2024-08-31T14:10:58.574Z</time>
      </trkpt>
      <trkpt lat="44.22047" lon="4.4791">
        <ele>77.7</ele>
        <time>2024-08-31T14:11:03.548Z</time>
      </trkpt>
      <trkpt lat="44.22041" lon="4.47917">
        <ele>77.5</ele>
        <time>2024-08-31T14:11:07.964Z</time>
      </trkpt>
      <trkpt lat="44.22025" lon="4.47946">
        <ele>77</ele>
        <time>2024-08-31T14:11:22.774Z</time>
      </trkpt>
      <trkpt lat="44.22" lon="4.4799">
        <ele>80.8</ele>
        <time>2024-08-31T14:11:45.496Z</time>
      </trkpt>
      <trkpt lat="44.21999" lon="4.47989">
        <ele>80.8</ele>
        <time>2024-08-31T14:11:46.496Z</time>
      </trkpt>
      <trkpt lat="44.21998" lon="4.47989">
        <ele>80.8</ele>
        <time>2024-08-31T14:11:47.496Z</time>
      </trkpt>
      <trkpt lat="44.21998" lon="4.47988">
        <ele>80.8</ele>
        <time>2024-08-31T14:11:48.496Z</time>
      </trkpt>
      <trkpt lat="44.21999" lon="4.47988">
        <ele>80.8</ele>
        <time>2024-08-31T14:11:49.496Z</time>
      </trkpt>
      <trkpt lat="44.21999" lon="4.47987">
        <ele>80.8</ele>
        <time>2024-08-31T14:11:50.496Z</time>
      </trkpt>
      <trkpt lat="44.21999" lon="4.47986">
        <ele>80.8</ele>
        <time>2024-08-31T14:11:51.496Z</time>
      </trkpt>
      <trkpt lat="44.22" lon="4.47985">
        <ele>80.8</ele>
        <time>2024-08-31T14:11:52.496Z</time>
      </trkpt>
      <trkpt lat="44.22001" lon="4.47984">
        <ele>80.8</ele>
        <time>2024-08-31T14:11:53.496Z</time>
      </trkpt>
      <trkpt lat="44.22002" lon="4.47982">
        <ele>80.8</ele>
        <time>2024-08-31T14:11:54.496Z</time>
      </trkpt>
      <trkpt lat="44.22003" lon="4.47981">
        <ele>80.8</ele>
        <time>2024-08-31T14:11:55.496Z</time>
      </trkpt>
      <trkpt lat="44.22003" lon="4.47979">
        <ele>80.8</ele>
        <time>2024-08-31T14:11:56.496Z</time>
      </trkpt>
      <trkpt lat="44.22003" lon="4.47977">
        <ele>80.8</ele>
        <time>2024-08-31T14:11:57.496Z</time>
      </trkpt>
      <trkpt lat="44.22003" lon="4.47975">
        <ele>80.8</ele>
        <time>2024-08-31T14:11:58.496Z</time>
      </trkpt>
      <trkpt lat="44.22002" lon="4.47975">
        <ele>80.8</ele>
        <time>2024-08-31T14:11:59.496Z</time>
      </trkpt>
      <trkpt lat="44.22001" lon="4.47972">
        <ele>80.8</ele>
        <time>2024-08-31T14:12:00.496Z</time>
      </trkpt>
      <trkpt lat="44.22001" lon="4.47971">
        <ele>80.8</ele>
        <time>2024-08-31T14:12:01.496Z</time>
      </trkpt>
      <trkpt lat="44.22001" lon="4.4797">
        <ele>80.8</ele>
        <time>2024-08-31T14:12:02.496Z</time>
      </trkpt>
      <trkpt lat="44.22001" lon="4.47967">
        <ele>80.8</ele>
        <time>2024-08-31T14:12:03.496Z</time>
      </trkpt>
      <trkpt lat="44.22002" lon="4.47965">
        <ele>80.8</ele>
        <time>2024-08-31T14:12:04.496Z</time>
      </trkpt>
      <trkpt lat="44.22004" lon="4.47961">
        <ele>80.8</ele>
        <time>2024-08-31T14:12:05.496Z</time>
      </trkpt>
      <trkpt lat="44.22004" lon="4.4796">
        <ele>80.8</ele>
        <time>2024-08-31T14:12:06.496Z</time>
      </trkpt>
      <trkpt lat="44.22007" lon="4.47956">
        <ele>80.8</ele>
        <time>2024-08-31T14:12:07.496Z</time>
      </trkpt>
      <trkpt lat="44.22007" lon="4.47955">
        <ele>80.8</ele>
        <time>2024-08-31T14:12:08.496Z</time>
      </trkpt>
      <trkpt lat="44.22009" lon="4.47951">
        <ele>80.8</ele>
        <time>2024-08-31T14:12:09.496Z</time>
      </trkpt>
      <trkpt lat="44.2201" lon="4.4795">
        <ele>80.8</ele>
        <time>2024-08-31T14:12:10.496Z</time>
      </trkpt>
      <trkpt lat="44.22012" lon="4.47946">
        <ele>80.8</ele>
        <time>2024-08-31T14:12:11.496Z</time>
      </trkpt>
      <trkpt lat="44.22013" lon="4.47945">
        <ele>80.8</ele>
        <time>2024-08-31T14:12:12.496Z</time>
      </trkpt>
      <trkpt lat="44.22015" lon="4.47942">
        <ele>80.9</ele>
        <time>2024-08-31T14:12:13.496Z</time>
      </trkpt>
      <trkpt lat="44.22015" lon="4.47941">
        <ele>80.9</ele>
        <time>2024-08-31T14:12:14.496Z</time>
      </trkpt>
      <trkpt lat="44.22016" lon="4.47936">
        <ele>80.9</ele>
        <time>2024-08-31T14:12:15.496Z</time>
      </trkpt>
      <trkpt lat="44.22017" lon="4.47935">
        <ele>80.9</ele>
        <time>2024-08-31T14:12:16.496Z</time>
      </trkpt>
      <trkpt lat="44.22018" lon="4.47931">
        <ele>80.9</ele>
        <time>2024-08-31T14:12:17.496Z</time>
      </trkpt>
      <trkpt lat="44.22018" lon="4.47929">
        <ele>80.9</ele>
        <time>2024-08-31T14:12:18.496Z</time>
      </trkpt>
      <trkpt lat="44.2202" lon="4.47925">
        <ele>80.9</ele>
        <time>2024-08-31T14:12:19.496Z</time>
      </trkpt>
      <trkpt lat="44.22021" lon="4.47924">
        <ele>80.9</ele>
        <time>2024-08-31T14:12:20.496Z</time>
      </trkpt>
      <trkpt lat="44.22022" lon="4.47922">
        <ele>80.9</ele>
        <time>2024-08-31T14:12:21.496Z</time>
      </trkpt>
      <trkpt lat="44.22023" lon="4.47921">
        <ele>81</ele>
        <time>2024-08-31T14:12:22.496Z</time>
      </trkpt>
      <trkpt lat="44.22023" lon="4.47919">
        <ele>81</ele>
        <time>2024-08-31T14:12:23.496Z</time>
      </trkpt>
      <trkpt lat="44.22024" lon="4.47916">
        <ele>81</ele>
        <time>2024-08-31T14:12:24.496Z</time>
      </trkpt>
      <trkpt lat="44.22025" lon="4.47914">
        <ele>81</ele>
        <time>2024-08-31T14:12:25.496Z</time>
      </trkpt>
      <trkpt lat="44.22026" lon="4.47913">
        <ele>81</ele>
        <time>2024-08-31T14:12:26.496Z</time>
      </trkpt>
      <trkpt lat="44.22029" lon="4.47912">
        <ele>81</ele>
        <time>2024-08-31T14:12:27.496Z</time>
      </trkpt>
      <trkpt lat="44.2203" lon="4.47911">
        <ele>81</ele>
        <time>2024-08-31T14:12:28.496Z</time>
      </trkpt>
      <trkpt lat="44.22032" lon="4.47907">
        <ele>81.1</ele>
        <time>2024-08-31T14:12:29.496Z</time>
      </trkpt>
      <trkpt lat="44.22032" lon="4.47906">
        <ele>81.1</ele>
        <time>2024-08-31T14:12:30.496Z</time>
      </trkpt>
      <trkpt lat="44.22034" lon="4.47902">
        <ele>81.1</ele>
        <time>2024-08-31T14:12:31.496Z</time>
      </trkpt>
      <trkpt lat="44.22034" lon="4.479">
        <ele>81.1</ele>
        <time>2024-08-31T14:12:32.496Z</time>
      </trkpt>
      <trkpt lat="44.22034" lon="4.47896">
        <ele>81</ele>
        <time>2024-08-31T14:12:33.496Z</time>
      </trkpt>
      <trkpt lat="44.22034" lon="4.47894">
        <ele>81</ele>
        <time>2024-08-31T14:12:34.496Z</time>
      </trkpt>
      <trkpt lat="44.22034" lon="4.4789">
        <ele>81</ele>
        <time>2024-08-31T14:12:35.496Z</time>
      </trkpt>
      <trkpt lat="44.22034" lon="4.47889">
        <ele>81</ele>
        <time>2024-08-31T14:12:36.496Z</time>
      </trkpt>
      <trkpt lat="44.22032" lon="4.47884">
        <ele>81</ele>
        <time>2024-08-31T14:12:37.496Z</time>
      </trkpt>
      <trkpt lat="44.22031" lon="4.47883">
        <ele>81</ele>
        <time>2024-08-31T14:12:38.496Z</time>
      </trkpt>
      <trkpt lat="44.22029" lon="4.47879">
        <ele>80.9</ele>
        <time>2024-08-31T14:12:39.496Z</time>
      </trkpt>
      <trkpt lat="44.22028" lon="4.47878">
        <ele>80.9</ele>
        <time>2024-08-31T14:12:40.496Z</time>
      </trkpt>
      <trkpt lat="44.22025" lon="4.47875">
        <ele>80.9</ele>
        <time>2024-08-31T14:12:41.496Z</time>
      </trkpt>
      <trkpt lat="44.22024" lon="4.47875">
        <ele>80.9</ele>
        <time>2024-08-31T14:12:42.496Z</time>
      </trkpt>
      <trkpt lat="44.22023" lon="4.47874">
        <ele>80.8</ele>
        <time>2024-08-31T14:12:43.496Z</time>
      </trkpt>
      <trkpt lat="44.22021" lon="4.47873">
        <ele>80.8</ele>
        <time>2024-08-31T14:12:44.496Z</time>
      </trkpt>
      <trkpt lat="44.2202" lon="4.47871">
        <ele>80.8</ele>
        <time>2024-08-31T14:12:45.496Z</time>
      </trkpt>
      <trkpt lat="44.22019" lon="4.4787">
        <ele>80.8</ele>
        <time>2024-08-31T14:12:46.496Z</time>
      </trkpt>
      <trkpt lat="44.22017" lon="4.47868">
        <ele>80.8</ele>
        <time>2024-08-31T14:12:47.496Z</time>
      </trkpt>
      <trkpt lat="44.22016" lon="4.47867">
        <ele>80.8</ele>
        <time>2024-08-31T14:12:48.496Z</time>
      </trkpt>
      <trkpt lat="44.22013" lon="4.47864">
        <ele>80.7</ele>
        <time>2024-08-31T14:12:49.496Z</time>
      </trkpt>
      <trkpt lat="44.22013" lon="4.47863">
        <ele>80.7</ele>
        <time>2024-08-31T14:12:50.496Z</time>
      </trkpt>
      <trkpt lat="44.2201" lon="4.47861">
        <ele>80.7</ele>
        <time>2024-08-31T14:12:51.496Z</time>
      </trkpt>
      <trkpt lat="44.22009" lon="4.4786">
        <ele>80.7</ele>
        <time>2024-08-31T14:12:52.496Z</time>
      </trkpt>
      <trkpt lat="44.22007" lon="4.47857">
        <ele>80.7</ele>
        <time>2024-08-31T14:12:53.496Z</time>
      </trkpt>
      <trkpt lat="44.22006" lon="4.47856">
        <ele>80.7</ele>
        <time>2024-08-31T14:12:54.496Z</time>
      </trkpt>
      <trkpt lat="44.22003" lon="4.47854">
        <ele>80.7</ele>
        <time>2024-08-31T14:12:55.496Z</time>
      </trkpt>
      <trkpt lat="44.22003" lon="4.47853">
        <ele>80.7</ele>
        <time>2024-08-31T14:12:56.496Z</time>
      </trkpt>
      <trkpt lat="44.22" lon="4.47851">
        <ele>80.6</ele>
        <time>2024-08-31T14:12:57.496Z</time>
      </trkpt>
      <trkpt lat="44.21999" lon="4.4785">
        <ele>80.6</ele>
        <time>2024-08-31T14:12:58.496Z</time>
      </trkpt>
      <trkpt lat="44.21997" lon="4.47848">
        <ele>80.6</ele>
        <time>2024-08-31T14:12:59.496Z</time>
      </trkpt>
      <trkpt lat="44.21996" lon="4.47847">
        <ele>80.6</ele>
        <time>2024-08-31T14:13:00.496Z</time>
      </trkpt>
      <trkpt lat="44.21994" lon="4.47844">
        <ele>80.6</ele>
        <time>2024-08-31T14:13:01.496Z</time>
      </trkpt>
      <trkpt lat="44.21993" lon="4.47844">
        <ele>80.6</ele>
        <time>2024-08-31T14:13:02.496Z</time>
      </trkpt>
      <trkpt lat="44.21991" lon="4.47841">
        <ele>80.6</ele>
        <time>2024-08-31T14:13:03.496Z</time>
      </trkpt>
      <trkpt lat="44.21991" lon="4.4784">
        <ele>80.5</ele>
        <time>2024-08-31T14:13:04.496Z</time>
      </trkpt>
      <trkpt lat="44.21989" lon="4.47838">
        <ele>80.5</ele>
        <time>2024-08-31T14:13:05.496Z</time>
      </trkpt>
      <trkpt lat="44.21988" lon="4.47837">
        <ele>80.5</ele>
        <time>2024-08-31T14:13:06.496Z</time>
      </trkpt>
      <trkpt lat="44.21986" lon="4.47835">
        <ele>80.5</ele>
        <time>2024-08-31T14:13:07.496Z</time>
      </trkpt>
      <trkpt lat="44.21985" lon="4.47834">
        <ele>80.5</ele>
        <time>2024-08-31T14:13:08.496Z</time>
      </trkpt>
      <trkpt lat="44.21982" lon="4.47832">
        <ele>80.5</ele>
        <time>2024-08-31T14:13:09.496Z</time>
      </trkpt>
      <trkpt lat="44.21981" lon="4.47831">
        <ele>80.5</ele>
        <time>2024-08-31T14:13:10.496Z</time>
      </trkpt>
      <trkpt lat="44.21979" lon="4.47828">
        <ele>80.4</ele>
        <time>2024-08-31T14:13:11.496Z</time>
      </trkpt>
      <trkpt lat="44.21978" lon="4.47827">
        <ele>80.4</ele>
        <time>2024-08-31T14:13:12.496Z</time>
      </trkpt>
      <trkpt lat="44.21976" lon="4.47825">
        <ele>80.4</ele>
        <time>2024-08-31T14:13:13.496Z</time>
      </trkpt>
      <trkpt lat="44.21976" lon="4.47824">
        <ele>80.4</ele>
        <time>2024-08-31T14:13:14.496Z</time>
      </trkpt>
      <trkpt lat="44.21974" lon="4.47821">
        <ele>80.4</ele>
        <time>2024-08-31T14:13:15.496Z</time>
      </trkpt>
      <trkpt lat="44.21973" lon="4.4782">
        <ele>80.4</ele>
        <time>2024-08-31T14:13:16.496Z</time>
      </trkpt>
      <trkpt lat="44.21971" lon="4.47817">
        <ele>80.4</ele>
        <time>2024-08-31T14:13:17.496Z</time>
      </trkpt>
      <trkpt lat="44.2197" lon="4.47816">
        <ele>80.4</ele>
        <time>2024-08-31T14:13:18.496Z</time>
      </trkpt>
      <trkpt lat="44.21968" lon="4.47812">
        <ele>80.3</ele>
        <time>2024-08-31T14:13:19.496Z</time>
      </trkpt>
      <trkpt lat="44.21967" lon="4.47811">
        <ele>80.3</ele>
        <time>2024-08-31T14:13:20.496Z</time>
      </trkpt>
      <trkpt lat="44.21965" lon="4.47808">
        <ele>80.3</ele>
        <time>2024-08-31T14:13:21.496Z</time>
      </trkpt>
      <trkpt lat="44.21964" lon="4.47807">
        <ele>80.3</ele>
        <time>2024-08-31T14:13:22.496Z</time>
      </trkpt>
      <trkpt lat="44.21962" lon="4.47804">
        <ele>80.4</ele>
        <time>2024-08-31T14:13:23.496Z</time>
      </trkpt>
      <trkpt lat="44.21961" lon="4.47803">
        <ele>80.4</ele>
        <time>2024-08-31T14:13:24.496Z</time>
      </trkpt>
      <trkpt lat="44.21958" lon="4.478">
        <ele>80.4</ele>
        <time>2024-08-31T14:13:25.496Z</time>
      </trkpt>
      <trkpt lat="44.21958" lon="4.47799">
        <ele>80.4</ele>
        <time>2024-08-31T14:13:26.496Z</time>
      </trkpt>
      <trkpt lat="44.21955" lon="4.47797">
        <ele>80.4</ele>
        <time>2024-08-31T14:13:27.496Z</time>
      </trkpt>
      <trkpt lat="44.21955" lon="4.47796">
        <ele>80.4</ele>
        <time>2024-08-31T14:13:28.496Z</time>
      </trkpt>
      <trkpt lat="44.21952" lon="4.47792">
        <ele>80.5</ele>
        <time>2024-08-31T14:13:29.496Z</time>
      </trkpt>
      <trkpt lat="44.21952" lon="4.47791">
        <ele>80.5</ele>
        <time>2024-08-31T14:13:30.496Z</time>
      </trkpt>
      <trkpt lat="44.2195" lon="4.47788">
        <ele>80.5</ele>
        <time>2024-08-31T14:13:31.496Z</time>
      </trkpt>
      <trkpt lat="44.21949" lon="4.47787">
        <ele>80.5</ele>
        <time>2024-08-31T14:13:32.496Z</time>
      </trkpt>
      <trkpt lat="44.21949" lon="4.47786">
        <ele>80.6</ele>
        <time>2024-08-31T14:13:33.496Z</time>
      </trkpt>
      <trkpt lat="44.21948" lon="4.47784">
        <ele>80.6</ele>
        <time>2024-08-31T14:13:34.496Z</time>
      </trkpt>
      <trkpt lat="44.21946" lon="4.47782">
        <ele>80.6</ele>
        <time>2024-08-31T14:13:35.496Z</time>
      </trkpt>
      <trkpt lat="44.21945" lon="4.47782">
        <ele>80.6</ele>
        <time>2024-08-31T14:13:36.496Z</time>
      </trkpt>
      <trkpt lat="44.21944" lon="4.47781">
        <ele>80.6</ele>
        <time>2024-08-31T14:13:37.496Z</time>
      </trkpt>
      <trkpt lat="44.21944" lon="4.4778">
        <ele>80.7</ele>
        <time>2024-08-31T14:13:38.496Z</time>
      </trkpt>
      <trkpt lat="44.21943" lon="4.47779">
        <ele>80.7</ele>
        <time>2024-08-31T14:13:39.496Z</time>
      </trkpt>
      <trkpt lat="44.21942" lon="4.47779">
        <ele>80.7</ele>
        <time>2024-08-31T14:13:40.496Z</time>
      </trkpt>
      <trkpt lat="44.21942" lon="4.47778">
        <ele>80.7</ele>
        <time>2024-08-31T14:13:41.496Z</time>
      </trkpt>
      <trkpt lat="44.21942" lon="4.47778">
        <ele>80.7</ele>
        <time>2024-08-31T14:13:42.496Z</time>
      </trkpt>
      <trkpt lat="44.21942" lon="4.47778">
        <ele>80.7</ele>
        <time>2024-08-31T14:13:43.496Z</time>
      </trkpt>
      <trkpt lat="44.21942" lon="4.47778">
        <ele>80.7</ele>
        <time>2024-08-31T14:13:44.496Z</time>
      </trkpt>
      <trkpt lat="44.21942" lon="4.47778">
        <ele>80.7</ele>
        <time>2024-08-31T14:13:45.496Z</time>
      </trkpt>
      <trkpt lat="44.21941" lon="4.47777">
        <ele>80.7</ele>
        <time>2024-08-31T14:13:46.496Z</time>
      </trkpt>
      <trkpt lat="44.21941" lon="4.47776">
        <ele>80.7</ele>
        <time>2024-08-31T14:13:47.496Z</time>
      </trkpt>
      <trkpt lat="44.21941" lon="4.47776">
        <ele>80.7</ele>
        <time>2024-08-31T14:13:48.496Z</time>
      </trkpt>
      <trkpt lat="44.21941" lon="4.47776">
        <ele>80.8</ele>
        <time>2024-08-31T14:13:49.496Z</time>
      </trkpt>
      <trkpt lat="44.21941" lon="4.47776">
        <ele>80.8</ele>
        <time>2024-08-31T14:13:50.496Z</time>
      </trkpt>
      <trkpt lat="44.21941" lon="4.47776">
        <ele>80.8</ele>
        <time>2024-08-31T14:13:51.496Z</time>
      </trkpt>
      <trkpt lat="44.21941" lon="4.47776">
        <ele>80.8</ele>
        <time>2024-08-31T14:13:52.496Z</time>
      </trkpt>
      <trkpt lat="44.21942" lon="4.47776">
        <ele>80.8</ele>
        <time>2024-08-31T14:13:53.496Z</time>
      </trkpt>
      <trkpt lat="44.21942" lon="4.47776">
        <ele>80.8</ele>
        <time>2024-08-31T14:13:54.496Z</time>
      </trkpt>
      <trkpt lat="44.21941" lon="4.47776">
        <ele>80.8</ele>
        <time>2024-08-31T14:13:55.496Z</time>
      </trkpt>
      <trkpt lat="44.2194" lon="4.47775">
        <ele>80.8</ele>
        <time>2024-08-31T14:13:56.496Z</time>
      </trkpt>
      <trkpt lat="44.2194" lon="4.47775">
        <ele>80.8</ele>
        <time>2024-08-31T14:13:57.496Z</time>
      </trkpt>
      <trkpt lat="44.21938" lon="4.47773">
        <ele>80.9</ele>
        <time>2024-08-31T14:13:58.496Z</time>
      </trkpt>
      <trkpt lat="44.21937" lon="4.47772">
        <ele>80.9</ele>
        <time>2024-08-31T14:13:59.496Z</time>
      </trkpt>
      <trkpt lat="44.21936" lon="4.47771">
        <ele>80.9</ele>
        <time>2024-08-31T14:14:00.496Z</time>
      </trkpt>
      <trkpt lat="44.21934" lon="4.47768">
        <ele>81</ele>
        <time>2024-08-31T14:14:01.496Z</time>
      </trkpt>
      <trkpt lat="44.21933" lon="4.47767">
        <ele>81.1</ele>
        <time>2024-08-31T14:14:02.496Z</time>
      </trkpt>
      <trkpt lat="44.21932" lon="4.47765">
        <ele>81.1</ele>
        <time>2024-08-31T14:14:03.496Z</time>
      </trkpt>
      <trkpt lat="44.2193" lon="4.47764">
        <ele>81.2</ele>
        <time>2024-08-31T14:14:04.496Z</time>
      </trkpt>
      <trkpt lat="44.21929" lon="4.47762">
        <ele>81.2</ele>
        <time>2024-08-31T14:14:05.496Z</time>
      </trkpt>
      <trkpt lat="44.21928" lon="4.47761">
        <ele>81.3</ele>
        <time>2024-08-31T14:14:06.496Z</time>
      </trkpt>
      <trkpt lat="44.21927" lon="4.47759">
        <ele>81.3</ele>
        <time>2024-08-31T14:14:07.496Z</time>
      </trkpt>
      <trkpt lat="44.21925" lon="4.47758">
        <ele>81.4</ele>
        <time>2024-08-31T14:14:08.496Z</time>
      </trkpt>
      <trkpt lat="44.21923" lon="4.47757">
        <ele>81.5</ele>
        <time>2024-08-31T14:14:09.496Z</time>
      </trkpt>
      <trkpt lat="44.21922" lon="4.47756">
        <ele>81.5</ele>
        <time>2024-08-31T14:14:10.496Z</time>
      </trkpt>
      <trkpt lat="44.21921" lon="4.47755">
        <ele>81.6</ele>
        <time>2024-08-31T14:14:11.496Z</time>
      </trkpt>
      <trkpt lat="44.21919" lon="4.47754">
        <ele>81.6</ele>
        <time>2024-08-31T14:14:12.496Z</time>
      </trkpt>
      <trkpt lat="44.21918" lon="4.47755">
        <ele>81.7</ele>
        <time>2024-08-31T14:14:13.496Z</time>
      </trkpt>
      <trkpt lat="44.21916" lon="4.47755">
        <ele>81.7</ele>
        <time>2024-08-31T14:14:14.496Z</time>
      </trkpt>
      <trkpt lat="44.21913" lon="4.47755">
        <ele>81.8</ele>
        <time>2024-08-31T14:14:15.496Z</time>
      </trkpt>
      <trkpt lat="44.21912" lon="4.47754">
        <ele>81.9</ele>
        <time>2024-08-31T14:14:16.496Z</time>
      </trkpt>
      <trkpt lat="44.21911" lon="4.47753">
        <ele>82</ele>
        <time>2024-08-31T14:14:17.496Z</time>
      </trkpt>
      <trkpt lat="44.21909" lon="4.47752">
        <ele>82</ele>
        <time>2024-08-31T14:14:18.496Z</time>
      </trkpt>
      <trkpt lat="44.21909" lon="4.47751">
        <ele>82.1</ele>
        <time>2024-08-31T14:14:19.496Z</time>
      </trkpt>
      <trkpt lat="44.21908" lon="4.47751">
        <ele>82.1</ele>
        <time>2024-08-31T14:14:20.496Z</time>
      </trkpt>
      <trkpt lat="44.21907" lon="4.47751">
        <ele>82.1</ele>
        <time>2024-08-31T14:14:21.496Z</time>
      </trkpt>
      <trkpt lat="44.21907" lon="4.47751">
        <ele>82.1</ele>
        <time>2024-08-31T14:14:22.496Z</time>
      </trkpt>
      <trkpt lat="44.21907" lon="4.4775">
        <ele>82.1</ele>
        <time>2024-08-31T14:14:23.496Z</time>
      </trkpt>
      <trkpt lat="44.21907" lon="4.4775">
        <ele>82.2</ele>
        <time>2024-08-31T14:14:24.496Z</time>
      </trkpt>
      <trkpt lat="44.21906" lon="4.4775">
        <ele>82.2</ele>
        <time>2024-08-31T14:14:25.496Z</time>
      </trkpt>
      <trkpt lat="44.21906" lon="4.4775">
        <ele>82.2</ele>
        <time>2024-08-31T14:14:26.496Z</time>
      </trkpt>
      <trkpt lat="44.21906" lon="4.47749">
        <ele>82.2</ele>
        <time>2024-08-31T14:14:27.496Z</time>
      </trkpt>
      <trkpt lat="44.21906" lon="4.47749">
        <ele>82.2</ele>
        <time>2024-08-31T14:14:28.496Z</time>
      </trkpt>
      <trkpt lat="44.21906" lon="4.47748">
        <ele>82.2</ele>
        <time>2024-08-31T14:14:29.496Z</time>
      </trkpt>
      <trkpt lat="44.21906" lon="4.47748">
        <ele>82.2</ele>
        <time>2024-08-31T14:14:30.496Z</time>
      </trkpt>
      <trkpt lat="44.21906" lon="4.47748">
        <ele>82.2</ele>
        <time>2024-08-31T14:14:31.496Z</time>
      </trkpt>
      <trkpt lat="44.21906" lon="4.47748">
        <ele>82.2</ele>
        <time>2024-08-31T14:14:32.496Z</time>
      </trkpt>
      <trkpt lat="44.21906" lon="4.47748">
        <ele>82.2</ele>
        <time>2024-08-31T14:14:33.496Z</time>
      </trkpt>
      <trkpt lat="44.21905" lon="4.47747">
        <ele>82.3</ele>
        <time>2024-08-31T14:14:34.496Z</time>
      </trkpt>
      <trkpt lat="44.21905" lon="4.47746">
        <ele>82.3</ele>
        <time>2024-08-31T14:14:35.496Z</time>
      </trkpt>
      <trkpt lat="44.21904" lon="4.47745">
        <ele>82.4</ele>
        <time>2024-08-31T14:14:36.496Z</time>
      </trkpt>
      <trkpt lat="44.21902" lon="4.47744">
        <ele>82.4</ele>
        <time>2024-08-31T14:14:37.496Z</time>
      </trkpt>
      <trkpt lat="44.21901" lon="4.47743">
        <ele>82.4</ele>
        <time>2024-08-31T14:14:38.496Z</time>
      </trkpt>
      <trkpt lat="44.219" lon="4.47742">
        <ele>82.4</ele>
        <time>2024-08-31T14:14:39.496Z</time>
      </trkpt>
      <trkpt lat="44.21899" lon="4.47741">
        <ele>82.4</ele>
        <time>2024-08-31T14:14:40.496Z</time>
      </trkpt>
      <trkpt lat="44.21897" lon="4.47741">
        <ele>82.5</ele>
        <time>2024-08-31T14:14:41.496Z</time>
      </trkpt>
      <trkpt lat="44.21897" lon="4.47741">
        <ele>82.5</ele>
        <time>2024-08-31T14:14:42.496Z</time>
      </trkpt>
      <trkpt lat="44.21896" lon="4.47741">
        <ele>82.5</ele>
        <time>2024-08-31T14:14:43.496Z</time>
      </trkpt>
      <trkpt lat="44.21894" lon="4.4774">
        <ele>82.5</ele>
        <time>2024-08-31T14:14:44.496Z</time>
      </trkpt>
      <trkpt lat="44.21893" lon="4.47737">
        <ele>82.5</ele>
        <time>2024-08-31T14:14:45.496Z</time>
      </trkpt>
      <trkpt lat="44.21892" lon="4.47735">
        <ele>82.5</ele>
        <time>2024-08-31T14:14:46.496Z</time>
      </trkpt>
      <trkpt lat="44.21891" lon="4.47733">
        <ele>82.6</ele>
        <time>2024-08-31T14:14:47.496Z</time>
      </trkpt>
      <trkpt lat="44.21891" lon="4.47732">
        <ele>82.6</ele>
        <time>2024-08-31T14:14:48.496Z</time>
      </trkpt>
      <trkpt lat="44.2189" lon="4.4773">
        <ele>82.6</ele>
        <time>2024-08-31T14:14:49.496Z</time>
      </trkpt>
      <trkpt lat="44.21889" lon="4.47729">
        <ele>82.6</ele>
        <time>2024-08-31T14:14:50.496Z</time>
      </trkpt>
      <trkpt lat="44.21888" lon="4.47729">
        <ele>82.6</ele>
        <time>2024-08-31T14:14:51.496Z</time>
      </trkpt>
      <trkpt lat="44.21887" lon="4.4773">
        <ele>82.7</ele>
        <time>2024-08-31T14:14:52.496Z</time>
      </trkpt>
      <trkpt lat="44.21887" lon="4.47731">
        <ele>82.7</ele>
        <time>2024-08-31T14:14:53.496Z</time>
      </trkpt>
      <trkpt lat="44.21887" lon="4.47733">
        <ele>82.8</ele>
        <time>2024-08-31T14:14:54.496Z</time>
      </trkpt>
      <trkpt lat="44.21886" lon="4.47735">
        <ele>82.8</ele>
        <time>2024-08-31T14:14:55.496Z</time>
      </trkpt>
      <trkpt lat="44.21887" lon="4.47739">
        <ele>82.9</ele>
        <time>2024-08-31T14:14:56.496Z</time>
      </trkpt>
      <trkpt lat="44.21888" lon="4.4774">
        <ele>82.9</ele>
        <time>2024-08-31T14:14:57.496Z</time>
      </trkpt>
      <trkpt lat="44.21889" lon="4.47744">
        <ele>83</ele>
        <time>2024-08-31T14:14:58.496Z</time>
      </trkpt>
      <trkpt lat="44.21889" lon="4.47745">
        <ele>83.1</ele>
        <time>2024-08-31T14:14:59.496Z</time>
      </trkpt>
      <trkpt lat="44.2189" lon="4.47748">
        <ele>83.1</ele>
        <time>2024-08-31T14:15:00.496Z</time>
      </trkpt>
      <trkpt lat="44.2189" lon="4.47749">
        <ele>83.3</ele>
        <time>2024-08-31T14:15:01.496Z</time>
      </trkpt>
      <trkpt lat="44.2189" lon="4.4775">
        <ele>83.3</ele>
        <time>2024-08-31T14:15:02.496Z</time>
      </trkpt>
      <trkpt lat="44.2189" lon="4.47753">
        <ele>83.3</ele>
        <time>2024-08-31T14:15:03.496Z</time>
      </trkpt>
      <trkpt lat="44.21891" lon="4.47755">
        <ele>83.5</ele>
        <time>2024-08-31T14:15:04.496Z</time>
      </trkpt>
      <trkpt lat="44.2189" lon="4.47757">
        <ele>83.8</ele>
        <time>2024-08-31T14:15:05.496Z</time>
      </trkpt>
      <trkpt lat="44.2189" lon="4.47759">
        <ele>83.8</ele>
        <time>2024-08-31T14:15:06.496Z</time>
      </trkpt>
      <trkpt lat="44.2189" lon="4.4776">
        <ele>83.8</ele>
        <time>2024-08-31T14:15:07.496Z</time>
      </trkpt>
      <trkpt lat="44.2189" lon="4.47762">
        <ele>84.1</ele>
        <time>2024-08-31T14:15:08.496Z</time>
      </trkpt>
      <trkpt lat="44.21889" lon="4.47763">
        <ele>84</ele>
        <time>2024-08-31T14:15:09.496Z</time>
      </trkpt>
      <trkpt lat="44.21889" lon="4.47764">
        <ele>84</ele>
        <time>2024-08-31T14:15:10.496Z</time>
      </trkpt>
      <trkpt lat="44.21888" lon="4.47764">
        <ele>84</ele>
        <time>2024-08-31T14:15:11.496Z</time>
      </trkpt>
      <trkpt lat="44.21887" lon="4.47763">
        <ele>83.7</ele>
        <time>2024-08-31T14:15:12.496Z</time>
      </trkpt>
      <trkpt lat="44.21886" lon="4.47762">
        <ele>83.7</ele>
        <time>2024-08-31T14:15:13.496Z</time>
      </trkpt>
      <trkpt lat="44.21886" lon="4.47761">
        <ele>83.5</ele>
        <time>2024-08-31T14:15:14.496Z</time>
      </trkpt>
      <trkpt lat="44.21886" lon="4.4776">
        <ele>83.4</ele>
        <time>2024-08-31T14:15:15.496Z</time>
      </trkpt>
      <trkpt lat="44.21885" lon="4.47759">
        <ele>83.4</ele>
        <time>2024-08-31T14:15:16.496Z</time>
      </trkpt>
      <trkpt lat="44.21884" lon="4.47758">
        <ele>83.2</ele>
        <time>2024-08-31T14:15:17.496Z</time>
      </trkpt>
      <trkpt lat="44.21883" lon="4.47757">
        <ele>83</ele>
        <time>2024-08-31T14:15:18.496Z</time>
      </trkpt>
      <trkpt lat="44.21882" lon="4.47756">
        <ele>83</ele>
        <time>2024-08-31T14:15:19.496Z</time>
      </trkpt>
      <trkpt lat="44.21881" lon="4.47756">
        <ele>82.8</ele>
        <time>2024-08-31T14:15:20.496Z</time>
      </trkpt>
      <trkpt lat="44.2188" lon="4.47756">
        <ele>82.7</ele>
        <time>2024-08-31T14:15:21.496Z</time>
      </trkpt>
      <trkpt lat="44.21879" lon="4.47756">
        <ele>82.7</ele>
        <time>2024-08-31T14:15:22.496Z</time>
      </trkpt>
      <trkpt lat="44.21879" lon="4.47755">
        <ele>82.7</ele>
        <time>2024-08-31T14:15:23.496Z</time>
      </trkpt>
      <trkpt lat="44.21878" lon="4.47755">
        <ele>82.5</ele>
        <time>2024-08-31T14:15:24.496Z</time>
      </trkpt>
      <trkpt lat="44.21877" lon="4.47757">
        <ele>82.7</ele>
        <time>2024-08-31T14:15:25.496Z</time>
      </trkpt>
      <trkpt lat="44.21876" lon="4.47758">
        <ele>82.6</ele>
        <time>2024-08-31T14:15:26.496Z</time>
      </trkpt>
      <trkpt lat="44.21875" lon="4.47759">
        <ele>82.5</ele>
        <time>2024-08-31T14:15:27.496Z</time>
      </trkpt>
      <trkpt lat="44.21874" lon="4.47761">
        <ele>82.5</ele>
        <time>2024-08-31T14:15:28.496Z</time>
      </trkpt>
      <trkpt lat="44.21873" lon="4.47762">
        <ele>82.7</ele>
        <time>2024-08-31T14:15:29.496Z</time>
      </trkpt>
      <trkpt lat="44.21871" lon="4.47763">
        <ele>82.5</ele>
        <time>2024-08-31T14:15:30.496Z</time>
      </trkpt>
      <trkpt lat="44.21869" lon="4.47762">
        <ele>82.5</ele>
        <time>2024-08-31T14:15:31.496Z</time>
      </trkpt>
      <trkpt lat="44.21868" lon="4.47761">
        <ele>82.3</ele>
        <time>2024-08-31T14:15:32.496Z</time>
      </trkpt>
      <trkpt lat="44.21867" lon="4.47759">
        <ele>82.3</ele>
        <time>2024-08-31T14:15:33.496Z</time>
      </trkpt>
      <trkpt lat="44.21866" lon="4.47758">
        <ele>82.3</ele>
        <time>2024-08-31T14:15:34.496Z</time>
      </trkpt>
      <trkpt lat="44.21866" lon="4.47758">
        <ele>82.3</ele>
        <time>2024-08-31T14:15:35.496Z</time>
      </trkpt>
      <trkpt lat="44.21866" lon="4.47759">
        <ele>82.3</ele>
        <time>2024-08-31T14:15:36.496Z</time>
      </trkpt>
      <trkpt lat="44.21866" lon="4.47761">
        <ele>82.3</ele>
        <time>2024-08-31T14:15:37.496Z</time>
      </trkpt>
      <trkpt lat="44.21866" lon="4.47762">
        <ele>82.4</ele>
        <time>2024-08-31T14:15:38.496Z</time>
      </trkpt>
      <trkpt lat="44.21866" lon="4.47764">
        <ele>82.4</ele>
        <time>2024-08-31T14:15:39.496Z</time>
      </trkpt>
      <trkpt lat="44.21865" lon="4.47764">
        <ele>82.4</ele>
        <time>2024-08-31T14:15:40.496Z</time>
      </trkpt>
      <trkpt lat="44.21866" lon="4.47764">
        <ele>82.4</ele>
        <time>2024-08-31T14:15:41.496Z</time>
      </trkpt>
      <trkpt lat="44.21866" lon="4.47765">
        <ele>82.4</ele>
        <time>2024-08-31T14:15:42.496Z</time>
      </trkpt>
      <trkpt lat="44.21866" lon="4.47765">
        <ele>82.4</ele>
        <time>2024-08-31T14:15:43.496Z</time>
      </trkpt>
      <trkpt lat="44.21865" lon="4.47766">
        <ele>82.7</ele>
        <time>2024-08-31T14:15:44.496Z</time>
      </trkpt>
      <trkpt lat="44.21865" lon="4.47767">
        <ele>82.7</ele>
        <time>2024-08-31T14:15:45.496Z</time>
      </trkpt>
      <trkpt lat="44.21865" lon="4.47767">
        <ele>82.6</ele>
        <time>2024-08-31T14:15:46.496Z</time>
      </trkpt>
      <trkpt lat="44.21865" lon="4.47769">
        <ele>82.6</ele>
        <time>2024-08-31T14:15:47.496Z</time>
      </trkpt>
      <trkpt lat="44.21865" lon="4.47769">
        <ele>82.6</ele>
        <time>2024-08-31T14:15:48.496Z</time>
      </trkpt>
      <trkpt lat="44.21866" lon="4.4777">
        <ele>82.6</ele>
        <time>2024-08-31T14:15:49.496Z</time>
      </trkpt>
      <trkpt lat="44.21867" lon="4.47771">
        <ele>83</ele>
        <time>2024-08-31T14:15:50.496Z</time>
      </trkpt>
      <trkpt lat="44.21867" lon="4.47772">
        <ele>83</ele>
        <time>2024-08-31T14:15:51.496Z</time>
      </trkpt>
      <trkpt lat="44.21868" lon="4.47772">
        <ele>83</ele>
        <time>2024-08-31T14:15:52.496Z</time>
      </trkpt>
      <trkpt lat="44.2187" lon="4.47773">
        <ele>83.1</ele>
        <time>2024-08-31T14:15:53.496Z</time>
      </trkpt>
      <trkpt lat="44.21871" lon="4.47774">
        <ele>83.1</ele>
        <time>2024-08-31T14:15:54.496Z</time>
      </trkpt>
      <trkpt lat="44.21872" lon="4.47776">
        <ele>83.5</ele>
        <time>2024-08-31T14:15:55.496Z</time>
      </trkpt>
      <trkpt lat="44.21874" lon="4.4778">
        <ele>84.2</ele>
        <time>2024-08-31T14:15:56.496Z</time>
      </trkpt>
      <trkpt lat="44.21874" lon="4.47781">
        <ele>84.2</ele>
        <time>2024-08-31T14:15:57.496Z</time>
      </trkpt>
      <trkpt lat="44.21875" lon="4.47783">
        <ele>84.2</ele>
        <time>2024-08-31T14:15:58.496Z</time>
      </trkpt>
      <trkpt lat="44.21875" lon="4.47785">
        <ele>84.7</ele>
        <time>2024-08-31T14:15:59.496Z</time>
      </trkpt>
      <trkpt lat="44.21875" lon="4.47786">
        <ele>84.7</ele>
        <time>2024-08-31T14:16:00.496Z</time>
      </trkpt>
      <trkpt lat="44.21875" lon="4.47788">
        <ele>85</ele>
        <time>2024-08-31T14:16:01.496Z</time>
      </trkpt>
      <trkpt lat="44.21875" lon="4.47788">
        <ele>85</ele>
        <time>2024-08-31T14:16:02.496Z</time>
      </trkpt>
      <trkpt lat="44.21873" lon="4.47788">
        <ele>85</ele>
        <time>2024-08-31T14:16:03.496Z</time>
      </trkpt>
      <trkpt lat="44.21872" lon="4.47787">
        <ele>84.4</ele>
        <time>2024-08-31T14:16:04.496Z</time>
      </trkpt>
      <trkpt lat="44.21871" lon="4.47787">
        <ele>84.4</ele>
        <time>2024-08-31T14:16:05.496Z</time>
      </trkpt>
      <trkpt lat="44.21869" lon="4.47788">
        <ele>84.5</ele>
        <time>2024-08-31T14:16:06.496Z</time>
      </trkpt>
      <trkpt lat="44.21869" lon="4.47789">
        <ele>84.5</ele>
        <time>2024-08-31T14:16:07.496Z</time>
      </trkpt>
      <trkpt lat="44.21868" lon="4.4779">
        <ele>84.5</ele>
        <time>2024-08-31T14:16:08.496Z</time>
      </trkpt>
      <trkpt lat="44.21866" lon="4.47791">
        <ele>84.1</ele>
        <time>2024-08-31T14:16:09.496Z</time>
      </trkpt>
      <trkpt lat="44.21865" lon="4.47792">
        <ele>84.4</ele>
        <time>2024-08-31T14:16:10.496Z</time>
      </trkpt>
      <trkpt lat="44.21864" lon="4.47792">
        <ele>84.4</ele>
        <time>2024-08-31T14:16:11.496Z</time>
      </trkpt>
      <trkpt lat="44.21863" lon="4.47793">
        <ele>84.1</ele>
        <time>2024-08-31T14:16:12.496Z</time>
      </trkpt>
      <trkpt lat="44.21862" lon="4.47794">
        <ele>84.1</ele>
        <time>2024-08-31T14:16:13.496Z</time>
      </trkpt>
      <trkpt lat="44.2186" lon="4.47795">
        <ele>83.7</ele>
        <time>2024-08-31T14:16:14.496Z</time>
      </trkpt>
      <trkpt lat="44.21859" lon="4.47796">
        <ele>84.1</ele>
        <time>2024-08-31T14:16:15.496Z</time>
      </trkpt>
      <trkpt lat="44.21858" lon="4.47797">
        <ele>84.1</ele>
        <time>2024-08-31T14:16:16.496Z</time>
      </trkpt>
      <trkpt lat="44.21858" lon="4.47798">
        <ele>84</ele>
        <time>2024-08-31T14:16:17.496Z</time>
      </trkpt>
      <trkpt lat="44.21857" lon="4.478">
        <ele>84.1</ele>
        <time>2024-08-31T14:16:18.496Z</time>
      </trkpt>
      <trkpt lat="44.21857" lon="4.47802">
        <ele>84.4</ele>
        <time>2024-08-31T14:16:19.496Z</time>
      </trkpt>
      <trkpt lat="44.21858" lon="4.47805">
        <ele>84.7</ele>
        <time>2024-08-31T14:16:20.496Z</time>
      </trkpt>
      <trkpt lat="44.21858" lon="4.47807">
        <ele>84.7</ele>
        <time>2024-08-31T14:16:21.496Z</time>
      </trkpt>
      <trkpt lat="44.21858" lon="4.4781">
        <ele>85</ele>
        <time>2024-08-31T14:16:22.496Z</time>
      </trkpt>
      <trkpt lat="44.21856" lon="4.47813">
        <ele>84.9</ele>
        <time>2024-08-31T14:16:23.496Z</time>
      </trkpt>
      <trkpt lat="44.21855" lon="4.47814">
        <ele>85.2</ele>
        <time>2024-08-31T14:16:24.496Z</time>
      </trkpt>
      <trkpt lat="44.21852" lon="4.47815">
        <ele>85.1</ele>
        <time>2024-08-31T14:16:25.496Z</time>
      </trkpt>
      <trkpt lat="44.21851" lon="4.47814">
        <ele>85.1</ele>
        <time>2024-08-31T14:16:26.496Z</time>
      </trkpt>
      <trkpt lat="44.21849" lon="4.47814">
        <ele>84.9</ele>
        <time>2024-08-31T14:16:27.496Z</time>
      </trkpt>
      <trkpt lat="44.21849" lon="4.47813">
        <ele>84.5</ele>
        <time>2024-08-31T14:16:28.496Z</time>
      </trkpt>
      <trkpt lat="44.21848" lon="4.47812">
        <ele>84.5</ele>
        <time>2024-08-31T14:16:29.496Z</time>
      </trkpt>
      <trkpt lat="44.21847" lon="4.4781">
        <ele>84.3</ele>
        <time>2024-08-31T14:16:30.496Z</time>
      </trkpt>
      <trkpt lat="44.21846" lon="4.47809">
        <ele>84.3</ele>
        <time>2024-08-31T14:16:31.496Z</time>
      </trkpt>
      <trkpt lat="44.21845" lon="4.47808">
        <ele>83.8</ele>
        <time>2024-08-31T14:16:32.496Z</time>
      </trkpt>
      <trkpt lat="44.21844" lon="4.47808">
        <ele>83.6</ele>
        <time>2024-08-31T14:16:33.496Z</time>
      </trkpt>
      <trkpt lat="44.21843" lon="4.47807">
        <ele>83.6</ele>
        <time>2024-08-31T14:16:34.496Z</time>
      </trkpt>
      <trkpt lat="44.21842" lon="4.47806">
        <ele>83.6</ele>
        <time>2024-08-31T14:16:35.496Z</time>
      </trkpt>
      <trkpt lat="44.21841" lon="4.47806">
        <ele>83.3</ele>
        <time>2024-08-31T14:16:36.496Z</time>
      </trkpt>
      <trkpt lat="44.21839" lon="4.47806">
        <ele>83.3</ele>
        <time>2024-08-31T14:16:37.496Z</time>
      </trkpt>
      <trkpt lat="44.21838" lon="4.47807">
        <ele>83.1</ele>
        <time>2024-08-31T14:16:38.496Z</time>
      </trkpt>
      <trkpt lat="44.21837" lon="4.47809">
        <ele>83.1</ele>
        <time>2024-08-31T14:16:39.496Z</time>
      </trkpt>
      <trkpt lat="44.21836" lon="4.4781">
        <ele>83.5</ele>
        <time>2024-08-31T14:16:40.496Z</time>
      </trkpt>
      <trkpt lat="44.21836" lon="4.47811">
        <ele>83.5</ele>
        <time>2024-08-31T14:16:41.496Z</time>
      </trkpt>
      <trkpt lat="44.21836" lon="4.47811">
        <ele>83.5</ele>
        <time>2024-08-31T14:16:42.496Z</time>
      </trkpt>
      <trkpt lat="44.21836" lon="4.47811">
        <ele>83.5</ele>
        <time>2024-08-31T14:16:43.496Z</time>
      </trkpt>
      <trkpt lat="44.21836" lon="4.47811">
        <ele>83.5</ele>
        <time>2024-08-31T14:16:44.496Z</time>
      </trkpt>
      <trkpt lat="44.21836" lon="4.47811">
        <ele>83.4</ele>
        <time>2024-08-31T14:16:45.496Z</time>
      </trkpt>
      <trkpt lat="44.21836" lon="4.47811">
        <ele>83.4</ele>
        <time>2024-08-31T14:16:46.496Z</time>
      </trkpt>
      <trkpt lat="44.21836" lon="4.47812">
        <ele>83.4</ele>
        <time>2024-08-31T14:16:47.496Z</time>
      </trkpt>
      <trkpt lat="44.21835" lon="4.47812">
        <ele>83.2</ele>
        <time>2024-08-31T14:16:48.496Z</time>
      </trkpt>
      <trkpt lat="44.21834" lon="4.47813">
        <ele>83.2</ele>
        <time>2024-08-31T14:16:49.496Z</time>
      </trkpt>
      <trkpt lat="44.21834" lon="4.47814">
        <ele>83.4</ele>
        <time>2024-08-31T14:16:50.496Z</time>
      </trkpt>
      <trkpt lat="44.21833" lon="4.47815">
        <ele>83.4</ele>
        <time>2024-08-31T14:16:51.496Z</time>
      </trkpt>
      <trkpt lat="44.21834" lon="4.47814">
        <ele>83.4</ele>
        <time>2024-08-31T14:16:52.496Z</time>
      </trkpt>
      <trkpt lat="44.21834" lon="4.47814">
        <ele>83.4</ele>
        <time>2024-08-31T14:16:53.496Z</time>
      </trkpt>
      <trkpt lat="44.21833" lon="4.47814">
        <ele>83.4</ele>
        <time>2024-08-31T14:16:54.496Z</time>
      </trkpt>
      <trkpt lat="44.21833" lon="4.47814">
        <ele>83.4</ele>
        <time>2024-08-31T14:16:55.496Z</time>
      </trkpt>
      <trkpt lat="44.21833" lon="4.47814">
        <ele>83.4</ele>
        <time>2024-08-31T14:16:56.496Z</time>
      </trkpt>
      <trkpt lat="44.21833" lon="4.47814">
        <ele>83.4</ele>
        <time>2024-08-31T14:16:57.496Z</time>
      </trkpt>
      <trkpt lat="44.21833" lon="4.47814">
        <ele>83.4</ele>
        <time>2024-08-31T14:16:58.496Z</time>
      </trkpt>
      <trkpt lat="44.21833" lon="4.47814">
        <ele>83.4</ele>
        <time>2024-08-31T14:16:59.496Z</time>
      </trkpt>
      <trkpt lat="44.21833" lon="4.47814">
        <ele>83.4</ele>
        <time>2024-08-31T14:17:00.496Z</time>
      </trkpt>
      <trkpt lat="44.21832" lon="4.47814">
        <ele>83.1</ele>
        <time>2024-08-31T14:17:01.496Z</time>
      </trkpt>
      <trkpt lat="44.21832" lon="4.47814">
        <ele>83.1</ele>
        <time>2024-08-31T14:17:02.496Z</time>
      </trkpt>
      <trkpt lat="44.21831" lon="4.47814">
        <ele>83.1</ele>
        <time>2024-08-31T14:17:03.496Z</time>
      </trkpt>
      <trkpt lat="44.21831" lon="4.47815">
        <ele>83.1</ele>
        <time>2024-08-31T14:17:04.496Z</time>
      </trkpt>
      <trkpt lat="44.2183" lon="4.47815">
        <ele>83</ele>
        <time>2024-08-31T14:17:05.496Z</time>
      </trkpt>
      <trkpt lat="44.21829" lon="4.47815">
        <ele>82.7</ele>
        <time>2024-08-31T14:17:06.496Z</time>
      </trkpt>
      <trkpt lat="44.21827" lon="4.47816">
        <ele>82.7</ele>
        <time>2024-08-31T14:17:07.496Z</time>
      </trkpt>
      <trkpt lat="44.21823" lon="4.47817">
        <ele>82.5</ele>
        <time>2024-08-31T14:17:08.496Z</time>
      </trkpt>
      <trkpt lat="44.21822" lon="4.47818">
        <ele>82.4</ele>
        <time>2024-08-31T14:17:09.496Z</time>
      </trkpt>
      <trkpt lat="44.21818" lon="4.47819">
        <ele>82.2</ele>
        <time>2024-08-31T14:17:10.496Z</time>
      </trkpt>
      <trkpt lat="44.21815" lon="4.47822">
        <ele>82.3</ele>
        <time>2024-08-31T14:17:11.496Z</time>
      </trkpt>
      <trkpt lat="44.2181" lon="4.47826">
        <ele>82.4</ele>
        <time>2024-08-31T14:17:12.496Z</time>
      </trkpt>
      <trkpt lat="44.21805" lon="4.4783">
        <ele>82.3</ele>
        <time>2024-08-31T14:17:13.496Z</time>
      </trkpt>
      <trkpt lat="44.21801" lon="4.47834">
        <ele>82.3</ele>
        <time>2024-08-31T14:17:14.496Z</time>
      </trkpt>
      <trkpt lat="44.21799" lon="4.47837">
        <ele>82.2</ele>
        <time>2024-08-31T14:17:15.496Z</time>
      </trkpt>
      <trkpt lat="44.21796" lon="4.4784">
        <ele>82.3</ele>
        <time>2024-08-31T14:17:16.496Z</time>
      </trkpt>
      <trkpt lat="44.21793" lon="4.47842">
        <ele>82.1</ele>
        <time>2024-08-31T14:17:17.496Z</time>
      </trkpt>
      <trkpt lat="44.21792" lon="4.47843">
        <ele>82.1</ele>
        <time>2024-08-31T14:17:18.496Z</time>
      </trkpt>
      <trkpt lat="44.21792" lon="4.47843">
        <ele>82</ele>
        <time>2024-08-31T14:17:19.496Z</time>
      </trkpt>
      <trkpt lat="44.21792" lon="4.47844">
        <ele>82</ele>
        <time>2024-08-31T14:17:20.496Z</time>
      </trkpt>
      <trkpt lat="44.21793" lon="4.47844">
        <ele>82.2</ele>
        <time>2024-08-31T14:17:21.496Z</time>
      </trkpt>
      <trkpt lat="44.21793" lon="4.47845">
        <ele>82.2</ele>
        <time>2024-08-31T14:17:22.496Z</time>
      </trkpt>
      <trkpt lat="44.21793" lon="4.47846">
        <ele>82.2</ele>
        <time>2024-08-31T14:17:23.496Z</time>
      </trkpt>
      <trkpt lat="44.21793" lon="4.47847">
        <ele>82.2</ele>
        <time>2024-08-31T14:17:24.496Z</time>
      </trkpt>
      <trkpt lat="44.21793" lon="4.47848">
        <ele>82.4</ele>
        <time>2024-08-31T14:17:25.496Z</time>
      </trkpt>
      <trkpt lat="44.21793" lon="4.4785">
        <ele>82.4</ele>
        <time>2024-08-31T14:17:26.496Z</time>
      </trkpt>
      <trkpt lat="44.21792" lon="4.47851">
        <ele>82.4</ele>
        <time>2024-08-31T14:17:27.496Z</time>
      </trkpt>
      <trkpt lat="44.21792" lon="4.47852">
        <ele>82.5</ele>
        <time>2024-08-31T14:17:28.496Z</time>
      </trkpt>
      <trkpt lat="44.21792" lon="4.47853">
        <ele>82.7</ele>
        <time>2024-08-31T14:17:29.496Z</time>
      </trkpt>
      <trkpt lat="44.21792" lon="4.47853">
        <ele>82.5</ele>
        <time>2024-08-31T14:17:30.496Z</time>
      </trkpt>
      <trkpt lat="44.21792" lon="4.47853">
        <ele>82.5</ele>
        <time>2024-08-31T14:17:31.496Z</time>
      </trkpt>
      <trkpt lat="44.21791" lon="4.47853">
        <ele>82.5</ele>
        <time>2024-08-31T14:17:32.496Z</time>
      </trkpt>
      <trkpt lat="44.21791" lon="4.47853">
        <ele>82.5</ele>
        <time>2024-08-31T14:17:33.496Z</time>
      </trkpt>
      <trkpt lat="44.21791" lon="4.47853">
        <ele>82.5</ele>
        <time>2024-08-31T14:17:34.496Z</time>
      </trkpt>
      <trkpt lat="44.21791" lon="4.47853">
        <ele>82.5</ele>
        <time>2024-08-31T14:17:35.496Z</time>
      </trkpt>
      <trkpt lat="44.21791" lon="4.47853">
        <ele>82.5</ele>
        <time>2024-08-31T14:17:36.496Z</time>
      </trkpt>
      <trkpt lat="44.21791" lon="4.47853">
        <ele>82.5</ele>
        <time>2024-08-31T14:17:37.496Z</time>
      </trkpt>
      <trkpt lat="44.21791" lon="4.47853">
        <ele>82.5</ele>
        <time>2024-08-31T14:17:38.496Z</time>
      </trkpt>
      <trkpt lat="44.21791" lon="4.47853">
        <ele>82.5</ele>
        <time>2024-08-31T14:17:39.496Z</time>
      </trkpt>
      <trkpt lat="44.2179" lon="4.47854">
        <ele>82.5</ele>
        <time>2024-08-31T14:17:41.496Z</time>
      </trkpt>
      <trkpt lat="44.2179" lon="4.47856">
        <ele>82.5</ele>
        <time>2024-08-31T14:17:42.496Z</time>
      </trkpt>
      <trkpt lat="44.21789" lon="4.47857">
        <ele>82.9</ele>
        <time>2024-08-31T14:17:43.496Z</time>
      </trkpt>
      <trkpt lat="44.21789" lon="4.47857">
        <ele>82.7</ele>
        <time>2024-08-31T14:17:44.496Z</time>
      </trkpt>
      <trkpt lat="44.21789" lon="4.47858">
        <ele>82.7</ele>
        <time>2024-08-31T14:17:45.496Z</time>
      </trkpt>
      <trkpt lat="44.21789" lon="4.47859">
        <ele>82.6</ele>
        <time>2024-08-31T14:17:46.496Z</time>
      </trkpt>
      <trkpt lat="44.21789" lon="4.4786">
        <ele>82.8</ele>
        <time>2024-08-31T14:17:47.496Z</time>
      </trkpt>
      <trkpt lat="44.21789" lon="4.4786">
        <ele>82.8</ele>
        <time>2024-08-31T14:17:48.496Z</time>
      </trkpt>
      <trkpt lat="44.2179" lon="4.4786">
        <ele>82.8</ele>
        <time>2024-08-31T14:17:49.496Z</time>
      </trkpt>
      <trkpt lat="44.2179" lon="4.4786">
        <ele>82.8</ele>
        <time>2024-08-31T14:17:50.496Z</time>
      </trkpt>
      <trkpt lat="44.2179" lon="4.4786">
        <ele>82.8</ele>
        <time>2024-08-31T14:17:51.496Z</time>
      </trkpt>
      <trkpt lat="44.2179" lon="4.4786">
        <ele>82.8</ele>
        <time>2024-08-31T14:17:52.496Z</time>
      </trkpt>
      <trkpt lat="44.2179" lon="4.47859">
        <ele>82.8</ele>
        <time>2024-08-31T14:17:53.496Z</time>
      </trkpt>
      <trkpt lat="44.2179" lon="4.47859">
        <ele>82.8</ele>
        <time>2024-08-31T14:17:54.496Z</time>
      </trkpt>
      <trkpt lat="44.21789" lon="4.47859">
        <ele>82.6</ele>
        <time>2024-08-31T14:17:55.496Z</time>
      </trkpt>
      <trkpt lat="44.21788" lon="4.47859">
        <ele>82.6</ele>
        <time>2024-08-31T14:17:56.496Z</time>
      </trkpt>
      <trkpt lat="44.21788" lon="4.47859">
        <ele>82.6</ele>
        <time>2024-08-31T14:17:57.496Z</time>
      </trkpt>
      <trkpt lat="44.21788" lon="4.4786">
        <ele>83</ele>
        <time>2024-08-31T14:17:58.496Z</time>
      </trkpt>
      <trkpt lat="44.21787" lon="4.47862">
        <ele>83</ele>
        <time>2024-08-31T14:17:59.496Z</time>
      </trkpt>
      <trkpt lat="44.21787" lon="4.47863">
        <ele>83</ele>
        <time>2024-08-31T14:18:00.496Z</time>
      </trkpt>
      <trkpt lat="44.21787" lon="4.47865">
        <ele>83.5</ele>
        <time>2024-08-31T14:18:01.496Z</time>
      </trkpt>
      <trkpt lat="44.21786" lon="4.47866">
        <ele>83.5</ele>
        <time>2024-08-31T14:18:02.496Z</time>
      </trkpt>
      <trkpt lat="44.21786" lon="4.47866">
        <ele>83.4</ele>
        <time>2024-08-31T14:18:03.496Z</time>
      </trkpt>
      <trkpt lat="44.21787" lon="4.47868">
        <ele>83.4</ele>
        <time>2024-08-31T14:18:04.496Z</time>
      </trkpt>
      <trkpt lat="44.21787" lon="4.47869">
        <ele>83.9</ele>
        <time>2024-08-31T14:18:05.496Z</time>
      </trkpt>
      <trkpt lat="44.21787" lon="4.4787">
        <ele>83.9</ele>
        <time>2024-08-31T14:18:06.496Z</time>
      </trkpt>
      <trkpt lat="44.21788" lon="4.47872">
        <ele>83.9</ele>
        <time>2024-08-31T14:18:07.496Z</time>
      </trkpt>
      <trkpt lat="44.21787" lon="4.47873">
        <ele>83.9</ele>
        <time>2024-08-31T14:18:08.496Z</time>
      </trkpt>
      <trkpt lat="44.21787" lon="4.47875">
        <ele>84.2</ele>
        <time>2024-08-31T14:18:09.496Z</time>
      </trkpt>
      <trkpt lat="44.21787" lon="4.47877">
        <ele>84.2</ele>
        <time>2024-08-31T14:18:10.496Z</time>
      </trkpt>
      <trkpt lat="44.21786" lon="4.47879">
        <ele>84.3</ele>
        <time>2024-08-31T14:18:11.496Z</time>
      </trkpt>
      <trkpt lat="44.21784" lon="4.47882">
        <ele>84.5</ele>
        <time>2024-08-31T14:18:12.496Z</time>
      </trkpt>
      <trkpt lat="44.21783" lon="4.47883">
        <ele>84.3</ele>
        <time>2024-08-31T14:18:13.496Z</time>
      </trkpt>
      <trkpt lat="44.21782" lon="4.47885">
        <ele>84.3</ele>
        <time>2024-08-31T14:18:14.496Z</time>
      </trkpt>
      <trkpt lat="44.21781" lon="4.47887">
        <ele>84.6</ele>
        <time>2024-08-31T14:18:15.496Z</time>
      </trkpt>
      <trkpt lat="44.21781" lon="4.47889">
        <ele>84.6</ele>
        <time>2024-08-31T14:18:16.496Z</time>
      </trkpt>
      <trkpt lat="44.2178" lon="4.4789">
        <ele>84.3</ele>
        <time>2024-08-31T14:18:17.496Z</time>
      </trkpt>
      <trkpt lat="44.21779" lon="4.47891">
        <ele>84.7</ele>
        <time>2024-08-31T14:18:18.496Z</time>
      </trkpt>
      <trkpt lat="44.21779" lon="4.47892">
        <ele>84.7</ele>
        <time>2024-08-31T14:18:19.496Z</time>
      </trkpt>
      <trkpt lat="44.21779" lon="4.47893">
        <ele>84.7</ele>
        <time>2024-08-31T14:18:20.496Z</time>
      </trkpt>
      <trkpt lat="44.21779" lon="4.47893">
        <ele>84.6</ele>
        <time>2024-08-31T14:18:21.496Z</time>
      </trkpt>
      <trkpt lat="44.21779" lon="4.47892">
        <ele>84.6</ele>
        <time>2024-08-31T14:18:22.496Z</time>
      </trkpt>
      <trkpt lat="44.21779" lon="4.47892">
        <ele>84.6</ele>
        <time>2024-08-31T14:18:23.496Z</time>
      </trkpt>
      <trkpt lat="44.21779" lon="4.47892">
        <ele>84.6</ele>
        <time>2024-08-31T14:18:24.496Z</time>
      </trkpt>
      <trkpt lat="44.21778" lon="4.47892">
        <ele>84.6</ele>
        <time>2024-08-31T14:18:25.496Z</time>
      </trkpt>
      <trkpt lat="44.21777" lon="4.47892">
        <ele>84.6</ele>
        <time>2024-08-31T14:18:26.496Z</time>
      </trkpt>
      <trkpt lat="44.21776" lon="4.47893">
        <ele>84.4</ele>
        <time>2024-08-31T14:18:27.496Z</time>
      </trkpt>
      <trkpt lat="44.21775" lon="4.47894">
        <ele>84.4</ele>
        <time>2024-08-31T14:18:28.496Z</time>
      </trkpt>
      <trkpt lat="44.21775" lon="4.47894">
        <ele>84.4</ele>
        <time>2024-08-31T14:18:29.496Z</time>
      </trkpt>
      <trkpt lat="44.21775" lon="4.47895">
        <ele>84.8</ele>
        <time>2024-08-31T14:18:30.496Z</time>
      </trkpt>
      <trkpt lat="44.21776" lon="4.47896">
        <ele>84.8</ele>
        <time>2024-08-31T14:18:31.496Z</time>
      </trkpt>
      <trkpt lat="44.21776" lon="4.47897">
        <ele>84.8</ele>
        <time>2024-08-31T14:18:32.496Z</time>
      </trkpt>
      <trkpt lat="44.21776" lon="4.47898">
        <ele>84.8</ele>
        <time>2024-08-31T14:18:33.496Z</time>
      </trkpt>
      <trkpt lat="44.21777" lon="4.47899">
        <ele>85</ele>
        <time>2024-08-31T14:18:34.496Z</time>
      </trkpt>
      <trkpt lat="44.21777" lon="4.479">
        <ele>85</ele>
        <time>2024-08-31T14:18:35.496Z</time>
      </trkpt>
      <trkpt lat="44.21777" lon="4.47901">
        <ele>85.1</ele>
        <time>2024-08-31T14:18:36.496Z</time>
      </trkpt>
      <trkpt lat="44.21778" lon="4.47902">
        <ele>85.1</ele>
        <time>2024-08-31T14:18:37.496Z</time>
      </trkpt>
      <trkpt lat="44.21778" lon="4.47903">
        <ele>85.2</ele>
        <time>2024-08-31T14:18:38.496Z</time>
      </trkpt>
      <trkpt lat="44.21779" lon="4.47904">
        <ele>85.2</ele>
        <time>2024-08-31T14:18:39.496Z</time>
      </trkpt>
      <trkpt lat="44.21779" lon="4.47905">
        <ele>85.2</ele>
        <time>2024-08-31T14:18:40.496Z</time>
      </trkpt>
      <trkpt lat="44.21779" lon="4.47906">
        <ele>85.2</ele>
        <time>2024-08-31T14:18:41.496Z</time>
      </trkpt>
      <trkpt lat="44.21779" lon="4.47907">
        <ele>85.2</ele>
        <time>2024-08-31T14:18:42.496Z</time>
      </trkpt>
      <trkpt lat="44.21779" lon="4.47907">
        <ele>85.2</ele>
        <time>2024-08-31T14:18:43.496Z</time>
      </trkpt>
      <trkpt lat="44.2178" lon="4.47914">
        <ele>85.2</ele>
        <time>2024-08-31T14:25:10.496Z</time>
      </trkpt>
      <trkpt lat="44.21779" lon="4.47912">
        <ele>85.3</ele>
        <time>2024-08-31T14:25:11.496Z</time>
      </trkpt>
      <trkpt lat="44.21779" lon="4.47912">
        <ele>85.2</ele>
        <time>2024-08-31T14:25:12.496Z</time>
      </trkpt>
      <trkpt lat="44.21779" lon="4.47911">
        <ele>85.2</ele>
        <time>2024-08-31T14:25:13.496Z</time>
      </trkpt>
      <trkpt lat="44.21778" lon="4.4791">
        <ele>85.2</ele>
        <time>2024-08-31T14:25:14.496Z</time>
      </trkpt>
      <trkpt lat="44.21777" lon="4.47907">
        <ele>85.1</ele>
        <time>2024-08-31T14:25:15.496Z</time>
      </trkpt>
      <trkpt lat="44.21776" lon="4.47905">
        <ele>85.1</ele>
        <time>2024-08-31T14:25:16.496Z</time>
      </trkpt>
      <trkpt lat="44.21774" lon="4.47902">
        <ele>84.8</ele>
        <time>2024-08-31T14:25:17.496Z</time>
      </trkpt>
      <trkpt lat="44.21773" lon="4.47901">
        <ele>84.8</ele>
        <time>2024-08-31T14:25:18.496Z</time>
      </trkpt>
      <trkpt lat="44.21772" lon="4.479">
        <ele>84.8</ele>
        <time>2024-08-31T14:25:19.496Z</time>
      </trkpt>
      <trkpt lat="44.21771" lon="4.47899">
        <ele>84.7</ele>
        <time>2024-08-31T14:25:20.496Z</time>
      </trkpt>
      <trkpt lat="44.2177" lon="4.47901">
        <ele>84.6</ele>
        <time>2024-08-31T14:25:21.496Z</time>
      </trkpt>
      <trkpt lat="44.21769" lon="4.47902">
        <ele>84.6</ele>
        <time>2024-08-31T14:25:22.496Z</time>
      </trkpt>
      <trkpt lat="44.21768" lon="4.47903">
        <ele>84.6</ele>
        <time>2024-08-31T14:25:23.496Z</time>
      </trkpt>
      <trkpt lat="44.21767" lon="4.47904">
        <ele>84.8</ele>
        <time>2024-08-31T14:25:24.496Z</time>
      </trkpt>
      <trkpt lat="44.21766" lon="4.47905">
        <ele>84.8</ele>
        <time>2024-08-31T14:25:25.496Z</time>
      </trkpt>
      <trkpt lat="44.21765" lon="4.47906">
        <ele>84.7</ele>
        <time>2024-08-31T14:25:26.496Z</time>
      </trkpt>
      <trkpt lat="44.21764" lon="4.47907">
        <ele>84.5</ele>
        <time>2024-08-31T14:25:27.496Z</time>
      </trkpt>
      <trkpt lat="44.21764" lon="4.47907">
        <ele>84.5</ele>
        <time>2024-08-31T14:25:28.496Z</time>
      </trkpt>
      <trkpt lat="44.21764" lon="4.47907">
        <ele>84.5</ele>
        <time>2024-08-31T14:25:29.496Z</time>
      </trkpt>
      <trkpt lat="44.21764" lon="4.47908">
        <ele>84.8</ele>
        <time>2024-08-31T14:25:30.496Z</time>
      </trkpt>
      <trkpt lat="44.21764" lon="4.47908">
        <ele>84.8</ele>
        <time>2024-08-31T14:25:31.496Z</time>
      </trkpt>
      <trkpt lat="44.21765" lon="4.47908">
        <ele>84.8</ele>
        <time>2024-08-31T14:25:32.496Z</time>
      </trkpt>
      <trkpt lat="44.21764" lon="4.47908">
        <ele>84.8</ele>
        <time>2024-08-31T14:25:33.496Z</time>
      </trkpt>
      <trkpt lat="44.21764" lon="4.47908">
        <ele>84.7</ele>
        <time>2024-08-31T14:25:34.496Z</time>
      </trkpt>
      <trkpt lat="44.21761" lon="4.4791">
        <ele>84.5</ele>
        <time>2024-08-31T14:25:35.496Z</time>
      </trkpt>
      <trkpt lat="44.21761" lon="4.47911">
        <ele>84.5</ele>
        <time>2024-08-31T14:25:36.496Z</time>
      </trkpt>
      <trkpt lat="44.21759" lon="4.47912">
        <ele>84.7</ele>
        <time>2024-08-31T14:25:37.496Z</time>
      </trkpt>
      <trkpt lat="44.21758" lon="4.47913">
        <ele>84.4</ele>
        <time>2024-08-31T14:25:38.496Z</time>
      </trkpt>
      <trkpt lat="44.21758" lon="4.47914">
        <ele>84.4</ele>
        <time>2024-08-31T14:25:39.496Z</time>
      </trkpt>
      <trkpt lat="44.21757" lon="4.47914">
        <ele>84.4</ele>
        <time>2024-08-31T14:25:40.496Z</time>
      </trkpt>
      <trkpt lat="44.21757" lon="4.47914">
        <ele>84.4</ele>
        <time>2024-08-31T14:25:41.496Z</time>
      </trkpt>
      <trkpt lat="44.21757" lon="4.47915">
        <ele>84.4</ele>
        <time>2024-08-31T14:25:42.496Z</time>
      </trkpt>
      <trkpt lat="44.21757" lon="4.47915">
        <ele>84.4</ele>
        <time>2024-08-31T14:25:43.496Z</time>
      </trkpt>
      <trkpt lat="44.21757" lon="4.47915">
        <ele>84.4</ele>
        <time>2024-08-31T14:25:44.496Z</time>
      </trkpt>
      <trkpt lat="44.21756" lon="4.47916">
        <ele>84.4</ele>
        <time>2024-08-31T14:25:45.496Z</time>
      </trkpt>
      <trkpt lat="44.21756" lon="4.47916">
        <ele>84.4</ele>
        <time>2024-08-31T14:25:46.496Z</time>
      </trkpt>
      <trkpt lat="44.21756" lon="4.47916">
        <ele>84.5</ele>
        <time>2024-08-31T14:25:47.496Z</time>
      </trkpt>
      <trkpt lat="44.21756" lon="4.47917">
        <ele>84.5</ele>
        <time>2024-08-31T14:25:48.496Z</time>
      </trkpt>
      <trkpt lat="44.21755" lon="4.47917">
        <ele>84.3</ele>
        <time>2024-08-31T14:25:49.496Z</time>
      </trkpt>
      <trkpt lat="44.21755" lon="4.47917">
        <ele>84.3</ele>
        <time>2024-08-31T14:25:50.496Z</time>
      </trkpt>
      <trkpt lat="44.21755" lon="4.47917">
        <ele>84.3</ele>
        <time>2024-08-31T14:25:51.496Z</time>
      </trkpt>
      <trkpt lat="44.21753" lon="4.47922">
        <ele>84.4</ele>
        <time>2024-08-31T14:25:52.496Z</time>
      </trkpt>
      <trkpt lat="44.21752" lon="4.47923">
        <ele>84.2</ele>
        <time>2024-08-31T14:25:53.496Z</time>
      </trkpt>
      <trkpt lat="44.2175" lon="4.47927">
        <ele>84.4</ele>
        <time>2024-08-31T14:25:54.496Z</time>
      </trkpt>
      <trkpt lat="44.21749" lon="4.47929">
        <ele>84.2</ele>
        <time>2024-08-31T14:25:55.496Z</time>
      </trkpt>
      <trkpt lat="44.21746" lon="4.47932">
        <ele>84.4</ele>
        <time>2024-08-31T14:25:56.496Z</time>
      </trkpt>
      <trkpt lat="44.21745" lon="4.47933">
        <ele>84.3</ele>
        <time>2024-08-31T14:25:57.496Z</time>
      </trkpt>
      <trkpt lat="44.21742" lon="4.47936">
        <ele>84.4</ele>
        <time>2024-08-31T14:25:58.496Z</time>
      </trkpt>
      <trkpt lat="44.21741" lon="4.47937">
        <ele>84.4</ele>
        <time>2024-08-31T14:25:59.496Z</time>
      </trkpt>
      <trkpt lat="44.21738" lon="4.47938">
        <ele>84.4</ele>
        <time>2024-08-31T14:26:00.496Z</time>
      </trkpt>
      <trkpt lat="44.21736" lon="4.4794">
        <ele>84.4</ele>
        <time>2024-08-31T14:26:01.496Z</time>
      </trkpt>
      <trkpt lat="44.21732" lon="4.47942">
        <ele>84.3</ele>
        <time>2024-08-31T14:26:02.496Z</time>
      </trkpt>
      <trkpt lat="44.21731" lon="4.47943">
        <ele>84.3</ele>
        <time>2024-08-31T14:26:03.496Z</time>
      </trkpt>
      <trkpt lat="44.21728" lon="4.47945">
        <ele>84.2</ele>
        <time>2024-08-31T14:26:04.496Z</time>
      </trkpt>
      <trkpt lat="44.21725" lon="4.47946">
        <ele>84.1</ele>
        <time>2024-08-31T14:26:05.496Z</time>
      </trkpt>
      <trkpt lat="44.21723" lon="4.47948">
        <ele>84</ele>
        <time>2024-08-31T14:26:06.496Z</time>
      </trkpt>
      <trkpt lat="44.2172" lon="4.4795">
        <ele>83.9</ele>
        <time>2024-08-31T14:26:07.496Z</time>
      </trkpt>
      <trkpt lat="44.21717" lon="4.47952">
        <ele>83.7</ele>
        <time>2024-08-31T14:26:08.496Z</time>
      </trkpt>
      <trkpt lat="44.21714" lon="4.47953">
        <ele>83.6</ele>
        <time>2024-08-31T14:26:09.496Z</time>
      </trkpt>
      <trkpt lat="44.21713" lon="4.47954">
        <ele>83.6</ele>
        <time>2024-08-31T14:26:10.496Z</time>
      </trkpt>
      <trkpt lat="44.21711" lon="4.47956">
        <ele>83.4</ele>
        <time>2024-08-31T14:26:11.496Z</time>
      </trkpt>
      <trkpt lat="44.21711" lon="4.47958">
        <ele>83.4</ele>
        <time>2024-08-31T14:26:12.496Z</time>
      </trkpt>
      <trkpt lat="44.21713" lon="4.47961">
        <ele>83.4</ele>
        <time>2024-08-31T14:26:13.496Z</time>
      </trkpt>
      <trkpt lat="44.21714" lon="4.47962">
        <ele>83.4</ele>
        <time>2024-08-31T14:26:14.496Z</time>
      </trkpt>
      <trkpt lat="44.21716" lon="4.47965">
        <ele>83.3</ele>
        <time>2024-08-31T14:26:15.496Z</time>
      </trkpt>
      <trkpt lat="44.21719" lon="4.47968">
        <ele>83.3</ele>
        <time>2024-08-31T14:26:16.496Z</time>
      </trkpt>
      <trkpt lat="44.2172" lon="4.47969">
        <ele>83.3</ele>
        <time>2024-08-31T14:26:17.496Z</time>
      </trkpt>
      <trkpt lat="44.21722" lon="4.47972">
        <ele>83.4</ele>
        <time>2024-08-31T14:26:18.496Z</time>
      </trkpt>
      <trkpt lat="44.21724" lon="4.47975">
        <ele>83.3</ele>
        <time>2024-08-31T14:26:19.496Z</time>
      </trkpt>
      <trkpt lat="44.21726" lon="4.47977">
        <ele>83.3</ele>
        <time>2024-08-31T14:26:20.496Z</time>
      </trkpt>
      <trkpt lat="44.21728" lon="4.47981">
        <ele>83.3</ele>
        <time>2024-08-31T14:26:21.496Z</time>
      </trkpt>
      <trkpt lat="44.21729" lon="4.47983">
        <ele>83.3</ele>
        <time>2024-08-31T14:26:22.496Z</time>
      </trkpt>
      <trkpt lat="44.21732" lon="4.47986">
        <ele>83.2</ele>
        <time>2024-08-31T14:26:23.496Z</time>
      </trkpt>
      <trkpt lat="44.21733" lon="4.47987">
        <ele>83.2</ele>
        <time>2024-08-31T14:26:24.496Z</time>
      </trkpt>
      <trkpt lat="44.21735" lon="4.4799">
        <ele>83.2</ele>
        <time>2024-08-31T14:26:25.496Z</time>
      </trkpt>
      <trkpt lat="44.21737" lon="4.47994">
        <ele>83.2</ele>
        <time>2024-08-31T14:26:26.496Z</time>
      </trkpt>
      <trkpt lat="44.21739" lon="4.47997">
        <ele>83.2</ele>
        <time>2024-08-31T14:26:27.496Z</time>
      </trkpt>
      <trkpt lat="44.21741" lon="4.48">
        <ele>83.2</ele>
        <time>2024-08-31T14:26:28.496Z</time>
      </trkpt>
      <trkpt lat="44.21743" lon="4.48003">
        <ele>83.1</ele>
        <time>2024-08-31T14:26:29.496Z</time>
      </trkpt>
      <trkpt lat="44.21745" lon="4.48006">
        <ele>83.2</ele>
        <time>2024-08-31T14:26:30.496Z</time>
      </trkpt>
      <trkpt lat="44.21747" lon="4.48009">
        <ele>83.2</ele>
        <time>2024-08-31T14:26:31.496Z</time>
      </trkpt>
      <trkpt lat="44.21748" lon="4.48012">
        <ele>83.2</ele>
        <time>2024-08-31T14:26:32.496Z</time>
      </trkpt>
      <trkpt lat="44.2175" lon="4.48016">
        <ele>83.2</ele>
        <time>2024-08-31T14:26:33.496Z</time>
      </trkpt>
      <trkpt lat="44.21752" lon="4.4802">
        <ele>83.3</ele>
        <time>2024-08-31T14:26:34.496Z</time>
      </trkpt>
      <trkpt lat="44.21753" lon="4.48021">
        <ele>83.3</ele>
        <time>2024-08-31T14:26:35.496Z</time>
      </trkpt>
      <trkpt lat="44.21756" lon="4.48023">
        <ele>83.4</ele>
        <time>2024-08-31T14:26:36.496Z</time>
      </trkpt>
      <trkpt lat="44.21758" lon="4.48025">
        <ele>83.4</ele>
        <time>2024-08-31T14:26:37.496Z</time>
      </trkpt>
      <trkpt lat="44.21761" lon="4.48028">
        <ele>83.5</ele>
        <time>2024-08-31T14:26:38.496Z</time>
      </trkpt>
      <trkpt lat="44.21763" lon="4.4803">
        <ele>83.6</ele>
        <time>2024-08-31T14:26:39.496Z</time>
      </trkpt>
      <trkpt lat="44.21766" lon="4.48034">
        <ele>83.7</ele>
        <time>2024-08-31T14:26:40.496Z</time>
      </trkpt>
      <trkpt lat="44.21768" lon="4.48037">
        <ele>83.8</ele>
        <time>2024-08-31T14:26:41.496Z</time>
      </trkpt>
      <trkpt lat="44.2177" lon="4.48041">
        <ele>83.9</ele>
        <time>2024-08-31T14:26:42.496Z</time>
      </trkpt>
      <trkpt lat="44.21772" lon="4.48044">
        <ele>84</ele>
        <time>2024-08-31T14:26:43.496Z</time>
      </trkpt>
      <trkpt lat="44.21775" lon="4.48047">
        <ele>84.1</ele>
        <time>2024-08-31T14:26:44.496Z</time>
      </trkpt>
      <trkpt lat="44.21778" lon="4.4805">
        <ele>84.3</ele>
        <time>2024-08-31T14:26:45.496Z</time>
      </trkpt>
      <trkpt lat="44.2178" lon="4.48054">
        <ele>84.4</ele>
        <time>2024-08-31T14:26:46.496Z</time>
      </trkpt>
      <trkpt lat="44.21781" lon="4.48057">
        <ele>84.4</ele>
        <time>2024-08-31T14:26:47.496Z</time>
      </trkpt>
      <trkpt lat="44.21783" lon="4.4806">
        <ele>84.5</ele>
        <time>2024-08-31T14:26:48.496Z</time>
      </trkpt>
      <trkpt lat="44.21784" lon="4.48064">
        <ele>84.7</ele>
        <time>2024-08-31T14:26:49.496Z</time>
      </trkpt>
      <trkpt lat="44.21786" lon="4.48068">
        <ele>84.8</ele>
        <time>2024-08-31T14:26:50.496Z</time>
      </trkpt>
      <trkpt lat="44.21787" lon="4.4807">
        <ele>84.8</ele>
        <time>2024-08-31T14:26:51.496Z</time>
      </trkpt>
      <trkpt lat="44.21789" lon="4.48073">
        <ele>84.9</ele>
        <time>2024-08-31T14:26:52.496Z</time>
      </trkpt>
      <trkpt lat="44.21792" lon="4.48076">
        <ele>85.1</ele>
        <time>2024-08-31T14:26:53.496Z</time>
      </trkpt>
      <trkpt lat="44.21794" lon="4.48079">
        <ele>85.2</ele>
        <time>2024-08-31T14:26:54.496Z</time>
      </trkpt>
      <trkpt lat="44.21797" lon="4.4808">
        <ele>85.3</ele>
        <time>2024-08-31T14:26:55.496Z</time>
      </trkpt>
      <trkpt lat="44.218" lon="4.4808">
        <ele>85.4</ele>
        <time>2024-08-31T14:26:56.496Z</time>
      </trkpt>
      <trkpt lat="44.21802" lon="4.48077">
        <ele>85.4</ele>
        <time>2024-08-31T14:26:57.496Z</time>
      </trkpt>
      <trkpt lat="44.21804" lon="4.48074">
        <ele>85.3</ele>
        <time>2024-08-31T14:26:58.496Z</time>
      </trkpt>
      <trkpt lat="44.21807" lon="4.48071">
        <ele>85.3</ele>
        <time>2024-08-31T14:26:59.496Z</time>
      </trkpt>
      <trkpt lat="44.21809" lon="4.48068">
        <ele>85.3</ele>
        <time>2024-08-31T14:27:00.496Z</time>
      </trkpt>
      <trkpt lat="44.21812" lon="4.48065">
        <ele>85.2</ele>
        <time>2024-08-31T14:27:01.496Z</time>
      </trkpt>
      <trkpt lat="44.21815" lon="4.48061">
        <ele>85.2</ele>
        <time>2024-08-31T14:27:02.496Z</time>
      </trkpt>
      <trkpt lat="44.21818" lon="4.48058">
        <ele>85.2</ele>
        <time>2024-08-31T14:27:03.496Z</time>
      </trkpt>
      <trkpt lat="44.2182" lon="4.48055">
        <ele>85.2</ele>
        <time>2024-08-31T14:27:04.496Z</time>
      </trkpt>
      <trkpt lat="44.21823" lon="4.48052">
        <ele>85.1</ele>
        <time>2024-08-31T14:27:05.496Z</time>
      </trkpt>
      <trkpt lat="44.21825" lon="4.48049">
        <ele>85.1</ele>
        <time>2024-08-31T14:27:06.496Z</time>
      </trkpt>
      <trkpt lat="44.21828" lon="4.48046">
        <ele>85.1</ele>
        <time>2024-08-31T14:27:07.496Z</time>
      </trkpt>
      <trkpt lat="44.2183" lon="4.48043">
        <ele>85</ele>
        <time>2024-08-31T14:27:08.496Z</time>
      </trkpt>
      <trkpt lat="44.21832" lon="4.48039">
        <ele>84.9</ele>
        <time>2024-08-31T14:27:09.496Z</time>
      </trkpt>
      <trkpt lat="44.21852" lon="4.4805">
        <ele>77</ele>
        <time>2024-08-31T14:27:21.634Z</time>
      </trkpt>
      <trkpt lat="44.21861" lon="4.48062">
        <ele>77</ele>
        <time>2024-08-31T14:27:28.663Z</time>
      </trkpt>
      <trkpt lat="44.21868" lon="4.4807">
        <ele>77.1</ele>
        <time>2024-08-31T14:27:33.772Z</time>
      </trkpt>
      <trkpt lat="44.21891" lon="4.48032">
        <ele>77</ele>
        <time>2024-08-31T14:27:53.900Z</time>
      </trkpt>
      <trkpt lat="44.21932" lon="4.48071">
        <ele>77</ele>
        <time>2024-08-31T14:28:21.918Z</time>
      </trkpt>
      <trkpt lat="44.21967" lon="4.48105">
        <ele>77.8</ele>
        <time>2024-08-31T14:28:45.998Z</time>
      </trkpt>
      <trkpt lat="44.21976" lon="4.48105">
        <ele>77.8</ele>
        <time>2024-08-31T14:28:51.079Z</time>
      </trkpt>
      <trkpt lat="44.21988" lon="4.481">
        <ele>77.8</ele>
        <time>2024-08-31T14:28:58.150Z</time>
      </trkpt>
      <trkpt lat="44.22006" lon="4.48078">
        <ele>78</ele>
        <time>2024-08-31T14:29:11.661Z</time>
      </trkpt>
      <trkpt lat="44.2202" lon="4.48054">
        <ele>78</ele>
        <time>2024-08-31T14:29:24.183Z</time>
      </trkpt>
      <trkpt lat="44.22" lon="4.48031">
        <ele>78</ele>
        <time>2024-08-31T14:29:38.817Z</time>
      </trkpt>
      <trkpt lat="44.21996" lon="4.48025">
        <ele>77.8</ele>
        <time>2024-08-31T14:29:42.133Z</time>
      </trkpt>
      <trkpt lat="44.21992" lon="4.48015">
        <ele>77.4</ele>
        <time>2024-08-31T14:29:46.767Z</time>
      </trkpt>
      <trkpt lat="44.21994" lon="4.47999">
        <ele>77</ele>
        <time>2024-08-31T14:29:53.339Z</time>
      </trkpt>
      <trkpt lat="44.21997" lon="4.47992">
        <ele>77</ele>
        <time>2024-08-31T14:29:56.639Z</time>
      </trkpt>
      <trkpt lat="44.21999" lon="4.47991">
        <ele>77</ele>
        <time>2024-08-31T14:29:57.838Z</time>
      </trkpt>
      <trkpt lat="44.21998" lon="4.47991">
        <ele>77</ele>
        <time>2024-08-31T14:29:58.404Z</time>
      </trkpt>
      <trkpt lat="44.21996" lon="4.47993">
        <ele>77</ele>
        <time>2024-08-31T14:29:59.793Z</time>
      </trkpt>
      <trkpt lat="44.21993" lon="4.48002">
        <ele>77.1</ele>
        <time>2024-08-31T14:30:03.809Z</time>
      </trkpt>
      <trkpt lat="44.21992" lon="4.48015">
        <ele>77.4</ele>
        <time>2024-08-31T14:30:09.099Z</time>
      </trkpt>
      <trkpt lat="44.21996" lon="4.48025">
        <ele>77.8</ele>
        <time>2024-08-31T14:30:13.733Z</time>
      </trkpt>
      <trkpt lat="44.22" lon="4.48031">
        <ele>78</ele>
        <time>2024-08-31T14:30:17.049Z</time>
      </trkpt>
      <trkpt lat="44.2202" lon="4.48054">
        <ele>78</ele>
        <time>2024-08-31T14:30:31.683Z</time>
      </trkpt>
      <trkpt lat="44.22006" lon="4.48078">
        <ele>78</ele>
        <time>2024-08-31T14:30:44.205Z</time>
      </trkpt>
      <trkpt lat="44.21988" lon="4.481">
        <ele>77.8</ele>
        <time>2024-08-31T14:30:57.716Z</time>
      </trkpt>
      <trkpt lat="44.21976" lon="4.48105">
        <ele>77.8</ele>
        <time>2024-08-31T14:31:04.787Z</time>
      </trkpt>
      <trkpt lat="44.21967" lon="4.48105">
        <ele>77.8</ele>
        <time>2024-08-31T14:31:09.868Z</time>
      </trkpt>
      <trkpt lat="44.21932" lon="4.48071">
        <ele>77</ele>
        <time>2024-08-31T14:31:33.948Z</time>
      </trkpt>
      <trkpt lat="44.21891" lon="4.48032">
        <ele>77</ele>
        <time>2024-08-31T14:32:01.966Z</time>
      </trkpt>
      <trkpt lat="44.21868" lon="4.4807">
        <ele>77.1</ele>
        <time>2024-08-31T14:32:22.094Z</time>
      </trkpt>
      <trkpt lat="44.21861" lon="4.48062">
        <ele>77</ele>
        <time>2024-08-31T14:32:27.203Z</time>
      </trkpt>
      <trkpt lat="44.21852" lon="4.4805">
        <ele>77</ele>
        <time>2024-08-31T14:32:34.232Z</time>
      </trkpt>
      <trkpt lat="44.21832" lon="4.48039">
        <ele>84.9</ele>
        <time>2024-08-31T14:27:09.496Z</time>
      </trkpt>
      <trkpt lat="44.2183" lon="4.48043">
        <ele>85</ele>
        <time>2024-08-31T14:27:08.496Z</time>
      </trkpt>
      <trkpt lat="44.21828" lon="4.48046">
        <ele>85.1</ele>
        <time>2024-08-31T14:27:07.496Z</time>
      </trkpt>
      <trkpt lat="44.21825" lon="4.48049">
        <ele>85.1</ele>
        <time>2024-08-31T14:27:06.496Z</time>
      </trkpt>
      <trkpt lat="44.21823" lon="4.48052">
        <ele>85.1</ele>
        <time>2024-08-31T14:27:05.496Z</time>
      </trkpt>
      <trkpt lat="44.2182" lon="4.48055">
        <ele>85.2</ele>
        <time>2024-08-31T14:27:04.496Z</time>
      </trkpt>
      <trkpt lat="44.21818" lon="4.48058">
        <ele>85.2</ele>
        <time>2024-08-31T14:27:03.496Z</time>
      </trkpt>
      <trkpt lat="44.21815" lon="4.48061">
        <ele>85.2</ele>
        <time>2024-08-31T14:27:02.496Z</time>
      </trkpt>
      <trkpt lat="44.21812" lon="4.48065">
        <ele>85.2</ele>
        <time>2024-08-31T14:27:01.496Z</time>
      </trkpt>
      <trkpt lat="44.21809" lon="4.48068">
        <ele>85.3</ele>
        <time>2024-08-31T14:27:00.496Z</time>
      </trkpt>
      <trkpt lat="44.21807" lon="4.48071">
        <ele>85.3</ele>
        <time>2024-08-31T14:26:59.496Z</time>
      </trkpt>
      <trkpt lat="44.21804" lon="4.48074">
        <ele>85.3</ele>
        <time>2024-08-31T14:26:58.496Z</time>
      </trkpt>
      <trkpt lat="44.21802" lon="4.48077">
        <ele>85.4</ele>
        <time>2024-08-31T14:26:57.496Z</time>
      </trkpt>
      <trkpt lat="44.218" lon="4.4808">
        <ele>85.4</ele>
        <time>2024-08-31T14:26:56.496Z</time>
      </trkpt>
      <trkpt lat="44.21797" lon="4.4808">
        <ele>85.3</ele>
        <time>2024-08-31T14:26:55.496Z</time>
      </trkpt>
      <trkpt lat="44.21794" lon="4.48079">
        <ele>85.2</ele>
        <time>2024-08-31T14:26:54.496Z</time>
      </trkpt>
      <trkpt lat="44.21792" lon="4.48076">
        <ele>85.1</ele>
        <time>2024-08-31T14:26:53.496Z</time>
      </trkpt>
      <trkpt lat="44.21789" lon="4.48073">
        <ele>84.9</ele>
        <time>2024-08-31T14:26:52.496Z</time>
      </trkpt>
      <trkpt lat="44.21787" lon="4.4807">
        <ele>84.8</ele>
        <time>2024-08-31T14:26:51.496Z</time>
      </trkpt>
      <trkpt lat="44.21786" lon="4.48068">
        <ele>84.8</ele>
        <time>2024-08-31T14:26:50.496Z</time>
      </trkpt>
      <trkpt lat="44.21784" lon="4.48064">
        <ele>84.7</ele>
        <time>2024-08-31T14:26:49.496Z</time>
      </trkpt>
      <trkpt lat="44.21783" lon="4.4806">
        <ele>84.5</ele>
        <time>2024-08-31T14:26:48.496Z</time>
      </trkpt>
      <trkpt lat="44.21781" lon="4.48057">
        <ele>84.4</ele>
        <time>2024-08-31T14:26:47.496Z</time>
      </trkpt>
      <trkpt lat="44.2178" lon="4.48054">
        <ele>84.4</ele>
        <time>2024-08-31T14:26:46.496Z</time>
      </trkpt>
      <trkpt lat="44.21778" lon="4.4805">
        <ele>84.3</ele>
        <time>2024-08-31T14:26:45.496Z</time>
      </trkpt>
      <trkpt lat="44.21775" lon="4.48047">
        <ele>84.1</ele>
        <time>2024-08-31T14:26:44.496Z</time>
      </trkpt>
      <trkpt lat="44.21772" lon="4.48044">
        <ele>84</ele>
        <time>2024-08-31T14:26:43.496Z</time>
      </trkpt>
      <trkpt lat="44.2177" lon="4.48041">
        <ele>83.9</ele>
        <time>2024-08-31T14:26:42.496Z</time>
      </trkpt>
      <trkpt lat="44.21768" lon="4.48037">
        <ele>83.8</ele>
        <time>2024-08-31T14:26:41.496Z</time>
      </trkpt>
      <trkpt lat="44.21766" lon="4.48034">
        <ele>83.7</ele>
        <time>2024-08-31T14:26:40.496Z</time>
      </trkpt>
      <trkpt lat="44.21763" lon="4.4803">
        <ele>83.6</ele>
        <time>2024-08-31T14:26:39.496Z</time>
      </trkpt>
      <trkpt lat="44.21761" lon="4.48028">
        <ele>83.5</ele>
        <time>2024-08-31T14:26:38.496Z</time>
      </trkpt>
      <trkpt lat="44.21758" lon="4.48025">
        <ele>83.4</ele>
        <time>2024-08-31T14:26:37.496Z</time>
      </trkpt>
      <trkpt lat="44.21756" lon="4.48023">
        <ele>83.4</ele>
        <time>2024-08-31T14:26:36.496Z</time>
      </trkpt>
      <trkpt lat="44.21753" lon="4.48021">
        <ele>83.3</ele>
        <time>2024-08-31T14:26:35.496Z</time>
      </trkpt>
      <trkpt lat="44.21752" lon="4.4802">
        <ele>83.3</ele>
        <time>2024-08-31T14:26:34.496Z</time>
      </trkpt>
      <trkpt lat="44.2175" lon="4.48016">
        <ele>83.2</ele>
        <time>2024-08-31T14:26:33.496Z</time>
      </trkpt>
      <trkpt lat="44.21748" lon="4.48012">
        <ele>83.2</ele>
        <time>2024-08-31T14:26:32.496Z</time>
      </trkpt>
      <trkpt lat="44.21747" lon="4.48009">
        <ele>83.2</ele>
        <time>2024-08-31T14:26:31.496Z</time>
      </trkpt>
      <trkpt lat="44.21745" lon="4.48006">
        <ele>83.2</ele>
        <time>2024-08-31T14:26:30.496Z</time>
      </trkpt>
      <trkpt lat="44.21743" lon="4.48003">
        <ele>83.1</ele>
        <time>2024-08-31T14:26:29.496Z</time>
      </trkpt>
      <trkpt lat="44.21741" lon="4.48">
        <ele>83.2</ele>
        <time>2024-08-31T14:26:28.496Z</time>
      </trkpt>
      <trkpt lat="44.21739" lon="4.47997">
        <ele>83.2</ele>
        <time>2024-08-31T14:26:27.496Z</time>
      </trkpt>
      <trkpt lat="44.21737" lon="4.47994">
        <ele>83.2</ele>
        <time>2024-08-31T14:26:26.496Z</time>
      </trkpt>
      <trkpt lat="44.21735" lon="4.4799">
        <ele>83.2</ele>
        <time>2024-08-31T14:26:25.496Z</time>
      </trkpt>
      <trkpt lat="44.21733" lon="4.47987">
        <ele>83.2</ele>
        <time>2024-08-31T14:26:24.496Z</time>
      </trkpt>
      <trkpt lat="44.21732" lon="4.47986">
        <ele>83.2</ele>
        <time>2024-08-31T14:26:23.496Z</time>
      </trkpt>
      <trkpt lat="44.21729" lon="4.47983">
        <ele>83.3</ele>
        <time>2024-08-31T14:26:22.496Z</time>
      </trkpt>
      <trkpt lat="44.21728" lon="4.47981">
        <ele>83.3</ele>
        <time>2024-08-31T14:26:21.496Z</time>
      </trkpt>
      <trkpt lat="44.21726" lon="4.47977">
        <ele>83.3</ele>
        <time>2024-08-31T14:26:20.496Z</time>
      </trkpt>
      <trkpt lat="44.21724" lon="4.47975">
        <ele>83.3</ele>
        <time>2024-08-31T14:26:19.496Z</time>
      </trkpt>
      <trkpt lat="44.21722" lon="4.47972">
        <ele>83.4</ele>
        <time>2024-08-31T14:26:18.496Z</time>
      </trkpt>
      <trkpt lat="44.2172" lon="4.47969">
        <ele>83.3</ele>
        <time>2024-08-31T14:26:17.496Z</time>
      </trkpt>
      <trkpt lat="44.21719" lon="4.47968">
        <ele>83.3</ele>
        <time>2024-08-31T14:26:16.496Z</time>
      </trkpt>
      <trkpt lat="44.21716" lon="4.47965">
        <ele>83.3</ele>
        <time>2024-08-31T14:26:15.496Z</time>
      </trkpt>
      <trkpt lat="44.21714" lon="4.47962">
        <ele>83.4</ele>
        <time>2024-08-31T14:26:14.496Z</time>
      </trkpt>
      <trkpt lat="44.21713" lon="4.47961">
        <ele>83.4</ele>
        <time>2024-08-31T14:26:13.496Z</time>
      </trkpt>
      <trkpt lat="44.21711" lon="4.47958">
        <ele>83.4</ele>
        <time>2024-08-31T14:26:12.496Z</time>
      </trkpt>
      <trkpt lat="44.21711" lon="4.47956">
        <ele>83.4</ele>
        <time>2024-08-31T14:26:11.496Z</time>
      </trkpt>
      <trkpt lat="44.21713" lon="4.47954">
        <ele>83.6</ele>
        <time>2024-08-31T14:26:10.496Z</time>
      </trkpt>
      <trkpt lat="44.21714" lon="4.47953">
        <ele>83.6</ele>
        <time>2024-08-31T14:26:09.496Z</time>
      </trkpt>
      <trkpt lat="44.21717" lon="4.47952">
        <ele>83.7</ele>
        <time>2024-08-31T14:26:08.496Z</time>
      </trkpt>
      <trkpt lat="44.2172" lon="4.4795">
        <ele>83.9</ele>
        <time>2024-08-31T14:26:07.496Z</time>
      </trkpt>
      <trkpt lat="44.21723" lon="4.47948">
        <ele>84</ele>
        <time>2024-08-31T14:26:06.496Z</time>
      </trkpt>
      <trkpt lat="44.21725" lon="4.47946">
        <ele>84.1</ele>
        <time>2024-08-31T14:26:05.496Z</time>
      </trkpt>
      <trkpt lat="44.21728" lon="4.47945">
        <ele>84.2</ele>
        <time>2024-08-31T14:26:04.496Z</time>
      </trkpt>
      <trkpt lat="44.21731" lon="4.47943">
        <ele>84.3</ele>
        <time>2024-08-31T14:26:03.496Z</time>
      </trkpt>
      <trkpt lat="44.21732" lon="4.47942">
        <ele>84.3</ele>
        <time>2024-08-31T14:26:02.496Z</time>
      </trkpt>
      <trkpt lat="44.21736" lon="4.4794">
        <ele>84.4</ele>
        <time>2024-08-31T14:26:01.496Z</time>
      </trkpt>
      <trkpt lat="44.21738" lon="4.47938">
        <ele>84.4</ele>
        <time>2024-08-31T14:26:00.496Z</time>
      </trkpt>
      <trkpt lat="44.21741" lon="4.47937">
        <ele>84.4</ele>
        <time>2024-08-31T14:25:59.496Z</time>
      </trkpt>
      <trkpt lat="44.21742" lon="4.47936">
        <ele>84.4</ele>
        <time>2024-08-31T14:25:58.496Z</time>
      </trkpt>
      <trkpt lat="44.21745" lon="4.47933">
        <ele>84.3</ele>
        <time>2024-08-31T14:25:57.496Z</time>
      </trkpt>
      <trkpt lat="44.21746" lon="4.47932">
        <ele>84.4</ele>
        <time>2024-08-31T14:25:56.496Z</time>
      </trkpt>
      <trkpt lat="44.21749" lon="4.47929">
        <ele>84.2</ele>
        <time>2024-08-31T14:25:55.496Z</time>
      </trkpt>
      <trkpt lat="44.2175" lon="4.47927">
        <ele>84.4</ele>
        <time>2024-08-31T14:25:54.496Z</time>
      </trkpt>
      <trkpt lat="44.21752" lon="4.47923">
        <ele>84.2</ele>
        <time>2024-08-31T14:25:53.496Z</time>
      </trkpt>
      <trkpt lat="44.21753" lon="4.47922">
        <ele>84.4</ele>
        <time>2024-08-31T14:25:52.496Z</time>
      </trkpt>
      <trkpt lat="44.21755" lon="4.47917">
        <ele>84.3</ele>
        <time>2024-08-31T14:25:51.496Z</time>
      </trkpt>
      <trkpt lat="44.21755" lon="4.47917">
        <ele>84.3</ele>
        <time>2024-08-31T14:25:50.496Z</time>
      </trkpt>
      <trkpt lat="44.21755" lon="4.47917">
        <ele>84.3</ele>
        <time>2024-08-31T14:25:49.496Z</time>
      </trkpt>
      <trkpt lat="44.21756" lon="4.47917">
        <ele>84.5</ele>
        <time>2024-08-31T14:25:48.496Z</time>
      </trkpt>
      <trkpt lat="44.21756" lon="4.47916">
        <ele>84.5</ele>
        <time>2024-08-31T14:25:47.496Z</time>
      </trkpt>
      <trkpt lat="44.21756" lon="4.47916">
        <ele>84.4</ele>
        <time>2024-08-31T14:25:46.496Z</time>
      </trkpt>
      <trkpt lat="44.21756" lon="4.47916">
        <ele>84.4</ele>
        <time>2024-08-31T14:25:45.496Z</time>
      </trkpt>
      <trkpt lat="44.21757" lon="4.47915">
        <ele>84.4</ele>
        <time>2024-08-31T14:25:44.496Z</time>
      </trkpt>
      <trkpt lat="44.21757" lon="4.47915">
        <ele>84.4</ele>
        <time>2024-08-31T14:25:43.496Z</time>
      </trkpt>
      <trkpt lat="44.21757" lon="4.47915">
        <ele>84.4</ele>
        <time>2024-08-31T14:25:42.496Z</time>
      </trkpt>
      <trkpt lat="44.21757" lon="4.47914">
        <ele>84.4</ele>
        <time>2024-08-31T14:25:41.496Z</time>
      </trkpt>
      <trkpt lat="44.21757" lon="4.47914">
        <ele>84.4</ele>
        <time>2024-08-31T14:25:40.496Z</time>
      </trkpt>
      <trkpt lat="44.21758" lon="4.47914">
        <ele>84.4</ele>
        <time>2024-08-31T14:25:39.496Z</time>
      </trkpt>
      <trkpt lat="44.21758" lon="4.47913">
        <ele>84.4</ele>
        <time>2024-08-31T14:25:38.496Z</time>
      </trkpt>
      <trkpt lat="44.21759" lon="4.47912">
        <ele>84.7</ele>
        <time>2024-08-31T14:25:37.496Z</time>
      </trkpt>
      <trkpt lat="44.21761" lon="4.47911">
        <ele>84.5</ele>
        <time>2024-08-31T14:25:36.496Z</time>
      </trkpt>
      <trkpt lat="44.21761" lon="4.4791">
        <ele>84.5</ele>
        <time>2024-08-31T14:25:35.496Z</time>
      </trkpt>
      <trkpt lat="44.21764" lon="4.47908">
        <ele>84.7</ele>
        <time>2024-08-31T14:25:34.496Z</time>
      </trkpt>
      <trkpt lat="44.21764" lon="4.47908">
        <ele>84.8</ele>
        <time>2024-08-31T14:25:33.496Z</time>
      </trkpt>
      <trkpt lat="44.21765" lon="4.47908">
        <ele>84.8</ele>
        <time>2024-08-31T14:25:32.496Z</time>
      </trkpt>
      <trkpt lat="44.21764" lon="4.47908">
        <ele>84.8</ele>
        <time>2024-08-31T14:25:31.496Z</time>
      </trkpt>
      <trkpt lat="44.21764" lon="4.47908">
        <ele>84.8</ele>
        <time>2024-08-31T14:25:30.496Z</time>
      </trkpt>
      <trkpt lat="44.21764" lon="4.47907">
        <ele>84.5</ele>
        <time>2024-08-31T14:25:29.496Z</time>
      </trkpt>
      <trkpt lat="44.21764" lon="4.47907">
        <ele>84.5</ele>
        <time>2024-08-31T14:25:28.496Z</time>
      </trkpt>
      <trkpt lat="44.21764" lon="4.47907">
        <ele>84.5</ele>
        <time>2024-08-31T14:25:27.496Z</time>
      </trkpt>
      <trkpt lat="44.21765" lon="4.47906">
        <ele>84.7</ele>
        <time>2024-08-31T14:25:26.496Z</time>
      </trkpt>
      <trkpt lat="44.21766" lon="4.47905">
        <ele>84.8</ele>
        <time>2024-08-31T14:25:25.496Z</time>
      </trkpt>
      <trkpt lat="44.21767" lon="4.47904">
        <ele>84.8</ele>
        <time>2024-08-31T14:25:24.496Z</time>
      </trkpt>
      <trkpt lat="44.21768" lon="4.47903">
        <ele>84.6</ele>
        <time>2024-08-31T14:25:23.496Z</time>
      </trkpt>
      <trkpt lat="44.21769" lon="4.47902">
        <ele>84.6</ele>
        <time>2024-08-31T14:25:22.496Z</time>
      </trkpt>
      <trkpt lat="44.2177" lon="4.47901">
        <ele>84.6</ele>
        <time>2024-08-31T14:25:21.496Z</time>
      </trkpt>
      <trkpt lat="44.21771" lon="4.47899">
        <ele>84.7</ele>
        <time>2024-08-31T14:25:20.496Z</time>
      </trkpt>
      <trkpt lat="44.21772" lon="4.479">
        <ele>84.8</ele>
        <time>2024-08-31T14:25:19.496Z</time>
      </trkpt>
      <trkpt lat="44.21773" lon="4.47901">
        <ele>84.8</ele>
        <time>2024-08-31T14:25:18.496Z</time>
      </trkpt>
      <trkpt lat="44.21774" lon="4.47902">
        <ele>84.8</ele>
        <time>2024-08-31T14:25:17.496Z</time>
      </trkpt>
      <trkpt lat="44.21776" lon="4.47905">
        <ele>85.1</ele>
        <time>2024-08-31T14:25:16.496Z</time>
      </trkpt>
      <trkpt lat="44.21777" lon="4.47907">
        <ele>85.1</ele>
        <time>2024-08-31T14:25:15.496Z</time>
      </trkpt>
      <trkpt lat="44.21778" lon="4.4791">
        <ele>85.2</ele>
        <time>2024-08-31T14:25:14.496Z</time>
      </trkpt>
      <trkpt lat="44.21779" lon="4.47911">
        <ele>85.2</ele>
        <time>2024-08-31T14:25:13.496Z</time>
      </trkpt>
      <trkpt lat="44.21779" lon="4.47912">
        <ele>85.2</ele>
        <time>2024-08-31T14:25:12.496Z</time>
      </trkpt>
      <trkpt lat="44.21779" lon="4.47912">
        <ele>85.3</ele>
        <time>2024-08-31T14:25:11.496Z</time>
      </trkpt>
      <trkpt lat="44.2178" lon="4.47914">
        <ele>85.2</ele>
        <time>2024-08-31T14:25:10.496Z</time>
      </trkpt>
      <trkpt lat="44.21779" lon="4.47907">
        <ele>85.2</ele>
        <time>2024-08-31T14:18:43.496Z</time>
      </trkpt>
      <trkpt lat="44.21779" lon="4.47907">
        <ele>85.2</ele>
        <time>2024-08-31T14:18:42.496Z</time>
      </trkpt>
      <trkpt lat="44.21779" lon="4.47906">
        <ele>85.2</ele>
        <time>2024-08-31T14:18:41.496Z</time>
      </trkpt>
      <trkpt lat="44.21779" lon="4.47905">
        <ele>85.2</ele>
        <time>2024-08-31T14:18:40.496Z</time>
      </trkpt>
      <trkpt lat="44.21779" lon="4.47904">
        <ele>85.2</ele>
        <time>2024-08-31T14:18:39.496Z</time>
      </trkpt>
      <trkpt lat="44.21778" lon="4.47903">
        <ele>85.2</ele>
        <time>2024-08-31T14:18:38.496Z</time>
      </trkpt>
      <trkpt lat="44.21778" lon="4.47902">
        <ele>85.1</ele>
        <time>2024-08-31T14:18:37.496Z</time>
      </trkpt>
      <trkpt lat="44.21777" lon="4.47901">
        <ele>85.1</ele>
        <time>2024-08-31T14:18:36.496Z</time>
      </trkpt>
      <trkpt lat="44.21777" lon="4.479">
        <ele>85</ele>
        <time>2024-08-31T14:18:35.496Z</time>
      </trkpt>
      <trkpt lat="44.21777" lon="4.47899">
        <ele>85</ele>
        <time>2024-08-31T14:18:34.496Z</time>
      </trkpt>
      <trkpt lat="44.21776" lon="4.47898">
        <ele>84.8</ele>
        <time>2024-08-31T14:18:33.496Z</time>
      </trkpt>
      <trkpt lat="44.21776" lon="4.47897">
        <ele>84.8</ele>
        <time>2024-08-31T14:18:32.496Z</time>
      </trkpt>
      <trkpt lat="44.21776" lon="4.47896">
        <ele>84.8</ele>
        <time>2024-08-31T14:18:31.496Z</time>
      </trkpt>
      <trkpt lat="44.21775" lon="4.47895">
        <ele>84.8</ele>
        <time>2024-08-31T14:18:30.496Z</time>
      </trkpt>
      <trkpt lat="44.21775" lon="4.47894">
        <ele>84.4</ele>
        <time>2024-08-31T14:18:29.496Z</time>
      </trkpt>
      <trkpt lat="44.21775" lon="4.47894">
        <ele>84.4</ele>
        <time>2024-08-31T14:18:28.496Z</time>
      </trkpt>
      <trkpt lat="44.21776" lon="4.47893">
        <ele>84.4</ele>
        <time>2024-08-31T14:18:27.496Z</time>
      </trkpt>
      <trkpt lat="44.21777" lon="4.47892">
        <ele>84.6</ele>
        <time>2024-08-31T14:18:26.496Z</time>
      </trkpt>
      <trkpt lat="44.21778" lon="4.47892">
        <ele>84.6</ele>
        <time>2024-08-31T14:18:25.496Z</time>
      </trkpt>
      <trkpt lat="44.21779" lon="4.47892">
        <ele>84.6</ele>
        <time>2024-08-31T14:18:24.496Z</time>
      </trkpt>
      <trkpt lat="44.21779" lon="4.47892">
        <ele>84.6</ele>
        <time>2024-08-31T14:18:23.496Z</time>
      </trkpt>
      <trkpt lat="44.21779" lon="4.47892">
        <ele>84.6</ele>
        <time>2024-08-31T14:18:22.496Z</time>
      </trkpt>
      <trkpt lat="44.21779" lon="4.47893">
        <ele>84.6</ele>
        <time>2024-08-31T14:18:21.496Z</time>
      </trkpt>
      <trkpt lat="44.21779" lon="4.47893">
        <ele>84.7</ele>
        <time>2024-08-31T14:18:20.496Z</time>
      </trkpt>
      <trkpt lat="44.21779" lon="4.47892">
        <ele>84.7</ele>
        <time>2024-08-31T14:18:19.496Z</time>
      </trkpt>
      <trkpt lat="44.21779" lon="4.47891">
        <ele>84.7</ele>
        <time>2024-08-31T14:18:18.496Z</time>
      </trkpt>
      <trkpt lat="44.2178" lon="4.4789">
        <ele>84.3</ele>
        <time>2024-08-31T14:18:17.496Z</time>
      </trkpt>
      <trkpt lat="44.21781" lon="4.47889">
        <ele>84.6</ele>
        <time>2024-08-31T14:18:16.496Z</time>
      </trkpt>
      <trkpt lat="44.21781" lon="4.47887">
        <ele>84.6</ele>
        <time>2024-08-31T14:18:15.496Z</time>
      </trkpt>
      <trkpt lat="44.21782" lon="4.47885">
        <ele>84.3</ele>
        <time>2024-08-31T14:18:14.496Z</time>
      </trkpt>
      <trkpt lat="44.21783" lon="4.47883">
        <ele>84.3</ele>
        <time>2024-08-31T14:18:13.496Z</time>
      </trkpt>
      <trkpt lat="44.21784" lon="4.47882">
        <ele>84.5</ele>
        <time>2024-08-31T14:18:12.496Z</time>
      </trkpt>
      <trkpt lat="44.21786" lon="4.47879">
        <ele>84.3</ele>
        <time>2024-08-31T14:18:11.496Z</time>
      </trkpt>
      <trkpt lat="44.21787" lon="4.47877">
        <ele>84.2</ele>
        <time>2024-08-31T14:18:10.496Z</time>
      </trkpt>
      <trkpt lat="44.21787" lon="4.47875">
        <ele>84.2</ele>
        <time>2024-08-31T14:18:09.496Z</time>
      </trkpt>
      <trkpt lat="44.21787" lon="4.47873">
        <ele>83.9</ele>
        <time>2024-08-31T14:18:08.496Z</time>
      </trkpt>
      <trkpt lat="44.21788" lon="4.47872">
        <ele>83.9</ele>
        <time>2024-08-31T14:18:07.496Z</time>
      </trkpt>
      <trkpt lat="44.21787" lon="4.4787">
        <ele>83.9</ele>
        <time>2024-08-31T14:18:06.496Z</time>
      </trkpt>
      <trkpt lat="44.21787" lon="4.47869">
        <ele>83.9</ele>
        <time>2024-08-31T14:18:05.496Z</time>
      </trkpt>
      <trkpt lat="44.21787" lon="4.47868">
        <ele>83.4</ele>
        <time>2024-08-31T14:18:04.496Z</time>
      </trkpt>
      <trkpt lat="44.21786" lon="4.47866">
        <ele>83.4</ele>
        <time>2024-08-31T14:18:03.496Z</time>
      </trkpt>
      <trkpt lat="44.21786" lon="4.47866">
        <ele>83.5</ele>
        <time>2024-08-31T14:18:02.496Z</time>
      </trkpt>
      <trkpt lat="44.21787" lon="4.47865">
        <ele>83.5</ele>
        <time>2024-08-31T14:18:01.496Z</time>
      </trkpt>
      <trkpt lat="44.21787" lon="4.47863">
        <ele>83</ele>
        <time>2024-08-31T14:18:00.496Z</time>
      </trkpt>
      <trkpt lat="44.21787" lon="4.47862">
        <ele>83</ele>
        <time>2024-08-31T14:17:59.496Z</time>
      </trkpt>
      <trkpt lat="44.21788" lon="4.4786">
        <ele>83</ele>
        <time>2024-08-31T14:17:58.496Z</time>
      </trkpt>
      <trkpt lat="44.21788" lon="4.47859">
        <ele>82.6</ele>
        <time>2024-08-31T14:17:57.496Z</time>
      </trkpt>
      <trkpt lat="44.21788" lon="4.47859">
        <ele>82.6</ele>
        <time>2024-08-31T14:17:56.496Z</time>
      </trkpt>
      <trkpt lat="44.21789" lon="4.47859">
        <ele>82.6</ele>
        <time>2024-08-31T14:17:55.496Z</time>
      </trkpt>
      <trkpt lat="44.2179" lon="4.47859">
        <ele>82.8</ele>
        <time>2024-08-31T14:17:54.496Z</time>
      </trkpt>
      <trkpt lat="44.2179" lon="4.47859">
        <ele>82.8</ele>
        <time>2024-08-31T14:17:53.496Z</time>
      </trkpt>
      <trkpt lat="44.2179" lon="4.4786">
        <ele>82.8</ele>
        <time>2024-08-31T14:17:52.496Z</time>
      </trkpt>
      <trkpt lat="44.2179" lon="4.4786">
        <ele>82.8</ele>
        <time>2024-08-31T14:17:51.496Z</time>
      </trkpt>
      <trkpt lat="44.2179" lon="4.4786">
        <ele>82.8</ele>
        <time>2024-08-31T14:17:50.496Z</time>
      </trkpt>
      <trkpt lat="44.2179" lon="4.4786">
        <ele>82.8</ele>
        <time>2024-08-31T14:17:49.496Z</time>
      </trkpt>
      <trkpt lat="44.21789" lon="4.4786">
        <ele>82.8</ele>
        <time>2024-08-31T14:17:48.496Z</time>
      </trkpt>
      <trkpt lat="44.21789" lon="4.4786">
        <ele>82.8</ele>
        <time>2024-08-31T14:17:47.496Z</time>
      </trkpt>
      <trkpt lat="44.21789" lon="4.47859">
        <ele>82.6</ele>
        <time>2024-08-31T14:17:46.496Z</time>
      </trkpt>
      <trkpt lat="44.21789" lon="4.47858">
        <ele>82.7</ele>
        <time>2024-08-31T14:17:45.496Z</time>
      </trkpt>
      <trkpt lat="44.21789" lon="4.47857">
        <ele>82.7</ele>
        <time>2024-08-31T14:17:44.496Z</time>
      </trkpt>
      <trkpt lat="44.21789" lon="4.47857">
        <ele>82.9</ele>
        <time>2024-08-31T14:17:43.496Z</time>
      </trkpt>
      <trkpt lat="44.2179" lon="4.47856">
        <ele>82.5</ele>
        <time>2024-08-31T14:17:42.496Z</time>
      </trkpt>
      <trkpt lat="44.2179" lon="4.47854">
        <ele>82.5</ele>
        <time>2024-08-31T14:17:41.496Z</time>
      </trkpt>
      <trkpt lat="44.21791" lon="4.47853">
        <ele>82.5</ele>
        <time>2024-08-31T14:17:39.496Z</time>
      </trkpt>
      <trkpt lat="44.21791" lon="4.47853">
        <ele>82.5</ele>
        <time>2024-08-31T14:17:38.496Z</time>
      </trkpt>
      <trkpt lat="44.21791" lon="4.47853">
        <ele>82.5</ele>
        <time>2024-08-31T14:17:37.496Z</time>
      </trkpt>
      <trkpt lat="44.21791" lon="4.47853">
        <ele>82.5</ele>
        <time>2024-08-31T14:17:36.496Z</time>
      </trkpt>
      <trkpt lat="44.21791" lon="4.47853">
        <ele>82.5</ele>
        <time>2024-08-31T14:17:35.496Z</time>
      </trkpt>
      <trkpt lat="44.21791" lon="4.47853">
        <ele>82.5</ele>
        <time>2024-08-31T14:17:34.496Z</time>
      </trkpt>
      <trkpt lat="44.21791" lon="4.47853">
        <ele>82.5</ele>
        <time>2024-08-31T14:17:33.496Z</time>
      </trkpt>
      <trkpt lat="44.21791" lon="4.47853">
        <ele>82.5</ele>
        <time>2024-08-31T14:17:32.496Z</time>
      </trkpt>
      <trkpt lat="44.21792" lon="4.47853">
        <ele>82.5</ele>
        <time>2024-08-31T14:17:31.496Z</time>
      </trkpt>
      <trkpt lat="44.21792" lon="4.47853">
        <ele>82.5</ele>
        <time>2024-08-31T14:17:30.496Z</time>
      </trkpt>
      <trkpt lat="44.21792" lon="4.47853">
        <ele>82.7</ele>
        <time>2024-08-31T14:17:29.496Z</time>
      </trkpt>
      <trkpt lat="44.21792" lon="4.47852">
        <ele>82.5</ele>
        <time>2024-08-31T14:17:28.496Z</time>
      </trkpt>
      <trkpt lat="44.21792" lon="4.47851">
        <ele>82.4</ele>
        <time>2024-08-31T14:17:27.496Z</time>
      </trkpt>
      <trkpt lat="44.21793" lon="4.4785">
        <ele>82.4</ele>
        <time>2024-08-31T14:17:26.496Z</time>
      </trkpt>
      <trkpt lat="44.21793" lon="4.47848">
        <ele>82.4</ele>
        <time>2024-08-31T14:17:25.496Z</time>
      </trkpt>
      <trkpt lat="44.21793" lon="4.47847">
        <ele>82.2</ele>
        <time>2024-08-31T14:17:24.496Z</time>
      </trkpt>
      <trkpt lat="44.21793" lon="4.47846">
        <ele>82.2</ele>
        <time>2024-08-31T14:17:23.496Z</time>
      </trkpt>
      <trkpt lat="44.21793" lon="4.47845">
        <ele>82.2</ele>
        <time>2024-08-31T14:17:22.496Z</time>
      </trkpt>
      <trkpt lat="44.21793" lon="4.47844">
        <ele>82.2</ele>
        <time>2024-08-31T14:17:21.496Z</time>
      </trkpt>
      <trkpt lat="44.21792" lon="4.47844">
        <ele>82</ele>
        <time>2024-08-31T14:17:20.496Z</time>
      </trkpt>
      <trkpt lat="44.21792" lon="4.47843">
        <ele>82</ele>
        <time>2024-08-31T14:17:19.496Z</time>
      </trkpt>
      <trkpt lat="44.21792" lon="4.47843">
        <ele>82.1</ele>
        <time>2024-08-31T14:17:18.496Z</time>
      </trkpt>
      <trkpt lat="44.21793" lon="4.47842">
        <ele>82.1</ele>
        <time>2024-08-31T14:17:17.496Z</time>
      </trkpt>
      <trkpt lat="44.21796" lon="4.4784">
        <ele>82.3</ele>
        <time>2024-08-31T14:17:16.496Z</time>
      </trkpt>
      <trkpt lat="44.21799" lon="4.47837">
        <ele>82.2</ele>
        <time>2024-08-31T14:17:15.496Z</time>
      </trkpt>
      <trkpt lat="44.21801" lon="4.47834">
        <ele>82.3</ele>
        <time>2024-08-31T14:17:14.496Z</time>
      </trkpt>
      <trkpt lat="44.21805" lon="4.4783">
        <ele>82.3</ele>
        <time>2024-08-31T14:17:13.496Z</time>
      </trkpt>
      <trkpt lat="44.2181" lon="4.47826">
        <ele>82.4</ele>
        <time>2024-08-31T14:17:12.496Z</time>
      </trkpt>
      <trkpt lat="44.21815" lon="4.47822">
        <ele>82.3</ele>
        <time>2024-08-31T14:17:11.496Z</time>
      </trkpt>
      <trkpt lat="44.21818" lon="4.47819">
        <ele>82.2</ele>
        <time>2024-08-31T14:17:10.496Z</time>
      </trkpt>
      <trkpt lat="44.21822" lon="4.47818">
        <ele>82.4</ele>
        <time>2024-08-31T14:17:09.496Z</time>
      </trkpt>
      <trkpt lat="44.21823" lon="4.47817">
        <ele>82.5</ele>
        <time>2024-08-31T14:17:08.496Z</time>
      </trkpt>
      <trkpt lat="44.21827" lon="4.47816">
        <ele>82.7</ele>
        <time>2024-08-31T14:17:07.496Z</time>
      </trkpt>
      <trkpt lat="44.21829" lon="4.47815">
        <ele>82.7</ele>
        <time>2024-08-31T14:17:06.496Z</time>
      </trkpt>
      <trkpt lat="44.2183" lon="4.47815">
        <ele>83</ele>
        <time>2024-08-31T14:17:05.496Z</time>
      </trkpt>
      <trkpt lat="44.21831" lon="4.47815">
        <ele>83.1</ele>
        <time>2024-08-31T14:17:04.496Z</time>
      </trkpt>
      <trkpt lat="44.21831" lon="4.47814">
        <ele>83.1</ele>
        <time>2024-08-31T14:17:03.496Z</time>
      </trkpt>
      <trkpt lat="44.21832" lon="4.47814">
        <ele>83.1</ele>
        <time>2024-08-31T14:17:02.496Z</time>
      </trkpt>
      <trkpt lat="44.21832" lon="4.47814">
        <ele>83.1</ele>
        <time>2024-08-31T14:17:01.496Z</time>
      </trkpt>
      <trkpt lat="44.21833" lon="4.47814">
        <ele>83.4</ele>
        <time>2024-08-31T14:17:00.496Z</time>
      </trkpt>
      <trkpt lat="44.21833" lon="4.47814">
        <ele>83.4</ele>
        <time>2024-08-31T14:16:59.496Z</time>
      </trkpt>
      <trkpt lat="44.21833" lon="4.47814">
        <ele>83.4</ele>
        <time>2024-08-31T14:16:58.496Z</time>
      </trkpt>
      <trkpt lat="44.21833" lon="4.47814">
        <ele>83.4</ele>
        <time>2024-08-31T14:16:57.496Z</time>
      </trkpt>
      <trkpt lat="44.21833" lon="4.47814">
        <ele>83.4</ele>
        <time>2024-08-31T14:16:56.496Z</time>
      </trkpt>
      <trkpt lat="44.21833" lon="4.47814">
        <ele>83.4</ele>
        <time>2024-08-31T14:16:55.496Z</time>
      </trkpt>
      <trkpt lat="44.21833" lon="4.47814">
        <ele>83.4</ele>
        <time>2024-08-31T14:16:54.496Z</time>
      </trkpt>
      <trkpt lat="44.21834" lon="4.47814">
        <ele>83.4</ele>
        <time>2024-08-31T14:16:53.496Z</time>
      </trkpt>
      <trkpt lat="44.21834" lon="4.47814">
        <ele>83.4</ele>
        <time>2024-08-31T14:16:52.496Z</time>
      </trkpt>
      <trkpt lat="44.21833" lon="4.47815">
        <ele>83.4</ele>
        <time>2024-08-31T14:16:51.496Z</time>
      </trkpt>
      <trkpt lat="44.21834" lon="4.47814">
        <ele>83.4</ele>
        <time>2024-08-31T14:16:50.496Z</time>
      </trkpt>
      <trkpt lat="44.21834" lon="4.47813">
        <ele>83.2</ele>
        <time>2024-08-31T14:16:49.496Z</time>
      </trkpt>
      <trkpt lat="44.21835" lon="4.47812">
        <ele>83.2</ele>
        <time>2024-08-31T14:16:48.496Z</time>
      </trkpt>
      <trkpt lat="44.21836" lon="4.47812">
        <ele>83.4</ele>
        <time>2024-08-31T14:16:47.496Z</time>
      </trkpt>
      <trkpt lat="44.21836" lon="4.47811">
        <ele>83.4</ele>
        <time>2024-08-31T14:16:46.496Z</time>
      </trkpt>
      <trkpt lat="44.21836" lon="4.47811">
        <ele>83.4</ele>
        <time>2024-08-31T14:16:45.496Z</time>
      </trkpt>
      <trkpt lat="44.21836" lon="4.47811">
        <ele>83.5</ele>
        <time>2024-08-31T14:16:44.496Z</time>
      </trkpt>
      <trkpt lat="44.21836" lon="4.47811">
        <ele>83.5</ele>
        <time>2024-08-31T14:16:43.496Z</time>
      </trkpt>
      <trkpt lat="44.21836" lon="4.47811">
        <ele>83.5</ele>
        <time>2024-08-31T14:16:42.496Z</time>
      </trkpt>
      <trkpt lat="44.21836" lon="4.47811">
        <ele>83.5</ele>
        <time>2024-08-31T14:16:41.496Z</time>
      </trkpt>
      <trkpt lat="44.21836" lon="4.4781">
        <ele>83.5</ele>
        <time>2024-08-31T14:16:40.496Z</time>
      </trkpt>
      <trkpt lat="44.21837" lon="4.47809">
        <ele>83.1</ele>
        <time>2024-08-31T14:16:39.496Z</time>
      </trkpt>
      <trkpt lat="44.21838" lon="4.47807">
        <ele>83.1</ele>
        <time>2024-08-31T14:16:38.496Z</time>
      </trkpt>
      <trkpt lat="44.21839" lon="4.47806">
        <ele>83.3</ele>
        <time>2024-08-31T14:16:37.496Z</time>
      </trkpt>
      <trkpt lat="44.21841" lon="4.47806">
        <ele>83.3</ele>
        <time>2024-08-31T14:16:36.496Z</time>
      </trkpt>
      <trkpt lat="44.21842" lon="4.47806">
        <ele>83.6</ele>
        <time>2024-08-31T14:16:35.496Z</time>
      </trkpt>
      <trkpt lat="44.21843" lon="4.47807">
        <ele>83.6</ele>
        <time>2024-08-31T14:16:34.496Z</time>
      </trkpt>
      <trkpt lat="44.21844" lon="4.47808">
        <ele>83.6</ele>
        <time>2024-08-31T14:16:33.496Z</time>
      </trkpt>
      <trkpt lat="44.21845" lon="4.47808">
        <ele>83.8</ele>
        <time>2024-08-31T14:16:32.496Z</time>
      </trkpt>
      <trkpt lat="44.21846" lon="4.47809">
        <ele>84.3</ele>
        <time>2024-08-31T14:16:31.496Z</time>
      </trkpt>
      <trkpt lat="44.21847" lon="4.4781">
        <ele>84.3</ele>
        <time>2024-08-31T14:16:30.496Z</time>
      </trkpt>
      <trkpt lat="44.21848" lon="4.47812">
        <ele>84.5</ele>
        <time>2024-08-31T14:16:29.496Z</time>
      </trkpt>
      <trkpt lat="44.21849" lon="4.47813">
        <ele>84.5</ele>
        <time>2024-08-31T14:16:28.496Z</time>
      </trkpt>
      <trkpt lat="44.21849" lon="4.47814">
        <ele>84.9</ele>
        <time>2024-08-31T14:16:27.496Z</time>
      </trkpt>
      <trkpt lat="44.21851" lon="4.47814">
        <ele>85.1</ele>
        <time>2024-08-31T14:16:26.496Z</time>
      </trkpt>
      <trkpt lat="44.21852" lon="4.47815">
        <ele>85.1</ele>
        <time>2024-08-31T14:16:25.496Z</time>
      </trkpt>
      <trkpt lat="44.21855" lon="4.47814">
        <ele>85.2</ele>
        <time>2024-08-31T14:16:24.496Z</time>
      </trkpt>
      <trkpt lat="44.21856" lon="4.47813">
        <ele>84.9</ele>
        <time>2024-08-31T14:16:23.496Z</time>
      </trkpt>
      <trkpt lat="44.21858" lon="4.4781">
        <ele>85</ele>
        <time>2024-08-31T14:16:22.496Z</time>
      </trkpt>
      <trkpt lat="44.21858" lon="4.47807">
        <ele>84.7</ele>
        <time>2024-08-31T14:16:21.496Z</time>
      </trkpt>
      <trkpt lat="44.21858" lon="4.47805">
        <ele>84.7</ele>
        <time>2024-08-31T14:16:20.496Z</time>
      </trkpt>
      <trkpt lat="44.21857" lon="4.47802">
        <ele>84.4</ele>
        <time>2024-08-31T14:16:19.496Z</time>
      </trkpt>
      <trkpt lat="44.21857" lon="4.478">
        <ele>84.1</ele>
        <time>2024-08-31T14:16:18.496Z</time>
      </trkpt>
      <trkpt lat="44.21858" lon="4.47798">
        <ele>84</ele>
        <time>2024-08-31T14:16:17.496Z</time>
      </trkpt>
      <trkpt lat="44.21858" lon="4.47797">
        <ele>84.1</ele>
        <time>2024-08-31T14:16:16.496Z</time>
      </trkpt>
      <trkpt lat="44.21859" lon="4.47796">
        <ele>84.1</ele>
        <time>2024-08-31T14:16:15.496Z</time>
      </trkpt>
      <trkpt lat="44.2186" lon="4.47795">
        <ele>83.7</ele>
        <time>2024-08-31T14:16:14.496Z</time>
      </trkpt>
      <trkpt lat="44.21862" lon="4.47794">
        <ele>84.1</ele>
        <time>2024-08-31T14:16:13.496Z</time>
      </trkpt>
      <trkpt lat="44.21863" lon="4.47793">
        <ele>84.1</ele>
        <time>2024-08-31T14:16:12.496Z</time>
      </trkpt>
      <trkpt lat="44.21864" lon="4.47792">
        <ele>84.4</ele>
        <time>2024-08-31T14:16:11.496Z</time>
      </trkpt>
      <trkpt lat="44.21865" lon="4.47792">
        <ele>84.4</ele>
        <time>2024-08-31T14:16:10.496Z</time>
      </trkpt>
      <trkpt lat="44.21866" lon="4.47791">
        <ele>84.1</ele>
        <time>2024-08-31T14:16:09.496Z</time>
      </trkpt>
      <trkpt lat="44.21868" lon="4.4779">
        <ele>84.5</ele>
        <time>2024-08-31T14:16:08.496Z</time>
      </trkpt>
      <trkpt lat="44.21869" lon="4.47789">
        <ele>84.5</ele>
        <time>2024-08-31T14:16:07.496Z</time>
      </trkpt>
      <trkpt lat="44.21869" lon="4.47788">
        <ele>84.5</ele>
        <time>2024-08-31T14:16:06.496Z</time>
      </trkpt>
      <trkpt lat="44.21871" lon="4.47787">
        <ele>84.4</ele>
        <time>2024-08-31T14:16:05.496Z</time>
      </trkpt>
      <trkpt lat="44.21872" lon="4.47787">
        <ele>84.4</ele>
        <time>2024-08-31T14:16:04.496Z</time>
      </trkpt>
      <trkpt lat="44.21873" lon="4.47788">
        <ele>85</ele>
        <time>2024-08-31T14:16:03.496Z</time>
      </trkpt>
      <trkpt lat="44.21875" lon="4.47788">
        <ele>85</ele>
        <time>2024-08-31T14:16:02.496Z</time>
      </trkpt>
      <trkpt lat="44.21875" lon="4.47788">
        <ele>85</ele>
        <time>2024-08-31T14:16:01.496Z</time>
      </trkpt>
      <trkpt lat="44.21875" lon="4.47786">
        <ele>84.7</ele>
        <time>2024-08-31T14:16:00.496Z</time>
      </trkpt>
      <trkpt lat="44.21875" lon="4.47785">
        <ele>84.7</ele>
        <time>2024-08-31T14:15:59.496Z</time>
      </trkpt>
      <trkpt lat="44.21875" lon="4.47783">
        <ele>84.2</ele>
        <time>2024-08-31T14:15:58.496Z</time>
      </trkpt>
      <trkpt lat="44.21874" lon="4.47781">
        <ele>84.2</ele>
        <time>2024-08-31T14:15:57.496Z</time>
      </trkpt>
      <trkpt lat="44.21874" lon="4.4778">
        <ele>84.2</ele>
        <time>2024-08-31T14:15:56.496Z</time>
      </trkpt>
      <trkpt lat="44.21872" lon="4.47776">
        <ele>83.5</ele>
        <time>2024-08-31T14:15:55.496Z</time>
      </trkpt>
      <trkpt lat="44.21871" lon="4.47774">
        <ele>83.1</ele>
        <time>2024-08-31T14:15:54.496Z</time>
      </trkpt>
      <trkpt lat="44.2187" lon="4.47773">
        <ele>83.1</ele>
        <time>2024-08-31T14:15:53.496Z</time>
      </trkpt>
      <trkpt lat="44.21868" lon="4.47772">
        <ele>83</ele>
        <time>2024-08-31T14:15:52.496Z</time>
      </trkpt>
      <trkpt lat="44.21867" lon="4.47772">
        <ele>83</ele>
        <time>2024-08-31T14:15:51.496Z</time>
      </trkpt>
      <trkpt lat="44.21867" lon="4.47771">
        <ele>83</ele>
        <time>2024-08-31T14:15:50.496Z</time>
      </trkpt>
      <trkpt lat="44.21866" lon="4.4777">
        <ele>82.6</ele>
        <time>2024-08-31T14:15:49.496Z</time>
      </trkpt>
      <trkpt lat="44.21865" lon="4.47769">
        <ele>82.6</ele>
        <time>2024-08-31T14:15:48.496Z</time>
      </trkpt>
      <trkpt lat="44.21865" lon="4.47769">
        <ele>82.6</ele>
        <time>2024-08-31T14:15:47.496Z</time>
      </trkpt>
      <trkpt lat="44.21865" lon="4.47767">
        <ele>82.6</ele>
        <time>2024-08-31T14:15:46.496Z</time>
      </trkpt>
      <trkpt lat="44.21865" lon="4.47767">
        <ele>82.7</ele>
        <time>2024-08-31T14:15:45.496Z</time>
      </trkpt>
      <trkpt lat="44.21865" lon="4.47766">
        <ele>82.7</ele>
        <time>2024-08-31T14:15:44.496Z</time>
      </trkpt>
      <trkpt lat="44.21866" lon="4.47765">
        <ele>82.4</ele>
        <time>2024-08-31T14:15:43.496Z</time>
      </trkpt>
      <trkpt lat="44.21866" lon="4.47765">
        <ele>82.4</ele>
        <time>2024-08-31T14:15:42.496Z</time>
      </trkpt>
      <trkpt lat="44.21866" lon="4.47764">
        <ele>82.4</ele>
        <time>2024-08-31T14:15:41.496Z</time>
      </trkpt>
      <trkpt lat="44.21865" lon="4.47764">
        <ele>82.4</ele>
        <time>2024-08-31T14:15:40.496Z</time>
      </trkpt>
      <trkpt lat="44.21866" lon="4.47764">
        <ele>82.4</ele>
        <time>2024-08-31T14:15:39.496Z</time>
      </trkpt>
      <trkpt lat="44.21866" lon="4.47762">
        <ele>82.4</ele>
        <time>2024-08-31T14:15:38.496Z</time>
      </trkpt>
      <trkpt lat="44.21866" lon="4.47761">
        <ele>82.3</ele>
        <time>2024-08-31T14:15:37.496Z</time>
      </trkpt>
      <trkpt lat="44.21866" lon="4.47759">
        <ele>82.3</ele>
        <time>2024-08-31T14:15:36.496Z</time>
      </trkpt>
      <trkpt lat="44.21866" lon="4.47758">
        <ele>82.3</ele>
        <time>2024-08-31T14:15:35.496Z</time>
      </trkpt>
      <trkpt lat="44.21866" lon="4.47758">
        <ele>82.3</ele>
        <time>2024-08-31T14:15:34.496Z</time>
      </trkpt>
      <trkpt lat="44.21867" lon="4.47759">
        <ele>82.3</ele>
        <time>2024-08-31T14:15:33.496Z</time>
      </trkpt>
      <trkpt lat="44.21868" lon="4.47761">
        <ele>82.3</ele>
        <time>2024-08-31T14:15:32.496Z</time>
      </trkpt>
      <trkpt lat="44.21869" lon="4.47762">
        <ele>82.5</ele>
        <time>2024-08-31T14:15:31.496Z</time>
      </trkpt>
      <trkpt lat="44.21871" lon="4.47763">
        <ele>82.5</ele>
        <time>2024-08-31T14:15:30.496Z</time>
      </trkpt>
      <trkpt lat="44.21873" lon="4.47762">
        <ele>82.7</ele>
        <time>2024-08-31T14:15:29.496Z</time>
      </trkpt>
      <trkpt lat="44.21874" lon="4.47761">
        <ele>82.5</ele>
        <time>2024-08-31T14:15:28.496Z</time>
      </trkpt>
      <trkpt lat="44.21875" lon="4.47759">
        <ele>82.5</ele>
        <time>2024-08-31T14:15:27.496Z</time>
      </trkpt>
      <trkpt lat="44.21876" lon="4.47758">
        <ele>82.6</ele>
        <time>2024-08-31T14:15:26.496Z</time>
      </trkpt>
      <trkpt lat="44.21877" lon="4.47757">
        <ele>82.7</ele>
        <time>2024-08-31T14:15:25.496Z</time>
      </trkpt>
      <trkpt lat="44.21878" lon="4.47755">
        <ele>82.5</ele>
        <time>2024-08-31T14:15:24.496Z</time>
      </trkpt>
      <trkpt lat="44.21879" lon="4.47755">
        <ele>82.7</ele>
        <time>2024-08-31T14:15:23.496Z</time>
      </trkpt>
      <trkpt lat="44.21879" lon="4.47756">
        <ele>82.7</ele>
        <time>2024-08-31T14:15:22.496Z</time>
      </trkpt>
      <trkpt lat="44.2188" lon="4.47756">
        <ele>82.7</ele>
        <time>2024-08-31T14:15:21.496Z</time>
      </trkpt>
      <trkpt lat="44.21881" lon="4.47756">
        <ele>82.8</ele>
        <time>2024-08-31T14:15:20.496Z</time>
      </trkpt>
      <trkpt lat="44.21882" lon="4.47756">
        <ele>83</ele>
        <time>2024-08-31T14:15:19.496Z</time>
      </trkpt>
      <trkpt lat="44.21883" lon="4.47757">
        <ele>83</ele>
        <time>2024-08-31T14:15:18.496Z</time>
      </trkpt>
      <trkpt lat="44.21884" lon="4.47758">
        <ele>83.2</ele>
        <time>2024-08-31T14:15:17.496Z</time>
      </trkpt>
      <trkpt lat="44.21885" lon="4.47759">
        <ele>83.4</ele>
        <time>2024-08-31T14:15:16.496Z</time>
      </trkpt>
      <trkpt lat="44.21886" lon="4.4776">
        <ele>83.4</ele>
        <time>2024-08-31T14:15:15.496Z</time>
      </trkpt>
      <trkpt lat="44.21886" lon="4.47761">
        <ele>83.5</ele>
        <time>2024-08-31T14:15:14.496Z</time>
      </trkpt>
      <trkpt lat="44.21886" lon="4.47762">
        <ele>83.7</ele>
        <time>2024-08-31T14:15:13.496Z</time>
      </trkpt>
      <trkpt lat="44.21887" lon="4.47763">
        <ele>83.7</ele>
        <time>2024-08-31T14:15:12.496Z</time>
      </trkpt>
      <trkpt lat="44.21888" lon="4.47764">
        <ele>84</ele>
        <time>2024-08-31T14:15:11.496Z</time>
      </trkpt>
      <trkpt lat="44.21889" lon="4.47764">
        <ele>84</ele>
        <time>2024-08-31T14:15:10.496Z</time>
      </trkpt>
      <trkpt lat="44.21889" lon="4.47763">
        <ele>84</ele>
        <time>2024-08-31T14:15:09.496Z</time>
      </trkpt>
      <trkpt lat="44.2189" lon="4.47762">
        <ele>84.1</ele>
        <time>2024-08-31T14:15:08.496Z</time>
      </trkpt>
      <trkpt lat="44.2189" lon="4.4776">
        <ele>83.8</ele>
        <time>2024-08-31T14:15:07.496Z</time>
      </trkpt>
      <trkpt lat="44.2189" lon="4.47759">
        <ele>83.8</ele>
        <time>2024-08-31T14:15:06.496Z</time>
      </trkpt>
      <trkpt lat="44.2189" lon="4.47757">
        <ele>83.8</ele>
        <time>2024-08-31T14:15:05.496Z</time>
      </trkpt>
      <trkpt lat="44.21891" lon="4.47755">
        <ele>83.5</ele>
        <time>2024-08-31T14:15:04.496Z</time>
      </trkpt>
      <trkpt lat="44.2189" lon="4.47753">
        <ele>83.3</ele>
        <time>2024-08-31T14:15:03.496Z</time>
      </trkpt>
      <trkpt lat="44.2189" lon="4.4775">
        <ele>83.3</ele>
        <time>2024-08-31T14:15:02.496Z</time>
      </trkpt>
      <trkpt lat="44.2189" lon="4.47749">
        <ele>83.3</ele>
        <time>2024-08-31T14:15:01.496Z</time>
      </trkpt>
      <trkpt lat="44.2189" lon="4.47748">
        <ele>83.1</ele>
        <time>2024-08-31T14:15:00.496Z</time>
      </trkpt>
      <trkpt lat="44.21889" lon="4.47745">
        <ele>83.1</ele>
        <time>2024-08-31T14:14:59.496Z</time>
      </trkpt>
      <trkpt lat="44.21889" lon="4.47744">
        <ele>83</ele>
        <time>2024-08-31T14:14:58.496Z</time>
      </trkpt>
      <trkpt lat="44.21888" lon="4.4774">
        <ele>82.9</ele>
        <time>2024-08-31T14:14:57.496Z</time>
      </trkpt>
      <trkpt lat="44.21887" lon="4.47739">
        <ele>82.9</ele>
        <time>2024-08-31T14:14:56.496Z</time>
      </trkpt>
      <trkpt lat="44.21886" lon="4.47735">
        <ele>82.8</ele>
        <time>2024-08-31T14:14:55.496Z</time>
      </trkpt>
      <trkpt lat="44.21887" lon="4.47733">
        <ele>82.8</ele>
        <time>2024-08-31T14:14:54.496Z</time>
      </trkpt>
      <trkpt lat="44.21887" lon="4.47731">
        <ele>82.7</ele>
        <time>2024-08-31T14:14:53.496Z</time>
      </trkpt>
      <trkpt lat="44.21887" lon="4.4773">
        <ele>82.7</ele>
        <time>2024-08-31T14:14:52.496Z</time>
      </trkpt>
      <trkpt lat="44.21888" lon="4.47729">
        <ele>82.6</ele>
        <time>2024-08-31T14:14:51.496Z</time>
      </trkpt>
      <trkpt lat="44.21889" lon="4.47729">
        <ele>82.6</ele>
        <time>2024-08-31T14:14:50.496Z</time>
      </trkpt>
      <trkpt lat="44.2189" lon="4.4773">
        <ele>82.6</ele>
        <time>2024-08-31T14:14:49.496Z</time>
      </trkpt>
      <trkpt lat="44.21891" lon="4.47732">
        <ele>82.6</ele>
        <time>2024-08-31T14:14:48.496Z</time>
      </trkpt>
      <trkpt lat="44.21891" lon="4.47733">
        <ele>82.6</ele>
        <time>2024-08-31T14:14:47.496Z</time>
      </trkpt>
      <trkpt lat="44.21892" lon="4.47735">
        <ele>82.5</ele>
        <time>2024-08-31T14:14:46.496Z</time>
      </trkpt>
      <trkpt lat="44.21893" lon="4.47737">
        <ele>82.5</ele>
        <time>2024-08-31T14:14:45.496Z</time>
      </trkpt>
      <trkpt lat="44.21894" lon="4.4774">
        <ele>82.5</ele>
        <time>2024-08-31T14:14:44.496Z</time>
      </trkpt>
      <trkpt lat="44.21896" lon="4.47741">
        <ele>82.5</ele>
        <time>2024-08-31T14:14:43.496Z</time>
      </trkpt>
      <trkpt lat="44.21897" lon="4.47741">
        <ele>82.5</ele>
        <time>2024-08-31T14:14:42.496Z</time>
      </trkpt>
      <trkpt lat="44.21897" lon="4.47741">
        <ele>82.5</ele>
        <time>2024-08-31T14:14:41.496Z</time>
      </trkpt>
      <trkpt lat="44.21899" lon="4.47741">
        <ele>82.4</ele>
        <time>2024-08-31T14:14:40.496Z</time>
      </trkpt>
      <trkpt lat="44.219" lon="4.47742">
        <ele>82.4</ele>
        <time>2024-08-31T14:14:39.496Z</time>
      </trkpt>
      <trkpt lat="44.21901" lon="4.47743">
        <ele>82.4</ele>
        <time>2024-08-31T14:14:38.496Z</time>
      </trkpt>
      <trkpt lat="44.21902" lon="4.47744">
        <ele>82.4</ele>
        <time>2024-08-31T14:14:37.496Z</time>
      </trkpt>
      <trkpt lat="44.21904" lon="4.47745">
        <ele>82.4</ele>
        <time>2024-08-31T14:14:36.496Z</time>
      </trkpt>
      <trkpt lat="44.21905" lon="4.47746">
        <ele>82.3</ele>
        <time>2024-08-31T14:14:35.496Z</time>
      </trkpt>
      <trkpt lat="44.21905" lon="4.47747">
        <ele>82.3</ele>
        <time>2024-08-31T14:14:34.496Z</time>
      </trkpt>
      <trkpt lat="44.21906" lon="4.47748">
        <ele>82.2</ele>
        <time>2024-08-31T14:14:33.496Z</time>
      </trkpt>
      <trkpt lat="44.21906" lon="4.47748">
        <ele>82.2</ele>
        <time>2024-08-31T14:14:32.496Z</time>
      </trkpt>
      <trkpt lat="44.21906" lon="4.47748">
        <ele>82.2</ele>
        <time>2024-08-31T14:14:31.496Z</time>
      </trkpt>
      <trkpt lat="44.21906" lon="4.47748">
        <ele>82.2</ele>
        <time>2024-08-31T14:14:30.496Z</time>
      </trkpt>
      <trkpt lat="44.21906" lon="4.47748">
        <ele>82.2</ele>
        <time>2024-08-31T14:14:29.496Z</time>
      </trkpt>
      <trkpt lat="44.21906" lon="4.47749">
        <ele>82.2</ele>
        <time>2024-08-31T14:14:28.496Z</time>
      </trkpt>
      <trkpt lat="44.21906" lon="4.47749">
        <ele>82.2</ele>
        <time>2024-08-31T14:14:27.496Z</time>
      </trkpt>
      <trkpt lat="44.21906" lon="4.4775">
        <ele>82.2</ele>
        <time>2024-08-31T14:14:26.496Z</time>
      </trkpt>
      <trkpt lat="44.21906" lon="4.4775">
        <ele>82.2</ele>
        <time>2024-08-31T14:14:25.496Z</time>
      </trkpt>
      <trkpt lat="44.21907" lon="4.4775">
        <ele>82.2</ele>
        <time>2024-08-31T14:14:24.496Z</time>
      </trkpt>
      <trkpt lat="44.21907" lon="4.4775">
        <ele>82.1</ele>
        <time>2024-08-31T14:14:23.496Z</time>
      </trkpt>
      <trkpt lat="44.21907" lon="4.47751">
        <ele>82.1</ele>
        <time>2024-08-31T14:14:22.496Z</time>
      </trkpt>
      <trkpt lat="44.21907" lon="4.47751">
        <ele>82.1</ele>
        <time>2024-08-31T14:14:21.496Z</time>
      </trkpt>
      <trkpt lat="44.21908" lon="4.47751">
        <ele>82.1</ele>
        <time>2024-08-31T14:14:20.496Z</time>
      </trkpt>
      <trkpt lat="44.21909" lon="4.47751">
        <ele>82.1</ele>
        <time>2024-08-31T14:14:19.496Z</time>
      </trkpt>
      <trkpt lat="44.21909" lon="4.47752">
        <ele>82</ele>
        <time>2024-08-31T14:14:18.496Z</time>
      </trkpt>
      <trkpt lat="44.21911" lon="4.47753">
        <ele>82</ele>
        <time>2024-08-31T14:14:17.496Z</time>
      </trkpt>
      <trkpt lat="44.21912" lon="4.47754">
        <ele>81.9</ele>
        <time>2024-08-31T14:14:16.496Z</time>
      </trkpt>
      <trkpt lat="44.21913" lon="4.47755">
        <ele>81.8</ele>
        <time>2024-08-31T14:14:15.496Z</time>
      </trkpt>
      <trkpt lat="44.21916" lon="4.47755">
        <ele>81.7</ele>
        <time>2024-08-31T14:14:14.496Z</time>
      </trkpt>
      <trkpt lat="44.21918" lon="4.47755">
        <ele>81.7</ele>
        <time>2024-08-31T14:14:13.496Z</time>
      </trkpt>
      <trkpt lat="44.21919" lon="4.47754">
        <ele>81.6</ele>
        <time>2024-08-31T14:14:12.496Z</time>
      </trkpt>
      <trkpt lat="44.21921" lon="4.47755">
        <ele>81.6</ele>
        <time>2024-08-31T14:14:11.496Z</time>
      </trkpt>
      <trkpt lat="44.21922" lon="4.47756">
        <ele>81.5</ele>
        <time>2024-08-31T14:14:10.496Z</time>
      </trkpt>
      <trkpt lat="44.21923" lon="4.47757">
        <ele>81.5</ele>
        <time>2024-08-31T14:14:09.496Z</time>
      </trkpt>
      <trkpt lat="44.21925" lon="4.47758">
        <ele>81.4</ele>
        <time>2024-08-31T14:14:08.496Z</time>
      </trkpt>
      <trkpt lat="44.21927" lon="4.47759">
        <ele>81.3</ele>
        <time>2024-08-31T14:14:07.496Z</time>
      </trkpt>
      <trkpt lat="44.21928" lon="4.47761">
        <ele>81.3</ele>
        <time>2024-08-31T14:14:06.496Z</time>
      </trkpt>
      <trkpt lat="44.21929" lon="4.47762">
        <ele>81.2</ele>
        <time>2024-08-31T14:14:05.496Z</time>
      </trkpt>
      <trkpt lat="44.2193" lon="4.47764">
        <ele>81.2</ele>
        <time>2024-08-31T14:14:04.496Z</time>
      </trkpt>
      <trkpt lat="44.21932" lon="4.47765">
        <ele>81.1</ele>
        <time>2024-08-31T14:14:03.496Z</time>
      </trkpt>
      <trkpt lat="44.21933" lon="4.47767">
        <ele>81.1</ele>
        <time>2024-08-31T14:14:02.496Z</time>
      </trkpt>
      <trkpt lat="44.21934" lon="4.47768">
        <ele>81</ele>
        <time>2024-08-31T14:14:01.496Z</time>
      </trkpt>
      <trkpt lat="44.21936" lon="4.47771">
        <ele>80.9</ele>
        <time>2024-08-31T14:14:00.496Z</time>
      </trkpt>
      <trkpt lat="44.21937" lon="4.47772">
        <ele>80.9</ele>
        <time>2024-08-31T14:13:59.496Z</time>
      </trkpt>
      <trkpt lat="44.21938" lon="4.47773">
        <ele>80.9</ele>
        <time>2024-08-31T14:13:58.496Z</time>
      </trkpt>
      <trkpt lat="44.2194" lon="4.47775">
        <ele>80.8</ele>
        <time>2024-08-31T14:13:57.496Z</time>
      </trkpt>
      <trkpt lat="44.2194" lon="4.47775">
        <ele>80.8</ele>
        <time>2024-08-31T14:13:56.496Z</time>
      </trkpt>
      <trkpt lat="44.21941" lon="4.47776">
        <ele>80.8</ele>
        <time>2024-08-31T14:13:55.496Z</time>
      </trkpt>
      <trkpt lat="44.21942" lon="4.47776">
        <ele>80.8</ele>
        <time>2024-08-31T14:13:54.496Z</time>
      </trkpt>
      <trkpt lat="44.21942" lon="4.47776">
        <ele>80.8</ele>
        <time>2024-08-31T14:13:53.496Z</time>
      </trkpt>
      <trkpt lat="44.21941" lon="4.47776">
        <ele>80.8</ele>
        <time>2024-08-31T14:13:52.496Z</time>
      </trkpt>
      <trkpt lat="44.21941" lon="4.47776">
        <ele>80.8</ele>
        <time>2024-08-31T14:13:51.496Z</time>
      </trkpt>
      <trkpt lat="44.21941" lon="4.47776">
        <ele>80.8</ele>
        <time>2024-08-31T14:13:50.496Z</time>
      </trkpt>
      <trkpt lat="44.21941" lon="4.47776">
        <ele>80.8</ele>
        <time>2024-08-31T14:13:49.496Z</time>
      </trkpt>
      <trkpt lat="44.21941" lon="4.47776">
        <ele>80.7</ele>
        <time>2024-08-31T14:13:48.496Z</time>
      </trkpt>
      <trkpt lat="44.21941" lon="4.47776">
        <ele>80.7</ele>
        <time>2024-08-31T14:13:47.496Z</time>
      </trkpt>
      <trkpt lat="44.21941" lon="4.47777">
        <ele>80.7</ele>
        <time>2024-08-31T14:13:46.496Z</time>
      </trkpt>
      <trkpt lat="44.21942" lon="4.47778">
        <ele>80.7</ele>
        <time>2024-08-31T14:13:45.496Z</time>
      </trkpt>
      <trkpt lat="44.21942" lon="4.47778">
        <ele>80.7</ele>
        <time>2024-08-31T14:13:44.496Z</time>
      </trkpt>
      <trkpt lat="44.21942" lon="4.47778">
        <ele>80.7</ele>
        <time>2024-08-31T14:13:43.496Z</time>
      </trkpt>
      <trkpt lat="44.21942" lon="4.47778">
        <ele>80.7</ele>
        <time>2024-08-31T14:13:42.496Z</time>
      </trkpt>
      <trkpt lat="44.21942" lon="4.47778">
        <ele>80.7</ele>
        <time>2024-08-31T14:13:41.496Z</time>
      </trkpt>
      <trkpt lat="44.21942" lon="4.47779">
        <ele>80.7</ele>
        <time>2024-08-31T14:13:40.496Z</time>
      </trkpt>
      <trkpt lat="44.21943" lon="4.47779">
        <ele>80.7</ele>
        <time>2024-08-31T14:13:39.496Z</time>
      </trkpt>
      <trkpt lat="44.21944" lon="4.4778">
        <ele>80.7</ele>
        <time>2024-08-31T14:13:38.496Z</time>
      </trkpt>
      <trkpt lat="44.21944" lon="4.47781">
        <ele>80.6</ele>
        <time>2024-08-31T14:13:37.496Z</time>
      </trkpt>
      <trkpt lat="44.21945" lon="4.47782">
        <ele>80.6</ele>
        <time>2024-08-31T14:13:36.496Z</time>
      </trkpt>
      <trkpt lat="44.21946" lon="4.47782">
        <ele>80.6</ele>
        <time>2024-08-31T14:13:35.496Z</time>
      </trkpt>
      <trkpt lat="44.21948" lon="4.47784">
        <ele>80.6</ele>
        <time>2024-08-31T14:13:34.496Z</time>
      </trkpt>
      <trkpt lat="44.21949" lon="4.47786">
        <ele>80.6</ele>
        <time>2024-08-31T14:13:33.496Z</time>
      </trkpt>
      <trkpt lat="44.21949" lon="4.47787">
        <ele>80.5</ele>
        <time>2024-08-31T14:13:32.496Z</time>
      </trkpt>
      <trkpt lat="44.2195" lon="4.47788">
        <ele>80.5</ele>
        <time>2024-08-31T14:13:31.496Z</time>
      </trkpt>
      <trkpt lat="44.21952" lon="4.47791">
        <ele>80.5</ele>
        <time>2024-08-31T14:13:30.496Z</time>
      </trkpt>
      <trkpt lat="44.21952" lon="4.47792">
        <ele>80.5</ele>
        <time>2024-08-31T14:13:29.496Z</time>
      </trkpt>
      <trkpt lat="44.21955" lon="4.47796">
        <ele>80.4</ele>
        <time>2024-08-31T14:13:28.496Z</time>
      </trkpt>
      <trkpt lat="44.21955" lon="4.47797">
        <ele>80.4</ele>
        <time>2024-08-31T14:13:27.496Z</time>
      </trkpt>
      <trkpt lat="44.21958" lon="4.47799">
        <ele>80.4</ele>
        <time>2024-08-31T14:13:26.496Z</time>
      </trkpt>
      <trkpt lat="44.21958" lon="4.478">
        <ele>80.4</ele>
        <time>2024-08-31T14:13:25.496Z</time>
      </trkpt>
      <trkpt lat="44.21961" lon="4.47803">
        <ele>80.4</ele>
        <time>2024-08-31T14:13:24.496Z</time>
      </trkpt>
      <trkpt lat="44.21962" lon="4.47804">
        <ele>80.4</ele>
        <time>2024-08-31T14:13:23.496Z</time>
      </trkpt>
      <trkpt lat="44.21964" lon="4.47807">
        <ele>80.3</ele>
        <time>2024-08-31T14:13:22.496Z</time>
      </trkpt>
      <trkpt lat="44.21965" lon="4.47808">
        <ele>80.3</ele>
        <time>2024-08-31T14:13:21.496Z</time>
      </trkpt>
      <trkpt lat="44.21967" lon="4.47811">
        <ele>80.3</ele>
        <time>2024-08-31T14:13:20.496Z</time>
      </trkpt>
      <trkpt lat="44.21968" lon="4.47812">
        <ele>80.3</ele>
        <time>2024-08-31T14:13:19.496Z</time>
      </trkpt>
      <trkpt lat="44.2197" lon="4.47816">
        <ele>80.4</ele>
        <time>2024-08-31T14:13:18.496Z</time>
      </trkpt>
      <trkpt lat="44.21971" lon="4.47817">
        <ele>80.4</ele>
        <time>2024-08-31T14:13:17.496Z</time>
      </trkpt>
      <trkpt lat="44.21973" lon="4.4782">
        <ele>80.4</ele>
        <time>2024-08-31T14:13:16.496Z</time>
      </trkpt>
      <trkpt lat="44.21974" lon="4.47821">
        <ele>80.4</ele>
        <time>2024-08-31T14:13:15.496Z</time>
      </trkpt>
      <trkpt lat="44.21976" lon="4.47824">
        <ele>80.4</ele>
        <time>2024-08-31T14:13:14.496Z</time>
      </trkpt>
      <trkpt lat="44.21976" lon="4.47825">
        <ele>80.4</ele>
        <time>2024-08-31T14:13:13.496Z</time>
      </trkpt>
      <trkpt lat="44.21978" lon="4.47827">
        <ele>80.4</ele>
        <time>2024-08-31T14:13:12.496Z</time>
      </trkpt>
      <trkpt lat="44.21979" lon="4.47828">
        <ele>80.4</ele>
        <time>2024-08-31T14:13:11.496Z</time>
      </trkpt>
      <trkpt lat="44.21981" lon="4.47831">
        <ele>80.5</ele>
        <time>2024-08-31T14:13:10.496Z</time>
      </trkpt>
      <trkpt lat="44.21982" lon="4.47832">
        <ele>80.5</ele>
        <time>2024-08-31T14:13:09.496Z</time>
      </trkpt>
      <trkpt lat="44.21985" lon="4.47834">
        <ele>80.5</ele>
        <time>2024-08-31T14:13:08.496Z</time>
      </trkpt>
      <trkpt lat="44.21986" lon="4.47835">
        <ele>80.5</ele>
        <time>2024-08-31T14:13:07.496Z</time>
      </trkpt>
      <trkpt lat="44.21988" lon="4.47837">
        <ele>80.5</ele>
        <time>2024-08-31T14:13:06.496Z</time>
      </trkpt>
      <trkpt lat="44.21989" lon="4.47838">
        <ele>80.5</ele>
        <time>2024-08-31T14:13:05.496Z</time>
      </trkpt>
      <trkpt lat="44.21991" lon="4.4784">
        <ele>80.5</ele>
        <time>2024-08-31T14:13:04.496Z</time>
      </trkpt>
      <trkpt lat="44.21991" lon="4.47841">
        <ele>80.6</ele>
        <time>2024-08-31T14:13:03.496Z</time>
      </trkpt>
      <trkpt lat="44.21993" lon="4.47844">
        <ele>80.6</ele>
        <time>2024-08-31T14:13:02.496Z</time>
      </trkpt>
      <trkpt lat="44.21994" lon="4.47844">
        <ele>80.6</ele>
        <time>2024-08-31T14:13:01.496Z</time>
      </trkpt>
      <trkpt lat="44.21996" lon="4.47847">
        <ele>80.6</ele>
        <time>2024-08-31T14:13:00.496Z</time>
      </trkpt>
      <trkpt lat="44.21997" lon="4.47848">
        <ele>80.6</ele>
        <time>2024-08-31T14:12:59.496Z</time>
      </trkpt>
      <trkpt lat="44.21999" lon="4.4785">
        <ele>80.6</ele>
        <time>2024-08-31T14:12:58.496Z</time>
      </trkpt>
      <trkpt lat="44.22" lon="4.47851">
        <ele>80.6</ele>
        <time>2024-08-31T14:12:57.496Z</time>
      </trkpt>
      <trkpt lat="44.22003" lon="4.47853">
        <ele>80.7</ele>
        <time>2024-08-31T14:12:56.496Z</time>
      </trkpt>
      <trkpt lat="44.22003" lon="4.47854">
        <ele>80.7</ele>
        <time>2024-08-31T14:12:55.496Z</time>
      </trkpt>
      <trkpt lat="44.22006" lon="4.47856">
        <ele>80.7</ele>
        <time>2024-08-31T14:12:54.496Z</time>
      </trkpt>
      <trkpt lat="44.22007" lon="4.47857">
        <ele>80.7</ele>
        <time>2024-08-31T14:12:53.496Z</time>
      </trkpt>
      <trkpt lat="44.22009" lon="4.4786">
        <ele>80.7</ele>
        <time>2024-08-31T14:12:52.496Z</time>
      </trkpt>
      <trkpt lat="44.2201" lon="4.47861">
        <ele>80.7</ele>
        <time>2024-08-31T14:12:51.496Z</time>
      </trkpt>
      <trkpt lat="44.22013" lon="4.47863">
        <ele>80.7</ele>
        <time>2024-08-31T14:12:50.496Z</time>
      </trkpt>
      <trkpt lat="44.22013" lon="4.47864">
        <ele>80.7</ele>
        <time>2024-08-31T14:12:49.496Z</time>
      </trkpt>
      <trkpt lat="44.22016" lon="4.47867">
        <ele>80.8</ele>
        <time>2024-08-31T14:12:48.496Z</time>
      </trkpt>
      <trkpt lat="44.22017" lon="4.47868">
        <ele>80.8</ele>
        <time>2024-08-31T14:12:47.496Z</time>
      </trkpt>
      <trkpt lat="44.22019" lon="4.4787">
        <ele>80.8</ele>
        <time>2024-08-31T14:12:46.496Z</time>
      </trkpt>
      <trkpt lat="44.2202" lon="4.47871">
        <ele>80.8</ele>
        <time>2024-08-31T14:12:45.496Z</time>
      </trkpt>
      <trkpt lat="44.22021" lon="4.47873">
        <ele>80.8</ele>
        <time>2024-08-31T14:12:44.496Z</time>
      </trkpt>
      <trkpt lat="44.22023" lon="4.47874">
        <ele>80.8</ele>
        <time>2024-08-31T14:12:43.496Z</time>
      </trkpt>
      <trkpt lat="44.22024" lon="4.47875">
        <ele>80.9</ele>
        <time>2024-08-31T14:12:42.496Z</time>
      </trkpt>
      <trkpt lat="44.22025" lon="4.47875">
        <ele>80.9</ele>
        <time>2024-08-31T14:12:41.496Z</time>
      </trkpt>
      <trkpt lat="44.22028" lon="4.47878">
        <ele>80.9</ele>
        <time>2024-08-31T14:12:40.496Z</time>
      </trkpt>
      <trkpt lat="44.22029" lon="4.47879">
        <ele>80.9</ele>
        <time>2024-08-31T14:12:39.496Z</time>
      </trkpt>
      <trkpt lat="44.22031" lon="4.47883">
        <ele>81</ele>
        <time>2024-08-31T14:12:38.496Z</time>
      </trkpt>
      <trkpt lat="44.22032" lon="4.47884">
        <ele>81</ele>
        <time>2024-08-31T14:12:37.496Z</time>
      </trkpt>
      <trkpt lat="44.22034" lon="4.47889">
        <ele>81</ele>
        <time>2024-08-31T14:12:36.496Z</time>
      </trkpt>
      <trkpt lat="44.22034" lon="4.4789">
        <ele>81</ele>
        <time>2024-08-31T14:12:35.496Z</time>
      </trkpt>
      <trkpt lat="44.22034" lon="4.47894">
        <ele>81</ele>
        <time>2024-08-31T14:12:34.496Z</time>
      </trkpt>
      <trkpt lat="44.22034" lon="4.47896">
        <ele>81</ele>
        <time>2024-08-31T14:12:33.496Z</time>
      </trkpt>
      <trkpt lat="44.22034" lon="4.479">
        <ele>81.1</ele>
        <time>2024-08-31T14:12:32.496Z</time>
      </trkpt>
      <trkpt lat="44.22034" lon="4.47902">
        <ele>81.1</ele>
        <time>2024-08-31T14:12:31.496Z</time>
      </trkpt>
      <trkpt lat="44.22032" lon="4.47906">
        <ele>81.1</ele>
        <time>2024-08-31T14:12:30.496Z</time>
      </trkpt>
      <trkpt lat="44.22032" lon="4.47907">
        <ele>81.1</ele>
        <time>2024-08-31T14:12:29.496Z</time>
      </trkpt>
      <trkpt lat="44.2203" lon="4.47911">
        <ele>81</ele>
        <time>2024-08-31T14:12:28.496Z</time>
      </trkpt>
      <trkpt lat="44.22029" lon="4.47912">
        <ele>81</ele>
        <time>2024-08-31T14:12:27.496Z</time>
      </trkpt>
      <trkpt lat="44.22026" lon="4.47913">
        <ele>81</ele>
        <time>2024-08-31T14:12:26.496Z</time>
      </trkpt>
      <trkpt lat="44.22025" lon="4.47914">
        <ele>81</ele>
        <time>2024-08-31T14:12:25.496Z</time>
      </trkpt>
      <trkpt lat="44.22024" lon="4.47916">
        <ele>81</ele>
        <time>2024-08-31T14:12:24.496Z</time>
      </trkpt>
      <trkpt lat="44.22023" lon="4.47919">
        <ele>81</ele>
        <time>2024-08-31T14:12:23.496Z</time>
      </trkpt>
      <trkpt lat="44.22023" lon="4.47921">
        <ele>81</ele>
        <time>2024-08-31T14:12:22.496Z</time>
      </trkpt>
      <trkpt lat="44.22022" lon="4.47922">
        <ele>80.9</ele>
        <time>2024-08-31T14:12:21.496Z</time>
      </trkpt>
      <trkpt lat="44.22021" lon="4.47924">
        <ele>80.9</ele>
        <time>2024-08-31T14:12:20.496Z</time>
      </trkpt>
      <trkpt lat="44.2202" lon="4.47925">
        <ele>80.9</ele>
        <time>2024-08-31T14:12:19.496Z</time>
      </trkpt>
      <trkpt lat="44.22018" lon="4.47929">
        <ele>80.9</ele>
        <time>2024-08-31T14:12:18.496Z</time>
      </trkpt>
      <trkpt lat="44.22018" lon="4.47931">
        <ele>80.9</ele>
        <time>2024-08-31T14:12:17.496Z</time>
      </trkpt>
      <trkpt lat="44.22017" lon="4.47935">
        <ele>80.9</ele>
        <time>2024-08-31T14:12:16.496Z</time>
      </trkpt>
      <trkpt lat="44.22016" lon="4.47936">
        <ele>80.9</ele>
        <time>2024-08-31T14:12:15.496Z</time>
      </trkpt>
      <trkpt lat="44.22015" lon="4.47941">
        <ele>80.9</ele>
        <time>2024-08-31T14:12:14.496Z</time>
      </trkpt>
      <trkpt lat="44.22015" lon="4.47942">
        <ele>80.9</ele>
        <time>2024-08-31T14:12:13.496Z</time>
      </trkpt>
      <trkpt lat="44.22013" lon="4.47945">
        <ele>80.8</ele>
        <time>2024-08-31T14:12:12.496Z</time>
      </trkpt>
      <trkpt lat="44.22012" lon="4.47946">
        <ele>80.8</ele>
        <time>2024-08-31T14:12:11.496Z</time>
      </trkpt>
      <trkpt lat="44.2201" lon="4.4795">
        <ele>80.8</ele>
        <time>2024-08-31T14:12:10.496Z</time>
      </trkpt>
      <trkpt lat="44.22009" lon="4.47951">
        <ele>80.8</ele>
        <time>2024-08-31T14:12:09.496Z</time>
      </trkpt>
      <trkpt lat="44.22007" lon="4.47955">
        <ele>80.8</ele>
        <time>2024-08-31T14:12:08.496Z</time>
      </trkpt>
      <trkpt lat="44.22007" lon="4.47956">
        <ele>80.8</ele>
        <time>2024-08-31T14:12:07.496Z</time>
      </trkpt>
      <trkpt lat="44.22004" lon="4.4796">
        <ele>80.8</ele>
        <time>2024-08-31T14:12:06.496Z</time>
      </trkpt>
      <trkpt lat="44.22004" lon="4.47961">
        <ele>80.8</ele>
        <time>2024-08-31T14:12:05.496Z</time>
      </trkpt>
      <trkpt lat="44.22002" lon="4.47965">
        <ele>80.8</ele>
        <time>2024-08-31T14:12:04.496Z</time>
      </trkpt>
      <trkpt lat="44.22001" lon="4.47967">
        <ele>80.8</ele>
        <time>2024-08-31T14:12:03.496Z</time>
      </trkpt>
      <trkpt lat="44.22001" lon="4.4797">
        <ele>80.8</ele>
        <time>2024-08-31T14:12:02.496Z</time>
      </trkpt>
      <trkpt lat="44.22001" lon="4.47971">
        <ele>80.8</ele>
        <time>2024-08-31T14:12:01.496Z</time>
      </trkpt>
      <trkpt lat="44.22001" lon="4.47972">
        <ele>80.8</ele>
        <time>2024-08-31T14:12:00.496Z</time>
      </trkpt>
      <trkpt lat="44.22002" lon="4.47975">
        <ele>80.8</ele>
        <time>2024-08-31T14:11:59.496Z</time>
      </trkpt>
      <trkpt lat="44.22003" lon="4.47975">
        <ele>80.8</ele>
        <time>2024-08-31T14:11:58.496Z</time>
      </trkpt>
      <trkpt lat="44.22003" lon="4.47977">
        <ele>80.8</ele>
        <time>2024-08-31T14:11:57.496Z</time>
      </trkpt>
      <trkpt lat="44.22003" lon="4.47979">
        <ele>80.8</ele>
        <time>2024-08-31T14:11:56.496Z</time>
      </trkpt>
      <trkpt lat="44.22003" lon="4.47981">
        <ele>80.8</ele>
        <time>2024-08-31T14:11:55.496Z</time>
      </trkpt>
      <trkpt lat="44.22002" lon="4.47982">
        <ele>80.8</ele>
        <time>2024-08-31T14:11:54.496Z</time>
      </trkpt>
      <trkpt lat="44.22001" lon="4.47984">
        <ele>80.8</ele>
        <time>2024-08-31T14:11:53.496Z</time>
      </trkpt>
      <trkpt lat="44.22" lon="4.47988">
        <ele>77</ele>
        <time>2024-08-31T14:11:55.209Z</time>
      </trkpt>
      <trkpt lat="44.22001" lon="4.47991">
        <ele>77</ele>
        <time>2024-08-31T14:11:56.547Z</time>
        <extensions>
          <visugpx:TrkExtension xmlns:visugpx="https://www.visugpx.com/editgpx/">
            <visugpx:node>1</visugpx:node>
            </visugpx:TrkExtension>
        </extensions>
      </trkpt>
    </trkseg>
  </trk>
</gpx>